<?xml version="1.0" encoding="UTF-8" standalone="no" ?>
<gpx xmlns="http://www.topografix.com/GPX/1/1" xmlns:xsi="http://www.w3.org/2001/XMLSchema-instance" xsi:schemaLocation="http://www.topografix.com/GPX/1/1 http://www.topografix.com/GPX/1/1/gpx.xsd" version="1.1" creator="VisuGPX - https://www.visugpx.com">
  <metadata>
    <name>Descente dans les Gorges de la Truyere</name>
    <desc><![CDATA[trace roulée en aout 2024, pas mal de route malheureusement mais vu la région il n'y a pas beaucoup de singles vtt dans les coins.
la plupart des montées sont roulantes sauf 2 qui sont tres technique et necessiteront peut etre un portage sur 100/200m mais c'est tout.
derniere descente bien entretenue typée enduro qui ravira les vttistes, attention tout de meme on peut y croiser des marcheurs]]></desc>
  </metadata>
  <trk>
    <name><![CDATA[Descente dans les Gorges de la Truyere_1]]></name>
    <trkseg>
      <trkpt lat="44.64387" lon="2.56359">
        <ele>230.1</ele>
        <time>2024-08-14T07:45:16Z</time>
      </trkpt>
      <trkpt lat="44.64387" lon="2.56363">
        <ele>230.1</ele>
        <time>2024-08-14T07:45:17Z</time>
      </trkpt>
      <trkpt lat="44.64388" lon="2.56367">
        <ele>230.1</ele>
        <time>2024-08-14T07:45:18Z</time>
      </trkpt>
      <trkpt lat="44.6439" lon="2.56374">
        <ele>230.1</ele>
        <time>2024-08-14T07:45:20Z</time>
      </trkpt>
      <trkpt lat="44.64392" lon="2.56382">
        <ele>230.2</ele>
        <time>2024-08-14T07:45:22Z</time>
      </trkpt>
      <trkpt lat="44.64392" lon="2.56385">
        <ele>230.2</ele>
        <time>2024-08-14T07:45:23Z</time>
      </trkpt>
      <trkpt lat="44.64392" lon="2.56389">
        <ele>230.2</ele>
        <time>2024-08-14T07:45:24Z</time>
      </trkpt>
      <trkpt lat="44.64393" lon="2.56398">
        <ele>230.3</ele>
        <time>2024-08-14T07:45:26Z</time>
      </trkpt>
      <trkpt lat="44.64393" lon="2.56406">
        <ele>230.4</ele>
        <time>2024-08-14T07:45:28Z</time>
      </trkpt>
      <trkpt lat="44.64393" lon="2.56414">
        <ele>230.5</ele>
        <time>2024-08-14T07:45:30Z</time>
      </trkpt>
      <trkpt lat="44.64392" lon="2.56422">
        <ele>230.6</ele>
        <time>2024-08-14T07:45:32Z</time>
      </trkpt>
      <trkpt lat="44.64391" lon="2.56429">
        <ele>230.7</ele>
        <time>2024-08-14T07:45:34Z</time>
      </trkpt>
      <trkpt lat="44.6439" lon="2.56437">
        <ele>230.8</ele>
        <time>2024-08-14T07:45:36Z</time>
      </trkpt>
      <trkpt lat="44.6439" lon="2.56441">
        <ele>230.8</ele>
        <time>2024-08-14T07:45:37Z</time>
      </trkpt>
      <trkpt lat="44.6439" lon="2.56445">
        <ele>230.8</ele>
        <time>2024-08-14T07:45:38Z</time>
      </trkpt>
      <trkpt lat="44.64389" lon="2.56452">
        <ele>230.9</ele>
        <time>2024-08-14T07:45:40Z</time>
      </trkpt>
      <trkpt lat="44.64388" lon="2.5646">
        <ele>231.1</ele>
        <time>2024-08-14T07:45:42Z</time>
      </trkpt>
      <trkpt lat="44.64387" lon="2.56468">
        <ele>231.2</ele>
        <time>2024-08-14T07:45:44Z</time>
      </trkpt>
      <trkpt lat="44.64386" lon="2.56476">
        <ele>231.3</ele>
        <time>2024-08-14T07:45:46Z</time>
      </trkpt>
      <trkpt lat="44.64386" lon="2.56484">
        <ele>231.4</ele>
        <time>2024-08-14T07:45:48Z</time>
      </trkpt>
      <trkpt lat="44.64386" lon="2.56491">
        <ele>231.5</ele>
        <time>2024-08-14T07:45:50Z</time>
      </trkpt>
      <trkpt lat="44.64386" lon="2.56498">
        <ele>231.6</ele>
        <time>2024-08-14T07:45:52Z</time>
      </trkpt>
      <trkpt lat="44.64387" lon="2.56505">
        <ele>231.7</ele>
        <time>2024-08-14T07:45:54Z</time>
      </trkpt>
      <trkpt lat="44.64387" lon="2.56511">
        <ele>231.7</ele>
        <time>2024-08-14T07:45:56Z</time>
      </trkpt>
      <trkpt lat="44.64387" lon="2.56517">
        <ele>231.7</ele>
        <time>2024-08-14T07:45:58Z</time>
      </trkpt>
      <trkpt lat="44.64387" lon="2.56521">
        <ele>231.7</ele>
        <time>2024-08-14T07:45:59Z</time>
      </trkpt>
      <trkpt lat="44.64387" lon="2.56524">
        <ele>231.7</ele>
        <time>2024-08-14T07:46:00Z</time>
      </trkpt>
      <trkpt lat="44.64386" lon="2.56528">
        <ele>231.4</ele>
        <time>2024-08-14T07:46:02Z</time>
      </trkpt>
      <trkpt lat="44.64384" lon="2.56532">
        <ele>231.1</ele>
        <time>2024-08-14T07:46:04Z</time>
      </trkpt>
      <trkpt lat="44.64383" lon="2.56535">
        <ele>230.8</ele>
        <time>2024-08-14T07:46:05Z</time>
      </trkpt>
      <trkpt lat="44.64382" lon="2.56538">
        <ele>230.6</ele>
        <time>2024-08-14T07:46:06Z</time>
      </trkpt>
      <trkpt lat="44.64381" lon="2.56547">
        <ele>229.9</ele>
        <time>2024-08-14T07:46:08Z</time>
      </trkpt>
      <trkpt lat="44.64381" lon="2.56551">
        <ele>229.5</ele>
        <time>2024-08-14T07:46:09Z</time>
      </trkpt>
      <trkpt lat="44.64379" lon="2.56555">
        <ele>229.2</ele>
        <time>2024-08-14T07:46:10Z</time>
      </trkpt>
      <trkpt lat="44.64377" lon="2.56558">
        <ele>229.2</ele>
        <time>2024-08-14T07:46:11Z</time>
      </trkpt>
      <trkpt lat="44.64374" lon="2.56558">
        <ele>229.1</ele>
        <time>2024-08-14T07:46:12Z</time>
      </trkpt>
      <trkpt lat="44.64367" lon="2.56555">
        <ele>229.1</ele>
        <time>2024-08-14T07:46:14Z</time>
      </trkpt>
      <trkpt lat="44.6436" lon="2.56553">
        <ele>229</ele>
        <time>2024-08-14T07:46:16Z</time>
      </trkpt>
      <trkpt lat="44.64357" lon="2.56551">
        <ele>229</ele>
        <time>2024-08-14T07:46:17Z</time>
      </trkpt>
      <trkpt lat="44.64353" lon="2.56549">
        <ele>229</ele>
        <time>2024-08-14T07:46:18Z</time>
      </trkpt>
      <trkpt lat="44.64347" lon="2.56544">
        <ele>229</ele>
        <time>2024-08-14T07:46:20Z</time>
      </trkpt>
      <trkpt lat="44.6434" lon="2.5654">
        <ele>229.1</ele>
        <time>2024-08-14T07:46:22Z</time>
      </trkpt>
      <trkpt lat="44.64334" lon="2.56536">
        <ele>229.2</ele>
        <time>2024-08-14T07:46:24Z</time>
      </trkpt>
      <trkpt lat="44.6433" lon="2.56533">
        <ele>229.3</ele>
        <time>2024-08-14T07:46:25Z</time>
      </trkpt>
      <trkpt lat="44.64327" lon="2.56531">
        <ele>229.4</ele>
        <time>2024-08-14T07:46:26Z</time>
      </trkpt>
      <trkpt lat="44.64321" lon="2.56527">
        <ele>229.6</ele>
        <time>2024-08-14T07:46:28Z</time>
      </trkpt>
      <trkpt lat="44.64318" lon="2.56525">
        <ele>229.6</ele>
        <time>2024-08-14T07:46:29Z</time>
      </trkpt>
      <trkpt lat="44.64315" lon="2.56524">
        <ele>229.8</ele>
        <time>2024-08-14T07:46:30Z</time>
      </trkpt>
      <trkpt lat="44.64307" lon="2.56523">
        <ele>230.2</ele>
        <time>2024-08-14T07:46:32Z</time>
      </trkpt>
      <trkpt lat="44.64304" lon="2.56524">
        <ele>230.4</ele>
        <time>2024-08-14T07:46:33Z</time>
      </trkpt>
      <trkpt lat="44.64301" lon="2.56525">
        <ele>230.5</ele>
        <time>2024-08-14T07:46:34Z</time>
      </trkpt>
      <trkpt lat="44.64295" lon="2.56527">
        <ele>230.9</ele>
        <time>2024-08-14T07:46:36Z</time>
      </trkpt>
      <trkpt lat="44.64289" lon="2.5653">
        <ele>231.2</ele>
        <time>2024-08-14T07:46:38Z</time>
      </trkpt>
      <trkpt lat="44.64287" lon="2.56531">
        <ele>231.3</ele>
        <time>2024-08-14T07:46:39Z</time>
      </trkpt>
      <trkpt lat="44.64285" lon="2.56533">
        <ele>231.4</ele>
        <time>2024-08-14T07:46:40Z</time>
      </trkpt>
      <trkpt lat="44.6428" lon="2.56535">
        <ele>231.7</ele>
        <time>2024-08-14T07:46:42Z</time>
      </trkpt>
      <trkpt lat="44.64276" lon="2.56538">
        <ele>232</ele>
        <time>2024-08-14T07:46:44Z</time>
      </trkpt>
      <trkpt lat="44.64273" lon="2.56546">
        <ele>232.1</ele>
        <time>2024-08-14T07:46:46Z</time>
      </trkpt>
      <trkpt lat="44.64272" lon="2.56555">
        <ele>232.3</ele>
        <time>2024-08-14T07:46:48Z</time>
      </trkpt>
      <trkpt lat="44.6427" lon="2.56564">
        <ele>232.4</ele>
        <time>2024-08-14T07:46:50Z</time>
      </trkpt>
      <trkpt lat="44.64268" lon="2.56572">
        <ele>232.6</ele>
        <time>2024-08-14T07:46:52Z</time>
      </trkpt>
      <trkpt lat="44.64265" lon="2.5658">
        <ele>232.9</ele>
        <time>2024-08-14T07:46:54Z</time>
      </trkpt>
      <trkpt lat="44.64263" lon="2.56584">
        <ele>233</ele>
        <time>2024-08-14T07:46:55Z</time>
      </trkpt>
      <trkpt lat="44.64261" lon="2.56588">
        <ele>233.2</ele>
        <time>2024-08-14T07:46:56Z</time>
      </trkpt>
      <trkpt lat="44.64258" lon="2.56594">
        <ele>233.4</ele>
        <time>2024-08-14T07:46:58Z</time>
      </trkpt>
      <trkpt lat="44.64255" lon="2.56601">
        <ele>233.7</ele>
        <time>2024-08-14T07:47:00Z</time>
      </trkpt>
      <trkpt lat="44.64251" lon="2.56607">
        <ele>234.1</ele>
        <time>2024-08-14T07:47:02Z</time>
      </trkpt>
      <trkpt lat="44.64248" lon="2.56614">
        <ele>234.4</ele>
        <time>2024-08-14T07:47:04Z</time>
      </trkpt>
      <trkpt lat="44.64244" lon="2.5662">
        <ele>234.7</ele>
        <time>2024-08-14T07:47:06Z</time>
      </trkpt>
      <trkpt lat="44.6424" lon="2.56627">
        <ele>235.1</ele>
        <time>2024-08-14T07:47:08Z</time>
      </trkpt>
      <trkpt lat="44.64237" lon="2.56634">
        <ele>235.3</ele>
        <time>2024-08-14T07:47:10Z</time>
      </trkpt>
      <trkpt lat="44.64235" lon="2.56642">
        <ele>235.6</ele>
        <time>2024-08-14T07:47:12Z</time>
      </trkpt>
      <trkpt lat="44.64233" lon="2.5665">
        <ele>235.9</ele>
        <time>2024-08-14T07:47:14Z</time>
      </trkpt>
      <trkpt lat="44.64232" lon="2.56659">
        <ele>236.1</ele>
        <time>2024-08-14T07:47:16Z</time>
      </trkpt>
      <trkpt lat="44.64229" lon="2.56666">
        <ele>236.3</ele>
        <time>2024-08-14T07:47:18Z</time>
      </trkpt>
      <trkpt lat="44.64226" lon="2.56674">
        <ele>236.5</ele>
        <time>2024-08-14T07:47:20Z</time>
      </trkpt>
      <trkpt lat="44.64224" lon="2.56681">
        <ele>236.7</ele>
        <time>2024-08-14T07:47:22Z</time>
      </trkpt>
      <trkpt lat="44.64222" lon="2.56689">
        <ele>236.9</ele>
        <time>2024-08-14T07:47:24Z</time>
      </trkpt>
      <trkpt lat="44.6422" lon="2.56693">
        <ele>236.9</ele>
        <time>2024-08-14T07:47:25Z</time>
      </trkpt>
      <trkpt lat="44.64219" lon="2.56697">
        <ele>237</ele>
        <time>2024-08-14T07:47:26Z</time>
      </trkpt>
      <trkpt lat="44.64215" lon="2.56703">
        <ele>237.1</ele>
        <time>2024-08-14T07:47:28Z</time>
      </trkpt>
      <trkpt lat="44.6421" lon="2.56709">
        <ele>237.2</ele>
        <time>2024-08-14T07:47:30Z</time>
      </trkpt>
      <trkpt lat="44.64207" lon="2.56712">
        <ele>237.2</ele>
        <time>2024-08-14T07:47:31Z</time>
      </trkpt>
      <trkpt lat="44.64202" lon="2.56718">
        <ele>237.4</ele>
        <time>2024-08-14T07:47:33Z</time>
      </trkpt>
      <trkpt lat="44.64197" lon="2.56724">
        <ele>237.5</ele>
        <time>2024-08-14T07:47:35Z</time>
      </trkpt>
      <trkpt lat="44.64193" lon="2.56731">
        <ele>237.7</ele>
        <time>2024-08-14T07:47:37Z</time>
      </trkpt>
      <trkpt lat="44.64191" lon="2.56734">
        <ele>237.8</ele>
        <time>2024-08-14T07:47:38Z</time>
      </trkpt>
      <trkpt lat="44.64189" lon="2.56738">
        <ele>237.9</ele>
        <time>2024-08-14T07:47:39Z</time>
      </trkpt>
      <trkpt lat="44.64186" lon="2.56744">
        <ele>238</ele>
        <time>2024-08-14T07:47:41Z</time>
      </trkpt>
      <trkpt lat="44.64182" lon="2.56752">
        <ele>238.2</ele>
        <time>2024-08-14T07:47:43Z</time>
      </trkpt>
      <trkpt lat="44.64179" lon="2.5676">
        <ele>238.4</ele>
        <time>2024-08-14T07:47:45Z</time>
      </trkpt>
      <trkpt lat="44.64175" lon="2.56768">
        <ele>238.5</ele>
        <time>2024-08-14T07:47:47Z</time>
      </trkpt>
      <trkpt lat="44.64171" lon="2.56775">
        <ele>238.7</ele>
        <time>2024-08-14T07:47:49Z</time>
      </trkpt>
      <trkpt lat="44.64167" lon="2.56782">
        <ele>238.9</ele>
        <time>2024-08-14T07:47:51Z</time>
      </trkpt>
      <trkpt lat="44.64163" lon="2.5679">
        <ele>239</ele>
        <time>2024-08-14T07:47:53Z</time>
      </trkpt>
      <trkpt lat="44.6416" lon="2.56798">
        <ele>239.2</ele>
        <time>2024-08-14T07:47:55Z</time>
      </trkpt>
      <trkpt lat="44.64158" lon="2.56801">
        <ele>239.3</ele>
        <time>2024-08-14T07:47:56Z</time>
      </trkpt>
      <trkpt lat="44.64156" lon="2.56805">
        <ele>239.4</ele>
        <time>2024-08-14T07:47:57Z</time>
      </trkpt>
      <trkpt lat="44.64153" lon="2.56812">
        <ele>239.5</ele>
        <time>2024-08-14T07:47:59Z</time>
      </trkpt>
      <trkpt lat="44.6415" lon="2.56819">
        <ele>239.7</ele>
        <time>2024-08-14T07:48:01Z</time>
      </trkpt>
      <trkpt lat="44.64148" lon="2.56822">
        <ele>239.9</ele>
        <time>2024-08-14T07:48:02Z</time>
      </trkpt>
      <trkpt lat="44.64146" lon="2.56826">
        <ele>240</ele>
        <time>2024-08-14T07:48:03Z</time>
      </trkpt>
      <trkpt lat="44.64141" lon="2.56831">
        <ele>240.2</ele>
        <time>2024-08-14T07:48:05Z</time>
      </trkpt>
      <trkpt lat="44.64135" lon="2.56835">
        <ele>240.5</ele>
        <time>2024-08-14T07:48:07Z</time>
      </trkpt>
      <trkpt lat="44.64129" lon="2.56837">
        <ele>240.8</ele>
        <time>2024-08-14T07:48:09Z</time>
      </trkpt>
      <trkpt lat="44.64123" lon="2.56837">
        <ele>241.1</ele>
        <time>2024-08-14T07:48:11Z</time>
      </trkpt>
      <trkpt lat="44.64121" lon="2.56836">
        <ele>241.2</ele>
        <time>2024-08-14T07:48:12Z</time>
      </trkpt>
      <trkpt lat="44.64119" lon="2.56835">
        <ele>241.3</ele>
        <time>2024-08-14T07:48:13Z</time>
      </trkpt>
      <trkpt lat="44.64115" lon="2.56834">
        <ele>241.4</ele>
        <time>2024-08-14T07:48:15Z</time>
      </trkpt>
      <trkpt lat="44.64112" lon="2.56834">
        <ele>241.6</ele>
        <time>2024-08-14T07:48:17Z</time>
      </trkpt>
      <trkpt lat="44.64108" lon="2.56834">
        <ele>241.7</ele>
        <time>2024-08-14T07:48:19Z</time>
      </trkpt>
      <trkpt lat="44.64105" lon="2.56834">
        <ele>241.9</ele>
        <time>2024-08-14T07:48:21Z</time>
      </trkpt>
      <trkpt lat="44.64101" lon="2.56834">
        <ele>242</ele>
        <time>2024-08-14T07:48:23Z</time>
      </trkpt>
      <trkpt lat="44.64098" lon="2.56836">
        <ele>242.2</ele>
        <time>2024-08-14T07:48:25Z</time>
      </trkpt>
      <trkpt lat="44.64094" lon="2.56837">
        <ele>242.3</ele>
        <time>2024-08-14T07:48:27Z</time>
      </trkpt>
      <trkpt lat="44.64091" lon="2.56838">
        <ele>242.4</ele>
        <time>2024-08-14T07:48:29Z</time>
      </trkpt>
      <trkpt lat="44.64088" lon="2.56839">
        <ele>242.6</ele>
        <time>2024-08-14T07:48:31Z</time>
      </trkpt>
      <trkpt lat="44.64087" lon="2.5684">
        <ele>242.7</ele>
        <time>2024-08-14T07:48:32Z</time>
      </trkpt>
      <trkpt lat="44.64085" lon="2.56842">
        <ele>242.8</ele>
        <time>2024-08-14T07:48:33Z</time>
      </trkpt>
      <trkpt lat="44.64082" lon="2.56843">
        <ele>243.1</ele>
        <time>2024-08-14T07:48:35Z</time>
      </trkpt>
      <trkpt lat="44.64078" lon="2.56845">
        <ele>243.3</ele>
        <time>2024-08-14T07:48:37Z</time>
      </trkpt>
      <trkpt lat="44.64073" lon="2.56847">
        <ele>243.2</ele>
        <time>2024-08-14T07:48:39Z</time>
      </trkpt>
      <trkpt lat="44.64068" lon="2.5685">
        <ele>242.9</ele>
        <time>2024-08-14T07:48:41Z</time>
      </trkpt>
      <trkpt lat="44.64063" lon="2.56857">
        <ele>242.5</ele>
        <time>2024-08-14T07:48:43Z</time>
      </trkpt>
      <trkpt lat="44.6406" lon="2.56861">
        <ele>242.3</ele>
        <time>2024-08-14T07:48:44Z</time>
      </trkpt>
      <trkpt lat="44.64058" lon="2.56864">
        <ele>242.1</ele>
        <time>2024-08-14T07:48:45Z</time>
      </trkpt>
      <trkpt lat="44.64053" lon="2.56872">
        <ele>241.6</ele>
        <time>2024-08-14T07:48:47Z</time>
      </trkpt>
      <trkpt lat="44.64047" lon="2.56881">
        <ele>241.2</ele>
        <time>2024-08-14T07:48:49Z</time>
      </trkpt>
      <trkpt lat="44.64042" lon="2.56889">
        <ele>240.8</ele>
        <time>2024-08-14T07:48:51Z</time>
      </trkpt>
      <trkpt lat="44.64035" lon="2.56899">
        <ele>240.4</ele>
        <time>2024-08-14T07:48:53Z</time>
      </trkpt>
      <trkpt lat="44.64027" lon="2.5691">
        <ele>240</ele>
        <time>2024-08-14T07:48:55Z</time>
      </trkpt>
      <trkpt lat="44.64023" lon="2.56915">
        <ele>239.8</ele>
        <time>2024-08-14T07:48:56Z</time>
      </trkpt>
      <trkpt lat="44.64018" lon="2.5692">
        <ele>239.7</ele>
        <time>2024-08-14T07:48:57Z</time>
      </trkpt>
      <trkpt lat="44.64008" lon="2.56929">
        <ele>239.5</ele>
        <time>2024-08-14T07:48:59Z</time>
      </trkpt>
      <trkpt lat="44.64004" lon="2.56933">
        <ele>239.4</ele>
        <time>2024-08-14T07:49:00Z</time>
      </trkpt>
      <trkpt lat="44.64001" lon="2.56938">
        <ele>239.3</ele>
        <time>2024-08-14T07:49:01Z</time>
      </trkpt>
      <trkpt lat="44.63998" lon="2.56942">
        <ele>239.3</ele>
        <time>2024-08-14T07:49:02Z</time>
      </trkpt>
      <trkpt lat="44.63994" lon="2.56945">
        <ele>239.3</ele>
        <time>2024-08-14T07:49:03Z</time>
      </trkpt>
      <trkpt lat="44.63987" lon="2.5695">
        <ele>239.8</ele>
        <time>2024-08-14T07:49:05Z</time>
      </trkpt>
      <trkpt lat="44.63984" lon="2.56951">
        <ele>240.1</ele>
        <time>2024-08-14T07:49:06Z</time>
      </trkpt>
      <trkpt lat="44.63981" lon="2.56951">
        <ele>240.3</ele>
        <time>2024-08-14T07:49:07Z</time>
      </trkpt>
      <trkpt lat="44.63978" lon="2.56951">
        <ele>240.6</ele>
        <time>2024-08-14T07:49:08Z</time>
      </trkpt>
      <trkpt lat="44.63975" lon="2.56951">
        <ele>240.8</ele>
        <time>2024-08-14T07:49:09Z</time>
      </trkpt>
      <trkpt lat="44.63971" lon="2.56949">
        <ele>241.2</ele>
        <time>2024-08-14T07:49:11Z</time>
      </trkpt>
      <trkpt lat="44.63968" lon="2.56949">
        <ele>241.7</ele>
        <time>2024-08-14T07:49:13Z</time>
      </trkpt>
      <trkpt lat="44.63964" lon="2.56948">
        <ele>242.1</ele>
        <time>2024-08-14T07:49:15Z</time>
      </trkpt>
      <trkpt lat="44.6396" lon="2.56948">
        <ele>242.5</ele>
        <time>2024-08-14T07:49:17Z</time>
      </trkpt>
      <trkpt lat="44.63957" lon="2.56948">
        <ele>242.8</ele>
        <time>2024-08-14T07:49:19Z</time>
      </trkpt>
      <trkpt lat="44.63953" lon="2.56949">
        <ele>243.2</ele>
        <time>2024-08-14T07:49:21Z</time>
      </trkpt>
      <trkpt lat="44.6395" lon="2.56949">
        <ele>243.7</ele>
        <time>2024-08-14T07:49:23Z</time>
      </trkpt>
      <trkpt lat="44.63946" lon="2.5695">
        <ele>244.1</ele>
        <time>2024-08-14T07:49:25Z</time>
      </trkpt>
      <trkpt lat="44.63944" lon="2.5695">
        <ele>244.3</ele>
        <time>2024-08-14T07:49:26Z</time>
      </trkpt>
      <trkpt lat="44.63942" lon="2.56951">
        <ele>244.6</ele>
        <time>2024-08-14T07:49:27Z</time>
      </trkpt>
      <trkpt lat="44.63938" lon="2.56952">
        <ele>245.1</ele>
        <time>2024-08-14T07:49:29Z</time>
      </trkpt>
      <trkpt lat="44.63935" lon="2.56953">
        <ele>245.5</ele>
        <time>2024-08-14T07:49:31Z</time>
      </trkpt>
      <trkpt lat="44.63933" lon="2.56954">
        <ele>245.7</ele>
        <time>2024-08-14T07:49:32Z</time>
      </trkpt>
      <trkpt lat="44.63931" lon="2.56955">
        <ele>246</ele>
        <time>2024-08-14T07:49:33Z</time>
      </trkpt>
      <trkpt lat="44.63927" lon="2.56956">
        <ele>246.4</ele>
        <time>2024-08-14T07:49:35Z</time>
      </trkpt>
      <trkpt lat="44.63925" lon="2.56955">
        <ele>246.7</ele>
        <time>2024-08-14T07:49:36Z</time>
      </trkpt>
      <trkpt lat="44.63923" lon="2.56955">
        <ele>247</ele>
        <time>2024-08-14T07:49:37Z</time>
      </trkpt>
      <trkpt lat="44.63921" lon="2.56956">
        <ele>247.2</ele>
        <time>2024-08-14T07:49:38Z</time>
      </trkpt>
      <trkpt lat="44.6392" lon="2.56956">
        <ele>247.4</ele>
        <time>2024-08-14T07:49:39Z</time>
      </trkpt>
      <trkpt lat="44.63916" lon="2.56957">
        <ele>247.9</ele>
        <time>2024-08-14T07:49:41Z</time>
      </trkpt>
      <trkpt lat="44.63913" lon="2.56958">
        <ele>248.3</ele>
        <time>2024-08-14T07:49:43Z</time>
      </trkpt>
      <trkpt lat="44.63909" lon="2.56959">
        <ele>248.7</ele>
        <time>2024-08-14T07:49:45Z</time>
      </trkpt>
      <trkpt lat="44.63905" lon="2.56959">
        <ele>249.1</ele>
        <time>2024-08-14T07:49:47Z</time>
      </trkpt>
      <trkpt lat="44.63902" lon="2.5696">
        <ele>249.5</ele>
        <time>2024-08-14T07:49:49Z</time>
      </trkpt>
      <trkpt lat="44.63898" lon="2.56961">
        <ele>249.9</ele>
        <time>2024-08-14T07:49:51Z</time>
      </trkpt>
      <trkpt lat="44.63895" lon="2.5696">
        <ele>250.3</ele>
        <time>2024-08-14T07:49:53Z</time>
      </trkpt>
      <trkpt lat="44.63893" lon="2.56959">
        <ele>250.5</ele>
        <time>2024-08-14T07:49:54Z</time>
      </trkpt>
      <trkpt lat="44.63891" lon="2.56959">
        <ele>250.7</ele>
        <time>2024-08-14T07:49:55Z</time>
      </trkpt>
      <trkpt lat="44.63887" lon="2.56958">
        <ele>251</ele>
        <time>2024-08-14T07:49:57Z</time>
      </trkpt>
      <trkpt lat="44.63884" lon="2.56956">
        <ele>251.4</ele>
        <time>2024-08-14T07:49:59Z</time>
      </trkpt>
      <trkpt lat="44.63882" lon="2.56955">
        <ele>251.5</ele>
        <time>2024-08-14T07:50:00Z</time>
      </trkpt>
      <trkpt lat="44.63881" lon="2.56955">
        <ele>251.7</ele>
        <time>2024-08-14T07:50:01Z</time>
      </trkpt>
      <trkpt lat="44.63877" lon="2.56953">
        <ele>252</ele>
        <time>2024-08-14T07:50:03Z</time>
      </trkpt>
      <trkpt lat="44.63874" lon="2.56951">
        <ele>252.4</ele>
        <time>2024-08-14T07:50:05Z</time>
      </trkpt>
      <trkpt lat="44.63869" lon="2.56948">
        <ele>252.7</ele>
        <time>2024-08-14T07:50:07Z</time>
      </trkpt>
      <trkpt lat="44.63867" lon="2.56945">
        <ele>253</ele>
        <time>2024-08-14T07:50:09Z</time>
      </trkpt>
      <trkpt lat="44.63863" lon="2.56941">
        <ele>253.2</ele>
        <time>2024-08-14T07:50:11Z</time>
      </trkpt>
      <trkpt lat="44.63862" lon="2.56939">
        <ele>253.4</ele>
        <time>2024-08-14T07:50:12Z</time>
      </trkpt>
      <trkpt lat="44.6386" lon="2.56937">
        <ele>253.5</ele>
        <time>2024-08-14T07:50:13Z</time>
      </trkpt>
      <trkpt lat="44.63857" lon="2.56933">
        <ele>253.7</ele>
        <time>2024-08-14T07:50:15Z</time>
      </trkpt>
      <trkpt lat="44.63854" lon="2.5693">
        <ele>254</ele>
        <time>2024-08-14T07:50:17Z</time>
      </trkpt>
      <trkpt lat="44.6385" lon="2.56926">
        <ele>254.2</ele>
        <time>2024-08-14T07:50:19Z</time>
      </trkpt>
      <trkpt lat="44.63848" lon="2.56924">
        <ele>254.3</ele>
        <time>2024-08-14T07:50:20Z</time>
      </trkpt>
      <trkpt lat="44.63847" lon="2.56923">
        <ele>254.4</ele>
        <time>2024-08-14T07:50:21Z</time>
      </trkpt>
      <trkpt lat="44.63843" lon="2.56919">
        <ele>254.6</ele>
        <time>2024-08-14T07:50:23Z</time>
      </trkpt>
      <trkpt lat="44.6384" lon="2.56916">
        <ele>254.8</ele>
        <time>2024-08-14T07:50:25Z</time>
      </trkpt>
      <trkpt lat="44.63838" lon="2.56914">
        <ele>254.8</ele>
        <time>2024-08-14T07:50:26Z</time>
      </trkpt>
      <trkpt lat="44.63836" lon="2.56912">
        <ele>254.9</ele>
        <time>2024-08-14T07:50:27Z</time>
      </trkpt>
      <trkpt lat="44.63832" lon="2.56909">
        <ele>255.1</ele>
        <time>2024-08-14T07:50:29Z</time>
      </trkpt>
      <trkpt lat="44.63828" lon="2.56905">
        <ele>255.2</ele>
        <time>2024-08-14T07:50:31Z</time>
      </trkpt>
      <trkpt lat="44.63823" lon="2.56903">
        <ele>255.3</ele>
        <time>2024-08-14T07:50:33Z</time>
      </trkpt>
      <trkpt lat="44.63818" lon="2.56901">
        <ele>255.4</ele>
        <time>2024-08-14T07:50:35Z</time>
      </trkpt>
      <trkpt lat="44.63813" lon="2.56898">
        <ele>255.4</ele>
        <time>2024-08-14T07:50:37Z</time>
      </trkpt>
      <trkpt lat="44.63807" lon="2.56894">
        <ele>255.4</ele>
        <time>2024-08-14T07:50:39Z</time>
      </trkpt>
      <trkpt lat="44.63801" lon="2.5689">
        <ele>255.4</ele>
        <time>2024-08-14T07:50:41Z</time>
      </trkpt>
      <trkpt lat="44.63798" lon="2.56888">
        <ele>255.4</ele>
        <time>2024-08-14T07:50:42Z</time>
      </trkpt>
      <trkpt lat="44.63796" lon="2.56887">
        <ele>255.4</ele>
        <time>2024-08-14T07:50:43Z</time>
      </trkpt>
      <trkpt lat="44.63793" lon="2.56885">
        <ele>255.5</ele>
        <time>2024-08-14T07:50:44Z</time>
      </trkpt>
      <trkpt lat="44.6379" lon="2.56882">
        <ele>255.5</ele>
        <time>2024-08-14T07:50:45Z</time>
      </trkpt>
      <trkpt lat="44.63787" lon="2.56875">
        <ele>255.7</ele>
        <time>2024-08-14T07:50:47Z</time>
      </trkpt>
      <trkpt lat="44.63784" lon="2.56869">
        <ele>255.8</ele>
        <time>2024-08-14T07:50:49Z</time>
      </trkpt>
      <trkpt lat="44.63782" lon="2.56862">
        <ele>256</ele>
        <time>2024-08-14T07:50:51Z</time>
      </trkpt>
      <trkpt lat="44.63781" lon="2.56855">
        <ele>256.2</ele>
        <time>2024-08-14T07:50:53Z</time>
      </trkpt>
      <trkpt lat="44.6378" lon="2.56848">
        <ele>256.5</ele>
        <time>2024-08-14T07:50:55Z</time>
      </trkpt>
      <trkpt lat="44.6378" lon="2.56841">
        <ele>256.7</ele>
        <time>2024-08-14T07:50:57Z</time>
      </trkpt>
      <trkpt lat="44.6378" lon="2.56837">
        <ele>256.9</ele>
        <time>2024-08-14T07:50:58Z</time>
      </trkpt>
      <trkpt lat="44.6378" lon="2.56833">
        <ele>257</ele>
        <time>2024-08-14T07:50:59Z</time>
      </trkpt>
      <trkpt lat="44.63779" lon="2.56826">
        <ele>257.3</ele>
        <time>2024-08-14T07:51:01Z</time>
      </trkpt>
      <trkpt lat="44.63778" lon="2.56818">
        <ele>257.6</ele>
        <time>2024-08-14T07:51:03Z</time>
      </trkpt>
      <trkpt lat="44.63777" lon="2.5681">
        <ele>258</ele>
        <time>2024-08-14T07:51:05Z</time>
      </trkpt>
      <trkpt lat="44.63776" lon="2.56803">
        <ele>258.3</ele>
        <time>2024-08-14T07:51:07Z</time>
      </trkpt>
      <trkpt lat="44.63775" lon="2.56796">
        <ele>258.7</ele>
        <time>2024-08-14T07:51:09Z</time>
      </trkpt>
      <trkpt lat="44.63773" lon="2.5679">
        <ele>259</ele>
        <time>2024-08-14T07:51:11Z</time>
      </trkpt>
      <trkpt lat="44.63773" lon="2.56788">
        <ele>259.1</ele>
        <time>2024-08-14T07:51:12Z</time>
      </trkpt>
      <trkpt lat="44.63772" lon="2.56786">
        <ele>259.2</ele>
        <time>2024-08-14T07:51:13Z</time>
      </trkpt>
      <trkpt lat="44.63769" lon="2.5678">
        <ele>259.6</ele>
        <time>2024-08-14T07:51:15Z</time>
      </trkpt>
      <trkpt lat="44.63768" lon="2.56777">
        <ele>259.7</ele>
        <time>2024-08-14T07:51:16Z</time>
      </trkpt>
      <trkpt lat="44.63766" lon="2.56774">
        <ele>259.9</ele>
        <time>2024-08-14T07:51:17Z</time>
      </trkpt>
      <trkpt lat="44.63763" lon="2.56768">
        <ele>260.2</ele>
        <time>2024-08-14T07:51:19Z</time>
      </trkpt>
      <trkpt lat="44.63759" lon="2.56764">
        <ele>260.5</ele>
        <time>2024-08-14T07:51:21Z</time>
      </trkpt>
      <trkpt lat="44.63755" lon="2.56759">
        <ele>260.8</ele>
        <time>2024-08-14T07:51:23Z</time>
      </trkpt>
      <trkpt lat="44.63752" lon="2.56754">
        <ele>261.1</ele>
        <time>2024-08-14T07:51:25Z</time>
      </trkpt>
      <trkpt lat="44.63748" lon="2.56749">
        <ele>261.4</ele>
        <time>2024-08-14T07:51:27Z</time>
      </trkpt>
      <trkpt lat="44.63744" lon="2.56744">
        <ele>261.7</ele>
        <time>2024-08-14T07:51:29Z</time>
      </trkpt>
      <trkpt lat="44.63743" lon="2.56742">
        <ele>261.8</ele>
        <time>2024-08-14T07:51:30Z</time>
      </trkpt>
      <trkpt lat="44.63741" lon="2.56741">
        <ele>262</ele>
        <time>2024-08-14T07:51:31Z</time>
      </trkpt>
      <trkpt lat="44.63737" lon="2.56736">
        <ele>262.3</ele>
        <time>2024-08-14T07:51:33Z</time>
      </trkpt>
      <trkpt lat="44.63733" lon="2.56732">
        <ele>262.6</ele>
        <time>2024-08-14T07:51:35Z</time>
      </trkpt>
      <trkpt lat="44.63731" lon="2.56729">
        <ele>262.7</ele>
        <time>2024-08-14T07:51:36Z</time>
      </trkpt>
      <trkpt lat="44.63729" lon="2.56727">
        <ele>262.9</ele>
        <time>2024-08-14T07:51:37Z</time>
      </trkpt>
      <trkpt lat="44.63725" lon="2.56723">
        <ele>263.2</ele>
        <time>2024-08-14T07:51:39Z</time>
      </trkpt>
      <trkpt lat="44.6372" lon="2.56721">
        <ele>263.4</ele>
        <time>2024-08-14T07:51:41Z</time>
      </trkpt>
      <trkpt lat="44.63718" lon="2.56719">
        <ele>263.6</ele>
        <time>2024-08-14T07:51:42Z</time>
      </trkpt>
      <trkpt lat="44.63716" lon="2.56718">
        <ele>263.7</ele>
        <time>2024-08-14T07:51:43Z</time>
      </trkpt>
      <trkpt lat="44.63711" lon="2.56715">
        <ele>263.9</ele>
        <time>2024-08-14T07:51:45Z</time>
      </trkpt>
      <trkpt lat="44.63706" lon="2.56713">
        <ele>264.1</ele>
        <time>2024-08-14T07:51:47Z</time>
      </trkpt>
      <trkpt lat="44.63703" lon="2.56712">
        <ele>264.2</ele>
        <time>2024-08-14T07:51:48Z</time>
      </trkpt>
      <trkpt lat="44.637" lon="2.56711">
        <ele>264.3</ele>
        <time>2024-08-14T07:51:49Z</time>
      </trkpt>
      <trkpt lat="44.63695" lon="2.5671">
        <ele>264.4</ele>
        <time>2024-08-14T07:51:51Z</time>
      </trkpt>
      <trkpt lat="44.63689" lon="2.56708">
        <ele>264.6</ele>
        <time>2024-08-14T07:51:53Z</time>
      </trkpt>
      <trkpt lat="44.63686" lon="2.56708">
        <ele>264.6</ele>
        <time>2024-08-14T07:51:54Z</time>
      </trkpt>
      <trkpt lat="44.63683" lon="2.56708">
        <ele>264.7</ele>
        <time>2024-08-14T07:51:55Z</time>
      </trkpt>
      <trkpt lat="44.63677" lon="2.56708">
        <ele>264.8</ele>
        <time>2024-08-14T07:51:57Z</time>
      </trkpt>
      <trkpt lat="44.63671" lon="2.56708">
        <ele>264.9</ele>
        <time>2024-08-14T07:51:59Z</time>
      </trkpt>
      <trkpt lat="44.63668" lon="2.56707">
        <ele>265</ele>
        <time>2024-08-14T07:52:00Z</time>
      </trkpt>
      <trkpt lat="44.63665" lon="2.56707">
        <ele>265.1</ele>
        <time>2024-08-14T07:52:01Z</time>
      </trkpt>
      <trkpt lat="44.63659" lon="2.56708">
        <ele>265.2</ele>
        <time>2024-08-14T07:52:03Z</time>
      </trkpt>
      <trkpt lat="44.63654" lon="2.56708">
        <ele>265.4</ele>
        <time>2024-08-14T07:52:05Z</time>
      </trkpt>
      <trkpt lat="44.63647" lon="2.56708">
        <ele>265.5</ele>
        <time>2024-08-14T07:52:07Z</time>
      </trkpt>
      <trkpt lat="44.63641" lon="2.56709">
        <ele>265.6</ele>
        <time>2024-08-14T07:52:09Z</time>
      </trkpt>
      <trkpt lat="44.63635" lon="2.56712">
        <ele>265.6</ele>
        <time>2024-08-14T07:52:11Z</time>
      </trkpt>
      <trkpt lat="44.63629" lon="2.56716">
        <ele>265.6</ele>
        <time>2024-08-14T07:52:13Z</time>
      </trkpt>
      <trkpt lat="44.63622" lon="2.5672">
        <ele>265.6</ele>
        <time>2024-08-14T07:52:15Z</time>
      </trkpt>
      <trkpt lat="44.63616" lon="2.56725">
        <ele>265.6</ele>
        <time>2024-08-14T07:52:17Z</time>
      </trkpt>
      <trkpt lat="44.6361" lon="2.56729">
        <ele>265.5</ele>
        <time>2024-08-14T07:52:19Z</time>
      </trkpt>
      <trkpt lat="44.63603" lon="2.56734">
        <ele>265.5</ele>
        <time>2024-08-14T07:52:21Z</time>
      </trkpt>
      <trkpt lat="44.63597" lon="2.56738">
        <ele>265.5</ele>
        <time>2024-08-14T07:52:23Z</time>
      </trkpt>
      <trkpt lat="44.63593" lon="2.56739">
        <ele>265.5</ele>
        <time>2024-08-14T07:52:24Z</time>
      </trkpt>
      <trkpt lat="44.63589" lon="2.5674">
        <ele>265.5</ele>
        <time>2024-08-14T07:52:25Z</time>
      </trkpt>
      <trkpt lat="44.63586" lon="2.56742">
        <ele>265.6</ele>
        <time>2024-08-14T07:52:26Z</time>
      </trkpt>
      <trkpt lat="44.63582" lon="2.56744">
        <ele>265.6</ele>
        <time>2024-08-14T07:52:27Z</time>
      </trkpt>
      <trkpt lat="44.63575" lon="2.56748">
        <ele>265.8</ele>
        <time>2024-08-14T07:52:29Z</time>
      </trkpt>
      <trkpt lat="44.63568" lon="2.56752">
        <ele>265.9</ele>
        <time>2024-08-14T07:52:31Z</time>
      </trkpt>
      <trkpt lat="44.6356" lon="2.56754">
        <ele>266.1</ele>
        <time>2024-08-14T07:52:33Z</time>
      </trkpt>
      <trkpt lat="44.63553" lon="2.56757">
        <ele>266.3</ele>
        <time>2024-08-14T07:52:35Z</time>
      </trkpt>
      <trkpt lat="44.63547" lon="2.5676">
        <ele>266.5</ele>
        <time>2024-08-14T07:52:37Z</time>
      </trkpt>
      <trkpt lat="44.6354" lon="2.56765">
        <ele>266.6</ele>
        <time>2024-08-14T07:52:39Z</time>
      </trkpt>
      <trkpt lat="44.63535" lon="2.56771">
        <ele>266.7</ele>
        <time>2024-08-14T07:52:41Z</time>
      </trkpt>
      <trkpt lat="44.63532" lon="2.56774">
        <ele>266.7</ele>
        <time>2024-08-14T07:52:42Z</time>
      </trkpt>
      <trkpt lat="44.6353" lon="2.56777">
        <ele>266.8</ele>
        <time>2024-08-14T07:52:43Z</time>
      </trkpt>
      <trkpt lat="44.63527" lon="2.56781">
        <ele>266.8</ele>
        <time>2024-08-14T07:52:44Z</time>
      </trkpt>
      <trkpt lat="44.63525" lon="2.56784">
        <ele>266.9</ele>
        <time>2024-08-14T07:52:45Z</time>
      </trkpt>
      <trkpt lat="44.63521" lon="2.56791">
        <ele>266.9</ele>
        <time>2024-08-14T07:52:47Z</time>
      </trkpt>
      <trkpt lat="44.63517" lon="2.56798">
        <ele>267</ele>
        <time>2024-08-14T07:52:49Z</time>
      </trkpt>
      <trkpt lat="44.63514" lon="2.56803">
        <ele>267.1</ele>
        <time>2024-08-14T07:52:51Z</time>
      </trkpt>
      <trkpt lat="44.63512" lon="2.56806">
        <ele>267.2</ele>
        <time>2024-08-14T07:52:52Z</time>
      </trkpt>
      <trkpt lat="44.6351" lon="2.5681">
        <ele>267.2</ele>
        <time>2024-08-14T07:52:53Z</time>
      </trkpt>
      <trkpt lat="44.63505" lon="2.56816">
        <ele>267.4</ele>
        <time>2024-08-14T07:52:55Z</time>
      </trkpt>
      <trkpt lat="44.63501" lon="2.56824">
        <ele>267.5</ele>
        <time>2024-08-14T07:52:57Z</time>
      </trkpt>
      <trkpt lat="44.63499" lon="2.56827">
        <ele>267.6</ele>
        <time>2024-08-14T07:52:58Z</time>
      </trkpt>
      <trkpt lat="44.63497" lon="2.56831">
        <ele>267.7</ele>
        <time>2024-08-14T07:52:59Z</time>
      </trkpt>
      <trkpt lat="44.63492" lon="2.56838">
        <ele>267.8</ele>
        <time>2024-08-14T07:53:01Z</time>
      </trkpt>
      <trkpt lat="44.6349" lon="2.56843">
        <ele>267.9</ele>
        <time>2024-08-14T07:53:02Z</time>
      </trkpt>
      <trkpt lat="44.63488" lon="2.56847">
        <ele>268</ele>
        <time>2024-08-14T07:53:03Z</time>
      </trkpt>
      <trkpt lat="44.63484" lon="2.56854">
        <ele>268.1</ele>
        <time>2024-08-14T07:53:05Z</time>
      </trkpt>
      <trkpt lat="44.63479" lon="2.56861">
        <ele>268.3</ele>
        <time>2024-08-14T07:53:07Z</time>
      </trkpt>
      <trkpt lat="44.63475" lon="2.56869">
        <ele>268.5</ele>
        <time>2024-08-14T07:53:09Z</time>
      </trkpt>
      <trkpt lat="44.6347" lon="2.56876">
        <ele>268.7</ele>
        <time>2024-08-14T07:53:11Z</time>
      </trkpt>
      <trkpt lat="44.63467" lon="2.56884">
        <ele>268.8</ele>
        <time>2024-08-14T07:53:13Z</time>
      </trkpt>
      <trkpt lat="44.63464" lon="2.56891">
        <ele>269</ele>
        <time>2024-08-14T07:53:15Z</time>
      </trkpt>
      <trkpt lat="44.63461" lon="2.569">
        <ele>269.2</ele>
        <time>2024-08-14T07:53:17Z</time>
      </trkpt>
      <trkpt lat="44.6346" lon="2.56905">
        <ele>269.4</ele>
        <time>2024-08-14T07:53:18Z</time>
      </trkpt>
      <trkpt lat="44.63459" lon="2.56909">
        <ele>269.5</ele>
        <time>2024-08-14T07:53:19Z</time>
      </trkpt>
      <trkpt lat="44.63459" lon="2.56918">
        <ele>269.8</ele>
        <time>2024-08-14T07:53:21Z</time>
      </trkpt>
      <trkpt lat="44.63461" lon="2.56926">
        <ele>270.1</ele>
        <time>2024-08-14T07:53:23Z</time>
      </trkpt>
      <trkpt lat="44.63461" lon="2.56929">
        <ele>270.3</ele>
        <time>2024-08-14T07:53:24Z</time>
      </trkpt>
      <trkpt lat="44.63461" lon="2.56933">
        <ele>270.5</ele>
        <time>2024-08-14T07:53:25Z</time>
      </trkpt>
      <trkpt lat="44.63461" lon="2.56942">
        <ele>270.8</ele>
        <time>2024-08-14T07:53:27Z</time>
      </trkpt>
      <trkpt lat="44.63461" lon="2.56949">
        <ele>271.2</ele>
        <time>2024-08-14T07:53:29Z</time>
      </trkpt>
      <trkpt lat="44.63461" lon="2.56953">
        <ele>271.3</ele>
        <time>2024-08-14T07:53:30Z</time>
      </trkpt>
      <trkpt lat="44.63461" lon="2.56957">
        <ele>271.5</ele>
        <time>2024-08-14T07:53:31Z</time>
      </trkpt>
      <trkpt lat="44.63461" lon="2.56966">
        <ele>271.8</ele>
        <time>2024-08-14T07:53:33Z</time>
      </trkpt>
      <trkpt lat="44.6346" lon="2.56973">
        <ele>272.1</ele>
        <time>2024-08-14T07:53:35Z</time>
      </trkpt>
      <trkpt lat="44.63459" lon="2.56981">
        <ele>272.3</ele>
        <time>2024-08-14T07:53:37Z</time>
      </trkpt>
      <trkpt lat="44.63458" lon="2.56984">
        <ele>272.5</ele>
        <time>2024-08-14T07:53:38Z</time>
      </trkpt>
      <trkpt lat="44.63458" lon="2.56988">
        <ele>272.6</ele>
        <time>2024-08-14T07:53:39Z</time>
      </trkpt>
      <trkpt lat="44.63456" lon="2.56996">
        <ele>272.8</ele>
        <time>2024-08-14T07:53:41Z</time>
      </trkpt>
      <trkpt lat="44.63456" lon="2.57004">
        <ele>273</ele>
        <time>2024-08-14T07:53:43Z</time>
      </trkpt>
      <trkpt lat="44.63455" lon="2.57008">
        <ele>273.1</ele>
        <time>2024-08-14T07:53:44Z</time>
      </trkpt>
      <trkpt lat="44.63455" lon="2.57012">
        <ele>273.2</ele>
        <time>2024-08-14T07:53:45Z</time>
      </trkpt>
      <trkpt lat="44.63454" lon="2.5702">
        <ele>273.5</ele>
        <time>2024-08-14T07:53:47Z</time>
      </trkpt>
      <trkpt lat="44.63453" lon="2.57027">
        <ele>273.7</ele>
        <time>2024-08-14T07:53:49Z</time>
      </trkpt>
      <trkpt lat="44.63452" lon="2.57035">
        <ele>273.9</ele>
        <time>2024-08-14T07:53:51Z</time>
      </trkpt>
      <trkpt lat="44.63452" lon="2.57038">
        <ele>274</ele>
        <time>2024-08-14T07:53:52Z</time>
      </trkpt>
      <trkpt lat="44.63451" lon="2.57042">
        <ele>274.1</ele>
        <time>2024-08-14T07:53:53Z</time>
      </trkpt>
      <trkpt lat="44.6345" lon="2.5705">
        <ele>274.3</ele>
        <time>2024-08-14T07:53:55Z</time>
      </trkpt>
      <trkpt lat="44.63449" lon="2.57058">
        <ele>274.5</ele>
        <time>2024-08-14T07:53:57Z</time>
      </trkpt>
      <trkpt lat="44.63448" lon="2.57066">
        <ele>274.6</ele>
        <time>2024-08-14T07:53:59Z</time>
      </trkpt>
      <trkpt lat="44.63447" lon="2.57074">
        <ele>274.7</ele>
        <time>2024-08-14T07:54:01Z</time>
      </trkpt>
      <trkpt lat="44.63446" lon="2.57082">
        <ele>274.8</ele>
        <time>2024-08-14T07:54:03Z</time>
      </trkpt>
      <trkpt lat="44.63446" lon="2.57091">
        <ele>274.9</ele>
        <time>2024-08-14T07:54:05Z</time>
      </trkpt>
      <trkpt lat="44.63445" lon="2.571">
        <ele>274.9</ele>
        <time>2024-08-14T07:54:07Z</time>
      </trkpt>
      <trkpt lat="44.63444" lon="2.57109">
        <ele>274.9</ele>
        <time>2024-08-14T07:54:09Z</time>
      </trkpt>
      <trkpt lat="44.63444" lon="2.57114">
        <ele>274.9</ele>
        <time>2024-08-14T07:54:10Z</time>
      </trkpt>
      <trkpt lat="44.63443" lon="2.57119">
        <ele>274.9</ele>
        <time>2024-08-14T07:54:11Z</time>
      </trkpt>
      <trkpt lat="44.63442" lon="2.57129">
        <ele>274.8</ele>
        <time>2024-08-14T07:54:13Z</time>
      </trkpt>
      <trkpt lat="44.63442" lon="2.5714">
        <ele>274.8</ele>
        <time>2024-08-14T07:54:15Z</time>
      </trkpt>
      <trkpt lat="44.63441" lon="2.5715">
        <ele>274.7</ele>
        <time>2024-08-14T07:54:17Z</time>
      </trkpt>
      <trkpt lat="44.63441" lon="2.5716">
        <ele>274.6</ele>
        <time>2024-08-14T07:54:19Z</time>
      </trkpt>
      <trkpt lat="44.63441" lon="2.5717">
        <ele>274.6</ele>
        <time>2024-08-14T07:54:21Z</time>
      </trkpt>
      <trkpt lat="44.6344" lon="2.5718">
        <ele>274.5</ele>
        <time>2024-08-14T07:54:23Z</time>
      </trkpt>
      <trkpt lat="44.63439" lon="2.57191">
        <ele>274.5</ele>
        <time>2024-08-14T07:54:25Z</time>
      </trkpt>
      <trkpt lat="44.63439" lon="2.572">
        <ele>274.4</ele>
        <time>2024-08-14T07:54:27Z</time>
      </trkpt>
      <trkpt lat="44.63439" lon="2.57206">
        <ele>274.4</ele>
        <time>2024-08-14T07:54:28Z</time>
      </trkpt>
      <trkpt lat="44.63439" lon="2.57211">
        <ele>274.4</ele>
        <time>2024-08-14T07:54:29Z</time>
      </trkpt>
      <trkpt lat="44.63438" lon="2.57221">
        <ele>274.3</ele>
        <time>2024-08-14T07:54:31Z</time>
      </trkpt>
      <trkpt lat="44.63438" lon="2.57226">
        <ele>274.3</ele>
        <time>2024-08-14T07:54:32Z</time>
      </trkpt>
      <trkpt lat="44.63438" lon="2.57231">
        <ele>274.3</ele>
        <time>2024-08-14T07:54:33Z</time>
      </trkpt>
      <trkpt lat="44.63437" lon="2.57241">
        <ele>274.3</ele>
        <time>2024-08-14T07:54:35Z</time>
      </trkpt>
      <trkpt lat="44.63437" lon="2.57246">
        <ele>274.3</ele>
        <time>2024-08-14T07:54:36Z</time>
      </trkpt>
      <trkpt lat="44.63436" lon="2.57251">
        <ele>274.3</ele>
        <time>2024-08-14T07:54:37Z</time>
      </trkpt>
      <trkpt lat="44.63436" lon="2.57261">
        <ele>274.3</ele>
        <time>2024-08-14T07:54:39Z</time>
      </trkpt>
      <trkpt lat="44.63436" lon="2.5727">
        <ele>274.3</ele>
        <time>2024-08-14T07:54:41Z</time>
      </trkpt>
      <trkpt lat="44.63436" lon="2.57275">
        <ele>274.4</ele>
        <time>2024-08-14T07:54:42Z</time>
      </trkpt>
      <trkpt lat="44.63435" lon="2.5728">
        <ele>274.4</ele>
        <time>2024-08-14T07:54:43Z</time>
      </trkpt>
      <trkpt lat="44.63434" lon="2.57291">
        <ele>274.4</ele>
        <time>2024-08-14T07:54:45Z</time>
      </trkpt>
      <trkpt lat="44.63433" lon="2.57301">
        <ele>274.5</ele>
        <time>2024-08-14T07:54:47Z</time>
      </trkpt>
      <trkpt lat="44.63432" lon="2.57311">
        <ele>274.6</ele>
        <time>2024-08-14T07:54:49Z</time>
      </trkpt>
      <trkpt lat="44.63431" lon="2.57322">
        <ele>274.8</ele>
        <time>2024-08-14T07:54:51Z</time>
      </trkpt>
      <trkpt lat="44.63429" lon="2.57332">
        <ele>275</ele>
        <time>2024-08-14T07:54:53Z</time>
      </trkpt>
      <trkpt lat="44.63427" lon="2.57342">
        <ele>275.2</ele>
        <time>2024-08-14T07:54:55Z</time>
      </trkpt>
      <trkpt lat="44.63425" lon="2.57351">
        <ele>275.6</ele>
        <time>2024-08-14T07:54:57Z</time>
      </trkpt>
      <trkpt lat="44.63423" lon="2.5736">
        <ele>276</ele>
        <time>2024-08-14T07:54:59Z</time>
      </trkpt>
      <trkpt lat="44.63421" lon="2.57368">
        <ele>276.5</ele>
        <time>2024-08-14T07:55:01Z</time>
      </trkpt>
      <trkpt lat="44.63419" lon="2.57375">
        <ele>276.9</ele>
        <time>2024-08-14T07:55:03Z</time>
      </trkpt>
      <trkpt lat="44.63418" lon="2.57382">
        <ele>277.3</ele>
        <time>2024-08-14T07:55:05Z</time>
      </trkpt>
      <trkpt lat="44.63416" lon="2.57388">
        <ele>277.7</ele>
        <time>2024-08-14T07:55:07Z</time>
      </trkpt>
      <trkpt lat="44.63414" lon="2.57395">
        <ele>278.2</ele>
        <time>2024-08-14T07:55:09Z</time>
      </trkpt>
      <trkpt lat="44.63413" lon="2.57398">
        <ele>278.4</ele>
        <time>2024-08-14T07:55:10Z</time>
      </trkpt>
      <trkpt lat="44.63411" lon="2.57401">
        <ele>278.6</ele>
        <time>2024-08-14T07:55:11Z</time>
      </trkpt>
      <trkpt lat="44.6341" lon="2.57404">
        <ele>278.8</ele>
        <time>2024-08-14T07:55:12Z</time>
      </trkpt>
      <trkpt lat="44.63408" lon="2.57407">
        <ele>279</ele>
        <time>2024-08-14T07:55:13Z</time>
      </trkpt>
      <trkpt lat="44.63405" lon="2.57413">
        <ele>279.4</ele>
        <time>2024-08-14T07:55:15Z</time>
      </trkpt>
      <trkpt lat="44.63404" lon="2.57416">
        <ele>279.6</ele>
        <time>2024-08-14T07:55:16Z</time>
      </trkpt>
      <trkpt lat="44.63402" lon="2.57419">
        <ele>279.9</ele>
        <time>2024-08-14T07:55:17Z</time>
      </trkpt>
      <trkpt lat="44.63399" lon="2.57425">
        <ele>280.2</ele>
        <time>2024-08-14T07:55:19Z</time>
      </trkpt>
      <trkpt lat="44.63396" lon="2.57431">
        <ele>280.6</ele>
        <time>2024-08-14T07:55:21Z</time>
      </trkpt>
      <trkpt lat="44.63392" lon="2.57436">
        <ele>280.9</ele>
        <time>2024-08-14T07:55:23Z</time>
      </trkpt>
      <trkpt lat="44.63388" lon="2.57442">
        <ele>281.2</ele>
        <time>2024-08-14T07:55:25Z</time>
      </trkpt>
      <trkpt lat="44.63384" lon="2.57447">
        <ele>281.4</ele>
        <time>2024-08-14T07:55:27Z</time>
      </trkpt>
      <trkpt lat="44.63381" lon="2.57453">
        <ele>281.6</ele>
        <time>2024-08-14T07:55:29Z</time>
      </trkpt>
      <trkpt lat="44.63376" lon="2.57458">
        <ele>281.8</ele>
        <time>2024-08-14T07:55:31Z</time>
      </trkpt>
      <trkpt lat="44.63372" lon="2.57463">
        <ele>281.9</ele>
        <time>2024-08-14T07:55:33Z</time>
      </trkpt>
      <trkpt lat="44.63368" lon="2.57468">
        <ele>282.1</ele>
        <time>2024-08-14T07:55:35Z</time>
      </trkpt>
      <trkpt lat="44.63363" lon="2.57472">
        <ele>282.2</ele>
        <time>2024-08-14T07:55:37Z</time>
      </trkpt>
      <trkpt lat="44.63358" lon="2.57478">
        <ele>282.3</ele>
        <time>2024-08-14T07:55:39Z</time>
      </trkpt>
      <trkpt lat="44.63353" lon="2.57483">
        <ele>282.4</ele>
        <time>2024-08-14T07:55:41Z</time>
      </trkpt>
      <trkpt lat="44.63348" lon="2.57488">
        <ele>282.5</ele>
        <time>2024-08-14T07:55:43Z</time>
      </trkpt>
      <trkpt lat="44.63343" lon="2.57492">
        <ele>282.5</ele>
        <time>2024-08-14T07:55:45Z</time>
      </trkpt>
      <trkpt lat="44.63337" lon="2.57497">
        <ele>282.6</ele>
        <time>2024-08-14T07:55:47Z</time>
      </trkpt>
      <trkpt lat="44.63332" lon="2.57501">
        <ele>282.6</ele>
        <time>2024-08-14T07:55:49Z</time>
      </trkpt>
      <trkpt lat="44.63329" lon="2.57503">
        <ele>282.6</ele>
        <time>2024-08-14T07:55:50Z</time>
      </trkpt>
      <trkpt lat="44.63326" lon="2.57506">
        <ele>282.6</ele>
        <time>2024-08-14T07:55:51Z</time>
      </trkpt>
      <trkpt lat="44.63321" lon="2.5751">
        <ele>282.7</ele>
        <time>2024-08-14T07:55:53Z</time>
      </trkpt>
      <trkpt lat="44.63315" lon="2.57513">
        <ele>282.7</ele>
        <time>2024-08-14T07:55:55Z</time>
      </trkpt>
      <trkpt lat="44.6331" lon="2.57516">
        <ele>282.8</ele>
        <time>2024-08-14T07:55:57Z</time>
      </trkpt>
      <trkpt lat="44.63304" lon="2.57519">
        <ele>282.9</ele>
        <time>2024-08-14T07:55:59Z</time>
      </trkpt>
      <trkpt lat="44.63299" lon="2.57521">
        <ele>282.9</ele>
        <time>2024-08-14T07:56:01Z</time>
      </trkpt>
      <trkpt lat="44.63295" lon="2.57521">
        <ele>283</ele>
        <time>2024-08-14T07:56:02Z</time>
      </trkpt>
      <trkpt lat="44.63292" lon="2.57522">
        <ele>283</ele>
        <time>2024-08-14T07:56:03Z</time>
      </trkpt>
      <trkpt lat="44.63286" lon="2.57521">
        <ele>283.1</ele>
        <time>2024-08-14T07:56:05Z</time>
      </trkpt>
      <trkpt lat="44.63283" lon="2.57521">
        <ele>283.1</ele>
        <time>2024-08-14T07:56:06Z</time>
      </trkpt>
      <trkpt lat="44.6328" lon="2.5752">
        <ele>283.1</ele>
        <time>2024-08-14T07:56:07Z</time>
      </trkpt>
      <trkpt lat="44.63274" lon="2.57517">
        <ele>283.1</ele>
        <time>2024-08-14T07:56:09Z</time>
      </trkpt>
      <trkpt lat="44.63269" lon="2.57513">
        <ele>283.1</ele>
        <time>2024-08-14T07:56:11Z</time>
      </trkpt>
      <trkpt lat="44.63263" lon="2.57508">
        <ele>283</ele>
        <time>2024-08-14T07:56:13Z</time>
      </trkpt>
      <trkpt lat="44.6326" lon="2.57505">
        <ele>282.9</ele>
        <time>2024-08-14T07:56:14Z</time>
      </trkpt>
      <trkpt lat="44.63257" lon="2.57502">
        <ele>282.8</ele>
        <time>2024-08-14T07:56:15Z</time>
      </trkpt>
      <trkpt lat="44.63254" lon="2.57499">
        <ele>282.7</ele>
        <time>2024-08-14T07:56:16Z</time>
      </trkpt>
      <trkpt lat="44.63251" lon="2.57497">
        <ele>282.7</ele>
        <time>2024-08-14T07:56:17Z</time>
      </trkpt>
      <trkpt lat="44.63245" lon="2.5749">
        <ele>282.4</ele>
        <time>2024-08-14T07:56:19Z</time>
      </trkpt>
      <trkpt lat="44.63238" lon="2.57484">
        <ele>282.2</ele>
        <time>2024-08-14T07:56:21Z</time>
      </trkpt>
      <trkpt lat="44.63231" lon="2.57478">
        <ele>282</ele>
        <time>2024-08-14T07:56:23Z</time>
      </trkpt>
      <trkpt lat="44.63224" lon="2.57472">
        <ele>281.9</ele>
        <time>2024-08-14T07:56:25Z</time>
      </trkpt>
      <trkpt lat="44.63217" lon="2.57466">
        <ele>281.9</ele>
        <time>2024-08-14T07:56:27Z</time>
      </trkpt>
      <trkpt lat="44.63214" lon="2.57463">
        <ele>281.9</ele>
        <time>2024-08-14T07:56:28Z</time>
      </trkpt>
      <trkpt lat="44.63211" lon="2.5746">
        <ele>281.9</ele>
        <time>2024-08-14T07:56:29Z</time>
      </trkpt>
      <trkpt lat="44.63205" lon="2.57454">
        <ele>282</ele>
        <time>2024-08-14T07:56:31Z</time>
      </trkpt>
      <trkpt lat="44.63197" lon="2.57449">
        <ele>282.1</ele>
        <time>2024-08-14T07:56:33Z</time>
      </trkpt>
      <trkpt lat="44.63193" lon="2.57447">
        <ele>282.1</ele>
        <time>2024-08-14T07:56:34Z</time>
      </trkpt>
      <trkpt lat="44.6319" lon="2.57445">
        <ele>282.2</ele>
        <time>2024-08-14T07:56:35Z</time>
      </trkpt>
      <trkpt lat="44.63182" lon="2.57441">
        <ele>282.4</ele>
        <time>2024-08-14T07:56:37Z</time>
      </trkpt>
      <trkpt lat="44.63175" lon="2.57438">
        <ele>282.6</ele>
        <time>2024-08-14T07:56:39Z</time>
      </trkpt>
      <trkpt lat="44.63168" lon="2.57434">
        <ele>282.9</ele>
        <time>2024-08-14T07:56:41Z</time>
      </trkpt>
      <trkpt lat="44.63165" lon="2.57431">
        <ele>283</ele>
        <time>2024-08-14T07:56:42Z</time>
      </trkpt>
      <trkpt lat="44.63162" lon="2.57429">
        <ele>283.1</ele>
        <time>2024-08-14T07:56:43Z</time>
      </trkpt>
      <trkpt lat="44.63156" lon="2.57423">
        <ele>283.3</ele>
        <time>2024-08-14T07:56:45Z</time>
      </trkpt>
      <trkpt lat="44.63151" lon="2.57416">
        <ele>283.5</ele>
        <time>2024-08-14T07:56:47Z</time>
      </trkpt>
      <trkpt lat="44.63148" lon="2.57412">
        <ele>283.6</ele>
        <time>2024-08-14T07:56:48Z</time>
      </trkpt>
      <trkpt lat="44.63146" lon="2.57408">
        <ele>283.6</ele>
        <time>2024-08-14T07:56:49Z</time>
      </trkpt>
      <trkpt lat="44.63141" lon="2.574">
        <ele>283.8</ele>
        <time>2024-08-14T07:56:51Z</time>
      </trkpt>
      <trkpt lat="44.63139" lon="2.57396">
        <ele>283.9</ele>
        <time>2024-08-14T07:56:52Z</time>
      </trkpt>
      <trkpt lat="44.63137" lon="2.57392">
        <ele>283.9</ele>
        <time>2024-08-14T07:56:53Z</time>
      </trkpt>
      <trkpt lat="44.63134" lon="2.57388">
        <ele>284</ele>
        <time>2024-08-14T07:56:54Z</time>
      </trkpt>
      <trkpt lat="44.63132" lon="2.57383">
        <ele>284.1</ele>
        <time>2024-08-14T07:56:55Z</time>
      </trkpt>
      <trkpt lat="44.63129" lon="2.57379">
        <ele>284.1</ele>
        <time>2024-08-14T07:56:56Z</time>
      </trkpt>
      <trkpt lat="44.63126" lon="2.57375">
        <ele>284.2</ele>
        <time>2024-08-14T07:56:57Z</time>
      </trkpt>
      <trkpt lat="44.63122" lon="2.57369">
        <ele>284.3</ele>
        <time>2024-08-14T07:56:59Z</time>
      </trkpt>
      <trkpt lat="44.63119" lon="2.57366">
        <ele>284.3</ele>
        <time>2024-08-14T07:57:00Z</time>
      </trkpt>
      <trkpt lat="44.63116" lon="2.57362">
        <ele>284.4</ele>
        <time>2024-08-14T07:57:01Z</time>
      </trkpt>
      <trkpt lat="44.6311" lon="2.57356">
        <ele>284.5</ele>
        <time>2024-08-14T07:57:03Z</time>
      </trkpt>
      <trkpt lat="44.63104" lon="2.57349">
        <ele>284.6</ele>
        <time>2024-08-14T07:57:05Z</time>
      </trkpt>
      <trkpt lat="44.63101" lon="2.57346">
        <ele>284.7</ele>
        <time>2024-08-14T07:57:06Z</time>
      </trkpt>
      <trkpt lat="44.63097" lon="2.57343">
        <ele>284.7</ele>
        <time>2024-08-14T07:57:07Z</time>
      </trkpt>
      <trkpt lat="44.63091" lon="2.57338">
        <ele>284.9</ele>
        <time>2024-08-14T07:57:09Z</time>
      </trkpt>
      <trkpt lat="44.63084" lon="2.57334">
        <ele>285</ele>
        <time>2024-08-14T07:57:11Z</time>
      </trkpt>
      <trkpt lat="44.6308" lon="2.57332">
        <ele>285.1</ele>
        <time>2024-08-14T07:57:12Z</time>
      </trkpt>
      <trkpt lat="44.63076" lon="2.5733">
        <ele>285.2</ele>
        <time>2024-08-14T07:57:13Z</time>
      </trkpt>
      <trkpt lat="44.63073" lon="2.57328">
        <ele>285.3</ele>
        <time>2024-08-14T07:57:14Z</time>
      </trkpt>
      <trkpt lat="44.63069" lon="2.57326">
        <ele>285.4</ele>
        <time>2024-08-14T07:57:15Z</time>
      </trkpt>
      <trkpt lat="44.63062" lon="2.57321">
        <ele>285.6</ele>
        <time>2024-08-14T07:57:17Z</time>
      </trkpt>
      <trkpt lat="44.63059" lon="2.57319">
        <ele>285.7</ele>
        <time>2024-08-14T07:57:18Z</time>
      </trkpt>
      <trkpt lat="44.63055" lon="2.57317">
        <ele>285.9</ele>
        <time>2024-08-14T07:57:19Z</time>
      </trkpt>
      <trkpt lat="44.63048" lon="2.57315">
        <ele>286.1</ele>
        <time>2024-08-14T07:57:21Z</time>
      </trkpt>
      <trkpt lat="44.63041" lon="2.57313">
        <ele>286.4</ele>
        <time>2024-08-14T07:57:23Z</time>
      </trkpt>
      <trkpt lat="44.63037" lon="2.57312">
        <ele>286.5</ele>
        <time>2024-08-14T07:57:24Z</time>
      </trkpt>
      <trkpt lat="44.63034" lon="2.57311">
        <ele>286.6</ele>
        <time>2024-08-14T07:57:25Z</time>
      </trkpt>
      <trkpt lat="44.63027" lon="2.57309">
        <ele>286.9</ele>
        <time>2024-08-14T07:57:27Z</time>
      </trkpt>
      <trkpt lat="44.63023" lon="2.57309">
        <ele>287.1</ele>
        <time>2024-08-14T07:57:28Z</time>
      </trkpt>
      <trkpt lat="44.6302" lon="2.57308">
        <ele>287.2</ele>
        <time>2024-08-14T07:57:29Z</time>
      </trkpt>
      <trkpt lat="44.63013" lon="2.57308">
        <ele>287.5</ele>
        <time>2024-08-14T07:57:31Z</time>
      </trkpt>
      <trkpt lat="44.63005" lon="2.57307">
        <ele>287.8</ele>
        <time>2024-08-14T07:57:33Z</time>
      </trkpt>
      <trkpt lat="44.62998" lon="2.57308">
        <ele>288</ele>
        <time>2024-08-14T07:57:35Z</time>
      </trkpt>
      <trkpt lat="44.62994" lon="2.57308">
        <ele>288.2</ele>
        <time>2024-08-14T07:57:36Z</time>
      </trkpt>
      <trkpt lat="44.62991" lon="2.57308">
        <ele>288.3</ele>
        <time>2024-08-14T07:57:37Z</time>
      </trkpt>
      <trkpt lat="44.62983" lon="2.57309">
        <ele>288.6</ele>
        <time>2024-08-14T07:57:39Z</time>
      </trkpt>
      <trkpt lat="44.62976" lon="2.57311">
        <ele>288.8</ele>
        <time>2024-08-14T07:57:41Z</time>
      </trkpt>
      <trkpt lat="44.62969" lon="2.57313">
        <ele>289.1</ele>
        <time>2024-08-14T07:57:43Z</time>
      </trkpt>
      <trkpt lat="44.62961" lon="2.57314">
        <ele>289.3</ele>
        <time>2024-08-14T07:57:45Z</time>
      </trkpt>
      <trkpt lat="44.62954" lon="2.57315">
        <ele>289.6</ele>
        <time>2024-08-14T07:57:47Z</time>
      </trkpt>
      <trkpt lat="44.62946" lon="2.57315">
        <ele>289.8</ele>
        <time>2024-08-14T07:57:49Z</time>
      </trkpt>
      <trkpt lat="44.62943" lon="2.57315">
        <ele>289.9</ele>
        <time>2024-08-14T07:57:50Z</time>
      </trkpt>
      <trkpt lat="44.62939" lon="2.57314">
        <ele>290</ele>
        <time>2024-08-14T07:57:51Z</time>
      </trkpt>
      <trkpt lat="44.62932" lon="2.57313">
        <ele>290.2</ele>
        <time>2024-08-14T07:57:53Z</time>
      </trkpt>
      <trkpt lat="44.62928" lon="2.57313">
        <ele>290.3</ele>
        <time>2024-08-14T07:57:54Z</time>
      </trkpt>
      <trkpt lat="44.62925" lon="2.57313">
        <ele>290.3</ele>
        <time>2024-08-14T07:57:55Z</time>
      </trkpt>
      <trkpt lat="44.62918" lon="2.57314">
        <ele>290.5</ele>
        <time>2024-08-14T07:57:57Z</time>
      </trkpt>
      <trkpt lat="44.62911" lon="2.57316">
        <ele>290.7</ele>
        <time>2024-08-14T07:57:59Z</time>
      </trkpt>
      <trkpt lat="44.62905" lon="2.57319">
        <ele>290.9</ele>
        <time>2024-08-14T07:58:01Z</time>
      </trkpt>
      <trkpt lat="44.62899" lon="2.57323">
        <ele>291.1</ele>
        <time>2024-08-14T07:58:03Z</time>
      </trkpt>
      <trkpt lat="44.62893" lon="2.57328">
        <ele>291.3</ele>
        <time>2024-08-14T07:58:05Z</time>
      </trkpt>
      <trkpt lat="44.62887" lon="2.57333">
        <ele>291.6</ele>
        <time>2024-08-14T07:58:07Z</time>
      </trkpt>
      <trkpt lat="44.62884" lon="2.57335">
        <ele>291.7</ele>
        <time>2024-08-14T07:58:08Z</time>
      </trkpt>
      <trkpt lat="44.62881" lon="2.57337">
        <ele>291.8</ele>
        <time>2024-08-14T07:58:09Z</time>
      </trkpt>
      <trkpt lat="44.62874" lon="2.57343">
        <ele>292</ele>
        <time>2024-08-14T07:58:11Z</time>
      </trkpt>
      <trkpt lat="44.62868" lon="2.57347">
        <ele>292.3</ele>
        <time>2024-08-14T07:58:13Z</time>
      </trkpt>
      <trkpt lat="44.62862" lon="2.57351">
        <ele>292.5</ele>
        <time>2024-08-14T07:58:15Z</time>
      </trkpt>
      <trkpt lat="44.62855" lon="2.57355">
        <ele>292.8</ele>
        <time>2024-08-14T07:58:17Z</time>
      </trkpt>
      <trkpt lat="44.62849" lon="2.5736">
        <ele>293</ele>
        <time>2024-08-14T07:58:19Z</time>
      </trkpt>
      <trkpt lat="44.62843" lon="2.57365">
        <ele>293.3</ele>
        <time>2024-08-14T07:58:21Z</time>
      </trkpt>
      <trkpt lat="44.62838" lon="2.57369">
        <ele>293.6</ele>
        <time>2024-08-14T07:58:23Z</time>
      </trkpt>
      <trkpt lat="44.62833" lon="2.57374">
        <ele>293.8</ele>
        <time>2024-08-14T07:58:25Z</time>
      </trkpt>
      <trkpt lat="44.62827" lon="2.57379">
        <ele>294.1</ele>
        <time>2024-08-14T07:58:27Z</time>
      </trkpt>
      <trkpt lat="44.62821" lon="2.57384">
        <ele>294.5</ele>
        <time>2024-08-14T07:58:29Z</time>
      </trkpt>
      <trkpt lat="44.62815" lon="2.57389">
        <ele>294.8</ele>
        <time>2024-08-14T07:58:31Z</time>
      </trkpt>
      <trkpt lat="44.6281" lon="2.57396">
        <ele>295.3</ele>
        <time>2024-08-14T07:58:33Z</time>
      </trkpt>
      <trkpt lat="44.62805" lon="2.57402">
        <ele>295.7</ele>
        <time>2024-08-14T07:58:35Z</time>
      </trkpt>
      <trkpt lat="44.62801" lon="2.57409">
        <ele>296.1</ele>
        <time>2024-08-14T07:58:37Z</time>
      </trkpt>
      <trkpt lat="44.62797" lon="2.57416">
        <ele>296.6</ele>
        <time>2024-08-14T07:58:39Z</time>
      </trkpt>
      <trkpt lat="44.62795" lon="2.5742">
        <ele>296.8</ele>
        <time>2024-08-14T07:58:40Z</time>
      </trkpt>
      <trkpt lat="44.62793" lon="2.57424">
        <ele>297.1</ele>
        <time>2024-08-14T07:58:41Z</time>
      </trkpt>
      <trkpt lat="44.62789" lon="2.5743">
        <ele>297.4</ele>
        <time>2024-08-14T07:58:43Z</time>
      </trkpt>
      <trkpt lat="44.62785" lon="2.57435">
        <ele>297.8</ele>
        <time>2024-08-14T07:58:45Z</time>
      </trkpt>
      <trkpt lat="44.62783" lon="2.57437">
        <ele>298</ele>
        <time>2024-08-14T07:58:46Z</time>
      </trkpt>
      <trkpt lat="44.6278" lon="2.57439">
        <ele>298.2</ele>
        <time>2024-08-14T07:58:47Z</time>
      </trkpt>
      <trkpt lat="44.62776" lon="2.57443">
        <ele>298.5</ele>
        <time>2024-08-14T07:58:49Z</time>
      </trkpt>
      <trkpt lat="44.62773" lon="2.57447">
        <ele>298.8</ele>
        <time>2024-08-14T07:58:51Z</time>
      </trkpt>
      <trkpt lat="44.62768" lon="2.5745">
        <ele>299.1</ele>
        <time>2024-08-14T07:58:53Z</time>
      </trkpt>
      <trkpt lat="44.62764" lon="2.57453">
        <ele>299.4</ele>
        <time>2024-08-14T07:58:55Z</time>
      </trkpt>
      <trkpt lat="44.62759" lon="2.57455">
        <ele>299.7</ele>
        <time>2024-08-14T07:58:57Z</time>
      </trkpt>
      <trkpt lat="44.62756" lon="2.57456">
        <ele>299.9</ele>
        <time>2024-08-14T07:58:58Z</time>
      </trkpt>
      <trkpt lat="44.62753" lon="2.57456">
        <ele>300.1</ele>
        <time>2024-08-14T07:58:59Z</time>
      </trkpt>
      <trkpt lat="44.62748" lon="2.57457">
        <ele>300.4</ele>
        <time>2024-08-14T07:59:01Z</time>
      </trkpt>
      <trkpt lat="44.62742" lon="2.57457">
        <ele>300.7</ele>
        <time>2024-08-14T07:59:03Z</time>
      </trkpt>
      <trkpt lat="44.62739" lon="2.57456">
        <ele>300.9</ele>
        <time>2024-08-14T07:59:04Z</time>
      </trkpt>
      <trkpt lat="44.62737" lon="2.57455">
        <ele>301</ele>
        <time>2024-08-14T07:59:05Z</time>
      </trkpt>
      <trkpt lat="44.62732" lon="2.57452">
        <ele>301.3</ele>
        <time>2024-08-14T07:59:07Z</time>
      </trkpt>
      <trkpt lat="44.62728" lon="2.57449">
        <ele>301.6</ele>
        <time>2024-08-14T07:59:09Z</time>
      </trkpt>
      <trkpt lat="44.62726" lon="2.57447">
        <ele>301.7</ele>
        <time>2024-08-14T07:59:10Z</time>
      </trkpt>
      <trkpt lat="44.62723" lon="2.57445">
        <ele>301.8</ele>
        <time>2024-08-14T07:59:11Z</time>
      </trkpt>
      <trkpt lat="44.62719" lon="2.57442">
        <ele>302.1</ele>
        <time>2024-08-14T07:59:13Z</time>
      </trkpt>
      <trkpt lat="44.62715" lon="2.57438">
        <ele>302.3</ele>
        <time>2024-08-14T07:59:15Z</time>
      </trkpt>
      <trkpt lat="44.62713" lon="2.57436">
        <ele>302.5</ele>
        <time>2024-08-14T07:59:16Z</time>
      </trkpt>
      <trkpt lat="44.62711" lon="2.57434">
        <ele>302.6</ele>
        <time>2024-08-14T07:59:17Z</time>
      </trkpt>
      <trkpt lat="44.62707" lon="2.5743">
        <ele>302.8</ele>
        <time>2024-08-14T07:59:19Z</time>
      </trkpt>
      <trkpt lat="44.62702" lon="2.57427">
        <ele>303.1</ele>
        <time>2024-08-14T07:59:21Z</time>
      </trkpt>
      <trkpt lat="44.627" lon="2.57425">
        <ele>303.3</ele>
        <time>2024-08-14T07:59:22Z</time>
      </trkpt>
      <trkpt lat="44.62697" lon="2.57423">
        <ele>303.5</ele>
        <time>2024-08-14T07:59:23Z</time>
      </trkpt>
      <trkpt lat="44.62691" lon="2.57421">
        <ele>303.8</ele>
        <time>2024-08-14T07:59:25Z</time>
      </trkpt>
      <trkpt lat="44.62685" lon="2.57422">
        <ele>304.2</ele>
        <time>2024-08-14T07:59:27Z</time>
      </trkpt>
      <trkpt lat="44.6268" lon="2.57425">
        <ele>304.6</ele>
        <time>2024-08-14T07:59:29Z</time>
      </trkpt>
      <trkpt lat="44.62676" lon="2.5743">
        <ele>304.9</ele>
        <time>2024-08-14T07:59:31Z</time>
      </trkpt>
      <trkpt lat="44.62675" lon="2.57433">
        <ele>305.1</ele>
        <time>2024-08-14T07:59:32Z</time>
      </trkpt>
      <trkpt lat="44.62674" lon="2.57437">
        <ele>305.3</ele>
        <time>2024-08-14T07:59:33Z</time>
      </trkpt>
      <trkpt lat="44.62673" lon="2.57444">
        <ele>305.6</ele>
        <time>2024-08-14T07:59:35Z</time>
      </trkpt>
      <trkpt lat="44.62673" lon="2.57451">
        <ele>305.9</ele>
        <time>2024-08-14T07:59:37Z</time>
      </trkpt>
      <trkpt lat="44.62672" lon="2.57455">
        <ele>306</ele>
        <time>2024-08-14T07:59:38Z</time>
      </trkpt>
      <trkpt lat="44.62672" lon="2.57459">
        <ele>306.2</ele>
        <time>2024-08-14T07:59:39Z</time>
      </trkpt>
      <trkpt lat="44.62672" lon="2.57466">
        <ele>306.4</ele>
        <time>2024-08-14T07:59:41Z</time>
      </trkpt>
      <trkpt lat="44.62672" lon="2.57472">
        <ele>306.7</ele>
        <time>2024-08-14T07:59:43Z</time>
      </trkpt>
      <trkpt lat="44.62672" lon="2.57475">
        <ele>306.8</ele>
        <time>2024-08-14T07:59:44Z</time>
      </trkpt>
      <trkpt lat="44.62672" lon="2.57479">
        <ele>307</ele>
        <time>2024-08-14T07:59:45Z</time>
      </trkpt>
      <trkpt lat="44.62672" lon="2.57485">
        <ele>307.3</ele>
        <time>2024-08-14T07:59:47Z</time>
      </trkpt>
      <trkpt lat="44.62673" lon="2.57492">
        <ele>307.6</ele>
        <time>2024-08-14T07:59:49Z</time>
      </trkpt>
      <trkpt lat="44.62673" lon="2.57498">
        <ele>307.8</ele>
        <time>2024-08-14T07:59:51Z</time>
      </trkpt>
      <trkpt lat="44.62673" lon="2.57504">
        <ele>308.1</ele>
        <time>2024-08-14T07:59:53Z</time>
      </trkpt>
      <trkpt lat="44.62673" lon="2.57511">
        <ele>308.4</ele>
        <time>2024-08-14T07:59:55Z</time>
      </trkpt>
      <trkpt lat="44.62674" lon="2.57514">
        <ele>308.5</ele>
        <time>2024-08-14T07:59:56Z</time>
      </trkpt>
      <trkpt lat="44.62674" lon="2.57517">
        <ele>308.7</ele>
        <time>2024-08-14T07:59:57Z</time>
      </trkpt>
      <trkpt lat="44.62674" lon="2.57523">
        <ele>308.9</ele>
        <time>2024-08-14T07:59:59Z</time>
      </trkpt>
      <trkpt lat="44.62674" lon="2.57526">
        <ele>309.1</ele>
        <time>2024-08-14T08:00:00Z</time>
      </trkpt>
      <trkpt lat="44.62674" lon="2.5753">
        <ele>309.2</ele>
        <time>2024-08-14T08:00:01Z</time>
      </trkpt>
      <trkpt lat="44.62673" lon="2.57536">
        <ele>309.5</ele>
        <time>2024-08-14T08:00:03Z</time>
      </trkpt>
      <trkpt lat="44.62672" lon="2.57543">
        <ele>309.8</ele>
        <time>2024-08-14T08:00:05Z</time>
      </trkpt>
      <trkpt lat="44.62672" lon="2.57546">
        <ele>310</ele>
        <time>2024-08-14T08:00:06Z</time>
      </trkpt>
      <trkpt lat="44.62671" lon="2.57549">
        <ele>310.1</ele>
        <time>2024-08-14T08:00:07Z</time>
      </trkpt>
      <trkpt lat="44.62671" lon="2.57555">
        <ele>310.4</ele>
        <time>2024-08-14T08:00:09Z</time>
      </trkpt>
      <trkpt lat="44.62671" lon="2.57558">
        <ele>310.6</ele>
        <time>2024-08-14T08:00:10Z</time>
      </trkpt>
      <trkpt lat="44.62672" lon="2.57562">
        <ele>310.7</ele>
        <time>2024-08-14T08:00:11Z</time>
      </trkpt>
      <trkpt lat="44.62673" lon="2.57568">
        <ele>311</ele>
        <time>2024-08-14T08:00:13Z</time>
      </trkpt>
      <trkpt lat="44.62673" lon="2.57574">
        <ele>311.4</ele>
        <time>2024-08-14T08:00:15Z</time>
      </trkpt>
      <trkpt lat="44.62675" lon="2.57581">
        <ele>311.8</ele>
        <time>2024-08-14T08:00:17Z</time>
      </trkpt>
      <trkpt lat="44.62677" lon="2.57588">
        <ele>312.2</ele>
        <time>2024-08-14T08:00:19Z</time>
      </trkpt>
      <trkpt lat="44.62678" lon="2.57595">
        <ele>312.5</ele>
        <time>2024-08-14T08:00:21Z</time>
      </trkpt>
      <trkpt lat="44.62679" lon="2.57602">
        <ele>313</ele>
        <time>2024-08-14T08:00:23Z</time>
      </trkpt>
      <trkpt lat="44.62681" lon="2.5761">
        <ele>313.4</ele>
        <time>2024-08-14T08:00:25Z</time>
      </trkpt>
      <trkpt lat="44.62682" lon="2.57618">
        <ele>313.8</ele>
        <time>2024-08-14T08:00:27Z</time>
      </trkpt>
      <trkpt lat="44.62682" lon="2.57626">
        <ele>314.1</ele>
        <time>2024-08-14T08:00:29Z</time>
      </trkpt>
      <trkpt lat="44.6268" lon="2.57632">
        <ele>314.4</ele>
        <time>2024-08-14T08:00:31Z</time>
      </trkpt>
      <trkpt lat="44.62678" lon="2.57637">
        <ele>314.6</ele>
        <time>2024-08-14T08:00:33Z</time>
      </trkpt>
      <trkpt lat="44.62674" lon="2.57641">
        <ele>314.9</ele>
        <time>2024-08-14T08:00:35Z</time>
      </trkpt>
      <trkpt lat="44.6267" lon="2.57645">
        <ele>315.2</ele>
        <time>2024-08-14T08:00:37Z</time>
      </trkpt>
      <trkpt lat="44.62666" lon="2.57647">
        <ele>315.5</ele>
        <time>2024-08-14T08:00:39Z</time>
      </trkpt>
      <trkpt lat="44.62661" lon="2.57649">
        <ele>315.7</ele>
        <time>2024-08-14T08:00:41Z</time>
      </trkpt>
      <trkpt lat="44.62656" lon="2.57651">
        <ele>315.9</ele>
        <time>2024-08-14T08:00:43Z</time>
      </trkpt>
      <trkpt lat="44.62652" lon="2.57652">
        <ele>316.1</ele>
        <time>2024-08-14T08:00:45Z</time>
      </trkpt>
      <trkpt lat="44.6265" lon="2.57653">
        <ele>316.2</ele>
        <time>2024-08-14T08:00:46Z</time>
      </trkpt>
      <trkpt lat="44.62648" lon="2.57654">
        <ele>316.3</ele>
        <time>2024-08-14T08:00:47Z</time>
      </trkpt>
      <trkpt lat="44.62644" lon="2.57655">
        <ele>316.5</ele>
        <time>2024-08-14T08:00:49Z</time>
      </trkpt>
      <trkpt lat="44.6264" lon="2.57657">
        <ele>316.7</ele>
        <time>2024-08-14T08:00:51Z</time>
      </trkpt>
      <trkpt lat="44.62635" lon="2.57659">
        <ele>317</ele>
        <time>2024-08-14T08:00:53Z</time>
      </trkpt>
      <trkpt lat="44.62631" lon="2.57662">
        <ele>317.2</ele>
        <time>2024-08-14T08:00:55Z</time>
      </trkpt>
      <trkpt lat="44.62627" lon="2.57666">
        <ele>317.5</ele>
        <time>2024-08-14T08:00:57Z</time>
      </trkpt>
      <trkpt lat="44.62623" lon="2.5767">
        <ele>317.8</ele>
        <time>2024-08-14T08:00:59Z</time>
      </trkpt>
      <trkpt lat="44.6262" lon="2.57675">
        <ele>318.1</ele>
        <time>2024-08-14T08:01:01Z</time>
      </trkpt>
      <trkpt lat="44.62616" lon="2.57678">
        <ele>318.4</ele>
        <time>2024-08-14T08:01:03Z</time>
      </trkpt>
      <trkpt lat="44.62613" lon="2.57679">
        <ele>318.6</ele>
        <time>2024-08-14T08:01:05Z</time>
      </trkpt>
      <trkpt lat="44.62609" lon="2.5768">
        <ele>318.8</ele>
        <time>2024-08-14T08:01:07Z</time>
      </trkpt>
      <trkpt lat="44.62604" lon="2.57682">
        <ele>319.1</ele>
        <time>2024-08-14T08:01:09Z</time>
      </trkpt>
      <trkpt lat="44.626" lon="2.57684">
        <ele>319.3</ele>
        <time>2024-08-14T08:01:11Z</time>
      </trkpt>
      <trkpt lat="44.62594" lon="2.57688">
        <ele>319.5</ele>
        <time>2024-08-14T08:01:13Z</time>
      </trkpt>
      <trkpt lat="44.62588" lon="2.57691">
        <ele>319.6</ele>
        <time>2024-08-14T08:01:15Z</time>
      </trkpt>
      <trkpt lat="44.62585" lon="2.57695">
        <ele>319.6</ele>
        <time>2024-08-14T08:01:16Z</time>
      </trkpt>
      <trkpt lat="44.62581" lon="2.57698">
        <ele>319.6</ele>
        <time>2024-08-14T08:01:17Z</time>
      </trkpt>
      <trkpt lat="44.62573" lon="2.57705">
        <ele>319.7</ele>
        <time>2024-08-14T08:01:19Z</time>
      </trkpt>
      <trkpt lat="44.62569" lon="2.57708">
        <ele>319.8</ele>
        <time>2024-08-14T08:01:20Z</time>
      </trkpt>
      <trkpt lat="44.62565" lon="2.57711">
        <ele>320</ele>
        <time>2024-08-14T08:01:21Z</time>
      </trkpt>
      <trkpt lat="44.62556" lon="2.57715">
        <ele>320.5</ele>
        <time>2024-08-14T08:01:23Z</time>
      </trkpt>
      <trkpt lat="44.62549" lon="2.57717">
        <ele>320.9</ele>
        <time>2024-08-14T08:01:25Z</time>
      </trkpt>
      <trkpt lat="44.62541" lon="2.5772">
        <ele>321.3</ele>
        <time>2024-08-14T08:01:27Z</time>
      </trkpt>
      <trkpt lat="44.62535" lon="2.57726">
        <ele>321.7</ele>
        <time>2024-08-14T08:01:29Z</time>
      </trkpt>
      <trkpt lat="44.6253" lon="2.57736">
        <ele>322.1</ele>
        <time>2024-08-14T08:01:31Z</time>
      </trkpt>
      <trkpt lat="44.62524" lon="2.57745">
        <ele>322.4</ele>
        <time>2024-08-14T08:01:33Z</time>
      </trkpt>
      <trkpt lat="44.62521" lon="2.5775">
        <ele>322.5</ele>
        <time>2024-08-14T08:01:34Z</time>
      </trkpt>
      <trkpt lat="44.62518" lon="2.57754">
        <ele>322.6</ele>
        <time>2024-08-14T08:01:35Z</time>
      </trkpt>
      <trkpt lat="44.6251" lon="2.57764">
        <ele>322.9</ele>
        <time>2024-08-14T08:01:37Z</time>
      </trkpt>
      <trkpt lat="44.62503" lon="2.57775">
        <ele>323.3</ele>
        <time>2024-08-14T08:01:39Z</time>
      </trkpt>
      <trkpt lat="44.625" lon="2.57781">
        <ele>323.5</ele>
        <time>2024-08-14T08:01:40Z</time>
      </trkpt>
      <trkpt lat="44.62497" lon="2.57787">
        <ele>323.7</ele>
        <time>2024-08-14T08:01:41Z</time>
      </trkpt>
      <trkpt lat="44.62491" lon="2.57797">
        <ele>323.5</ele>
        <time>2024-08-14T08:01:43Z</time>
      </trkpt>
      <trkpt lat="44.62488" lon="2.57801">
        <ele>323.3</ele>
        <time>2024-08-14T08:01:44Z</time>
      </trkpt>
      <trkpt lat="44.62485" lon="2.57805">
        <ele>323.1</ele>
        <time>2024-08-14T08:01:45Z</time>
      </trkpt>
      <trkpt lat="44.62478" lon="2.57811">
        <ele>322.8</ele>
        <time>2024-08-14T08:01:47Z</time>
      </trkpt>
      <trkpt lat="44.62475" lon="2.57814">
        <ele>322.6</ele>
        <time>2024-08-14T08:01:48Z</time>
      </trkpt>
      <trkpt lat="44.62471" lon="2.57816">
        <ele>322.5</ele>
        <time>2024-08-14T08:01:49Z</time>
      </trkpt>
      <trkpt lat="44.62467" lon="2.57819">
        <ele>322.3</ele>
        <time>2024-08-14T08:01:50Z</time>
      </trkpt>
      <trkpt lat="44.62464" lon="2.57822">
        <ele>322.1</ele>
        <time>2024-08-14T08:01:51Z</time>
      </trkpt>
      <trkpt lat="44.62461" lon="2.57826">
        <ele>322</ele>
        <time>2024-08-14T08:01:52Z</time>
      </trkpt>
      <trkpt lat="44.62459" lon="2.57829">
        <ele>321.8</ele>
        <time>2024-08-14T08:01:53Z</time>
      </trkpt>
      <trkpt lat="44.62456" lon="2.57833">
        <ele>321.6</ele>
        <time>2024-08-14T08:01:54Z</time>
      </trkpt>
      <trkpt lat="44.62452" lon="2.57836">
        <ele>321.4</ele>
        <time>2024-08-14T08:01:55Z</time>
      </trkpt>
      <trkpt lat="44.62444" lon="2.57842">
        <ele>320.8</ele>
        <time>2024-08-14T08:01:57Z</time>
      </trkpt>
      <trkpt lat="44.6244" lon="2.57846">
        <ele>320.4</ele>
        <time>2024-08-14T08:01:58Z</time>
      </trkpt>
      <trkpt lat="44.62437" lon="2.5785">
        <ele>320</ele>
        <time>2024-08-14T08:01:59Z</time>
      </trkpt>
      <trkpt lat="44.62433" lon="2.57854">
        <ele>319.5</ele>
        <time>2024-08-14T08:02:00Z</time>
      </trkpt>
      <trkpt lat="44.62429" lon="2.57858">
        <ele>319</ele>
        <time>2024-08-14T08:02:01Z</time>
      </trkpt>
      <trkpt lat="44.62424" lon="2.57862">
        <ele>318.3</ele>
        <time>2024-08-14T08:02:02Z</time>
      </trkpt>
      <trkpt lat="44.6242" lon="2.57867">
        <ele>317.6</ele>
        <time>2024-08-14T08:02:03Z</time>
      </trkpt>
      <trkpt lat="44.62411" lon="2.57877">
        <ele>316.1</ele>
        <time>2024-08-14T08:02:05Z</time>
      </trkpt>
      <trkpt lat="44.62406" lon="2.57881">
        <ele>315.4</ele>
        <time>2024-08-14T08:02:06Z</time>
      </trkpt>
      <trkpt lat="44.62402" lon="2.57884">
        <ele>314.8</ele>
        <time>2024-08-14T08:02:07Z</time>
      </trkpt>
      <trkpt lat="44.62395" lon="2.57889">
        <ele>313.8</ele>
        <time>2024-08-14T08:02:09Z</time>
      </trkpt>
      <trkpt lat="44.62391" lon="2.57891">
        <ele>313.3</ele>
        <time>2024-08-14T08:02:10Z</time>
      </trkpt>
      <trkpt lat="44.62387" lon="2.57894">
        <ele>312.7</ele>
        <time>2024-08-14T08:02:11Z</time>
      </trkpt>
      <trkpt lat="44.62384" lon="2.57898">
        <ele>312.4</ele>
        <time>2024-08-14T08:02:12Z</time>
      </trkpt>
      <trkpt lat="44.6238" lon="2.57901">
        <ele>312.6</ele>
        <time>2024-08-14T08:02:13Z</time>
      </trkpt>
      <trkpt lat="44.62376" lon="2.57903">
        <ele>312.8</ele>
        <time>2024-08-14T08:02:14Z</time>
      </trkpt>
      <trkpt lat="44.62371" lon="2.57905">
        <ele>313</ele>
        <time>2024-08-14T08:02:15Z</time>
      </trkpt>
      <trkpt lat="44.62367" lon="2.57907">
        <ele>313.3</ele>
        <time>2024-08-14T08:02:16Z</time>
      </trkpt>
      <trkpt lat="44.62362" lon="2.57909">
        <ele>313.6</ele>
        <time>2024-08-14T08:02:17Z</time>
      </trkpt>
      <trkpt lat="44.62352" lon="2.57912">
        <ele>314.2</ele>
        <time>2024-08-14T08:02:19Z</time>
      </trkpt>
      <trkpt lat="44.62347" lon="2.57913">
        <ele>314.5</ele>
        <time>2024-08-14T08:02:20Z</time>
      </trkpt>
      <trkpt lat="44.62343" lon="2.57914">
        <ele>314.7</ele>
        <time>2024-08-14T08:02:21Z</time>
      </trkpt>
      <trkpt lat="44.62339" lon="2.57915">
        <ele>315</ele>
        <time>2024-08-14T08:02:22Z</time>
      </trkpt>
      <trkpt lat="44.62335" lon="2.57916">
        <ele>315.2</ele>
        <time>2024-08-14T08:02:23Z</time>
      </trkpt>
      <trkpt lat="44.6233" lon="2.57916">
        <ele>315.6</ele>
        <time>2024-08-14T08:02:24Z</time>
      </trkpt>
      <trkpt lat="44.62325" lon="2.57916">
        <ele>315.9</ele>
        <time>2024-08-14T08:02:25Z</time>
      </trkpt>
      <trkpt lat="44.62317" lon="2.57915">
        <ele>315.9</ele>
        <time>2024-08-14T08:02:27Z</time>
      </trkpt>
      <trkpt lat="44.62311" lon="2.57912">
        <ele>315.7</ele>
        <time>2024-08-14T08:02:29Z</time>
      </trkpt>
      <trkpt lat="44.62305" lon="2.57907">
        <ele>315.4</ele>
        <time>2024-08-14T08:02:31Z</time>
      </trkpt>
      <trkpt lat="44.62299" lon="2.57904">
        <ele>315.1</ele>
        <time>2024-08-14T08:02:33Z</time>
      </trkpt>
      <trkpt lat="44.62294" lon="2.57901">
        <ele>314.9</ele>
        <time>2024-08-14T08:02:35Z</time>
      </trkpt>
      <trkpt lat="44.6229" lon="2.57896">
        <ele>314.7</ele>
        <time>2024-08-14T08:02:37Z</time>
      </trkpt>
      <trkpt lat="44.62288" lon="2.57893">
        <ele>314.6</ele>
        <time>2024-08-14T08:02:38Z</time>
      </trkpt>
      <trkpt lat="44.62286" lon="2.57891">
        <ele>314.5</ele>
        <time>2024-08-14T08:02:39Z</time>
      </trkpt>
      <trkpt lat="44.62284" lon="2.57889">
        <ele>314.4</ele>
        <time>2024-08-14T08:02:40Z</time>
      </trkpt>
      <trkpt lat="44.62281" lon="2.57886">
        <ele>314.3</ele>
        <time>2024-08-14T08:02:41Z</time>
      </trkpt>
      <trkpt lat="44.62279" lon="2.57883">
        <ele>314.2</ele>
        <time>2024-08-14T08:02:42Z</time>
      </trkpt>
      <trkpt lat="44.62277" lon="2.57882">
        <ele>314.1</ele>
        <time>2024-08-14T08:02:43Z</time>
      </trkpt>
      <trkpt lat="44.62269" lon="2.57876">
        <ele>313.8</ele>
        <time>2024-08-14T08:02:45Z</time>
      </trkpt>
      <trkpt lat="44.62264" lon="2.57874">
        <ele>313.7</ele>
        <time>2024-08-14T08:02:46Z</time>
      </trkpt>
      <trkpt lat="44.62258" lon="2.57873">
        <ele>313.5</ele>
        <time>2024-08-14T08:02:47Z</time>
      </trkpt>
      <trkpt lat="44.62248" lon="2.57873">
        <ele>313.5</ele>
        <time>2024-08-14T08:02:49Z</time>
      </trkpt>
      <trkpt lat="44.62243" lon="2.57872">
        <ele>313.6</ele>
        <time>2024-08-14T08:02:50Z</time>
      </trkpt>
      <trkpt lat="44.6224" lon="2.57872">
        <ele>313.6</ele>
        <time>2024-08-14T08:02:51Z</time>
      </trkpt>
      <trkpt lat="44.62236" lon="2.57871">
        <ele>313.8</ele>
        <time>2024-08-14T08:02:52Z</time>
      </trkpt>
      <trkpt lat="44.62232" lon="2.5787">
        <ele>313.9</ele>
        <time>2024-08-14T08:02:53Z</time>
      </trkpt>
      <trkpt lat="44.62226" lon="2.57867">
        <ele>314.1</ele>
        <time>2024-08-14T08:02:55Z</time>
      </trkpt>
      <trkpt lat="44.62221" lon="2.57864">
        <ele>314.2</ele>
        <time>2024-08-14T08:02:57Z</time>
      </trkpt>
      <trkpt lat="44.62216" lon="2.5786">
        <ele>314.4</ele>
        <time>2024-08-14T08:02:59Z</time>
      </trkpt>
      <trkpt lat="44.62211" lon="2.57857">
        <ele>314.6</ele>
        <time>2024-08-14T08:03:01Z</time>
      </trkpt>
      <trkpt lat="44.62204" lon="2.57855">
        <ele>314.8</ele>
        <time>2024-08-14T08:03:03Z</time>
      </trkpt>
      <trkpt lat="44.62202" lon="2.57855">
        <ele>314.8</ele>
        <time>2024-08-14T08:03:04Z</time>
      </trkpt>
      <trkpt lat="44.62199" lon="2.57855">
        <ele>315</ele>
        <time>2024-08-14T08:03:05Z</time>
      </trkpt>
      <trkpt lat="44.62194" lon="2.57859">
        <ele>315.2</ele>
        <time>2024-08-14T08:03:07Z</time>
      </trkpt>
      <trkpt lat="44.6219" lon="2.57865">
        <ele>315.6</ele>
        <time>2024-08-14T08:03:09Z</time>
      </trkpt>
      <trkpt lat="44.62187" lon="2.5787">
        <ele>315.9</ele>
        <time>2024-08-14T08:03:11Z</time>
      </trkpt>
      <trkpt lat="44.62182" lon="2.57873">
        <ele>316.3</ele>
        <time>2024-08-14T08:03:13Z</time>
      </trkpt>
      <trkpt lat="44.62179" lon="2.57874">
        <ele>316.4</ele>
        <time>2024-08-14T08:03:14Z</time>
      </trkpt>
      <trkpt lat="44.62175" lon="2.57874">
        <ele>316.6</ele>
        <time>2024-08-14T08:03:15Z</time>
      </trkpt>
      <trkpt lat="44.62169" lon="2.57874">
        <ele>317</ele>
        <time>2024-08-14T08:03:17Z</time>
      </trkpt>
      <trkpt lat="44.62164" lon="2.57873">
        <ele>317.3</ele>
        <time>2024-08-14T08:03:19Z</time>
      </trkpt>
      <trkpt lat="44.62159" lon="2.57872">
        <ele>318.2</ele>
        <time>2024-08-14T08:03:21Z</time>
      </trkpt>
      <trkpt lat="44.62156" lon="2.57871">
        <ele>318.7</ele>
        <time>2024-08-14T08:03:22Z</time>
      </trkpt>
      <trkpt lat="44.62153" lon="2.57869">
        <ele>319.2</ele>
        <time>2024-08-14T08:03:23Z</time>
      </trkpt>
      <trkpt lat="44.62151" lon="2.57868">
        <ele>319.6</ele>
        <time>2024-08-14T08:03:24Z</time>
      </trkpt>
      <trkpt lat="44.62149" lon="2.57867">
        <ele>319.9</ele>
        <time>2024-08-14T08:03:25Z</time>
      </trkpt>
      <trkpt lat="44.62145" lon="2.57864">
        <ele>320.5</ele>
        <time>2024-08-14T08:03:27Z</time>
      </trkpt>
      <trkpt lat="44.62143" lon="2.57863">
        <ele>320.7</ele>
        <time>2024-08-14T08:03:28Z</time>
      </trkpt>
      <trkpt lat="44.62141" lon="2.57862">
        <ele>321</ele>
        <time>2024-08-14T08:03:29Z</time>
      </trkpt>
      <trkpt lat="44.62136" lon="2.57857">
        <ele>321.6</ele>
        <time>2024-08-14T08:03:31Z</time>
      </trkpt>
      <trkpt lat="44.62134" lon="2.57855">
        <ele>321.9</ele>
        <time>2024-08-14T08:03:32Z</time>
      </trkpt>
      <trkpt lat="44.62131" lon="2.57853">
        <ele>322.3</ele>
        <time>2024-08-14T08:03:33Z</time>
      </trkpt>
      <trkpt lat="44.62124" lon="2.57849">
        <ele>323.1</ele>
        <time>2024-08-14T08:03:35Z</time>
      </trkpt>
      <trkpt lat="44.62121" lon="2.57847">
        <ele>323.5</ele>
        <time>2024-08-14T08:03:36Z</time>
      </trkpt>
      <trkpt lat="44.62117" lon="2.57845">
        <ele>323.8</ele>
        <time>2024-08-14T08:03:37Z</time>
      </trkpt>
      <trkpt lat="44.62113" lon="2.57843">
        <ele>324.3</ele>
        <time>2024-08-14T08:03:38Z</time>
      </trkpt>
      <trkpt lat="44.62109" lon="2.57842">
        <ele>324.7</ele>
        <time>2024-08-14T08:03:39Z</time>
      </trkpt>
      <trkpt lat="44.62106" lon="2.57843">
        <ele>325</ele>
        <time>2024-08-14T08:03:40Z</time>
      </trkpt>
      <trkpt lat="44.62103" lon="2.57843">
        <ele>325.4</ele>
        <time>2024-08-14T08:03:41Z</time>
      </trkpt>
      <trkpt lat="44.62095" lon="2.57843">
        <ele>326.2</ele>
        <time>2024-08-14T08:03:43Z</time>
      </trkpt>
      <trkpt lat="44.62091" lon="2.57841">
        <ele>326.7</ele>
        <time>2024-08-14T08:03:44Z</time>
      </trkpt>
      <trkpt lat="44.62087" lon="2.57838">
        <ele>327.2</ele>
        <time>2024-08-14T08:03:45Z</time>
      </trkpt>
      <trkpt lat="44.62082" lon="2.57837">
        <ele>327.8</ele>
        <time>2024-08-14T08:03:46Z</time>
      </trkpt>
      <trkpt lat="44.62078" lon="2.57838">
        <ele>328</ele>
        <time>2024-08-14T08:03:47Z</time>
      </trkpt>
      <trkpt lat="44.62075" lon="2.57841">
        <ele>328.2</ele>
        <time>2024-08-14T08:03:48Z</time>
      </trkpt>
      <trkpt lat="44.62075" lon="2.57844">
        <ele>328.3</ele>
        <time>2024-08-14T08:03:49Z</time>
      </trkpt>
      <trkpt lat="44.62076" lon="2.57849">
        <ele>328.3</ele>
        <time>2024-08-14T08:03:50Z</time>
      </trkpt>
      <trkpt lat="44.62078" lon="2.57855">
        <ele>328.4</ele>
        <time>2024-08-14T08:03:51Z</time>
      </trkpt>
      <trkpt lat="44.62079" lon="2.57868">
        <ele>328.7</ele>
        <time>2024-08-14T08:03:53Z</time>
      </trkpt>
      <trkpt lat="44.6208" lon="2.5788">
        <ele>329.2</ele>
        <time>2024-08-14T08:03:55Z</time>
      </trkpt>
      <trkpt lat="44.62079" lon="2.57892">
        <ele>329.7</ele>
        <time>2024-08-14T08:03:57Z</time>
      </trkpt>
      <trkpt lat="44.62078" lon="2.57904">
        <ele>330.3</ele>
        <time>2024-08-14T08:03:59Z</time>
      </trkpt>
      <trkpt lat="44.62077" lon="2.57916">
        <ele>330.8</ele>
        <time>2024-08-14T08:04:01Z</time>
      </trkpt>
      <trkpt lat="44.62076" lon="2.57927">
        <ele>331.3</ele>
        <time>2024-08-14T08:04:03Z</time>
      </trkpt>
      <trkpt lat="44.62074" lon="2.57933">
        <ele>331.6</ele>
        <time>2024-08-14T08:04:04Z</time>
      </trkpt>
      <trkpt lat="44.62072" lon="2.57937">
        <ele>331.8</ele>
        <time>2024-08-14T08:04:05Z</time>
      </trkpt>
      <trkpt lat="44.62065" lon="2.57939">
        <ele>332.3</ele>
        <time>2024-08-14T08:04:07Z</time>
      </trkpt>
      <trkpt lat="44.62057" lon="2.57938">
        <ele>332.9</ele>
        <time>2024-08-14T08:04:09Z</time>
      </trkpt>
      <trkpt lat="44.6205" lon="2.57935">
        <ele>333.4</ele>
        <time>2024-08-14T08:04:11Z</time>
      </trkpt>
      <trkpt lat="44.62044" lon="2.5793">
        <ele>333.9</ele>
        <time>2024-08-14T08:04:13Z</time>
      </trkpt>
      <trkpt lat="44.62037" lon="2.57924">
        <ele>334.5</ele>
        <time>2024-08-14T08:04:15Z</time>
      </trkpt>
      <trkpt lat="44.62034" lon="2.57921">
        <ele>334.7</ele>
        <time>2024-08-14T08:04:16Z</time>
      </trkpt>
      <trkpt lat="44.62032" lon="2.57918">
        <ele>335</ele>
        <time>2024-08-14T08:04:17Z</time>
      </trkpt>
      <trkpt lat="44.62026" lon="2.57914">
        <ele>335.5</ele>
        <time>2024-08-14T08:04:19Z</time>
      </trkpt>
      <trkpt lat="44.62023" lon="2.57911">
        <ele>335.8</ele>
        <time>2024-08-14T08:04:20Z</time>
      </trkpt>
      <trkpt lat="44.6202" lon="2.57907">
        <ele>336.1</ele>
        <time>2024-08-14T08:04:21Z</time>
      </trkpt>
      <trkpt lat="44.62013" lon="2.579">
        <ele>336.8</ele>
        <time>2024-08-14T08:04:23Z</time>
      </trkpt>
      <trkpt lat="44.62006" lon="2.57896">
        <ele>337.4</ele>
        <time>2024-08-14T08:04:25Z</time>
      </trkpt>
      <trkpt lat="44.62003" lon="2.57894">
        <ele>337.7</ele>
        <time>2024-08-14T08:04:26Z</time>
      </trkpt>
      <trkpt lat="44.62" lon="2.57891">
        <ele>338.1</ele>
        <time>2024-08-14T08:04:27Z</time>
      </trkpt>
      <trkpt lat="44.61993" lon="2.57886">
        <ele>338.9</ele>
        <time>2024-08-14T08:04:29Z</time>
      </trkpt>
      <trkpt lat="44.61989" lon="2.57884">
        <ele>339.3</ele>
        <time>2024-08-14T08:04:30Z</time>
      </trkpt>
      <trkpt lat="44.61985" lon="2.57882">
        <ele>339.7</ele>
        <time>2024-08-14T08:04:31Z</time>
      </trkpt>
      <trkpt lat="44.61978" lon="2.57878">
        <ele>340.5</ele>
        <time>2024-08-14T08:04:33Z</time>
      </trkpt>
      <trkpt lat="44.61974" lon="2.57876">
        <ele>340.8</ele>
        <time>2024-08-14T08:04:34Z</time>
      </trkpt>
      <trkpt lat="44.61971" lon="2.57874">
        <ele>341.1</ele>
        <time>2024-08-14T08:04:35Z</time>
      </trkpt>
      <trkpt lat="44.61965" lon="2.57871">
        <ele>341.7</ele>
        <time>2024-08-14T08:04:37Z</time>
      </trkpt>
      <trkpt lat="44.61958" lon="2.57867">
        <ele>342.3</ele>
        <time>2024-08-14T08:04:39Z</time>
      </trkpt>
      <trkpt lat="44.61952" lon="2.57863">
        <ele>342.9</ele>
        <time>2024-08-14T08:04:41Z</time>
      </trkpt>
      <trkpt lat="44.61946" lon="2.5786">
        <ele>343.5</ele>
        <time>2024-08-14T08:04:43Z</time>
      </trkpt>
      <trkpt lat="44.61944" lon="2.57858">
        <ele>343.9</ele>
        <time>2024-08-14T08:04:44Z</time>
      </trkpt>
      <trkpt lat="44.61941" lon="2.57856">
        <ele>344.2</ele>
        <time>2024-08-14T08:04:45Z</time>
      </trkpt>
      <trkpt lat="44.61935" lon="2.57852">
        <ele>344.9</ele>
        <time>2024-08-14T08:04:47Z</time>
      </trkpt>
      <trkpt lat="44.61929" lon="2.57851">
        <ele>345.6</ele>
        <time>2024-08-14T08:04:49Z</time>
      </trkpt>
      <trkpt lat="44.61926" lon="2.57852">
        <ele>345.9</ele>
        <time>2024-08-14T08:04:50Z</time>
      </trkpt>
      <trkpt lat="44.61923" lon="2.57852">
        <ele>346.3</ele>
        <time>2024-08-14T08:04:51Z</time>
      </trkpt>
      <trkpt lat="44.61918" lon="2.57852">
        <ele>347.1</ele>
        <time>2024-08-14T08:04:53Z</time>
      </trkpt>
      <trkpt lat="44.61913" lon="2.57852">
        <ele>347.8</ele>
        <time>2024-08-14T08:04:55Z</time>
      </trkpt>
      <trkpt lat="44.61908" lon="2.5785">
        <ele>348.5</ele>
        <time>2024-08-14T08:04:57Z</time>
      </trkpt>
      <trkpt lat="44.61903" lon="2.57848">
        <ele>349.1</ele>
        <time>2024-08-14T08:04:59Z</time>
      </trkpt>
      <trkpt lat="44.61898" lon="2.57848">
        <ele>349.7</ele>
        <time>2024-08-14T08:05:01Z</time>
      </trkpt>
      <trkpt lat="44.61896" lon="2.57848">
        <ele>350</ele>
        <time>2024-08-14T08:05:02Z</time>
      </trkpt>
      <trkpt lat="44.61895" lon="2.57847">
        <ele>350.2</ele>
        <time>2024-08-14T08:05:03Z</time>
      </trkpt>
      <trkpt lat="44.61891" lon="2.57844">
        <ele>350.8</ele>
        <time>2024-08-14T08:05:05Z</time>
      </trkpt>
      <trkpt lat="44.61888" lon="2.57843">
        <ele>351.1</ele>
        <time>2024-08-14T08:05:06Z</time>
      </trkpt>
      <trkpt lat="44.61886" lon="2.57843">
        <ele>351.3</ele>
        <time>2024-08-14T08:05:07Z</time>
      </trkpt>
      <trkpt lat="44.61883" lon="2.5784">
        <ele>351.8</ele>
        <time>2024-08-14T08:05:09Z</time>
      </trkpt>
      <trkpt lat="44.61879" lon="2.57838">
        <ele>352.4</ele>
        <time>2024-08-14T08:05:11Z</time>
      </trkpt>
      <trkpt lat="44.61875" lon="2.57836">
        <ele>352.9</ele>
        <time>2024-08-14T08:05:13Z</time>
      </trkpt>
      <trkpt lat="44.61872" lon="2.57833">
        <ele>353.4</ele>
        <time>2024-08-14T08:05:15Z</time>
      </trkpt>
      <trkpt lat="44.6187" lon="2.57831">
        <ele>353.6</ele>
        <time>2024-08-14T08:05:16Z</time>
      </trkpt>
      <trkpt lat="44.61869" lon="2.57828">
        <ele>353.9</ele>
        <time>2024-08-14T08:05:17Z</time>
      </trkpt>
      <trkpt lat="44.61867" lon="2.57823">
        <ele>354.4</ele>
        <time>2024-08-14T08:05:19Z</time>
      </trkpt>
      <trkpt lat="44.61865" lon="2.57817">
        <ele>354.8</ele>
        <time>2024-08-14T08:05:21Z</time>
      </trkpt>
      <trkpt lat="44.61862" lon="2.57812">
        <ele>355.3</ele>
        <time>2024-08-14T08:05:23Z</time>
      </trkpt>
      <trkpt lat="44.61859" lon="2.57807">
        <ele>355.7</ele>
        <time>2024-08-14T08:05:25Z</time>
      </trkpt>
      <trkpt lat="44.61857" lon="2.57804">
        <ele>356.1</ele>
        <time>2024-08-14T08:05:27Z</time>
      </trkpt>
      <trkpt lat="44.61854" lon="2.57801">
        <ele>356.5</ele>
        <time>2024-08-14T08:05:29Z</time>
      </trkpt>
      <trkpt lat="44.61852" lon="2.57799">
        <ele>356.7</ele>
        <time>2024-08-14T08:05:30Z</time>
      </trkpt>
      <trkpt lat="44.6185" lon="2.57797">
        <ele>357</ele>
        <time>2024-08-14T08:05:31Z</time>
      </trkpt>
      <trkpt lat="44.61846" lon="2.57795">
        <ele>357.4</ele>
        <time>2024-08-14T08:05:33Z</time>
      </trkpt>
      <trkpt lat="44.61844" lon="2.57794">
        <ele>357.7</ele>
        <time>2024-08-14T08:05:34Z</time>
      </trkpt>
      <trkpt lat="44.61842" lon="2.57793">
        <ele>357.9</ele>
        <time>2024-08-14T08:05:35Z</time>
      </trkpt>
      <trkpt lat="44.61836" lon="2.57791">
        <ele>358.6</ele>
        <time>2024-08-14T08:05:37Z</time>
      </trkpt>
      <trkpt lat="44.6183" lon="2.5779">
        <ele>359.2</ele>
        <time>2024-08-14T08:05:39Z</time>
      </trkpt>
      <trkpt lat="44.61828" lon="2.57789">
        <ele>359.5</ele>
        <time>2024-08-14T08:05:40Z</time>
      </trkpt>
      <trkpt lat="44.61825" lon="2.57789">
        <ele>359.7</ele>
        <time>2024-08-14T08:05:41Z</time>
      </trkpt>
      <trkpt lat="44.6182" lon="2.57787">
        <ele>360</ele>
        <time>2024-08-14T08:05:43Z</time>
      </trkpt>
      <trkpt lat="44.61814" lon="2.57786">
        <ele>360.4</ele>
        <time>2024-08-14T08:05:45Z</time>
      </trkpt>
      <trkpt lat="44.61811" lon="2.57786">
        <ele>360.6</ele>
        <time>2024-08-14T08:05:47Z</time>
      </trkpt>
      <trkpt lat="44.61807" lon="2.57786">
        <ele>360.9</ele>
        <time>2024-08-14T08:05:49Z</time>
      </trkpt>
      <trkpt lat="44.61803" lon="2.57786">
        <ele>361.1</ele>
        <time>2024-08-14T08:05:51Z</time>
      </trkpt>
      <trkpt lat="44.61799" lon="2.57787">
        <ele>361.4</ele>
        <time>2024-08-14T08:05:53Z</time>
      </trkpt>
      <trkpt lat="44.61794" lon="2.57787">
        <ele>361.7</ele>
        <time>2024-08-14T08:05:55Z</time>
      </trkpt>
      <trkpt lat="44.61793" lon="2.57787">
        <ele>361.8</ele>
        <time>2024-08-14T08:05:56Z</time>
      </trkpt>
      <trkpt lat="44.61791" lon="2.57788">
        <ele>361.9</ele>
        <time>2024-08-14T08:05:57Z</time>
      </trkpt>
      <trkpt lat="44.61786" lon="2.57788">
        <ele>362.3</ele>
        <time>2024-08-14T08:05:59Z</time>
      </trkpt>
      <trkpt lat="44.61781" lon="2.57789">
        <ele>362.6</ele>
        <time>2024-08-14T08:06:01Z</time>
      </trkpt>
      <trkpt lat="44.61777" lon="2.5779">
        <ele>362.9</ele>
        <time>2024-08-14T08:06:03Z</time>
      </trkpt>
      <trkpt lat="44.61772" lon="2.57791">
        <ele>363.3</ele>
        <time>2024-08-14T08:06:05Z</time>
      </trkpt>
      <trkpt lat="44.61768" lon="2.5779">
        <ele>363.5</ele>
        <time>2024-08-14T08:06:07Z</time>
      </trkpt>
      <trkpt lat="44.61767" lon="2.5779">
        <ele>363.6</ele>
        <time>2024-08-14T08:06:08Z</time>
      </trkpt>
      <trkpt lat="44.61765" lon="2.5779">
        <ele>363.7</ele>
        <time>2024-08-14T08:06:09Z</time>
      </trkpt>
      <trkpt lat="44.61762" lon="2.57789">
        <ele>363.9</ele>
        <time>2024-08-14T08:06:11Z</time>
      </trkpt>
      <trkpt lat="44.61757" lon="2.57789">
        <ele>364.2</ele>
        <time>2024-08-14T08:06:13Z</time>
      </trkpt>
      <trkpt lat="44.61753" lon="2.5779">
        <ele>364.5</ele>
        <time>2024-08-14T08:06:15Z</time>
      </trkpt>
      <trkpt lat="44.61748" lon="2.57788">
        <ele>364.7</ele>
        <time>2024-08-14T08:06:17Z</time>
      </trkpt>
      <trkpt lat="44.61743" lon="2.57788">
        <ele>365</ele>
        <time>2024-08-14T08:06:19Z</time>
      </trkpt>
      <trkpt lat="44.61738" lon="2.57788">
        <ele>365.3</ele>
        <time>2024-08-14T08:06:21Z</time>
      </trkpt>
      <trkpt lat="44.61734" lon="2.57789">
        <ele>365.5</ele>
        <time>2024-08-14T08:06:23Z</time>
      </trkpt>
      <trkpt lat="44.61729" lon="2.57788">
        <ele>365.8</ele>
        <time>2024-08-14T08:06:25Z</time>
      </trkpt>
      <trkpt lat="44.61726" lon="2.5779">
        <ele>366.1</ele>
        <time>2024-08-14T08:06:27Z</time>
      </trkpt>
      <trkpt lat="44.61722" lon="2.5779">
        <ele>366.3</ele>
        <time>2024-08-14T08:06:29Z</time>
      </trkpt>
      <trkpt lat="44.61717" lon="2.57791">
        <ele>366.7</ele>
        <time>2024-08-14T08:06:31Z</time>
      </trkpt>
      <trkpt lat="44.61711" lon="2.57791">
        <ele>367.1</ele>
        <time>2024-08-14T08:06:33Z</time>
      </trkpt>
      <trkpt lat="44.61706" lon="2.57792">
        <ele>367.5</ele>
        <time>2024-08-14T08:06:35Z</time>
      </trkpt>
      <trkpt lat="44.61703" lon="2.57793">
        <ele>367.8</ele>
        <time>2024-08-14T08:06:36Z</time>
      </trkpt>
      <trkpt lat="44.617" lon="2.57795">
        <ele>368.1</ele>
        <time>2024-08-14T08:06:37Z</time>
      </trkpt>
      <trkpt lat="44.61695" lon="2.57796">
        <ele>368.5</ele>
        <time>2024-08-14T08:06:39Z</time>
      </trkpt>
      <trkpt lat="44.61692" lon="2.57795">
        <ele>368.8</ele>
        <time>2024-08-14T08:06:41Z</time>
      </trkpt>
      <trkpt lat="44.61687" lon="2.57794">
        <ele>369.3</ele>
        <time>2024-08-14T08:06:43Z</time>
      </trkpt>
      <trkpt lat="44.61683" lon="2.57795">
        <ele>369.7</ele>
        <time>2024-08-14T08:06:45Z</time>
      </trkpt>
      <trkpt lat="44.6168" lon="2.57795">
        <ele>369.9</ele>
        <time>2024-08-14T08:06:46Z</time>
      </trkpt>
      <trkpt lat="44.61678" lon="2.57796">
        <ele>370.2</ele>
        <time>2024-08-14T08:06:47Z</time>
      </trkpt>
      <trkpt lat="44.61675" lon="2.57796">
        <ele>370.4</ele>
        <time>2024-08-14T08:06:48Z</time>
      </trkpt>
      <trkpt lat="44.61672" lon="2.57796">
        <ele>370.7</ele>
        <time>2024-08-14T08:06:49Z</time>
      </trkpt>
      <trkpt lat="44.61666" lon="2.57796">
        <ele>370.3</ele>
        <time>2024-08-14T08:06:51Z</time>
      </trkpt>
      <trkpt lat="44.61664" lon="2.57795">
        <ele>370</ele>
        <time>2024-08-14T08:06:52Z</time>
      </trkpt>
      <trkpt lat="44.61661" lon="2.57793">
        <ele>369.8</ele>
        <time>2024-08-14T08:06:53Z</time>
      </trkpt>
      <trkpt lat="44.61655" lon="2.57793">
        <ele>369.3</ele>
        <time>2024-08-14T08:06:55Z</time>
      </trkpt>
      <trkpt lat="44.61653" lon="2.57793">
        <ele>369.1</ele>
        <time>2024-08-14T08:06:56Z</time>
      </trkpt>
      <trkpt lat="44.6165" lon="2.57792">
        <ele>368.8</ele>
        <time>2024-08-14T08:06:57Z</time>
      </trkpt>
      <trkpt lat="44.61644" lon="2.57787">
        <ele>368.2</ele>
        <time>2024-08-14T08:06:59Z</time>
      </trkpt>
      <trkpt lat="44.61641" lon="2.57786">
        <ele>367.9</ele>
        <time>2024-08-14T08:07:00Z</time>
      </trkpt>
      <trkpt lat="44.61638" lon="2.57785">
        <ele>367.7</ele>
        <time>2024-08-14T08:07:01Z</time>
      </trkpt>
      <trkpt lat="44.61635" lon="2.57784">
        <ele>367.4</ele>
        <time>2024-08-14T08:07:03Z</time>
      </trkpt>
      <trkpt lat="44.61632" lon="2.57791">
        <ele>366.9</ele>
        <time>2024-08-14T08:07:05Z</time>
      </trkpt>
      <trkpt lat="44.61628" lon="2.57791">
        <ele>366.5</ele>
        <time>2024-08-14T08:07:07Z</time>
      </trkpt>
      <trkpt lat="44.61625" lon="2.57791">
        <ele>366.1</ele>
        <time>2024-08-14T08:07:09Z</time>
      </trkpt>
      <trkpt lat="44.61623" lon="2.57791">
        <ele>365.9</ele>
        <time>2024-08-14T08:07:10Z</time>
      </trkpt>
      <trkpt lat="44.61621" lon="2.57792">
        <ele>365.7</ele>
        <time>2024-08-14T08:07:11Z</time>
      </trkpt>
      <trkpt lat="44.61619" lon="2.57794">
        <ele>365.4</ele>
        <time>2024-08-14T08:07:13Z</time>
      </trkpt>
      <trkpt lat="44.61618" lon="2.57794">
        <ele>365.4</ele>
        <time>2024-08-14T08:07:15Z</time>
      </trkpt>
      <trkpt lat="44.61622" lon="2.57805">
        <ele>365.4</ele>
        <time>2024-08-14T08:07:18Z</time>
      </trkpt>
      <trkpt lat="44.61624" lon="2.57809">
        <ele>365.4</ele>
        <time>2024-08-14T08:07:19Z</time>
      </trkpt>
      <trkpt lat="44.61628" lon="2.57815">
        <ele>365.3</ele>
        <time>2024-08-14T08:07:21Z</time>
      </trkpt>
      <trkpt lat="44.61632" lon="2.5782">
        <ele>365.3</ele>
        <time>2024-08-14T08:07:23Z</time>
      </trkpt>
      <trkpt lat="44.61636" lon="2.57822">
        <ele>365.2</ele>
        <time>2024-08-14T08:07:25Z</time>
      </trkpt>
      <trkpt lat="44.6164" lon="2.57824">
        <ele>365.1</ele>
        <time>2024-08-14T08:07:27Z</time>
      </trkpt>
      <trkpt lat="44.61645" lon="2.57824">
        <ele>364.9</ele>
        <time>2024-08-14T08:07:29Z</time>
      </trkpt>
      <trkpt lat="44.6165" lon="2.57827">
        <ele>364.7</ele>
        <time>2024-08-14T08:07:31Z</time>
      </trkpt>
      <trkpt lat="44.61652" lon="2.5783">
        <ele>364.6</ele>
        <time>2024-08-14T08:07:32Z</time>
      </trkpt>
      <trkpt lat="44.61653" lon="2.57832">
        <ele>364.5</ele>
        <time>2024-08-14T08:07:33Z</time>
      </trkpt>
      <trkpt lat="44.61653" lon="2.57832">
        <ele>364.5</ele>
        <time>2024-08-14T08:07:34Z</time>
      </trkpt>
      <trkpt lat="44.61659" lon="2.57835">
        <ele>364.3</ele>
        <time>2024-08-14T08:07:37Z</time>
      </trkpt>
      <trkpt lat="44.61666" lon="2.57839">
        <ele>364.1</ele>
        <time>2024-08-14T08:07:39Z</time>
      </trkpt>
      <trkpt lat="44.61669" lon="2.57841">
        <ele>364.1</ele>
        <time>2024-08-14T08:07:40Z</time>
      </trkpt>
      <trkpt lat="44.61672" lon="2.57843">
        <ele>364</ele>
        <time>2024-08-14T08:07:41Z</time>
      </trkpt>
      <trkpt lat="44.61675" lon="2.57846">
        <ele>363.9</ele>
        <time>2024-08-14T08:07:42Z</time>
      </trkpt>
      <trkpt lat="44.61677" lon="2.57848">
        <ele>363.9</ele>
        <time>2024-08-14T08:07:43Z</time>
      </trkpt>
      <trkpt lat="44.61682" lon="2.5785">
        <ele>363.8</ele>
        <time>2024-08-14T08:07:45Z</time>
      </trkpt>
      <trkpt lat="44.61688" lon="2.57852">
        <ele>363.7</ele>
        <time>2024-08-14T08:07:47Z</time>
      </trkpt>
      <trkpt lat="44.6169" lon="2.57853">
        <ele>363.7</ele>
        <time>2024-08-14T08:07:48Z</time>
      </trkpt>
      <trkpt lat="44.61693" lon="2.57854">
        <ele>363.6</ele>
        <time>2024-08-14T08:07:49Z</time>
      </trkpt>
      <trkpt lat="44.61699" lon="2.57856">
        <ele>363.7</ele>
        <time>2024-08-14T08:07:51Z</time>
      </trkpt>
      <trkpt lat="44.61703" lon="2.57858">
        <ele>363.7</ele>
        <time>2024-08-14T08:07:53Z</time>
      </trkpt>
      <trkpt lat="44.61707" lon="2.57859">
        <ele>363.9</ele>
        <time>2024-08-14T08:07:55Z</time>
      </trkpt>
      <trkpt lat="44.61711" lon="2.5786">
        <ele>364</ele>
        <time>2024-08-14T08:07:57Z</time>
      </trkpt>
      <trkpt lat="44.61716" lon="2.57863">
        <ele>364.2</ele>
        <time>2024-08-14T08:07:59Z</time>
      </trkpt>
      <trkpt lat="44.61718" lon="2.57864">
        <ele>364.3</ele>
        <time>2024-08-14T08:08:00Z</time>
      </trkpt>
      <trkpt lat="44.6172" lon="2.57864">
        <ele>364.4</ele>
        <time>2024-08-14T08:08:01Z</time>
      </trkpt>
      <trkpt lat="44.61722" lon="2.57867">
        <ele>364.6</ele>
        <time>2024-08-14T08:08:03Z</time>
      </trkpt>
      <trkpt lat="44.61724" lon="2.57868">
        <ele>364.7</ele>
        <time>2024-08-14T08:08:04Z</time>
      </trkpt>
      <trkpt lat="44.61726" lon="2.57869">
        <ele>364.8</ele>
        <time>2024-08-14T08:08:05Z</time>
      </trkpt>
      <trkpt lat="44.61733" lon="2.57871">
        <ele>365.1</ele>
        <time>2024-08-14T08:08:08Z</time>
      </trkpt>
      <trkpt lat="44.61735" lon="2.57873">
        <ele>365.2</ele>
        <time>2024-08-14T08:08:09Z</time>
      </trkpt>
      <trkpt lat="44.61737" lon="2.57874">
        <ele>365.4</ele>
        <time>2024-08-14T08:08:10Z</time>
      </trkpt>
      <trkpt lat="44.61741" lon="2.57878">
        <ele>365.6</ele>
        <time>2024-08-14T08:08:12Z</time>
      </trkpt>
      <trkpt lat="44.61744" lon="2.5788">
        <ele>365.7</ele>
        <time>2024-08-14T08:08:14Z</time>
      </trkpt>
      <trkpt lat="44.61746" lon="2.57881">
        <ele>365.8</ele>
        <time>2024-08-14T08:08:15Z</time>
      </trkpt>
      <trkpt lat="44.61747" lon="2.57882">
        <ele>365.9</ele>
        <time>2024-08-14T08:08:16Z</time>
      </trkpt>
      <trkpt lat="44.61749" lon="2.57884">
        <ele>366</ele>
        <time>2024-08-14T08:08:17Z</time>
      </trkpt>
      <trkpt lat="44.6175" lon="2.57886">
        <ele>366.1</ele>
        <time>2024-08-14T08:08:18Z</time>
      </trkpt>
      <trkpt lat="44.61753" lon="2.5789">
        <ele>366.4</ele>
        <time>2024-08-14T08:08:20Z</time>
      </trkpt>
      <trkpt lat="44.61757" lon="2.57896">
        <ele>366.7</ele>
        <time>2024-08-14T08:08:22Z</time>
      </trkpt>
      <trkpt lat="44.61761" lon="2.57902">
        <ele>367</ele>
        <time>2024-08-14T08:08:24Z</time>
      </trkpt>
      <trkpt lat="44.61765" lon="2.57907">
        <ele>367.3</ele>
        <time>2024-08-14T08:08:26Z</time>
      </trkpt>
      <trkpt lat="44.61767" lon="2.5791">
        <ele>367.5</ele>
        <time>2024-08-14T08:08:28Z</time>
      </trkpt>
      <trkpt lat="44.61771" lon="2.57915">
        <ele>367.8</ele>
        <time>2024-08-14T08:08:30Z</time>
      </trkpt>
      <trkpt lat="44.61774" lon="2.5792">
        <ele>368.1</ele>
        <time>2024-08-14T08:08:32Z</time>
      </trkpt>
      <trkpt lat="44.61778" lon="2.57925">
        <ele>368.4</ele>
        <time>2024-08-14T08:08:34Z</time>
      </trkpt>
      <trkpt lat="44.61779" lon="2.57927">
        <ele>368.6</ele>
        <time>2024-08-14T08:08:35Z</time>
      </trkpt>
      <trkpt lat="44.61781" lon="2.57929">
        <ele>368.6</ele>
        <time>2024-08-14T08:08:36Z</time>
      </trkpt>
      <trkpt lat="44.61782" lon="2.57933">
        <ele>368.8</ele>
        <time>2024-08-14T08:08:38Z</time>
      </trkpt>
      <trkpt lat="44.61783" lon="2.57935">
        <ele>368.9</ele>
        <time>2024-08-14T08:08:39Z</time>
      </trkpt>
      <trkpt lat="44.61785" lon="2.57938">
        <ele>369.1</ele>
        <time>2024-08-14T08:08:40Z</time>
      </trkpt>
      <trkpt lat="44.61787" lon="2.57944">
        <ele>369.3</ele>
        <time>2024-08-14T08:08:42Z</time>
      </trkpt>
      <trkpt lat="44.61789" lon="2.5795">
        <ele>369.5</ele>
        <time>2024-08-14T08:08:44Z</time>
      </trkpt>
      <trkpt lat="44.6179" lon="2.57952">
        <ele>369.6</ele>
        <time>2024-08-14T08:08:45Z</time>
      </trkpt>
      <trkpt lat="44.6179" lon="2.57954">
        <ele>369.7</ele>
        <time>2024-08-14T08:08:46Z</time>
      </trkpt>
      <trkpt lat="44.61792" lon="2.5796">
        <ele>369.9</ele>
        <time>2024-08-14T08:08:48Z</time>
      </trkpt>
      <trkpt lat="44.61792" lon="2.57963">
        <ele>370</ele>
        <time>2024-08-14T08:08:49Z</time>
      </trkpt>
      <trkpt lat="44.61793" lon="2.57966">
        <ele>370.1</ele>
        <time>2024-08-14T08:08:50Z</time>
      </trkpt>
      <trkpt lat="44.61795" lon="2.57971">
        <ele>370.3</ele>
        <time>2024-08-14T08:08:52Z</time>
      </trkpt>
      <trkpt lat="44.61796" lon="2.57973">
        <ele>370.4</ele>
        <time>2024-08-14T08:08:53Z</time>
      </trkpt>
      <trkpt lat="44.61797" lon="2.57975">
        <ele>370.6</ele>
        <time>2024-08-14T08:08:54Z</time>
      </trkpt>
      <trkpt lat="44.61799" lon="2.5798">
        <ele>370.9</ele>
        <time>2024-08-14T08:08:56Z</time>
      </trkpt>
      <trkpt lat="44.618" lon="2.57982">
        <ele>371</ele>
        <time>2024-08-14T08:08:57Z</time>
      </trkpt>
      <trkpt lat="44.61801" lon="2.57984">
        <ele>371.1</ele>
        <time>2024-08-14T08:08:58Z</time>
      </trkpt>
      <trkpt lat="44.61801" lon="2.57986">
        <ele>371.2</ele>
        <time>2024-08-14T08:08:59Z</time>
      </trkpt>
      <trkpt lat="44.61801" lon="2.57989">
        <ele>371.3</ele>
        <time>2024-08-14T08:09:00Z</time>
      </trkpt>
      <trkpt lat="44.61799" lon="2.57992">
        <ele>371.5</ele>
        <time>2024-08-14T08:09:02Z</time>
      </trkpt>
      <trkpt lat="44.61798" lon="2.57996">
        <ele>371.7</ele>
        <time>2024-08-14T08:09:04Z</time>
      </trkpt>
      <trkpt lat="44.61797" lon="2.57997">
        <ele>371.8</ele>
        <time>2024-08-14T08:09:05Z</time>
      </trkpt>
      <trkpt lat="44.61796" lon="2.57998">
        <ele>371.9</ele>
        <time>2024-08-14T08:09:06Z</time>
      </trkpt>
      <trkpt lat="44.61794" lon="2.58001">
        <ele>372.1</ele>
        <time>2024-08-14T08:09:08Z</time>
      </trkpt>
      <trkpt lat="44.61793" lon="2.58003">
        <ele>372.2</ele>
        <time>2024-08-14T08:09:09Z</time>
      </trkpt>
      <trkpt lat="44.61792" lon="2.58005">
        <ele>372.3</ele>
        <time>2024-08-14T08:09:10Z</time>
      </trkpt>
      <trkpt lat="44.6179" lon="2.58008">
        <ele>372.5</ele>
        <time>2024-08-14T08:09:12Z</time>
      </trkpt>
      <trkpt lat="44.61789" lon="2.58012">
        <ele>372.6</ele>
        <time>2024-08-14T08:09:14Z</time>
      </trkpt>
      <trkpt lat="44.61786" lon="2.58014">
        <ele>372.9</ele>
        <time>2024-08-14T08:09:16Z</time>
      </trkpt>
      <trkpt lat="44.61783" lon="2.58016">
        <ele>373</ele>
        <time>2024-08-14T08:09:18Z</time>
      </trkpt>
      <trkpt lat="44.61782" lon="2.58016">
        <ele>373.2</ele>
        <time>2024-08-14T08:09:19Z</time>
      </trkpt>
      <trkpt lat="44.6178" lon="2.58016">
        <ele>373.3</ele>
        <time>2024-08-14T08:09:20Z</time>
      </trkpt>
      <trkpt lat="44.61777" lon="2.58016">
        <ele>373.4</ele>
        <time>2024-08-14T08:09:22Z</time>
      </trkpt>
      <trkpt lat="44.61775" lon="2.58017">
        <ele>373.6</ele>
        <time>2024-08-14T08:09:24Z</time>
      </trkpt>
      <trkpt lat="44.61773" lon="2.58017">
        <ele>373.7</ele>
        <time>2024-08-14T08:09:26Z</time>
      </trkpt>
      <trkpt lat="44.61771" lon="2.58019">
        <ele>373.8</ele>
        <time>2024-08-14T08:09:28Z</time>
      </trkpt>
      <trkpt lat="44.6177" lon="2.58019">
        <ele>373.9</ele>
        <time>2024-08-14T08:09:29Z</time>
      </trkpt>
      <trkpt lat="44.61769" lon="2.5802">
        <ele>374</ele>
        <time>2024-08-14T08:09:30Z</time>
      </trkpt>
      <trkpt lat="44.61767" lon="2.58022">
        <ele>374.1</ele>
        <time>2024-08-14T08:09:32Z</time>
      </trkpt>
      <trkpt lat="44.61765" lon="2.58024">
        <ele>374.3</ele>
        <time>2024-08-14T08:09:34Z</time>
      </trkpt>
      <trkpt lat="44.61763" lon="2.58025">
        <ele>374.4</ele>
        <time>2024-08-14T08:09:36Z</time>
      </trkpt>
      <trkpt lat="44.61762" lon="2.58026">
        <ele>374.4</ele>
        <time>2024-08-14T08:09:37Z</time>
      </trkpt>
      <trkpt lat="44.61746" lon="2.58048">
        <ele>375.8</ele>
        <time>2024-08-14T08:09:54Z</time>
      </trkpt>
      <trkpt lat="44.61745" lon="2.58048">
        <ele>375.9</ele>
        <time>2024-08-14T08:09:55Z</time>
      </trkpt>
      <trkpt lat="44.61743" lon="2.58049">
        <ele>375.9</ele>
        <time>2024-08-14T08:09:56Z</time>
      </trkpt>
      <trkpt lat="44.61741" lon="2.58049">
        <ele>376.1</ele>
        <time>2024-08-14T08:09:58Z</time>
      </trkpt>
      <trkpt lat="44.61736" lon="2.58049">
        <ele>376.4</ele>
        <time>2024-08-14T08:10:02Z</time>
      </trkpt>
      <trkpt lat="44.61735" lon="2.58051">
        <ele>376.5</ele>
        <time>2024-08-14T08:10:04Z</time>
      </trkpt>
      <trkpt lat="44.61733" lon="2.58052">
        <ele>376.6</ele>
        <time>2024-08-14T08:10:05Z</time>
      </trkpt>
      <trkpt lat="44.61731" lon="2.58052">
        <ele>376.7</ele>
        <time>2024-08-14T08:10:06Z</time>
      </trkpt>
      <trkpt lat="44.61728" lon="2.58054">
        <ele>376.9</ele>
        <time>2024-08-14T08:10:08Z</time>
      </trkpt>
      <trkpt lat="44.61727" lon="2.58055">
        <ele>377</ele>
        <time>2024-08-14T08:10:09Z</time>
      </trkpt>
      <trkpt lat="44.61725" lon="2.58057">
        <ele>377.2</ele>
        <time>2024-08-14T08:10:10Z</time>
      </trkpt>
      <trkpt lat="44.6172" lon="2.58059">
        <ele>377.5</ele>
        <time>2024-08-14T08:10:12Z</time>
      </trkpt>
      <trkpt lat="44.61717" lon="2.58063">
        <ele>377.7</ele>
        <time>2024-08-14T08:10:14Z</time>
      </trkpt>
      <trkpt lat="44.61714" lon="2.58065">
        <ele>377.9</ele>
        <time>2024-08-14T08:10:16Z</time>
      </trkpt>
      <trkpt lat="44.61711" lon="2.58068">
        <ele>378.1</ele>
        <time>2024-08-14T08:10:18Z</time>
      </trkpt>
      <trkpt lat="44.61711" lon="2.58071">
        <ele>378.2</ele>
        <time>2024-08-14T08:10:19Z</time>
      </trkpt>
      <trkpt lat="44.6171" lon="2.58073">
        <ele>378.3</ele>
        <time>2024-08-14T08:10:20Z</time>
      </trkpt>
      <trkpt lat="44.6171" lon="2.58077">
        <ele>378.5</ele>
        <time>2024-08-14T08:10:22Z</time>
      </trkpt>
      <trkpt lat="44.61708" lon="2.58082">
        <ele>378.7</ele>
        <time>2024-08-14T08:10:24Z</time>
      </trkpt>
      <trkpt lat="44.61706" lon="2.58088">
        <ele>379</ele>
        <time>2024-08-14T08:10:26Z</time>
      </trkpt>
      <trkpt lat="44.61704" lon="2.58091">
        <ele>379.3</ele>
        <time>2024-08-14T08:10:28Z</time>
      </trkpt>
      <trkpt lat="44.61703" lon="2.58096">
        <ele>379.7</ele>
        <time>2024-08-14T08:10:30Z</time>
      </trkpt>
      <trkpt lat="44.61702" lon="2.58098">
        <ele>379.9</ele>
        <time>2024-08-14T08:10:31Z</time>
      </trkpt>
      <trkpt lat="44.61701" lon="2.581">
        <ele>380.1</ele>
        <time>2024-08-14T08:10:32Z</time>
      </trkpt>
      <trkpt lat="44.617" lon="2.58104">
        <ele>380.3</ele>
        <time>2024-08-14T08:10:34Z</time>
      </trkpt>
      <trkpt lat="44.61699" lon="2.58108">
        <ele>380.7</ele>
        <time>2024-08-14T08:10:36Z</time>
      </trkpt>
      <trkpt lat="44.61698" lon="2.58112">
        <ele>381</ele>
        <time>2024-08-14T08:10:38Z</time>
      </trkpt>
      <trkpt lat="44.61698" lon="2.58116">
        <ele>381.2</ele>
        <time>2024-08-14T08:10:40Z</time>
      </trkpt>
      <trkpt lat="44.61697" lon="2.58118">
        <ele>381.4</ele>
        <time>2024-08-14T08:10:41Z</time>
      </trkpt>
      <trkpt lat="44.61696" lon="2.5812">
        <ele>381.6</ele>
        <time>2024-08-14T08:10:42Z</time>
      </trkpt>
      <trkpt lat="44.61695" lon="2.58123">
        <ele>381.9</ele>
        <time>2024-08-14T08:10:44Z</time>
      </trkpt>
      <trkpt lat="44.61695" lon="2.58123">
        <ele>381.9</ele>
        <time>2024-08-14T08:10:45Z</time>
      </trkpt>
      <trkpt lat="44.61692" lon="2.58132">
        <ele>382.6</ele>
        <time>2024-08-14T08:10:49Z</time>
      </trkpt>
      <trkpt lat="44.61691" lon="2.58134">
        <ele>382.7</ele>
        <time>2024-08-14T08:10:50Z</time>
      </trkpt>
      <trkpt lat="44.6169" lon="2.58137">
        <ele>383</ele>
        <time>2024-08-14T08:10:52Z</time>
      </trkpt>
      <trkpt lat="44.6169" lon="2.5814">
        <ele>383.2</ele>
        <time>2024-08-14T08:10:53Z</time>
      </trkpt>
      <trkpt lat="44.61689" lon="2.58142">
        <ele>383.4</ele>
        <time>2024-08-14T08:10:54Z</time>
      </trkpt>
      <trkpt lat="44.61686" lon="2.58144">
        <ele>383.8</ele>
        <time>2024-08-14T08:10:56Z</time>
      </trkpt>
      <trkpt lat="44.61683" lon="2.58148">
        <ele>384.2</ele>
        <time>2024-08-14T08:10:58Z</time>
      </trkpt>
      <trkpt lat="44.61681" lon="2.58151">
        <ele>384.5</ele>
        <time>2024-08-14T08:11:00Z</time>
      </trkpt>
      <trkpt lat="44.61678" lon="2.58154">
        <ele>384.9</ele>
        <time>2024-08-14T08:11:02Z</time>
      </trkpt>
      <trkpt lat="44.61676" lon="2.58156">
        <ele>385.2</ele>
        <time>2024-08-14T08:11:04Z</time>
      </trkpt>
      <trkpt lat="44.61675" lon="2.58157">
        <ele>385.3</ele>
        <time>2024-08-14T08:11:05Z</time>
      </trkpt>
      <trkpt lat="44.61673" lon="2.58157">
        <ele>385.5</ele>
        <time>2024-08-14T08:11:06Z</time>
      </trkpt>
      <trkpt lat="44.61671" lon="2.58159">
        <ele>385.8</ele>
        <time>2024-08-14T08:11:08Z</time>
      </trkpt>
      <trkpt lat="44.6167" lon="2.58159">
        <ele>385.9</ele>
        <time>2024-08-14T08:11:09Z</time>
      </trkpt>
      <trkpt lat="44.61669" lon="2.5816">
        <ele>386.1</ele>
        <time>2024-08-14T08:11:10Z</time>
      </trkpt>
      <trkpt lat="44.61666" lon="2.58163">
        <ele>386.4</ele>
        <time>2024-08-14T08:11:12Z</time>
      </trkpt>
      <trkpt lat="44.61663" lon="2.58164">
        <ele>386.7</ele>
        <time>2024-08-14T08:11:14Z</time>
      </trkpt>
      <trkpt lat="44.61661" lon="2.58165">
        <ele>387</ele>
        <time>2024-08-14T08:11:16Z</time>
      </trkpt>
      <trkpt lat="44.61659" lon="2.58165">
        <ele>387.2</ele>
        <time>2024-08-14T08:11:18Z</time>
      </trkpt>
      <trkpt lat="44.61658" lon="2.58166">
        <ele>387.3</ele>
        <time>2024-08-14T08:11:19Z</time>
      </trkpt>
      <trkpt lat="44.61657" lon="2.58166">
        <ele>387.4</ele>
        <time>2024-08-14T08:11:20Z</time>
      </trkpt>
      <trkpt lat="44.61653" lon="2.58167">
        <ele>387.8</ele>
        <time>2024-08-14T08:11:22Z</time>
      </trkpt>
      <trkpt lat="44.61651" lon="2.58168">
        <ele>388.1</ele>
        <time>2024-08-14T08:11:24Z</time>
      </trkpt>
      <trkpt lat="44.61648" lon="2.58169">
        <ele>388.4</ele>
        <time>2024-08-14T08:11:26Z</time>
      </trkpt>
      <trkpt lat="44.61645" lon="2.5817">
        <ele>388.7</ele>
        <time>2024-08-14T08:11:28Z</time>
      </trkpt>
      <trkpt lat="44.61641" lon="2.5817">
        <ele>389.1</ele>
        <time>2024-08-14T08:11:30Z</time>
      </trkpt>
      <trkpt lat="44.61638" lon="2.58171">
        <ele>389.5</ele>
        <time>2024-08-14T08:11:32Z</time>
      </trkpt>
      <trkpt lat="44.61634" lon="2.58174">
        <ele>389.9</ele>
        <time>2024-08-14T08:11:34Z</time>
      </trkpt>
      <trkpt lat="44.61632" lon="2.58177">
        <ele>390.2</ele>
        <time>2024-08-14T08:11:36Z</time>
      </trkpt>
      <trkpt lat="44.6163" lon="2.58178">
        <ele>390.4</ele>
        <time>2024-08-14T08:11:37Z</time>
      </trkpt>
      <trkpt lat="44.61629" lon="2.58178">
        <ele>390.5</ele>
        <time>2024-08-14T08:11:38Z</time>
      </trkpt>
      <trkpt lat="44.61628" lon="2.58179">
        <ele>390.7</ele>
        <time>2024-08-14T08:11:39Z</time>
      </trkpt>
      <trkpt lat="44.61627" lon="2.5818">
        <ele>390.8</ele>
        <time>2024-08-14T08:11:40Z</time>
      </trkpt>
      <trkpt lat="44.61624" lon="2.5818">
        <ele>391.1</ele>
        <time>2024-08-14T08:11:42Z</time>
      </trkpt>
      <trkpt lat="44.61622" lon="2.58181">
        <ele>391.2</ele>
        <time>2024-08-14T08:11:43Z</time>
      </trkpt>
      <trkpt lat="44.61621" lon="2.58181">
        <ele>391.4</ele>
        <time>2024-08-14T08:11:44Z</time>
      </trkpt>
      <trkpt lat="44.61618" lon="2.58181">
        <ele>391.7</ele>
        <time>2024-08-14T08:11:46Z</time>
      </trkpt>
      <trkpt lat="44.61615" lon="2.58182">
        <ele>392</ele>
        <time>2024-08-14T08:11:48Z</time>
      </trkpt>
      <trkpt lat="44.61612" lon="2.58182">
        <ele>392.3</ele>
        <time>2024-08-14T08:11:50Z</time>
      </trkpt>
      <trkpt lat="44.61609" lon="2.58181">
        <ele>392.6</ele>
        <time>2024-08-14T08:11:52Z</time>
      </trkpt>
      <trkpt lat="44.61606" lon="2.5818">
        <ele>392.9</ele>
        <time>2024-08-14T08:11:54Z</time>
      </trkpt>
      <trkpt lat="44.61604" lon="2.5818">
        <ele>393.2</ele>
        <time>2024-08-14T08:11:56Z</time>
      </trkpt>
      <trkpt lat="44.616" lon="2.58181">
        <ele>393.7</ele>
        <time>2024-08-14T08:11:58Z</time>
      </trkpt>
      <trkpt lat="44.61598" lon="2.58182">
        <ele>393.9</ele>
        <time>2024-08-14T08:11:59Z</time>
      </trkpt>
      <trkpt lat="44.61596" lon="2.58182">
        <ele>394.1</ele>
        <time>2024-08-14T08:12:00Z</time>
      </trkpt>
      <trkpt lat="44.61593" lon="2.58184">
        <ele>394.6</ele>
        <time>2024-08-14T08:12:02Z</time>
      </trkpt>
      <trkpt lat="44.61589" lon="2.58185">
        <ele>395.1</ele>
        <time>2024-08-14T08:12:04Z</time>
      </trkpt>
      <trkpt lat="44.61587" lon="2.58184">
        <ele>395.3</ele>
        <time>2024-08-14T08:12:05Z</time>
      </trkpt>
      <trkpt lat="44.61586" lon="2.58183">
        <ele>395.5</ele>
        <time>2024-08-14T08:12:06Z</time>
      </trkpt>
      <trkpt lat="44.61583" lon="2.58183">
        <ele>395.8</ele>
        <time>2024-08-14T08:12:08Z</time>
      </trkpt>
      <trkpt lat="44.6158" lon="2.58185">
        <ele>396.4</ele>
        <time>2024-08-14T08:12:10Z</time>
      </trkpt>
      <trkpt lat="44.61578" lon="2.58184">
        <ele>396.7</ele>
        <time>2024-08-14T08:12:12Z</time>
      </trkpt>
      <trkpt lat="44.61575" lon="2.58184">
        <ele>397</ele>
        <time>2024-08-14T08:12:14Z</time>
      </trkpt>
      <trkpt lat="44.61573" lon="2.58184">
        <ele>397.4</ele>
        <time>2024-08-14T08:12:16Z</time>
      </trkpt>
      <trkpt lat="44.61571" lon="2.58185">
        <ele>397.7</ele>
        <time>2024-08-14T08:12:18Z</time>
      </trkpt>
      <trkpt lat="44.61568" lon="2.58186">
        <ele>398.1</ele>
        <time>2024-08-14T08:12:20Z</time>
      </trkpt>
      <trkpt lat="44.61566" lon="2.58188">
        <ele>398.4</ele>
        <time>2024-08-14T08:12:22Z</time>
      </trkpt>
      <trkpt lat="44.61564" lon="2.58188">
        <ele>398.7</ele>
        <time>2024-08-14T08:12:24Z</time>
      </trkpt>
      <trkpt lat="44.61563" lon="2.58189">
        <ele>398.8</ele>
        <time>2024-08-14T08:12:25Z</time>
      </trkpt>
      <trkpt lat="44.61562" lon="2.58188">
        <ele>399</ele>
        <time>2024-08-14T08:12:26Z</time>
      </trkpt>
      <trkpt lat="44.61556" lon="2.58197">
        <ele>400.2</ele>
        <time>2024-08-14T08:12:34Z</time>
      </trkpt>
      <trkpt lat="44.61557" lon="2.58202">
        <ele>400.5</ele>
        <time>2024-08-14T08:12:36Z</time>
      </trkpt>
      <trkpt lat="44.61557" lon="2.58203">
        <ele>400.7</ele>
        <time>2024-08-14T08:12:37Z</time>
      </trkpt>
      <trkpt lat="44.61557" lon="2.58205">
        <ele>400.9</ele>
        <time>2024-08-14T08:12:38Z</time>
      </trkpt>
      <trkpt lat="44.61558" lon="2.5821">
        <ele>401.3</ele>
        <time>2024-08-14T08:12:40Z</time>
      </trkpt>
      <trkpt lat="44.6156" lon="2.58216">
        <ele>401.7</ele>
        <time>2024-08-14T08:12:42Z</time>
      </trkpt>
      <trkpt lat="44.6156" lon="2.58219">
        <ele>401.9</ele>
        <time>2024-08-14T08:12:43Z</time>
      </trkpt>
      <trkpt lat="44.6156" lon="2.58222">
        <ele>402.1</ele>
        <time>2024-08-14T08:12:44Z</time>
      </trkpt>
      <trkpt lat="44.6156" lon="2.58226">
        <ele>402.4</ele>
        <time>2024-08-14T08:12:46Z</time>
      </trkpt>
      <trkpt lat="44.61561" lon="2.58231">
        <ele>402.7</ele>
        <time>2024-08-14T08:12:48Z</time>
      </trkpt>
      <trkpt lat="44.61561" lon="2.58235">
        <ele>403.1</ele>
        <time>2024-08-14T08:12:50Z</time>
      </trkpt>
      <trkpt lat="44.61562" lon="2.5824">
        <ele>403.4</ele>
        <time>2024-08-14T08:12:52Z</time>
      </trkpt>
      <trkpt lat="44.61561" lon="2.58243">
        <ele>403.6</ele>
        <time>2024-08-14T08:12:54Z</time>
      </trkpt>
      <trkpt lat="44.61561" lon="2.58246">
        <ele>403.8</ele>
        <time>2024-08-14T08:12:55Z</time>
      </trkpt>
      <trkpt lat="44.61561" lon="2.58248">
        <ele>403.9</ele>
        <time>2024-08-14T08:12:56Z</time>
      </trkpt>
      <trkpt lat="44.6156" lon="2.58252">
        <ele>404.2</ele>
        <time>2024-08-14T08:12:58Z</time>
      </trkpt>
      <trkpt lat="44.6156" lon="2.58255">
        <ele>404.5</ele>
        <time>2024-08-14T08:13:00Z</time>
      </trkpt>
      <trkpt lat="44.6156" lon="2.58258">
        <ele>404.6</ele>
        <time>2024-08-14T08:13:01Z</time>
      </trkpt>
      <trkpt lat="44.61559" lon="2.58259">
        <ele>404.8</ele>
        <time>2024-08-14T08:13:02Z</time>
      </trkpt>
      <trkpt lat="44.61559" lon="2.58263">
        <ele>405</ele>
        <time>2024-08-14T08:13:04Z</time>
      </trkpt>
      <trkpt lat="44.61558" lon="2.58267">
        <ele>405.3</ele>
        <time>2024-08-14T08:13:06Z</time>
      </trkpt>
      <trkpt lat="44.61557" lon="2.58269">
        <ele>405.5</ele>
        <time>2024-08-14T08:13:07Z</time>
      </trkpt>
      <trkpt lat="44.61556" lon="2.58272">
        <ele>405.7</ele>
        <time>2024-08-14T08:13:08Z</time>
      </trkpt>
      <trkpt lat="44.61556" lon="2.58276">
        <ele>406</ele>
        <time>2024-08-14T08:13:10Z</time>
      </trkpt>
      <trkpt lat="44.61557" lon="2.58281">
        <ele>406.3</ele>
        <time>2024-08-14T08:13:12Z</time>
      </trkpt>
      <trkpt lat="44.61556" lon="2.58284">
        <ele>406.5</ele>
        <time>2024-08-14T08:13:13Z</time>
      </trkpt>
      <trkpt lat="44.61556" lon="2.58287">
        <ele>406.8</ele>
        <time>2024-08-14T08:13:14Z</time>
      </trkpt>
      <trkpt lat="44.61555" lon="2.58291">
        <ele>407.1</ele>
        <time>2024-08-14T08:13:16Z</time>
      </trkpt>
      <trkpt lat="44.61553" lon="2.58295">
        <ele>407.5</ele>
        <time>2024-08-14T08:13:18Z</time>
      </trkpt>
      <trkpt lat="44.61553" lon="2.58298">
        <ele>407.7</ele>
        <time>2024-08-14T08:13:19Z</time>
      </trkpt>
      <trkpt lat="44.61553" lon="2.58302">
        <ele>408</ele>
        <time>2024-08-14T08:13:20Z</time>
      </trkpt>
      <trkpt lat="44.61553" lon="2.58306">
        <ele>408.3</ele>
        <time>2024-08-14T08:13:22Z</time>
      </trkpt>
      <trkpt lat="44.61552" lon="2.58309">
        <ele>408.6</ele>
        <time>2024-08-14T08:13:24Z</time>
      </trkpt>
      <trkpt lat="44.61552" lon="2.58313">
        <ele>408.9</ele>
        <time>2024-08-14T08:13:26Z</time>
      </trkpt>
      <trkpt lat="44.61552" lon="2.58318">
        <ele>409.4</ele>
        <time>2024-08-14T08:13:28Z</time>
      </trkpt>
      <trkpt lat="44.61551" lon="2.58323">
        <ele>409.8</ele>
        <time>2024-08-14T08:13:30Z</time>
      </trkpt>
      <trkpt lat="44.61551" lon="2.58325">
        <ele>409.9</ele>
        <time>2024-08-14T08:13:31Z</time>
      </trkpt>
      <trkpt lat="44.6155" lon="2.58327">
        <ele>410.1</ele>
        <time>2024-08-14T08:13:32Z</time>
      </trkpt>
      <trkpt lat="44.61549" lon="2.58331">
        <ele>410.5</ele>
        <time>2024-08-14T08:13:34Z</time>
      </trkpt>
      <trkpt lat="44.61548" lon="2.58335">
        <ele>410.9</ele>
        <time>2024-08-14T08:13:36Z</time>
      </trkpt>
      <trkpt lat="44.61547" lon="2.58338">
        <ele>411.2</ele>
        <time>2024-08-14T08:13:38Z</time>
      </trkpt>
      <trkpt lat="44.61547" lon="2.58341">
        <ele>411.4</ele>
        <time>2024-08-14T08:13:39Z</time>
      </trkpt>
      <trkpt lat="44.61546" lon="2.58343">
        <ele>411.6</ele>
        <time>2024-08-14T08:13:40Z</time>
      </trkpt>
      <trkpt lat="44.61545" lon="2.58349">
        <ele>412.1</ele>
        <time>2024-08-14T08:13:42Z</time>
      </trkpt>
      <trkpt lat="44.61543" lon="2.58351">
        <ele>412.5</ele>
        <time>2024-08-14T08:13:44Z</time>
      </trkpt>
      <trkpt lat="44.61542" lon="2.58353">
        <ele>412.7</ele>
        <time>2024-08-14T08:13:45Z</time>
      </trkpt>
      <trkpt lat="44.61541" lon="2.58355">
        <ele>412.9</ele>
        <time>2024-08-14T08:13:46Z</time>
      </trkpt>
      <trkpt lat="44.61539" lon="2.58358">
        <ele>413.3</ele>
        <time>2024-08-14T08:13:48Z</time>
      </trkpt>
      <trkpt lat="44.61539" lon="2.58359">
        <ele>413.4</ele>
        <time>2024-08-14T08:13:49Z</time>
      </trkpt>
      <trkpt lat="44.61538" lon="2.5836">
        <ele>413.5</ele>
        <time>2024-08-14T08:13:50Z</time>
      </trkpt>
      <trkpt lat="44.61537" lon="2.58362">
        <ele>413.8</ele>
        <time>2024-08-14T08:13:52Z</time>
      </trkpt>
      <trkpt lat="44.61536" lon="2.58365">
        <ele>414.2</ele>
        <time>2024-08-14T08:13:54Z</time>
      </trkpt>
      <trkpt lat="44.61534" lon="2.58368">
        <ele>414.6</ele>
        <time>2024-08-14T08:13:56Z</time>
      </trkpt>
      <trkpt lat="44.61533" lon="2.58369">
        <ele>414.7</ele>
        <time>2024-08-14T08:13:57Z</time>
      </trkpt>
      <trkpt lat="44.61529" lon="2.58382">
        <ele>415.1</ele>
        <time>2024-08-14T08:14:05Z</time>
      </trkpt>
      <trkpt lat="44.61529" lon="2.58385">
        <ele>415.1</ele>
        <time>2024-08-14T08:14:06Z</time>
      </trkpt>
      <trkpt lat="44.6153" lon="2.5839">
        <ele>415.3</ele>
        <time>2024-08-14T08:14:08Z</time>
      </trkpt>
      <trkpt lat="44.6153" lon="2.58392">
        <ele>415.3</ele>
        <time>2024-08-14T08:14:09Z</time>
      </trkpt>
      <trkpt lat="44.61531" lon="2.58395">
        <ele>415.4</ele>
        <time>2024-08-14T08:14:10Z</time>
      </trkpt>
      <trkpt lat="44.61531" lon="2.58399">
        <ele>415.5</ele>
        <time>2024-08-14T08:14:12Z</time>
      </trkpt>
      <trkpt lat="44.61532" lon="2.584">
        <ele>415.6</ele>
        <time>2024-08-14T08:14:13Z</time>
      </trkpt>
      <trkpt lat="44.61532" lon="2.58401">
        <ele>415.6</ele>
        <time>2024-08-14T08:14:14Z</time>
      </trkpt>
      <trkpt lat="44.61533" lon="2.58403">
        <ele>415.7</ele>
        <time>2024-08-14T08:14:15Z</time>
      </trkpt>
      <trkpt lat="44.61533" lon="2.58405">
        <ele>415.7</ele>
        <time>2024-08-14T08:14:16Z</time>
      </trkpt>
      <trkpt lat="44.61534" lon="2.58408">
        <ele>415.8</ele>
        <time>2024-08-14T08:14:18Z</time>
      </trkpt>
      <trkpt lat="44.61535" lon="2.58409">
        <ele>415.9</ele>
        <time>2024-08-14T08:14:19Z</time>
      </trkpt>
      <trkpt lat="44.61536" lon="2.58411">
        <ele>415.9</ele>
        <time>2024-08-14T08:14:20Z</time>
      </trkpt>
      <trkpt lat="44.61537" lon="2.58415">
        <ele>416.1</ele>
        <time>2024-08-14T08:14:22Z</time>
      </trkpt>
      <trkpt lat="44.61538" lon="2.58419">
        <ele>416.2</ele>
        <time>2024-08-14T08:14:24Z</time>
      </trkpt>
      <trkpt lat="44.61539" lon="2.58422">
        <ele>416.3</ele>
        <time>2024-08-14T08:14:25Z</time>
      </trkpt>
      <trkpt lat="44.6154" lon="2.58425">
        <ele>416.4</ele>
        <time>2024-08-14T08:14:26Z</time>
      </trkpt>
      <trkpt lat="44.61541" lon="2.5843">
        <ele>416.5</ele>
        <time>2024-08-14T08:14:28Z</time>
      </trkpt>
      <trkpt lat="44.61541" lon="2.58434">
        <ele>416.6</ele>
        <time>2024-08-14T08:14:30Z</time>
      </trkpt>
      <trkpt lat="44.61542" lon="2.58437">
        <ele>416.6</ele>
        <time>2024-08-14T08:14:32Z</time>
      </trkpt>
      <trkpt lat="44.61543" lon="2.5844">
        <ele>416.7</ele>
        <time>2024-08-14T08:14:34Z</time>
      </trkpt>
      <trkpt lat="44.61543" lon="2.58442">
        <ele>416.7</ele>
        <time>2024-08-14T08:14:35Z</time>
      </trkpt>
      <trkpt lat="44.61543" lon="2.58443">
        <ele>416.7</ele>
        <time>2024-08-14T08:14:36Z</time>
      </trkpt>
      <trkpt lat="44.61544" lon="2.58446">
        <ele>416.8</ele>
        <time>2024-08-14T08:14:38Z</time>
      </trkpt>
      <trkpt lat="44.61544" lon="2.5845">
        <ele>416.8</ele>
        <time>2024-08-14T08:14:41Z</time>
      </trkpt>
      <trkpt lat="44.61544" lon="2.58452">
        <ele>416.9</ele>
        <time>2024-08-14T08:14:42Z</time>
      </trkpt>
      <trkpt lat="44.61544" lon="2.58456">
        <ele>416.9</ele>
        <time>2024-08-14T08:14:44Z</time>
      </trkpt>
      <trkpt lat="44.61546" lon="2.58458">
        <ele>416.9</ele>
        <time>2024-08-14T08:14:46Z</time>
      </trkpt>
      <trkpt lat="44.61546" lon="2.58459">
        <ele>416.9</ele>
        <time>2024-08-14T08:14:47Z</time>
      </trkpt>
      <trkpt lat="44.61547" lon="2.5846">
        <ele>416.9</ele>
        <time>2024-08-14T08:14:48Z</time>
      </trkpt>
      <trkpt lat="44.61548" lon="2.5846">
        <ele>416.9</ele>
        <time>2024-08-14T08:14:49Z</time>
      </trkpt>
      <trkpt lat="44.61561" lon="2.58458">
        <ele>416.9</ele>
        <time>2024-08-14T08:14:57Z</time>
      </trkpt>
      <trkpt lat="44.61564" lon="2.58458">
        <ele>416.8</ele>
        <time>2024-08-14T08:14:58Z</time>
      </trkpt>
      <trkpt lat="44.61566" lon="2.58459">
        <ele>416.8</ele>
        <time>2024-08-14T08:14:59Z</time>
      </trkpt>
      <trkpt lat="44.6157" lon="2.58461">
        <ele>416.8</ele>
        <time>2024-08-14T08:15:00Z</time>
      </trkpt>
      <trkpt lat="44.61578" lon="2.58469">
        <ele>416.7</ele>
        <time>2024-08-14T08:15:02Z</time>
      </trkpt>
      <trkpt lat="44.61584" lon="2.58476">
        <ele>416.6</ele>
        <time>2024-08-14T08:15:04Z</time>
      </trkpt>
      <trkpt lat="44.61588" lon="2.5848">
        <ele>416.5</ele>
        <time>2024-08-14T08:15:05Z</time>
      </trkpt>
      <trkpt lat="44.6159" lon="2.58482">
        <ele>416.5</ele>
        <time>2024-08-14T08:15:06Z</time>
      </trkpt>
      <trkpt lat="44.61592" lon="2.58484">
        <ele>416.4</ele>
        <time>2024-08-14T08:15:08Z</time>
      </trkpt>
      <trkpt lat="44.61595" lon="2.58487">
        <ele>416.4</ele>
        <time>2024-08-14T08:15:10Z</time>
      </trkpt>
      <trkpt lat="44.61596" lon="2.58489">
        <ele>416.3</ele>
        <time>2024-08-14T08:15:12Z</time>
      </trkpt>
      <trkpt lat="44.61607" lon="2.585">
        <ele>416.2</ele>
        <time>2024-08-14T08:18:08Z</time>
      </trkpt>
      <trkpt lat="44.61607" lon="2.58502">
        <ele>416.2</ele>
        <time>2024-08-14T08:18:09Z</time>
      </trkpt>
      <trkpt lat="44.61608" lon="2.58504">
        <ele>416.2</ele>
        <time>2024-08-14T08:18:10Z</time>
      </trkpt>
      <trkpt lat="44.61609" lon="2.58506">
        <ele>416.2</ele>
        <time>2024-08-14T08:18:11Z</time>
      </trkpt>
      <trkpt lat="44.61611" lon="2.5851">
        <ele>416.2</ele>
        <time>2024-08-14T08:18:13Z</time>
      </trkpt>
      <trkpt lat="44.61613" lon="2.58514">
        <ele>416.2</ele>
        <time>2024-08-14T08:18:15Z</time>
      </trkpt>
      <trkpt lat="44.61614" lon="2.58519">
        <ele>416.2</ele>
        <time>2024-08-14T08:18:17Z</time>
      </trkpt>
      <trkpt lat="44.61615" lon="2.58525">
        <ele>416.2</ele>
        <time>2024-08-14T08:18:19Z</time>
      </trkpt>
      <trkpt lat="44.61616" lon="2.58531">
        <ele>416.2</ele>
        <time>2024-08-14T08:18:21Z</time>
      </trkpt>
      <trkpt lat="44.61617" lon="2.58537">
        <ele>416.2</ele>
        <time>2024-08-14T08:18:23Z</time>
      </trkpt>
      <trkpt lat="44.61617" lon="2.58543">
        <ele>416.2</ele>
        <time>2024-08-14T08:18:25Z</time>
      </trkpt>
      <trkpt lat="44.61618" lon="2.58548">
        <ele>416.2</ele>
        <time>2024-08-14T08:18:27Z</time>
      </trkpt>
      <trkpt lat="44.61619" lon="2.58554">
        <ele>416.3</ele>
        <time>2024-08-14T08:18:29Z</time>
      </trkpt>
      <trkpt lat="44.6162" lon="2.5856">
        <ele>416.3</ele>
        <time>2024-08-14T08:18:31Z</time>
      </trkpt>
      <trkpt lat="44.6162" lon="2.58566">
        <ele>416.3</ele>
        <time>2024-08-14T08:18:33Z</time>
      </trkpt>
      <trkpt lat="44.61621" lon="2.5857">
        <ele>416.3</ele>
        <time>2024-08-14T08:18:34Z</time>
      </trkpt>
      <trkpt lat="44.61622" lon="2.58573">
        <ele>416.4</ele>
        <time>2024-08-14T08:18:35Z</time>
      </trkpt>
      <trkpt lat="44.61624" lon="2.58579">
        <ele>416.4</ele>
        <time>2024-08-14T08:18:37Z</time>
      </trkpt>
      <trkpt lat="44.61624" lon="2.58582">
        <ele>416.4</ele>
        <time>2024-08-14T08:18:38Z</time>
      </trkpt>
      <trkpt lat="44.61625" lon="2.58585">
        <ele>416.4</ele>
        <time>2024-08-14T08:18:39Z</time>
      </trkpt>
      <trkpt lat="44.61626" lon="2.58591">
        <ele>416.4</ele>
        <time>2024-08-14T08:18:41Z</time>
      </trkpt>
      <trkpt lat="44.61627" lon="2.58595">
        <ele>416.5</ele>
        <time>2024-08-14T08:18:42Z</time>
      </trkpt>
      <trkpt lat="44.61628" lon="2.58598">
        <ele>416.5</ele>
        <time>2024-08-14T08:18:43Z</time>
      </trkpt>
      <trkpt lat="44.6163" lon="2.58605">
        <ele>416.5</ele>
        <time>2024-08-14T08:18:45Z</time>
      </trkpt>
      <trkpt lat="44.61631" lon="2.58613">
        <ele>416.5</ele>
        <time>2024-08-14T08:18:47Z</time>
      </trkpt>
      <trkpt lat="44.61632" lon="2.58617">
        <ele>416.5</ele>
        <time>2024-08-14T08:18:48Z</time>
      </trkpt>
      <trkpt lat="44.61634" lon="2.5862">
        <ele>416.5</ele>
        <time>2024-08-14T08:18:49Z</time>
      </trkpt>
      <trkpt lat="44.61635" lon="2.58624">
        <ele>416.5</ele>
        <time>2024-08-14T08:18:50Z</time>
      </trkpt>
      <trkpt lat="44.61635" lon="2.58628">
        <ele>416.6</ele>
        <time>2024-08-14T08:18:51Z</time>
      </trkpt>
      <trkpt lat="44.61635" lon="2.58636">
        <ele>416.6</ele>
        <time>2024-08-14T08:18:53Z</time>
      </trkpt>
      <trkpt lat="44.61634" lon="2.58643">
        <ele>416.6</ele>
        <time>2024-08-14T08:18:55Z</time>
      </trkpt>
      <trkpt lat="44.61631" lon="2.58647">
        <ele>416.7</ele>
        <time>2024-08-14T08:18:57Z</time>
      </trkpt>
      <trkpt lat="44.6163" lon="2.58649">
        <ele>416.7</ele>
        <time>2024-08-14T08:18:58Z</time>
      </trkpt>
      <trkpt lat="44.61628" lon="2.58651">
        <ele>416.7</ele>
        <time>2024-08-14T08:18:59Z</time>
      </trkpt>
      <trkpt lat="44.61624" lon="2.58655">
        <ele>416.7</ele>
        <time>2024-08-14T08:19:01Z</time>
      </trkpt>
      <trkpt lat="44.6162" lon="2.58659">
        <ele>416.6</ele>
        <time>2024-08-14T08:19:03Z</time>
      </trkpt>
      <trkpt lat="44.61618" lon="2.58661">
        <ele>416.6</ele>
        <time>2024-08-14T08:19:04Z</time>
      </trkpt>
      <trkpt lat="44.61617" lon="2.58664">
        <ele>416.6</ele>
        <time>2024-08-14T08:19:05Z</time>
      </trkpt>
      <trkpt lat="44.61614" lon="2.5867">
        <ele>416.6</ele>
        <time>2024-08-14T08:19:07Z</time>
      </trkpt>
      <trkpt lat="44.61612" lon="2.58676">
        <ele>416.6</ele>
        <time>2024-08-14T08:19:09Z</time>
      </trkpt>
      <trkpt lat="44.61612" lon="2.58679">
        <ele>416.6</ele>
        <time>2024-08-14T08:19:10Z</time>
      </trkpt>
      <trkpt lat="44.61611" lon="2.58682">
        <ele>416.6</ele>
        <time>2024-08-14T08:19:11Z</time>
      </trkpt>
      <trkpt lat="44.61609" lon="2.58688">
        <ele>416.6</ele>
        <time>2024-08-14T08:19:13Z</time>
      </trkpt>
      <trkpt lat="44.61609" lon="2.58691">
        <ele>416.6</ele>
        <time>2024-08-14T08:19:14Z</time>
      </trkpt>
      <trkpt lat="44.61608" lon="2.58694">
        <ele>416.6</ele>
        <time>2024-08-14T08:19:15Z</time>
      </trkpt>
      <trkpt lat="44.61606" lon="2.58704">
        <ele>416.6</ele>
        <time>2024-08-14T08:19:18Z</time>
      </trkpt>
      <trkpt lat="44.61604" lon="2.58712">
        <ele>416.6</ele>
        <time>2024-08-14T08:19:20Z</time>
      </trkpt>
      <trkpt lat="44.61604" lon="2.58719">
        <ele>416.6</ele>
        <time>2024-08-14T08:19:22Z</time>
      </trkpt>
      <trkpt lat="44.61604" lon="2.58727">
        <ele>416.7</ele>
        <time>2024-08-14T08:19:24Z</time>
      </trkpt>
      <trkpt lat="44.61604" lon="2.58739">
        <ele>416.8</ele>
        <time>2024-08-14T08:19:27Z</time>
      </trkpt>
      <trkpt lat="44.61604" lon="2.58743">
        <ele>416.8</ele>
        <time>2024-08-14T08:19:28Z</time>
      </trkpt>
      <trkpt lat="44.61604" lon="2.58749">
        <ele>416.8</ele>
        <time>2024-08-14T08:19:30Z</time>
      </trkpt>
      <trkpt lat="44.61607" lon="2.58763">
        <ele>416.8</ele>
        <time>2024-08-14T08:19:33Z</time>
      </trkpt>
      <trkpt lat="44.61608" lon="2.58767">
        <ele>416.8</ele>
        <time>2024-08-14T08:19:34Z</time>
      </trkpt>
      <trkpt lat="44.6161" lon="2.58773">
        <ele>416.7</ele>
        <time>2024-08-14T08:19:36Z</time>
      </trkpt>
      <trkpt lat="44.61613" lon="2.58779">
        <ele>416.5</ele>
        <time>2024-08-14T08:19:38Z</time>
      </trkpt>
      <trkpt lat="44.61615" lon="2.58784">
        <ele>416.4</ele>
        <time>2024-08-14T08:19:40Z</time>
      </trkpt>
      <trkpt lat="44.61617" lon="2.58789">
        <ele>416.3</ele>
        <time>2024-08-14T08:19:42Z</time>
      </trkpt>
      <trkpt lat="44.61619" lon="2.58793">
        <ele>416.1</ele>
        <time>2024-08-14T08:19:44Z</time>
      </trkpt>
      <trkpt lat="44.61621" lon="2.58795">
        <ele>416</ele>
        <time>2024-08-14T08:19:46Z</time>
      </trkpt>
      <trkpt lat="44.61622" lon="2.58797">
        <ele>415.9</ele>
        <time>2024-08-14T08:19:48Z</time>
      </trkpt>
      <trkpt lat="44.61622" lon="2.58798">
        <ele>415.9</ele>
        <time>2024-08-14T08:19:50Z</time>
      </trkpt>
      <trkpt lat="44.61622" lon="2.58798">
        <ele>415.9</ele>
        <time>2024-08-14T08:19:51Z</time>
      </trkpt>
      <trkpt lat="44.61618" lon="2.58803">
        <ele>415.6</ele>
        <time>2024-08-14T08:27:02Z</time>
      </trkpt>
      <trkpt lat="44.61616" lon="2.58804">
        <ele>415.5</ele>
        <time>2024-08-14T08:27:03Z</time>
      </trkpt>
      <trkpt lat="44.61614" lon="2.58807">
        <ele>415.3</ele>
        <time>2024-08-14T08:27:04Z</time>
      </trkpt>
      <trkpt lat="44.61611" lon="2.58813">
        <ele>415</ele>
        <time>2024-08-14T08:27:06Z</time>
      </trkpt>
      <trkpt lat="44.61606" lon="2.5882">
        <ele>414.6</ele>
        <time>2024-08-14T08:27:08Z</time>
      </trkpt>
      <trkpt lat="44.61599" lon="2.58825">
        <ele>414.1</ele>
        <time>2024-08-14T08:27:10Z</time>
      </trkpt>
      <trkpt lat="44.61591" lon="2.58826">
        <ele>413.4</ele>
        <time>2024-08-14T08:27:12Z</time>
      </trkpt>
      <trkpt lat="44.61584" lon="2.58822">
        <ele>412.8</ele>
        <time>2024-08-14T08:27:14Z</time>
      </trkpt>
      <trkpt lat="44.61578" lon="2.58819">
        <ele>412.2</ele>
        <time>2024-08-14T08:27:16Z</time>
      </trkpt>
      <trkpt lat="44.61571" lon="2.58816">
        <ele>411.6</ele>
        <time>2024-08-14T08:27:18Z</time>
      </trkpt>
      <trkpt lat="44.61563" lon="2.58812">
        <ele>411.1</ele>
        <time>2024-08-14T08:27:20Z</time>
      </trkpt>
      <trkpt lat="44.61556" lon="2.58808">
        <ele>410.7</ele>
        <time>2024-08-14T08:27:22Z</time>
      </trkpt>
      <trkpt lat="44.6155" lon="2.58805">
        <ele>410.4</ele>
        <time>2024-08-14T08:27:24Z</time>
      </trkpt>
      <trkpt lat="44.61544" lon="2.58802">
        <ele>410.1</ele>
        <time>2024-08-14T08:27:26Z</time>
      </trkpt>
      <trkpt lat="44.61541" lon="2.588">
        <ele>410</ele>
        <time>2024-08-14T08:27:27Z</time>
      </trkpt>
      <trkpt lat="44.61538" lon="2.58799">
        <ele>409.9</ele>
        <time>2024-08-14T08:27:28Z</time>
      </trkpt>
      <trkpt lat="44.61533" lon="2.58795">
        <ele>409.6</ele>
        <time>2024-08-14T08:27:30Z</time>
      </trkpt>
      <trkpt lat="44.61529" lon="2.5879">
        <ele>409.4</ele>
        <time>2024-08-14T08:27:32Z</time>
      </trkpt>
      <trkpt lat="44.61524" lon="2.58783">
        <ele>409.1</ele>
        <time>2024-08-14T08:27:34Z</time>
      </trkpt>
      <trkpt lat="44.61519" lon="2.58777">
        <ele>408.9</ele>
        <time>2024-08-14T08:27:36Z</time>
      </trkpt>
      <trkpt lat="44.61514" lon="2.5877">
        <ele>408.6</ele>
        <time>2024-08-14T08:27:38Z</time>
      </trkpt>
      <trkpt lat="44.61511" lon="2.58766">
        <ele>408.5</ele>
        <time>2024-08-14T08:27:39Z</time>
      </trkpt>
      <trkpt lat="44.61508" lon="2.58762">
        <ele>408.4</ele>
        <time>2024-08-14T08:27:40Z</time>
      </trkpt>
      <trkpt lat="44.61501" lon="2.58759">
        <ele>408.2</ele>
        <time>2024-08-14T08:27:42Z</time>
      </trkpt>
      <trkpt lat="44.61497" lon="2.58757">
        <ele>408.1</ele>
        <time>2024-08-14T08:27:43Z</time>
      </trkpt>
      <trkpt lat="44.61493" lon="2.58756">
        <ele>408</ele>
        <time>2024-08-14T08:27:44Z</time>
      </trkpt>
      <trkpt lat="44.61489" lon="2.58755">
        <ele>407.8</ele>
        <time>2024-08-14T08:27:45Z</time>
      </trkpt>
      <trkpt lat="44.61485" lon="2.58753">
        <ele>407.7</ele>
        <time>2024-08-14T08:27:46Z</time>
      </trkpt>
      <trkpt lat="44.61475" lon="2.58751">
        <ele>407.4</ele>
        <time>2024-08-14T08:27:48Z</time>
      </trkpt>
      <trkpt lat="44.61466" lon="2.58748">
        <ele>407</ele>
        <time>2024-08-14T08:27:50Z</time>
      </trkpt>
      <trkpt lat="44.61456" lon="2.58744">
        <ele>406.4</ele>
        <time>2024-08-14T08:27:52Z</time>
      </trkpt>
      <trkpt lat="44.6145" lon="2.58741">
        <ele>406.1</ele>
        <time>2024-08-14T08:27:53Z</time>
      </trkpt>
      <trkpt lat="44.61445" lon="2.5874">
        <ele>405.7</ele>
        <time>2024-08-14T08:27:54Z</time>
      </trkpt>
      <trkpt lat="44.61435" lon="2.58746">
        <ele>405.1</ele>
        <time>2024-08-14T08:27:56Z</time>
      </trkpt>
      <trkpt lat="44.61431" lon="2.58759">
        <ele>404.4</ele>
        <time>2024-08-14T08:27:58Z</time>
      </trkpt>
      <trkpt lat="44.61428" lon="2.58765">
        <ele>404</ele>
        <time>2024-08-14T08:27:59Z</time>
      </trkpt>
      <trkpt lat="44.61425" lon="2.58772">
        <ele>403.6</ele>
        <time>2024-08-14T08:28:00Z</time>
      </trkpt>
      <trkpt lat="44.61417" lon="2.58786">
        <ele>402.7</ele>
        <time>2024-08-14T08:28:02Z</time>
      </trkpt>
      <trkpt lat="44.61407" lon="2.58796">
        <ele>402</ele>
        <time>2024-08-14T08:28:04Z</time>
      </trkpt>
      <trkpt lat="44.61395" lon="2.58801">
        <ele>401.3</ele>
        <time>2024-08-14T08:28:06Z</time>
      </trkpt>
      <trkpt lat="44.61384" lon="2.58805">
        <ele>400.8</ele>
        <time>2024-08-14T08:28:08Z</time>
      </trkpt>
      <trkpt lat="44.61378" lon="2.58808">
        <ele>400.6</ele>
        <time>2024-08-14T08:28:09Z</time>
      </trkpt>
      <trkpt lat="44.61372" lon="2.58811">
        <ele>400.3</ele>
        <time>2024-08-14T08:28:10Z</time>
      </trkpt>
      <trkpt lat="44.61367" lon="2.58814">
        <ele>400.1</ele>
        <time>2024-08-14T08:28:11Z</time>
      </trkpt>
      <trkpt lat="44.61362" lon="2.58818">
        <ele>399.9</ele>
        <time>2024-08-14T08:28:12Z</time>
      </trkpt>
      <trkpt lat="44.61359" lon="2.58823">
        <ele>399.7</ele>
        <time>2024-08-14T08:28:13Z</time>
      </trkpt>
      <trkpt lat="44.61356" lon="2.58831">
        <ele>399.5</ele>
        <time>2024-08-14T08:28:14Z</time>
      </trkpt>
      <trkpt lat="44.61356" lon="2.58839">
        <ele>399.3</ele>
        <time>2024-08-14T08:28:15Z</time>
      </trkpt>
      <trkpt lat="44.61357" lon="2.58846">
        <ele>399.1</ele>
        <time>2024-08-14T08:28:16Z</time>
      </trkpt>
      <trkpt lat="44.61359" lon="2.58853">
        <ele>398.9</ele>
        <time>2024-08-14T08:28:17Z</time>
      </trkpt>
      <trkpt lat="44.61361" lon="2.5886">
        <ele>398.7</ele>
        <time>2024-08-14T08:28:18Z</time>
      </trkpt>
      <trkpt lat="44.61366" lon="2.58876">
        <ele>398.3</ele>
        <time>2024-08-14T08:28:20Z</time>
      </trkpt>
      <trkpt lat="44.6137" lon="2.58893">
        <ele>397.8</ele>
        <time>2024-08-14T08:28:22Z</time>
      </trkpt>
      <trkpt lat="44.61371" lon="2.58902">
        <ele>397.5</ele>
        <time>2024-08-14T08:28:23Z</time>
      </trkpt>
      <trkpt lat="44.61372" lon="2.58911">
        <ele>397.3</ele>
        <time>2024-08-14T08:28:24Z</time>
      </trkpt>
      <trkpt lat="44.61373" lon="2.5892">
        <ele>397</ele>
        <time>2024-08-14T08:28:25Z</time>
      </trkpt>
      <trkpt lat="44.61374" lon="2.58928">
        <ele>396.7</ele>
        <time>2024-08-14T08:28:26Z</time>
      </trkpt>
      <trkpt lat="44.61374" lon="2.58945">
        <ele>396.2</ele>
        <time>2024-08-14T08:28:28Z</time>
      </trkpt>
      <trkpt lat="44.61374" lon="2.58953">
        <ele>396</ele>
        <time>2024-08-14T08:28:29Z</time>
      </trkpt>
      <trkpt lat="44.61374" lon="2.58961">
        <ele>395.7</ele>
        <time>2024-08-14T08:28:30Z</time>
      </trkpt>
      <trkpt lat="44.61374" lon="2.58977">
        <ele>395.2</ele>
        <time>2024-08-14T08:28:32Z</time>
      </trkpt>
      <trkpt lat="44.61375" lon="2.58992">
        <ele>394.7</ele>
        <time>2024-08-14T08:28:34Z</time>
      </trkpt>
      <trkpt lat="44.61377" lon="2.59007">
        <ele>394.2</ele>
        <time>2024-08-14T08:28:36Z</time>
      </trkpt>
      <trkpt lat="44.61378" lon="2.59014">
        <ele>394.1</ele>
        <time>2024-08-14T08:28:37Z</time>
      </trkpt>
      <trkpt lat="44.61379" lon="2.59022">
        <ele>394</ele>
        <time>2024-08-14T08:28:38Z</time>
      </trkpt>
      <trkpt lat="44.61379" lon="2.5903">
        <ele>393.8</ele>
        <time>2024-08-14T08:28:39Z</time>
      </trkpt>
      <trkpt lat="44.61378" lon="2.59037">
        <ele>393.7</ele>
        <time>2024-08-14T08:28:40Z</time>
      </trkpt>
      <trkpt lat="44.61376" lon="2.59045">
        <ele>393.6</ele>
        <time>2024-08-14T08:28:41Z</time>
      </trkpt>
      <trkpt lat="44.61374" lon="2.59051">
        <ele>393.4</ele>
        <time>2024-08-14T08:28:42Z</time>
      </trkpt>
      <trkpt lat="44.61371" lon="2.59057">
        <ele>393.3</ele>
        <time>2024-08-14T08:28:43Z</time>
      </trkpt>
      <trkpt lat="44.61367" lon="2.59063">
        <ele>393.1</ele>
        <time>2024-08-14T08:28:44Z</time>
      </trkpt>
      <trkpt lat="44.61362" lon="2.59067">
        <ele>392.8</ele>
        <time>2024-08-14T08:28:45Z</time>
      </trkpt>
      <trkpt lat="44.61357" lon="2.59071">
        <ele>392.6</ele>
        <time>2024-08-14T08:28:46Z</time>
      </trkpt>
      <trkpt lat="44.61346" lon="2.59076">
        <ele>392.1</ele>
        <time>2024-08-14T08:28:48Z</time>
      </trkpt>
      <trkpt lat="44.61335" lon="2.59078">
        <ele>391.4</ele>
        <time>2024-08-14T08:28:50Z</time>
      </trkpt>
      <trkpt lat="44.61322" lon="2.59076">
        <ele>390.8</ele>
        <time>2024-08-14T08:28:52Z</time>
      </trkpt>
      <trkpt lat="44.6131" lon="2.59072">
        <ele>390.1</ele>
        <time>2024-08-14T08:28:54Z</time>
      </trkpt>
      <trkpt lat="44.61298" lon="2.59072">
        <ele>389.5</ele>
        <time>2024-08-14T08:28:56Z</time>
      </trkpt>
      <trkpt lat="44.61292" lon="2.59072">
        <ele>389.3</ele>
        <time>2024-08-14T08:28:57Z</time>
      </trkpt>
      <trkpt lat="44.61285" lon="2.59071">
        <ele>389</ele>
        <time>2024-08-14T08:28:58Z</time>
      </trkpt>
      <trkpt lat="44.61279" lon="2.5907">
        <ele>388.8</ele>
        <time>2024-08-14T08:28:59Z</time>
      </trkpt>
      <trkpt lat="44.61272" lon="2.59069">
        <ele>388.6</ele>
        <time>2024-08-14T08:29:00Z</time>
      </trkpt>
      <trkpt lat="44.6126" lon="2.59067">
        <ele>388.3</ele>
        <time>2024-08-14T08:29:02Z</time>
      </trkpt>
      <trkpt lat="44.61247" lon="2.5907">
        <ele>388.1</ele>
        <time>2024-08-14T08:29:04Z</time>
      </trkpt>
      <trkpt lat="44.61237" lon="2.59076">
        <ele>388</ele>
        <time>2024-08-14T08:29:06Z</time>
      </trkpt>
      <trkpt lat="44.61233" lon="2.5908">
        <ele>387.9</ele>
        <time>2024-08-14T08:29:07Z</time>
      </trkpt>
      <trkpt lat="44.6123" lon="2.59086">
        <ele>387.9</ele>
        <time>2024-08-14T08:29:08Z</time>
      </trkpt>
      <trkpt lat="44.61224" lon="2.59097">
        <ele>387.7</ele>
        <time>2024-08-14T08:29:10Z</time>
      </trkpt>
      <trkpt lat="44.61221" lon="2.59104">
        <ele>387.5</ele>
        <time>2024-08-14T08:29:11Z</time>
      </trkpt>
      <trkpt lat="44.6122" lon="2.59112">
        <ele>387.3</ele>
        <time>2024-08-14T08:29:12Z</time>
      </trkpt>
      <trkpt lat="44.61219" lon="2.59129">
        <ele>386.7</ele>
        <time>2024-08-14T08:29:14Z</time>
      </trkpt>
      <trkpt lat="44.61218" lon="2.59144">
        <ele>386</ele>
        <time>2024-08-14T08:29:16Z</time>
      </trkpt>
      <trkpt lat="44.61216" lon="2.59151">
        <ele>385.6</ele>
        <time>2024-08-14T08:29:17Z</time>
      </trkpt>
      <trkpt lat="44.61214" lon="2.59158">
        <ele>385.2</ele>
        <time>2024-08-14T08:29:18Z</time>
      </trkpt>
      <trkpt lat="44.61207" lon="2.59172">
        <ele>384.3</ele>
        <time>2024-08-14T08:29:20Z</time>
      </trkpt>
      <trkpt lat="44.61204" lon="2.59178">
        <ele>383.9</ele>
        <time>2024-08-14T08:29:21Z</time>
      </trkpt>
      <trkpt lat="44.61199" lon="2.59184">
        <ele>383.5</ele>
        <time>2024-08-14T08:29:22Z</time>
      </trkpt>
      <trkpt lat="44.61191" lon="2.59196">
        <ele>382.7</ele>
        <time>2024-08-14T08:29:24Z</time>
      </trkpt>
      <trkpt lat="44.61182" lon="2.59207">
        <ele>382</ele>
        <time>2024-08-14T08:29:26Z</time>
      </trkpt>
      <trkpt lat="44.61172" lon="2.59217">
        <ele>381.2</ele>
        <time>2024-08-14T08:29:28Z</time>
      </trkpt>
      <trkpt lat="44.61166" lon="2.59221">
        <ele>380.8</ele>
        <time>2024-08-14T08:29:29Z</time>
      </trkpt>
      <trkpt lat="44.6116" lon="2.59224">
        <ele>380.4</ele>
        <time>2024-08-14T08:29:30Z</time>
      </trkpt>
      <trkpt lat="44.61154" lon="2.59227">
        <ele>380</ele>
        <time>2024-08-14T08:29:31Z</time>
      </trkpt>
      <trkpt lat="44.61149" lon="2.59228">
        <ele>379.7</ele>
        <time>2024-08-14T08:29:32Z</time>
      </trkpt>
      <trkpt lat="44.61143" lon="2.59228">
        <ele>379.3</ele>
        <time>2024-08-14T08:29:33Z</time>
      </trkpt>
      <trkpt lat="44.61136" lon="2.59227">
        <ele>378.9</ele>
        <time>2024-08-14T08:29:34Z</time>
      </trkpt>
      <trkpt lat="44.61124" lon="2.59228">
        <ele>377.9</ele>
        <time>2024-08-14T08:29:36Z</time>
      </trkpt>
      <trkpt lat="44.61111" lon="2.5923">
        <ele>377</ele>
        <time>2024-08-14T08:29:38Z</time>
      </trkpt>
      <trkpt lat="44.61099" lon="2.59233">
        <ele>376.1</ele>
        <time>2024-08-14T08:29:40Z</time>
      </trkpt>
      <trkpt lat="44.61087" lon="2.59234">
        <ele>375.6</ele>
        <time>2024-08-14T08:29:42Z</time>
      </trkpt>
      <trkpt lat="44.61082" lon="2.59238">
        <ele>375.6</ele>
        <time>2024-08-14T08:29:43Z</time>
      </trkpt>
      <trkpt lat="44.61079" lon="2.59245">
        <ele>375.7</ele>
        <time>2024-08-14T08:29:44Z</time>
      </trkpt>
      <trkpt lat="44.61076" lon="2.59259">
        <ele>375.9</ele>
        <time>2024-08-14T08:29:46Z</time>
      </trkpt>
      <trkpt lat="44.61074" lon="2.5927">
        <ele>376.1</ele>
        <time>2024-08-14T08:29:48Z</time>
      </trkpt>
      <trkpt lat="44.61071" lon="2.59274">
        <ele>376.1</ele>
        <time>2024-08-14T08:29:49Z</time>
      </trkpt>
      <trkpt lat="44.61069" lon="2.59279">
        <ele>376.1</ele>
        <time>2024-08-14T08:29:50Z</time>
      </trkpt>
      <trkpt lat="44.61066" lon="2.59284">
        <ele>376.1</ele>
        <time>2024-08-14T08:29:51Z</time>
      </trkpt>
      <trkpt lat="44.61063" lon="2.5929">
        <ele>375.8</ele>
        <time>2024-08-14T08:29:52Z</time>
      </trkpt>
      <trkpt lat="44.61059" lon="2.59296">
        <ele>375.4</ele>
        <time>2024-08-14T08:29:53Z</time>
      </trkpt>
      <trkpt lat="44.61057" lon="2.59304">
        <ele>374.9</ele>
        <time>2024-08-14T08:29:54Z</time>
      </trkpt>
      <trkpt lat="44.61052" lon="2.5932">
        <ele>373.6</ele>
        <time>2024-08-14T08:29:56Z</time>
      </trkpt>
      <trkpt lat="44.6105" lon="2.59329">
        <ele>373</ele>
        <time>2024-08-14T08:29:57Z</time>
      </trkpt>
      <trkpt lat="44.61049" lon="2.59337">
        <ele>372.3</ele>
        <time>2024-08-14T08:29:58Z</time>
      </trkpt>
      <trkpt lat="44.61048" lon="2.59356">
        <ele>371.3</ele>
        <time>2024-08-14T08:30:00Z</time>
      </trkpt>
      <trkpt lat="44.61048" lon="2.59364">
        <ele>370.9</ele>
        <time>2024-08-14T08:30:01Z</time>
      </trkpt>
      <trkpt lat="44.61048" lon="2.59373">
        <ele>370.5</ele>
        <time>2024-08-14T08:30:02Z</time>
      </trkpt>
      <trkpt lat="44.61049" lon="2.5939">
        <ele>369.6</ele>
        <time>2024-08-14T08:30:04Z</time>
      </trkpt>
      <trkpt lat="44.61048" lon="2.59399">
        <ele>369.2</ele>
        <time>2024-08-14T08:30:05Z</time>
      </trkpt>
      <trkpt lat="44.61048" lon="2.59407">
        <ele>368.8</ele>
        <time>2024-08-14T08:30:06Z</time>
      </trkpt>
      <trkpt lat="44.61047" lon="2.59415">
        <ele>368.4</ele>
        <time>2024-08-14T08:30:07Z</time>
      </trkpt>
      <trkpt lat="44.61046" lon="2.59423">
        <ele>368</ele>
        <time>2024-08-14T08:30:08Z</time>
      </trkpt>
      <trkpt lat="44.61044" lon="2.59439">
        <ele>367.4</ele>
        <time>2024-08-14T08:30:10Z</time>
      </trkpt>
      <trkpt lat="44.61041" lon="2.59447">
        <ele>367.2</ele>
        <time>2024-08-14T08:30:11Z</time>
      </trkpt>
      <trkpt lat="44.61037" lon="2.59454">
        <ele>367</ele>
        <time>2024-08-14T08:30:12Z</time>
      </trkpt>
      <trkpt lat="44.61032" lon="2.59459">
        <ele>366.8</ele>
        <time>2024-08-14T08:30:13Z</time>
      </trkpt>
      <trkpt lat="44.61027" lon="2.59462">
        <ele>366.6</ele>
        <time>2024-08-14T08:30:14Z</time>
      </trkpt>
      <trkpt lat="44.61021" lon="2.59463">
        <ele>366.5</ele>
        <time>2024-08-14T08:30:15Z</time>
      </trkpt>
      <trkpt lat="44.61016" lon="2.59464">
        <ele>366.4</ele>
        <time>2024-08-14T08:30:16Z</time>
      </trkpt>
      <trkpt lat="44.61005" lon="2.59462">
        <ele>366.1</ele>
        <time>2024-08-14T08:30:18Z</time>
      </trkpt>
      <trkpt lat="44.60995" lon="2.5946">
        <ele>365.8</ele>
        <time>2024-08-14T08:30:20Z</time>
      </trkpt>
      <trkpt lat="44.6099" lon="2.59458">
        <ele>365.6</ele>
        <time>2024-08-14T08:30:21Z</time>
      </trkpt>
      <trkpt lat="44.60984" lon="2.59455">
        <ele>365.3</ele>
        <time>2024-08-14T08:30:22Z</time>
      </trkpt>
      <trkpt lat="44.60977" lon="2.59453">
        <ele>365.1</ele>
        <time>2024-08-14T08:30:23Z</time>
      </trkpt>
      <trkpt lat="44.60971" lon="2.59451">
        <ele>364.8</ele>
        <time>2024-08-14T08:30:24Z</time>
      </trkpt>
      <trkpt lat="44.60959" lon="2.59444">
        <ele>364.1</ele>
        <time>2024-08-14T08:30:26Z</time>
      </trkpt>
      <trkpt lat="44.60947" lon="2.59441">
        <ele>363.5</ele>
        <time>2024-08-14T08:30:28Z</time>
      </trkpt>
      <trkpt lat="44.60937" lon="2.59437">
        <ele>363.1</ele>
        <time>2024-08-14T08:30:30Z</time>
      </trkpt>
      <trkpt lat="44.60928" lon="2.59434">
        <ele>362.9</ele>
        <time>2024-08-14T08:30:32Z</time>
      </trkpt>
      <trkpt lat="44.60921" lon="2.59444">
        <ele>362.7</ele>
        <time>2024-08-14T08:30:34Z</time>
      </trkpt>
      <trkpt lat="44.60914" lon="2.59451">
        <ele>362.6</ele>
        <time>2024-08-14T08:30:36Z</time>
      </trkpt>
      <trkpt lat="44.60912" lon="2.59455">
        <ele>362.5</ele>
        <time>2024-08-14T08:30:37Z</time>
      </trkpt>
      <trkpt lat="44.60909" lon="2.59459">
        <ele>362.5</ele>
        <time>2024-08-14T08:30:38Z</time>
      </trkpt>
      <trkpt lat="44.609" lon="2.59466">
        <ele>362.4</ele>
        <time>2024-08-14T08:30:40Z</time>
      </trkpt>
      <trkpt lat="44.60895" lon="2.5947">
        <ele>362.4</ele>
        <time>2024-08-14T08:30:41Z</time>
      </trkpt>
      <trkpt lat="44.60891" lon="2.59473">
        <ele>362.4</ele>
        <time>2024-08-14T08:30:42Z</time>
      </trkpt>
      <trkpt lat="44.60882" lon="2.59477">
        <ele>362.7</ele>
        <time>2024-08-14T08:30:44Z</time>
      </trkpt>
      <trkpt lat="44.60871" lon="2.5948">
        <ele>363</ele>
        <time>2024-08-14T08:30:46Z</time>
      </trkpt>
      <trkpt lat="44.60863" lon="2.59485">
        <ele>363.5</ele>
        <time>2024-08-14T08:30:48Z</time>
      </trkpt>
      <trkpt lat="44.60859" lon="2.59488">
        <ele>363.8</ele>
        <time>2024-08-14T08:30:49Z</time>
      </trkpt>
      <trkpt lat="44.60856" lon="2.5949">
        <ele>364.1</ele>
        <time>2024-08-14T08:30:50Z</time>
      </trkpt>
      <trkpt lat="44.6085" lon="2.59494">
        <ele>364.7</ele>
        <time>2024-08-14T08:30:52Z</time>
      </trkpt>
      <trkpt lat="44.60848" lon="2.59499">
        <ele>365.1</ele>
        <time>2024-08-14T08:30:53Z</time>
      </trkpt>
      <trkpt lat="44.60847" lon="2.59505">
        <ele>365.6</ele>
        <time>2024-08-14T08:30:54Z</time>
      </trkpt>
      <trkpt lat="44.60845" lon="2.59515">
        <ele>366.4</ele>
        <time>2024-08-14T08:30:56Z</time>
      </trkpt>
      <trkpt lat="44.60845" lon="2.59518">
        <ele>366.7</ele>
        <time>2024-08-14T08:30:57Z</time>
      </trkpt>
      <trkpt lat="44.60846" lon="2.59523">
        <ele>367.1</ele>
        <time>2024-08-14T08:30:58Z</time>
      </trkpt>
      <trkpt lat="44.60848" lon="2.59531">
        <ele>367.8</ele>
        <time>2024-08-14T08:31:00Z</time>
      </trkpt>
      <trkpt lat="44.6085" lon="2.59541">
        <ele>368.6</ele>
        <time>2024-08-14T08:31:02Z</time>
      </trkpt>
      <trkpt lat="44.60851" lon="2.59549">
        <ele>369.3</ele>
        <time>2024-08-14T08:31:04Z</time>
      </trkpt>
      <trkpt lat="44.6085" lon="2.59556">
        <ele>369.8</ele>
        <time>2024-08-14T08:31:06Z</time>
      </trkpt>
      <trkpt lat="44.60849" lon="2.59559">
        <ele>370.2</ele>
        <time>2024-08-14T08:31:07Z</time>
      </trkpt>
      <trkpt lat="44.60847" lon="2.59562">
        <ele>370.4</ele>
        <time>2024-08-14T08:31:08Z</time>
      </trkpt>
      <trkpt lat="44.60845" lon="2.59565">
        <ele>370.6</ele>
        <time>2024-08-14T08:31:09Z</time>
      </trkpt>
      <trkpt lat="44.60843" lon="2.59567">
        <ele>370.8</ele>
        <time>2024-08-14T08:31:10Z</time>
      </trkpt>
      <trkpt lat="44.60839" lon="2.59573">
        <ele>371.2</ele>
        <time>2024-08-14T08:31:12Z</time>
      </trkpt>
      <trkpt lat="44.60836" lon="2.59577">
        <ele>371.6</ele>
        <time>2024-08-14T08:31:14Z</time>
      </trkpt>
      <trkpt lat="44.60832" lon="2.59582">
        <ele>372</ele>
        <time>2024-08-14T08:31:16Z</time>
      </trkpt>
      <trkpt lat="44.60827" lon="2.59587">
        <ele>372.3</ele>
        <time>2024-08-14T08:31:18Z</time>
      </trkpt>
      <trkpt lat="44.60825" lon="2.59589">
        <ele>372.5</ele>
        <time>2024-08-14T08:31:19Z</time>
      </trkpt>
      <trkpt lat="44.60823" lon="2.59592">
        <ele>372.7</ele>
        <time>2024-08-14T08:31:20Z</time>
      </trkpt>
      <trkpt lat="44.60821" lon="2.59594">
        <ele>372.9</ele>
        <time>2024-08-14T08:31:21Z</time>
      </trkpt>
      <trkpt lat="44.60818" lon="2.59596">
        <ele>373</ele>
        <time>2024-08-14T08:31:22Z</time>
      </trkpt>
      <trkpt lat="44.60815" lon="2.59599">
        <ele>373.2</ele>
        <time>2024-08-14T08:31:23Z</time>
      </trkpt>
      <trkpt lat="44.60813" lon="2.59601">
        <ele>373.3</ele>
        <time>2024-08-14T08:31:24Z</time>
      </trkpt>
      <trkpt lat="44.6081" lon="2.59604">
        <ele>373.5</ele>
        <time>2024-08-14T08:31:25Z</time>
      </trkpt>
      <trkpt lat="44.60807" lon="2.59607">
        <ele>373.6</ele>
        <time>2024-08-14T08:31:26Z</time>
      </trkpt>
      <trkpt lat="44.60801" lon="2.59614">
        <ele>373.9</ele>
        <time>2024-08-14T08:31:28Z</time>
      </trkpt>
      <trkpt lat="44.60796" lon="2.59622">
        <ele>374.1</ele>
        <time>2024-08-14T08:31:30Z</time>
      </trkpt>
      <trkpt lat="44.60791" lon="2.59631">
        <ele>374.4</ele>
        <time>2024-08-14T08:31:32Z</time>
      </trkpt>
      <trkpt lat="44.60786" lon="2.59638">
        <ele>374.5</ele>
        <time>2024-08-14T08:31:34Z</time>
      </trkpt>
      <trkpt lat="44.60781" lon="2.59645">
        <ele>374.7</ele>
        <time>2024-08-14T08:31:36Z</time>
      </trkpt>
      <trkpt lat="44.60777" lon="2.59652">
        <ele>374.9</ele>
        <time>2024-08-14T08:31:38Z</time>
      </trkpt>
      <trkpt lat="44.60772" lon="2.59659">
        <ele>375</ele>
        <time>2024-08-14T08:31:40Z</time>
      </trkpt>
      <trkpt lat="44.60768" lon="2.59667">
        <ele>375.2</ele>
        <time>2024-08-14T08:31:42Z</time>
      </trkpt>
      <trkpt lat="44.60766" lon="2.59672">
        <ele>375.3</ele>
        <time>2024-08-14T08:31:43Z</time>
      </trkpt>
      <trkpt lat="44.60764" lon="2.59676">
        <ele>375.4</ele>
        <time>2024-08-14T08:31:44Z</time>
      </trkpt>
      <trkpt lat="44.60759" lon="2.59684">
        <ele>375.7</ele>
        <time>2024-08-14T08:31:46Z</time>
      </trkpt>
      <trkpt lat="44.60754" lon="2.5969">
        <ele>375.9</ele>
        <time>2024-08-14T08:31:48Z</time>
      </trkpt>
      <trkpt lat="44.60749" lon="2.59695">
        <ele>376.1</ele>
        <time>2024-08-14T08:31:50Z</time>
      </trkpt>
      <trkpt lat="44.60744" lon="2.59699">
        <ele>376.3</ele>
        <time>2024-08-14T08:31:52Z</time>
      </trkpt>
      <trkpt lat="44.60738" lon="2.59703">
        <ele>376.5</ele>
        <time>2024-08-14T08:31:54Z</time>
      </trkpt>
      <trkpt lat="44.60733" lon="2.59707">
        <ele>376.7</ele>
        <time>2024-08-14T08:31:56Z</time>
      </trkpt>
      <trkpt lat="44.6073" lon="2.59708">
        <ele>376.8</ele>
        <time>2024-08-14T08:31:57Z</time>
      </trkpt>
      <trkpt lat="44.60727" lon="2.5971">
        <ele>376.8</ele>
        <time>2024-08-14T08:31:58Z</time>
      </trkpt>
      <trkpt lat="44.60721" lon="2.59712">
        <ele>377</ele>
        <time>2024-08-14T08:32:00Z</time>
      </trkpt>
      <trkpt lat="44.60715" lon="2.59715">
        <ele>377.1</ele>
        <time>2024-08-14T08:32:02Z</time>
      </trkpt>
      <trkpt lat="44.60711" lon="2.59716">
        <ele>377.2</ele>
        <time>2024-08-14T08:32:03Z</time>
      </trkpt>
      <trkpt lat="44.60708" lon="2.59717">
        <ele>377.2</ele>
        <time>2024-08-14T08:32:04Z</time>
      </trkpt>
      <trkpt lat="44.60702" lon="2.5972">
        <ele>377.3</ele>
        <time>2024-08-14T08:32:06Z</time>
      </trkpt>
      <trkpt lat="44.60694" lon="2.59724">
        <ele>377.2</ele>
        <time>2024-08-14T08:32:08Z</time>
      </trkpt>
      <trkpt lat="44.6069" lon="2.59726">
        <ele>377.1</ele>
        <time>2024-08-14T08:32:09Z</time>
      </trkpt>
      <trkpt lat="44.60686" lon="2.59729">
        <ele>377</ele>
        <time>2024-08-14T08:32:10Z</time>
      </trkpt>
      <trkpt lat="44.60677" lon="2.59735">
        <ele>376.6</ele>
        <time>2024-08-14T08:32:12Z</time>
      </trkpt>
      <trkpt lat="44.60669" lon="2.59743">
        <ele>376</ele>
        <time>2024-08-14T08:32:14Z</time>
      </trkpt>
      <trkpt lat="44.60665" lon="2.59749">
        <ele>375.7</ele>
        <time>2024-08-14T08:32:15Z</time>
      </trkpt>
      <trkpt lat="44.60661" lon="2.59754">
        <ele>375.4</ele>
        <time>2024-08-14T08:32:16Z</time>
      </trkpt>
      <trkpt lat="44.60651" lon="2.59766">
        <ele>374.7</ele>
        <time>2024-08-14T08:32:18Z</time>
      </trkpt>
      <trkpt lat="44.60637" lon="2.59773">
        <ele>374</ele>
        <time>2024-08-14T08:32:20Z</time>
      </trkpt>
      <trkpt lat="44.6063" lon="2.59774">
        <ele>373.7</ele>
        <time>2024-08-14T08:32:21Z</time>
      </trkpt>
      <trkpt lat="44.60623" lon="2.59772">
        <ele>373.4</ele>
        <time>2024-08-14T08:32:22Z</time>
      </trkpt>
      <trkpt lat="44.60611" lon="2.59764">
        <ele>373.1</ele>
        <time>2024-08-14T08:32:24Z</time>
      </trkpt>
      <trkpt lat="44.60602" lon="2.59754">
        <ele>372.9</ele>
        <time>2024-08-14T08:32:26Z</time>
      </trkpt>
      <trkpt lat="44.60595" lon="2.59744">
        <ele>373.8</ele>
        <time>2024-08-14T08:32:28Z</time>
      </trkpt>
      <trkpt lat="44.6059" lon="2.59741">
        <ele>374.4</ele>
        <time>2024-08-14T08:32:30Z</time>
      </trkpt>
      <trkpt lat="44.60589" lon="2.59742">
        <ele>374.6</ele>
        <time>2024-08-14T08:32:31Z</time>
      </trkpt>
      <trkpt lat="44.60588" lon="2.59742">
        <ele>374.8</ele>
        <time>2024-08-14T08:32:32Z</time>
      </trkpt>
      <trkpt lat="44.60585" lon="2.59743">
        <ele>375.1</ele>
        <time>2024-08-14T08:32:34Z</time>
      </trkpt>
      <trkpt lat="44.60583" lon="2.59744">
        <ele>375.5</ele>
        <time>2024-08-14T08:32:36Z</time>
      </trkpt>
      <trkpt lat="44.60582" lon="2.59746">
        <ele>375.7</ele>
        <time>2024-08-14T08:32:37Z</time>
      </trkpt>
      <trkpt lat="44.60581" lon="2.59745">
        <ele>376</ele>
        <time>2024-08-14T08:32:38Z</time>
      </trkpt>
      <trkpt lat="44.60578" lon="2.59746">
        <ele>376.4</ele>
        <time>2024-08-14T08:32:40Z</time>
      </trkpt>
      <trkpt lat="44.60575" lon="2.59747">
        <ele>376.9</ele>
        <time>2024-08-14T08:32:42Z</time>
      </trkpt>
      <trkpt lat="44.60574" lon="2.59748">
        <ele>377.1</ele>
        <time>2024-08-14T08:32:43Z</time>
      </trkpt>
      <trkpt lat="44.60573" lon="2.59748">
        <ele>377.3</ele>
        <time>2024-08-14T08:32:44Z</time>
      </trkpt>
      <trkpt lat="44.6057" lon="2.59749">
        <ele>377.7</ele>
        <time>2024-08-14T08:32:46Z</time>
      </trkpt>
      <trkpt lat="44.60568" lon="2.59752">
        <ele>378.2</ele>
        <time>2024-08-14T08:32:48Z</time>
      </trkpt>
      <trkpt lat="44.60566" lon="2.59755">
        <ele>378.6</ele>
        <time>2024-08-14T08:32:50Z</time>
      </trkpt>
      <trkpt lat="44.60564" lon="2.59755">
        <ele>378.9</ele>
        <time>2024-08-14T08:32:52Z</time>
      </trkpt>
      <trkpt lat="44.60562" lon="2.59755">
        <ele>379.2</ele>
        <time>2024-08-14T08:32:54Z</time>
      </trkpt>
      <trkpt lat="44.60561" lon="2.59755">
        <ele>379.4</ele>
        <time>2024-08-14T08:32:55Z</time>
      </trkpt>
      <trkpt lat="44.6056" lon="2.59753">
        <ele>379.7</ele>
        <time>2024-08-14T08:32:56Z</time>
      </trkpt>
      <trkpt lat="44.60559" lon="2.59751">
        <ele>379.9</ele>
        <time>2024-08-14T08:32:57Z</time>
      </trkpt>
      <trkpt lat="44.60559" lon="2.59749">
        <ele>380.1</ele>
        <time>2024-08-14T08:32:58Z</time>
      </trkpt>
      <trkpt lat="44.6056" lon="2.59748">
        <ele>380.3</ele>
        <time>2024-08-14T08:32:59Z</time>
      </trkpt>
      <trkpt lat="44.60561" lon="2.59746">
        <ele>380.5</ele>
        <time>2024-08-14T08:33:00Z</time>
      </trkpt>
      <trkpt lat="44.60562" lon="2.59746">
        <ele>380.7</ele>
        <time>2024-08-14T08:33:01Z</time>
      </trkpt>
      <trkpt lat="44.60563" lon="2.59745">
        <ele>380.9</ele>
        <time>2024-08-14T08:33:02Z</time>
      </trkpt>
      <trkpt lat="44.60566" lon="2.59743">
        <ele>381.4</ele>
        <time>2024-08-14T08:33:04Z</time>
      </trkpt>
      <trkpt lat="44.60567" lon="2.59742">
        <ele>381.6</ele>
        <time>2024-08-14T08:33:05Z</time>
      </trkpt>
      <trkpt lat="44.60568" lon="2.59741">
        <ele>381.8</ele>
        <time>2024-08-14T08:33:06Z</time>
      </trkpt>
      <trkpt lat="44.6057" lon="2.59737">
        <ele>382.3</ele>
        <time>2024-08-14T08:33:08Z</time>
      </trkpt>
      <trkpt lat="44.60572" lon="2.59734">
        <ele>382.8</ele>
        <time>2024-08-14T08:33:10Z</time>
      </trkpt>
      <trkpt lat="44.60573" lon="2.59732">
        <ele>383</ele>
        <time>2024-08-14T08:33:11Z</time>
      </trkpt>
      <trkpt lat="44.60573" lon="2.59731">
        <ele>383.2</ele>
        <time>2024-08-14T08:33:12Z</time>
      </trkpt>
      <trkpt lat="44.60575" lon="2.59728">
        <ele>383.5</ele>
        <time>2024-08-14T08:33:14Z</time>
      </trkpt>
      <trkpt lat="44.60575" lon="2.59726">
        <ele>383.8</ele>
        <time>2024-08-14T08:33:15Z</time>
      </trkpt>
      <trkpt lat="44.60576" lon="2.59724">
        <ele>384</ele>
        <time>2024-08-14T08:33:16Z</time>
      </trkpt>
      <trkpt lat="44.60577" lon="2.59719">
        <ele>384.5</ele>
        <time>2024-08-14T08:33:18Z</time>
      </trkpt>
      <trkpt lat="44.60576" lon="2.59716">
        <ele>384.9</ele>
        <time>2024-08-14T08:33:20Z</time>
      </trkpt>
      <trkpt lat="44.60576" lon="2.59712">
        <ele>385.4</ele>
        <time>2024-08-14T08:33:22Z</time>
      </trkpt>
      <trkpt lat="44.60576" lon="2.59708">
        <ele>385.8</ele>
        <time>2024-08-14T08:33:24Z</time>
      </trkpt>
      <trkpt lat="44.60576" lon="2.59707">
        <ele>386</ele>
        <time>2024-08-14T08:33:25Z</time>
      </trkpt>
      <trkpt lat="44.60576" lon="2.59705">
        <ele>386.2</ele>
        <time>2024-08-14T08:33:26Z</time>
      </trkpt>
      <trkpt lat="44.60576" lon="2.59702">
        <ele>386.5</ele>
        <time>2024-08-14T08:33:28Z</time>
      </trkpt>
      <trkpt lat="44.60575" lon="2.59699">
        <ele>386.9</ele>
        <time>2024-08-14T08:33:30Z</time>
      </trkpt>
      <trkpt lat="44.60575" lon="2.59695">
        <ele>387.3</ele>
        <time>2024-08-14T08:33:32Z</time>
      </trkpt>
      <trkpt lat="44.60575" lon="2.59692">
        <ele>387.7</ele>
        <time>2024-08-14T08:33:34Z</time>
      </trkpt>
      <trkpt lat="44.60575" lon="2.59688">
        <ele>388.1</ele>
        <time>2024-08-14T08:33:36Z</time>
      </trkpt>
      <trkpt lat="44.60575" lon="2.59685">
        <ele>388.4</ele>
        <time>2024-08-14T08:33:38Z</time>
      </trkpt>
      <trkpt lat="44.60575" lon="2.59684">
        <ele>388.6</ele>
        <time>2024-08-14T08:33:40Z</time>
      </trkpt>
      <trkpt lat="44.6053" lon="2.59696">
        <ele>396.3</ele>
        <time>2024-08-14T08:34:34Z</time>
      </trkpt>
      <trkpt lat="44.60533" lon="2.59694">
        <ele>397.2</ele>
        <time>2024-08-14T08:34:36Z</time>
      </trkpt>
      <trkpt lat="44.60536" lon="2.59693">
        <ele>397.7</ele>
        <time>2024-08-14T08:34:38Z</time>
      </trkpt>
      <trkpt lat="44.60538" lon="2.5969">
        <ele>398.2</ele>
        <time>2024-08-14T08:34:40Z</time>
      </trkpt>
      <trkpt lat="44.6054" lon="2.59687">
        <ele>398.7</ele>
        <time>2024-08-14T08:34:42Z</time>
      </trkpt>
      <trkpt lat="44.60541" lon="2.59684">
        <ele>399.2</ele>
        <time>2024-08-14T08:34:44Z</time>
      </trkpt>
      <trkpt lat="44.60542" lon="2.59682">
        <ele>399.4</ele>
        <time>2024-08-14T08:34:45Z</time>
      </trkpt>
      <trkpt lat="44.60543" lon="2.5968">
        <ele>399.7</ele>
        <time>2024-08-14T08:34:46Z</time>
      </trkpt>
      <trkpt lat="44.60543" lon="2.59677">
        <ele>400.1</ele>
        <time>2024-08-14T08:34:48Z</time>
      </trkpt>
      <trkpt lat="44.60543" lon="2.59674">
        <ele>400.4</ele>
        <time>2024-08-14T08:34:50Z</time>
      </trkpt>
      <trkpt lat="44.60542" lon="2.59672">
        <ele>400.7</ele>
        <time>2024-08-14T08:34:52Z</time>
      </trkpt>
      <trkpt lat="44.60541" lon="2.5967">
        <ele>400.8</ele>
        <time>2024-08-14T08:34:53Z</time>
      </trkpt>
      <trkpt lat="44.60541" lon="2.59669">
        <ele>401</ele>
        <time>2024-08-14T08:34:54Z</time>
      </trkpt>
      <trkpt lat="44.6054" lon="2.59667">
        <ele>401.2</ele>
        <time>2024-08-14T08:34:55Z</time>
      </trkpt>
      <trkpt lat="44.6054" lon="2.59665">
        <ele>401.5</ele>
        <time>2024-08-14T08:34:56Z</time>
      </trkpt>
      <trkpt lat="44.60539" lon="2.5966">
        <ele>402</ele>
        <time>2024-08-14T08:34:58Z</time>
      </trkpt>
      <trkpt lat="44.60537" lon="2.59657">
        <ele>402.4</ele>
        <time>2024-08-14T08:35:00Z</time>
      </trkpt>
      <trkpt lat="44.60536" lon="2.59653">
        <ele>402.8</ele>
        <time>2024-08-14T08:35:02Z</time>
      </trkpt>
      <trkpt lat="44.60535" lon="2.5965">
        <ele>403.2</ele>
        <time>2024-08-14T08:35:04Z</time>
      </trkpt>
      <trkpt lat="44.60535" lon="2.59645">
        <ele>403.8</ele>
        <time>2024-08-14T08:35:06Z</time>
      </trkpt>
      <trkpt lat="44.60533" lon="2.5964">
        <ele>404.4</ele>
        <time>2024-08-14T08:35:08Z</time>
      </trkpt>
      <trkpt lat="44.60533" lon="2.59636">
        <ele>404.7</ele>
        <time>2024-08-14T08:35:09Z</time>
      </trkpt>
      <trkpt lat="44.60533" lon="2.59634">
        <ele>405</ele>
        <time>2024-08-14T08:35:10Z</time>
      </trkpt>
      <trkpt lat="44.60534" lon="2.59629">
        <ele>405.4</ele>
        <time>2024-08-14T08:35:12Z</time>
      </trkpt>
      <trkpt lat="44.60535" lon="2.59626">
        <ele>405.8</ele>
        <time>2024-08-14T08:35:14Z</time>
      </trkpt>
      <trkpt lat="44.60535" lon="2.59625">
        <ele>406</ele>
        <time>2024-08-14T08:35:15Z</time>
      </trkpt>
      <trkpt lat="44.60536" lon="2.59623">
        <ele>406.2</ele>
        <time>2024-08-14T08:35:16Z</time>
      </trkpt>
      <trkpt lat="44.60536" lon="2.59623">
        <ele>406.2</ele>
        <time>2024-08-14T08:35:17Z</time>
      </trkpt>
      <trkpt lat="44.60647" lon="2.59607">
        <ele>420</ele>
        <time>2024-08-14T08:36:33Z</time>
      </trkpt>
      <trkpt lat="44.60648" lon="2.59608">
        <ele>420.2</ele>
        <time>2024-08-14T08:36:34Z</time>
      </trkpt>
      <trkpt lat="44.60651" lon="2.59608">
        <ele>420.4</ele>
        <time>2024-08-14T08:36:36Z</time>
      </trkpt>
      <trkpt lat="44.60654" lon="2.59609">
        <ele>420.7</ele>
        <time>2024-08-14T08:36:38Z</time>
      </trkpt>
      <trkpt lat="44.60655" lon="2.5961">
        <ele>420.8</ele>
        <time>2024-08-14T08:36:39Z</time>
      </trkpt>
      <trkpt lat="44.60656" lon="2.5961">
        <ele>420.9</ele>
        <time>2024-08-14T08:36:40Z</time>
      </trkpt>
      <trkpt lat="44.60659" lon="2.59612">
        <ele>421.1</ele>
        <time>2024-08-14T08:36:42Z</time>
      </trkpt>
      <trkpt lat="44.60661" lon="2.59613">
        <ele>421.3</ele>
        <time>2024-08-14T08:36:44Z</time>
      </trkpt>
      <trkpt lat="44.60664" lon="2.59616">
        <ele>421.6</ele>
        <time>2024-08-14T08:36:46Z</time>
      </trkpt>
      <trkpt lat="44.60666" lon="2.59619">
        <ele>421.8</ele>
        <time>2024-08-14T08:36:48Z</time>
      </trkpt>
      <trkpt lat="44.60669" lon="2.59621">
        <ele>421.9</ele>
        <time>2024-08-14T08:36:50Z</time>
      </trkpt>
      <trkpt lat="44.60671" lon="2.59623">
        <ele>421.9</ele>
        <time>2024-08-14T08:36:52Z</time>
      </trkpt>
      <trkpt lat="44.60674" lon="2.59625">
        <ele>422</ele>
        <time>2024-08-14T08:36:54Z</time>
      </trkpt>
      <trkpt lat="44.60676" lon="2.59625">
        <ele>422</ele>
        <time>2024-08-14T08:36:55Z</time>
      </trkpt>
      <trkpt lat="44.60678" lon="2.59626">
        <ele>422</ele>
        <time>2024-08-14T08:36:56Z</time>
      </trkpt>
      <trkpt lat="44.60681" lon="2.59626">
        <ele>422</ele>
        <time>2024-08-14T08:36:58Z</time>
      </trkpt>
      <trkpt lat="44.60684" lon="2.59625">
        <ele>422.1</ele>
        <time>2024-08-14T08:37:00Z</time>
      </trkpt>
      <trkpt lat="44.60687" lon="2.59624">
        <ele>422.1</ele>
        <time>2024-08-14T08:37:02Z</time>
      </trkpt>
      <trkpt lat="44.60691" lon="2.59622">
        <ele>422.1</ele>
        <time>2024-08-14T08:37:04Z</time>
      </trkpt>
      <trkpt lat="44.60692" lon="2.59622">
        <ele>422.1</ele>
        <time>2024-08-14T08:37:05Z</time>
      </trkpt>
      <trkpt lat="44.60694" lon="2.59621">
        <ele>422.1</ele>
        <time>2024-08-14T08:37:06Z</time>
      </trkpt>
      <trkpt lat="44.60696" lon="2.5962">
        <ele>422</ele>
        <time>2024-08-14T08:37:07Z</time>
      </trkpt>
      <trkpt lat="44.60698" lon="2.59619">
        <ele>422</ele>
        <time>2024-08-14T08:37:08Z</time>
      </trkpt>
      <trkpt lat="44.60701" lon="2.59618">
        <ele>422</ele>
        <time>2024-08-14T08:37:10Z</time>
      </trkpt>
      <trkpt lat="44.60703" lon="2.59617">
        <ele>422</ele>
        <time>2024-08-14T08:37:11Z</time>
      </trkpt>
      <trkpt lat="44.60705" lon="2.59616">
        <ele>422</ele>
        <time>2024-08-14T08:37:12Z</time>
      </trkpt>
      <trkpt lat="44.60707" lon="2.59615">
        <ele>422</ele>
        <time>2024-08-14T08:37:13Z</time>
      </trkpt>
      <trkpt lat="44.60708" lon="2.59615">
        <ele>422</ele>
        <time>2024-08-14T08:37:14Z</time>
      </trkpt>
      <trkpt lat="44.6071" lon="2.59614">
        <ele>422</ele>
        <time>2024-08-14T08:37:15Z</time>
      </trkpt>
      <trkpt lat="44.60711" lon="2.59613">
        <ele>422</ele>
        <time>2024-08-14T08:37:16Z</time>
      </trkpt>
      <trkpt lat="44.60713" lon="2.59611">
        <ele>422</ele>
        <time>2024-08-14T08:37:17Z</time>
      </trkpt>
      <trkpt lat="44.60714" lon="2.5961">
        <ele>422</ele>
        <time>2024-08-14T08:37:18Z</time>
      </trkpt>
      <trkpt lat="44.60716" lon="2.59608">
        <ele>422</ele>
        <time>2024-08-14T08:37:19Z</time>
      </trkpt>
      <trkpt lat="44.60716" lon="2.59607">
        <ele>422</ele>
        <time>2024-08-14T08:37:20Z</time>
      </trkpt>
      <trkpt lat="44.60718" lon="2.59606">
        <ele>422</ele>
        <time>2024-08-14T08:37:21Z</time>
      </trkpt>
      <trkpt lat="44.6072" lon="2.59606">
        <ele>422.1</ele>
        <time>2024-08-14T08:37:22Z</time>
      </trkpt>
      <trkpt lat="44.60724" lon="2.59604">
        <ele>422.1</ele>
        <time>2024-08-14T08:37:24Z</time>
      </trkpt>
      <trkpt lat="44.60728" lon="2.59602">
        <ele>422.3</ele>
        <time>2024-08-14T08:37:26Z</time>
      </trkpt>
      <trkpt lat="44.60731" lon="2.59599">
        <ele>422.4</ele>
        <time>2024-08-14T08:37:28Z</time>
      </trkpt>
      <trkpt lat="44.60734" lon="2.59597">
        <ele>422.5</ele>
        <time>2024-08-14T08:37:30Z</time>
      </trkpt>
      <trkpt lat="44.60736" lon="2.59595">
        <ele>422.6</ele>
        <time>2024-08-14T08:37:31Z</time>
      </trkpt>
      <trkpt lat="44.60738" lon="2.59594">
        <ele>422.7</ele>
        <time>2024-08-14T08:37:32Z</time>
      </trkpt>
      <trkpt lat="44.6074" lon="2.59591">
        <ele>422.8</ele>
        <time>2024-08-14T08:37:34Z</time>
      </trkpt>
      <trkpt lat="44.60743" lon="2.59589">
        <ele>423</ele>
        <time>2024-08-14T08:37:36Z</time>
      </trkpt>
      <trkpt lat="44.60745" lon="2.59588">
        <ele>423.1</ele>
        <time>2024-08-14T08:37:37Z</time>
      </trkpt>
      <trkpt lat="44.60746" lon="2.59586">
        <ele>423.1</ele>
        <time>2024-08-14T08:37:38Z</time>
      </trkpt>
      <trkpt lat="44.60748" lon="2.59583">
        <ele>423.3</ele>
        <time>2024-08-14T08:37:40Z</time>
      </trkpt>
      <trkpt lat="44.6075" lon="2.59578">
        <ele>423.5</ele>
        <time>2024-08-14T08:37:42Z</time>
      </trkpt>
      <trkpt lat="44.60752" lon="2.59574">
        <ele>423.6</ele>
        <time>2024-08-14T08:37:44Z</time>
      </trkpt>
      <trkpt lat="44.60753" lon="2.59569">
        <ele>423.8</ele>
        <time>2024-08-14T08:37:46Z</time>
      </trkpt>
      <trkpt lat="44.60753" lon="2.59565">
        <ele>423.9</ele>
        <time>2024-08-14T08:37:48Z</time>
      </trkpt>
      <trkpt lat="44.60752" lon="2.59562">
        <ele>424</ele>
        <time>2024-08-14T08:37:49Z</time>
      </trkpt>
      <trkpt lat="44.60751" lon="2.5956">
        <ele>424.1</ele>
        <time>2024-08-14T08:37:50Z</time>
      </trkpt>
      <trkpt lat="44.6075" lon="2.59556">
        <ele>424.2</ele>
        <time>2024-08-14T08:37:52Z</time>
      </trkpt>
      <trkpt lat="44.60749" lon="2.59551">
        <ele>424.3</ele>
        <time>2024-08-14T08:37:54Z</time>
      </trkpt>
      <trkpt lat="44.60748" lon="2.59546">
        <ele>424.5</ele>
        <time>2024-08-14T08:37:56Z</time>
      </trkpt>
      <trkpt lat="44.60746" lon="2.59542">
        <ele>424.6</ele>
        <time>2024-08-14T08:37:58Z</time>
      </trkpt>
      <trkpt lat="44.60745" lon="2.59537">
        <ele>424.7</ele>
        <time>2024-08-14T08:38:00Z</time>
      </trkpt>
      <trkpt lat="44.60744" lon="2.59532">
        <ele>424.8</ele>
        <time>2024-08-14T08:38:02Z</time>
      </trkpt>
      <trkpt lat="44.60743" lon="2.59527">
        <ele>425</ele>
        <time>2024-08-14T08:38:04Z</time>
      </trkpt>
      <trkpt lat="44.60742" lon="2.59523">
        <ele>425.1</ele>
        <time>2024-08-14T08:38:06Z</time>
      </trkpt>
      <trkpt lat="44.60742" lon="2.59517">
        <ele>425.2</ele>
        <time>2024-08-14T08:38:08Z</time>
      </trkpt>
      <trkpt lat="44.60741" lon="2.59515">
        <ele>425.2</ele>
        <time>2024-08-14T08:38:09Z</time>
      </trkpt>
      <trkpt lat="44.60741" lon="2.59512">
        <ele>425.3</ele>
        <time>2024-08-14T08:38:10Z</time>
      </trkpt>
      <trkpt lat="44.60742" lon="2.59507">
        <ele>425.4</ele>
        <time>2024-08-14T08:38:12Z</time>
      </trkpt>
      <trkpt lat="44.60742" lon="2.59505">
        <ele>425.4</ele>
        <time>2024-08-14T08:38:13Z</time>
      </trkpt>
      <trkpt lat="44.60742" lon="2.59503">
        <ele>425.5</ele>
        <time>2024-08-14T08:38:14Z</time>
      </trkpt>
      <trkpt lat="44.60742" lon="2.59499">
        <ele>425.6</ele>
        <time>2024-08-14T08:38:16Z</time>
      </trkpt>
      <trkpt lat="44.60742" lon="2.59497">
        <ele>425.7</ele>
        <time>2024-08-14T08:38:17Z</time>
      </trkpt>
      <trkpt lat="44.60743" lon="2.59494">
        <ele>425.7</ele>
        <time>2024-08-14T08:38:18Z</time>
      </trkpt>
      <trkpt lat="44.60743" lon="2.5949">
        <ele>425.9</ele>
        <time>2024-08-14T08:38:20Z</time>
      </trkpt>
      <trkpt lat="44.60744" lon="2.59485">
        <ele>426.1</ele>
        <time>2024-08-14T08:38:22Z</time>
      </trkpt>
      <trkpt lat="44.60744" lon="2.59483">
        <ele>426.2</ele>
        <time>2024-08-14T08:38:23Z</time>
      </trkpt>
      <trkpt lat="44.60745" lon="2.59481">
        <ele>426.3</ele>
        <time>2024-08-14T08:38:24Z</time>
      </trkpt>
      <trkpt lat="44.60745" lon="2.59478">
        <ele>426.5</ele>
        <time>2024-08-14T08:38:26Z</time>
      </trkpt>
      <trkpt lat="44.60747" lon="2.59473">
        <ele>426.8</ele>
        <time>2024-08-14T08:38:28Z</time>
      </trkpt>
      <trkpt lat="44.60748" lon="2.59471">
        <ele>427</ele>
        <time>2024-08-14T08:38:29Z</time>
      </trkpt>
      <trkpt lat="44.60748" lon="2.59468">
        <ele>427.1</ele>
        <time>2024-08-14T08:38:30Z</time>
      </trkpt>
      <trkpt lat="44.6075" lon="2.59465">
        <ele>427.4</ele>
        <time>2024-08-14T08:38:32Z</time>
      </trkpt>
      <trkpt lat="44.60751" lon="2.59461">
        <ele>427.7</ele>
        <time>2024-08-14T08:38:34Z</time>
      </trkpt>
      <trkpt lat="44.60751" lon="2.5946">
        <ele>427.8</ele>
        <time>2024-08-14T08:38:35Z</time>
      </trkpt>
      <trkpt lat="44.60751" lon="2.59458">
        <ele>427.9</ele>
        <time>2024-08-14T08:38:36Z</time>
      </trkpt>
      <trkpt lat="44.60752" lon="2.59453">
        <ele>428.3</ele>
        <time>2024-08-14T08:38:38Z</time>
      </trkpt>
      <trkpt lat="44.60753" lon="2.59449">
        <ele>428.6</ele>
        <time>2024-08-14T08:38:40Z</time>
      </trkpt>
      <trkpt lat="44.60754" lon="2.59445">
        <ele>428.9</ele>
        <time>2024-08-14T08:38:42Z</time>
      </trkpt>
      <trkpt lat="44.60755" lon="2.5944">
        <ele>429.3</ele>
        <time>2024-08-14T08:38:44Z</time>
      </trkpt>
      <trkpt lat="44.60756" lon="2.59438">
        <ele>429.5</ele>
        <time>2024-08-14T08:38:45Z</time>
      </trkpt>
      <trkpt lat="44.60757" lon="2.59436">
        <ele>429.7</ele>
        <time>2024-08-14T08:38:46Z</time>
      </trkpt>
      <trkpt lat="44.60757" lon="2.59431">
        <ele>430</ele>
        <time>2024-08-14T08:38:48Z</time>
      </trkpt>
      <trkpt lat="44.60758" lon="2.59427">
        <ele>430.4</ele>
        <time>2024-08-14T08:38:50Z</time>
      </trkpt>
      <trkpt lat="44.60758" lon="2.59422">
        <ele>430.7</ele>
        <time>2024-08-14T08:38:52Z</time>
      </trkpt>
      <trkpt lat="44.60759" lon="2.5942">
        <ele>430.9</ele>
        <time>2024-08-14T08:38:53Z</time>
      </trkpt>
      <trkpt lat="44.60759" lon="2.59418">
        <ele>431</ele>
        <time>2024-08-14T08:38:54Z</time>
      </trkpt>
      <trkpt lat="44.6076" lon="2.59415">
        <ele>431.3</ele>
        <time>2024-08-14T08:38:56Z</time>
      </trkpt>
      <trkpt lat="44.6076" lon="2.59411">
        <ele>431.6</ele>
        <time>2024-08-14T08:38:58Z</time>
      </trkpt>
      <trkpt lat="44.6076" lon="2.59408">
        <ele>431.8</ele>
        <time>2024-08-14T08:39:00Z</time>
      </trkpt>
      <trkpt lat="44.6076" lon="2.59404">
        <ele>432.1</ele>
        <time>2024-08-14T08:39:02Z</time>
      </trkpt>
      <trkpt lat="44.6076" lon="2.59401">
        <ele>432.4</ele>
        <time>2024-08-14T08:39:04Z</time>
      </trkpt>
      <trkpt lat="44.60761" lon="2.59397">
        <ele>432.6</ele>
        <time>2024-08-14T08:39:06Z</time>
      </trkpt>
      <trkpt lat="44.60761" lon="2.59395">
        <ele>432.8</ele>
        <time>2024-08-14T08:39:07Z</time>
      </trkpt>
      <trkpt lat="44.60761" lon="2.59393">
        <ele>433</ele>
        <time>2024-08-14T08:39:08Z</time>
      </trkpt>
      <trkpt lat="44.6076" lon="2.59389">
        <ele>433.3</ele>
        <time>2024-08-14T08:39:10Z</time>
      </trkpt>
      <trkpt lat="44.6076" lon="2.59385">
        <ele>433.6</ele>
        <time>2024-08-14T08:39:12Z</time>
      </trkpt>
      <trkpt lat="44.60761" lon="2.59381">
        <ele>433.9</ele>
        <time>2024-08-14T08:39:14Z</time>
      </trkpt>
      <trkpt lat="44.60762" lon="2.59378">
        <ele>434.2</ele>
        <time>2024-08-14T08:39:16Z</time>
      </trkpt>
      <trkpt lat="44.60763" lon="2.59373">
        <ele>434.6</ele>
        <time>2024-08-14T08:39:18Z</time>
      </trkpt>
      <trkpt lat="44.60764" lon="2.5937">
        <ele>434.9</ele>
        <time>2024-08-14T08:39:20Z</time>
      </trkpt>
      <trkpt lat="44.60766" lon="2.59367">
        <ele>435.2</ele>
        <time>2024-08-14T08:39:22Z</time>
      </trkpt>
      <trkpt lat="44.60767" lon="2.59365">
        <ele>435.4</ele>
        <time>2024-08-14T08:39:24Z</time>
      </trkpt>
      <trkpt lat="44.60769" lon="2.59364">
        <ele>435.5</ele>
        <time>2024-08-14T08:39:26Z</time>
      </trkpt>
      <trkpt lat="44.60771" lon="2.59364">
        <ele>435.7</ele>
        <time>2024-08-14T08:39:28Z</time>
      </trkpt>
      <trkpt lat="44.60772" lon="2.59364">
        <ele>435.9</ele>
        <time>2024-08-14T08:39:29Z</time>
      </trkpt>
      <trkpt lat="44.60774" lon="2.59364">
        <ele>435.9</ele>
        <time>2024-08-14T08:39:30Z</time>
      </trkpt>
      <trkpt lat="44.60776" lon="2.59365">
        <ele>436.1</ele>
        <time>2024-08-14T08:39:32Z</time>
      </trkpt>
      <trkpt lat="44.6078" lon="2.59366">
        <ele>436.3</ele>
        <time>2024-08-14T08:39:34Z</time>
      </trkpt>
      <trkpt lat="44.60782" lon="2.59368">
        <ele>436.5</ele>
        <time>2024-08-14T08:39:36Z</time>
      </trkpt>
      <trkpt lat="44.60786" lon="2.5937">
        <ele>436.6</ele>
        <time>2024-08-14T08:39:38Z</time>
      </trkpt>
      <trkpt lat="44.6079" lon="2.59374">
        <ele>436.8</ele>
        <time>2024-08-14T08:39:40Z</time>
      </trkpt>
      <trkpt lat="44.60793" lon="2.59375">
        <ele>437</ele>
        <time>2024-08-14T08:39:42Z</time>
      </trkpt>
      <trkpt lat="44.60796" lon="2.59376">
        <ele>437.2</ele>
        <time>2024-08-14T08:39:44Z</time>
      </trkpt>
      <trkpt lat="44.60799" lon="2.59378">
        <ele>437.4</ele>
        <time>2024-08-14T08:39:46Z</time>
      </trkpt>
      <trkpt lat="44.60804" lon="2.5938">
        <ele>437.6</ele>
        <time>2024-08-14T08:39:48Z</time>
      </trkpt>
      <trkpt lat="44.60808" lon="2.5938">
        <ele>437.8</ele>
        <time>2024-08-14T08:39:50Z</time>
      </trkpt>
      <trkpt lat="44.60811" lon="2.5938">
        <ele>438</ele>
        <time>2024-08-14T08:39:52Z</time>
      </trkpt>
      <trkpt lat="44.60812" lon="2.5938">
        <ele>438.1</ele>
        <time>2024-08-14T08:39:54Z</time>
      </trkpt>
      <trkpt lat="44.60817" lon="2.59381">
        <ele>438.4</ele>
        <time>2024-08-14T08:39:56Z</time>
      </trkpt>
      <trkpt lat="44.60821" lon="2.59379">
        <ele>438.7</ele>
        <time>2024-08-14T08:39:58Z</time>
      </trkpt>
      <trkpt lat="44.60824" lon="2.5938">
        <ele>438.9</ele>
        <time>2024-08-14T08:40:00Z</time>
      </trkpt>
      <trkpt lat="44.60827" lon="2.59378">
        <ele>439.1</ele>
        <time>2024-08-14T08:40:02Z</time>
      </trkpt>
      <trkpt lat="44.60829" lon="2.59376">
        <ele>439.4</ele>
        <time>2024-08-14T08:40:04Z</time>
      </trkpt>
      <trkpt lat="44.60831" lon="2.59375">
        <ele>439.6</ele>
        <time>2024-08-14T08:40:06Z</time>
      </trkpt>
      <trkpt lat="44.60832" lon="2.59372">
        <ele>439.8</ele>
        <time>2024-08-14T08:40:08Z</time>
      </trkpt>
      <trkpt lat="44.60834" lon="2.5937">
        <ele>440.1</ele>
        <time>2024-08-14T08:40:10Z</time>
      </trkpt>
      <trkpt lat="44.60836" lon="2.59368">
        <ele>440.4</ele>
        <time>2024-08-14T08:40:12Z</time>
      </trkpt>
      <trkpt lat="44.60836" lon="2.59367">
        <ele>440.5</ele>
        <time>2024-08-14T08:40:13Z</time>
      </trkpt>
      <trkpt lat="44.60837" lon="2.59366">
        <ele>440.7</ele>
        <time>2024-08-14T08:40:14Z</time>
      </trkpt>
      <trkpt lat="44.60838" lon="2.59362">
        <ele>441</ele>
        <time>2024-08-14T08:40:16Z</time>
      </trkpt>
      <trkpt lat="44.60839" lon="2.59359">
        <ele>441.4</ele>
        <time>2024-08-14T08:40:18Z</time>
      </trkpt>
      <trkpt lat="44.60841" lon="2.59355">
        <ele>441.8</ele>
        <time>2024-08-14T08:40:20Z</time>
      </trkpt>
      <trkpt lat="44.60841" lon="2.59351">
        <ele>442.2</ele>
        <time>2024-08-14T08:40:22Z</time>
      </trkpt>
      <trkpt lat="44.60842" lon="2.59347">
        <ele>442.6</ele>
        <time>2024-08-14T08:40:24Z</time>
      </trkpt>
      <trkpt lat="44.60843" lon="2.59345">
        <ele>442.9</ele>
        <time>2024-08-14T08:40:26Z</time>
      </trkpt>
      <trkpt lat="44.60845" lon="2.59342">
        <ele>443.3</ele>
        <time>2024-08-14T08:40:28Z</time>
      </trkpt>
      <trkpt lat="44.60847" lon="2.59339">
        <ele>443.7</ele>
        <time>2024-08-14T08:40:30Z</time>
      </trkpt>
      <trkpt lat="44.60849" lon="2.59338">
        <ele>444.1</ele>
        <time>2024-08-14T08:40:32Z</time>
      </trkpt>
      <trkpt lat="44.60851" lon="2.59334">
        <ele>444.5</ele>
        <time>2024-08-14T08:40:34Z</time>
      </trkpt>
      <trkpt lat="44.60852" lon="2.59332">
        <ele>444.8</ele>
        <time>2024-08-14T08:40:35Z</time>
      </trkpt>
      <trkpt lat="44.60854" lon="2.5933">
        <ele>445.1</ele>
        <time>2024-08-14T08:40:36Z</time>
      </trkpt>
      <trkpt lat="44.60856" lon="2.59325">
        <ele>445.6</ele>
        <time>2024-08-14T08:40:38Z</time>
      </trkpt>
      <trkpt lat="44.60857" lon="2.5932">
        <ele>446.1</ele>
        <time>2024-08-14T08:40:40Z</time>
      </trkpt>
      <trkpt lat="44.60858" lon="2.59318">
        <ele>446.3</ele>
        <time>2024-08-14T08:40:41Z</time>
      </trkpt>
      <trkpt lat="44.60859" lon="2.59316">
        <ele>446.5</ele>
        <time>2024-08-14T08:40:42Z</time>
      </trkpt>
      <trkpt lat="44.6086" lon="2.59314">
        <ele>446.8</ele>
        <time>2024-08-14T08:40:43Z</time>
      </trkpt>
      <trkpt lat="44.60861" lon="2.59312">
        <ele>447</ele>
        <time>2024-08-14T08:40:44Z</time>
      </trkpt>
      <trkpt lat="44.60862" lon="2.5931">
        <ele>447.2</ele>
        <time>2024-08-14T08:40:46Z</time>
      </trkpt>
      <trkpt lat="44.60863" lon="2.59307">
        <ele>447.5</ele>
        <time>2024-08-14T08:40:47Z</time>
      </trkpt>
      <trkpt lat="44.60864" lon="2.59305">
        <ele>447.7</ele>
        <time>2024-08-14T08:40:48Z</time>
      </trkpt>
      <trkpt lat="44.60865" lon="2.59302">
        <ele>448</ele>
        <time>2024-08-14T08:40:50Z</time>
      </trkpt>
      <trkpt lat="44.60865" lon="2.59299">
        <ele>448.2</ele>
        <time>2024-08-14T08:40:52Z</time>
      </trkpt>
      <trkpt lat="44.60865" lon="2.59298">
        <ele>448.3</ele>
        <time>2024-08-14T08:40:53Z</time>
      </trkpt>
      <trkpt lat="44.60865" lon="2.59296">
        <ele>448.5</ele>
        <time>2024-08-14T08:40:54Z</time>
      </trkpt>
      <trkpt lat="44.60866" lon="2.59292">
        <ele>448.8</ele>
        <time>2024-08-14T08:40:56Z</time>
      </trkpt>
      <trkpt lat="44.60867" lon="2.59288">
        <ele>449.1</ele>
        <time>2024-08-14T08:40:58Z</time>
      </trkpt>
      <trkpt lat="44.60868" lon="2.59285">
        <ele>449.3</ele>
        <time>2024-08-14T08:40:59Z</time>
      </trkpt>
      <trkpt lat="44.60869" lon="2.59284">
        <ele>449.5</ele>
        <time>2024-08-14T08:41:00Z</time>
      </trkpt>
      <trkpt lat="44.60871" lon="2.5928">
        <ele>449.8</ele>
        <time>2024-08-14T08:41:02Z</time>
      </trkpt>
      <trkpt lat="44.60874" lon="2.59278">
        <ele>450.1</ele>
        <time>2024-08-14T08:41:04Z</time>
      </trkpt>
      <trkpt lat="44.60876" lon="2.59276">
        <ele>450.4</ele>
        <time>2024-08-14T08:41:06Z</time>
      </trkpt>
      <trkpt lat="44.60877" lon="2.59275">
        <ele>450.5</ele>
        <time>2024-08-14T08:41:07Z</time>
      </trkpt>
      <trkpt lat="44.60879" lon="2.59274">
        <ele>450.6</ele>
        <time>2024-08-14T08:41:08Z</time>
      </trkpt>
      <trkpt lat="44.60882" lon="2.59273">
        <ele>450.9</ele>
        <time>2024-08-14T08:41:10Z</time>
      </trkpt>
      <trkpt lat="44.60883" lon="2.59273">
        <ele>451</ele>
        <time>2024-08-14T08:41:11Z</time>
      </trkpt>
      <trkpt lat="44.60885" lon="2.59273">
        <ele>451.1</ele>
        <time>2024-08-14T08:41:12Z</time>
      </trkpt>
      <trkpt lat="44.60888" lon="2.59273">
        <ele>451.3</ele>
        <time>2024-08-14T08:41:14Z</time>
      </trkpt>
      <trkpt lat="44.6089" lon="2.59272">
        <ele>451.5</ele>
        <time>2024-08-14T08:41:16Z</time>
      </trkpt>
      <trkpt lat="44.60892" lon="2.59272">
        <ele>451.7</ele>
        <time>2024-08-14T08:41:17Z</time>
      </trkpt>
      <trkpt lat="44.60893" lon="2.59272">
        <ele>451.7</ele>
        <time>2024-08-14T08:41:18Z</time>
      </trkpt>
      <trkpt lat="44.60895" lon="2.59271">
        <ele>451.9</ele>
        <time>2024-08-14T08:41:20Z</time>
      </trkpt>
      <trkpt lat="44.60898" lon="2.59272">
        <ele>452.1</ele>
        <time>2024-08-14T08:41:22Z</time>
      </trkpt>
      <trkpt lat="44.609" lon="2.59271">
        <ele>452.3</ele>
        <time>2024-08-14T08:41:24Z</time>
      </trkpt>
      <trkpt lat="44.60903" lon="2.59272">
        <ele>452.6</ele>
        <time>2024-08-14T08:41:26Z</time>
      </trkpt>
      <trkpt lat="44.60904" lon="2.59272">
        <ele>452.7</ele>
        <time>2024-08-14T08:41:27Z</time>
      </trkpt>
      <trkpt lat="44.60906" lon="2.59272">
        <ele>452.9</ele>
        <time>2024-08-14T08:41:28Z</time>
      </trkpt>
      <trkpt lat="44.60909" lon="2.59272">
        <ele>453.1</ele>
        <time>2024-08-14T08:41:30Z</time>
      </trkpt>
      <trkpt lat="44.60911" lon="2.59271">
        <ele>453.4</ele>
        <time>2024-08-14T08:41:32Z</time>
      </trkpt>
      <trkpt lat="44.60914" lon="2.5927">
        <ele>453.6</ele>
        <time>2024-08-14T08:41:34Z</time>
      </trkpt>
      <trkpt lat="44.60917" lon="2.5927">
        <ele>453.9</ele>
        <time>2024-08-14T08:41:36Z</time>
      </trkpt>
      <trkpt lat="44.6092" lon="2.5927">
        <ele>454.1</ele>
        <time>2024-08-14T08:41:38Z</time>
      </trkpt>
      <trkpt lat="44.60923" lon="2.5927">
        <ele>454.4</ele>
        <time>2024-08-14T08:41:40Z</time>
      </trkpt>
      <trkpt lat="44.60926" lon="2.59271">
        <ele>454.6</ele>
        <time>2024-08-14T08:41:42Z</time>
      </trkpt>
      <trkpt lat="44.60929" lon="2.59271">
        <ele>454.8</ele>
        <time>2024-08-14T08:41:44Z</time>
      </trkpt>
      <trkpt lat="44.6093" lon="2.59271">
        <ele>455</ele>
        <time>2024-08-14T08:41:45Z</time>
      </trkpt>
      <trkpt lat="44.60931" lon="2.59271">
        <ele>455</ele>
        <time>2024-08-14T08:41:46Z</time>
      </trkpt>
      <trkpt lat="44.60933" lon="2.59271">
        <ele>455.2</ele>
        <time>2024-08-14T08:41:48Z</time>
      </trkpt>
      <trkpt lat="44.60936" lon="2.59271">
        <ele>455.4</ele>
        <time>2024-08-14T08:41:50Z</time>
      </trkpt>
      <trkpt lat="44.60938" lon="2.59271">
        <ele>455.6</ele>
        <time>2024-08-14T08:41:52Z</time>
      </trkpt>
      <trkpt lat="44.60941" lon="2.59271">
        <ele>455.8</ele>
        <time>2024-08-14T08:41:54Z</time>
      </trkpt>
      <trkpt lat="44.60943" lon="2.59272">
        <ele>456</ele>
        <time>2024-08-14T08:41:56Z</time>
      </trkpt>
      <trkpt lat="44.60945" lon="2.59271">
        <ele>456.2</ele>
        <time>2024-08-14T08:41:58Z</time>
      </trkpt>
      <trkpt lat="44.60948" lon="2.5927">
        <ele>456.4</ele>
        <time>2024-08-14T08:42:00Z</time>
      </trkpt>
      <trkpt lat="44.6095" lon="2.59268">
        <ele>456.6</ele>
        <time>2024-08-14T08:42:02Z</time>
      </trkpt>
      <trkpt lat="44.60951" lon="2.59267">
        <ele>456.7</ele>
        <time>2024-08-14T08:42:03Z</time>
      </trkpt>
      <trkpt lat="44.60953" lon="2.59265">
        <ele>456.9</ele>
        <time>2024-08-14T08:42:04Z</time>
      </trkpt>
      <trkpt lat="44.60955" lon="2.59263">
        <ele>457.1</ele>
        <time>2024-08-14T08:42:06Z</time>
      </trkpt>
      <trkpt lat="44.60956" lon="2.59259">
        <ele>457.4</ele>
        <time>2024-08-14T08:42:08Z</time>
      </trkpt>
      <trkpt lat="44.60957" lon="2.59257">
        <ele>457.6</ele>
        <time>2024-08-14T08:42:09Z</time>
      </trkpt>
      <trkpt lat="44.60957" lon="2.59255">
        <ele>457.7</ele>
        <time>2024-08-14T08:42:10Z</time>
      </trkpt>
      <trkpt lat="44.60958" lon="2.59251">
        <ele>457.9</ele>
        <time>2024-08-14T08:42:12Z</time>
      </trkpt>
      <trkpt lat="44.60958" lon="2.59249">
        <ele>458.1</ele>
        <time>2024-08-14T08:42:13Z</time>
      </trkpt>
      <trkpt lat="44.60958" lon="2.59247">
        <ele>458.3</ele>
        <time>2024-08-14T08:42:14Z</time>
      </trkpt>
      <trkpt lat="44.60959" lon="2.59245">
        <ele>458.4</ele>
        <time>2024-08-14T08:42:15Z</time>
      </trkpt>
      <trkpt lat="44.60959" lon="2.59243">
        <ele>458.6</ele>
        <time>2024-08-14T08:42:16Z</time>
      </trkpt>
      <trkpt lat="44.6096" lon="2.59239">
        <ele>458.8</ele>
        <time>2024-08-14T08:42:18Z</time>
      </trkpt>
      <trkpt lat="44.60961" lon="2.59236">
        <ele>459.1</ele>
        <time>2024-08-14T08:42:20Z</time>
      </trkpt>
      <trkpt lat="44.60961" lon="2.59232">
        <ele>459.4</ele>
        <time>2024-08-14T08:42:22Z</time>
      </trkpt>
      <trkpt lat="44.60961" lon="2.59229">
        <ele>459.6</ele>
        <time>2024-08-14T08:42:24Z</time>
      </trkpt>
      <trkpt lat="44.60961" lon="2.59225">
        <ele>459.9</ele>
        <time>2024-08-14T08:42:26Z</time>
      </trkpt>
      <trkpt lat="44.60962" lon="2.59222">
        <ele>460.1</ele>
        <time>2024-08-14T08:42:28Z</time>
      </trkpt>
      <trkpt lat="44.60962" lon="2.59218">
        <ele>460.4</ele>
        <time>2024-08-14T08:42:30Z</time>
      </trkpt>
      <trkpt lat="44.60963" lon="2.59214">
        <ele>460.7</ele>
        <time>2024-08-14T08:42:32Z</time>
      </trkpt>
      <trkpt lat="44.60963" lon="2.5921">
        <ele>461</ele>
        <time>2024-08-14T08:42:34Z</time>
      </trkpt>
      <trkpt lat="44.60964" lon="2.59207">
        <ele>461.2</ele>
        <time>2024-08-14T08:42:36Z</time>
      </trkpt>
      <trkpt lat="44.60964" lon="2.59205">
        <ele>461.4</ele>
        <time>2024-08-14T08:42:38Z</time>
      </trkpt>
      <trkpt lat="44.60965" lon="2.59202">
        <ele>461.6</ele>
        <time>2024-08-14T08:42:40Z</time>
      </trkpt>
      <trkpt lat="44.60965" lon="2.59199">
        <ele>461.7</ele>
        <time>2024-08-14T08:42:41Z</time>
      </trkpt>
      <trkpt lat="44.60966" lon="2.59198">
        <ele>461.8</ele>
        <time>2024-08-14T08:42:42Z</time>
      </trkpt>
      <trkpt lat="44.60966" lon="2.59194">
        <ele>462.1</ele>
        <time>2024-08-14T08:42:44Z</time>
      </trkpt>
      <trkpt lat="44.60967" lon="2.59191">
        <ele>462.3</ele>
        <time>2024-08-14T08:42:46Z</time>
      </trkpt>
      <trkpt lat="44.60967" lon="2.59187">
        <ele>462.6</ele>
        <time>2024-08-14T08:42:48Z</time>
      </trkpt>
      <trkpt lat="44.60967" lon="2.59183">
        <ele>462.8</ele>
        <time>2024-08-14T08:42:50Z</time>
      </trkpt>
      <trkpt lat="44.60967" lon="2.59179">
        <ele>463.1</ele>
        <time>2024-08-14T08:42:52Z</time>
      </trkpt>
      <trkpt lat="44.60967" lon="2.59177">
        <ele>463.2</ele>
        <time>2024-08-14T08:42:53Z</time>
      </trkpt>
      <trkpt lat="44.60967" lon="2.59175">
        <ele>463.3</ele>
        <time>2024-08-14T08:42:54Z</time>
      </trkpt>
      <trkpt lat="44.60966" lon="2.59171">
        <ele>463.5</ele>
        <time>2024-08-14T08:42:56Z</time>
      </trkpt>
      <trkpt lat="44.60965" lon="2.59166">
        <ele>463.8</ele>
        <time>2024-08-14T08:42:58Z</time>
      </trkpt>
      <trkpt lat="44.60964" lon="2.59164">
        <ele>464</ele>
        <time>2024-08-14T08:43:00Z</time>
      </trkpt>
      <trkpt lat="44.60963" lon="2.5916">
        <ele>464.2</ele>
        <time>2024-08-14T08:43:02Z</time>
      </trkpt>
      <trkpt lat="44.60962" lon="2.59157">
        <ele>464.3</ele>
        <time>2024-08-14T08:43:04Z</time>
      </trkpt>
      <trkpt lat="44.60961" lon="2.59156">
        <ele>464.4</ele>
        <time>2024-08-14T08:43:05Z</time>
      </trkpt>
      <trkpt lat="44.6096" lon="2.59154">
        <ele>464.5</ele>
        <time>2024-08-14T08:43:06Z</time>
      </trkpt>
      <trkpt lat="44.60959" lon="2.59151">
        <ele>464.7</ele>
        <time>2024-08-14T08:43:08Z</time>
      </trkpt>
      <trkpt lat="44.60958" lon="2.59149">
        <ele>464.8</ele>
        <time>2024-08-14T08:43:09Z</time>
      </trkpt>
      <trkpt lat="44.60996" lon="2.59101">
        <ele>468.1</ele>
        <time>2024-08-14T08:43:49Z</time>
      </trkpt>
      <trkpt lat="44.60998" lon="2.59099">
        <ele>468.3</ele>
        <time>2024-08-14T08:43:50Z</time>
      </trkpt>
      <trkpt lat="44.61001" lon="2.59097">
        <ele>468.4</ele>
        <time>2024-08-14T08:43:52Z</time>
      </trkpt>
      <trkpt lat="44.61004" lon="2.59094">
        <ele>468.6</ele>
        <time>2024-08-14T08:43:54Z</time>
      </trkpt>
      <trkpt lat="44.61006" lon="2.5909">
        <ele>468.7</ele>
        <time>2024-08-14T08:43:56Z</time>
      </trkpt>
      <trkpt lat="44.61008" lon="2.59087">
        <ele>468.8</ele>
        <time>2024-08-14T08:43:58Z</time>
      </trkpt>
      <trkpt lat="44.61009" lon="2.59086">
        <ele>468.9</ele>
        <time>2024-08-14T08:43:59Z</time>
      </trkpt>
      <trkpt lat="44.6101" lon="2.59084">
        <ele>468.9</ele>
        <time>2024-08-14T08:44:00Z</time>
      </trkpt>
      <trkpt lat="44.61013" lon="2.59081">
        <ele>469.1</ele>
        <time>2024-08-14T08:44:02Z</time>
      </trkpt>
      <trkpt lat="44.61015" lon="2.59079">
        <ele>469.1</ele>
        <time>2024-08-14T08:44:03Z</time>
      </trkpt>
      <trkpt lat="44.61016" lon="2.59077">
        <ele>469.2</ele>
        <time>2024-08-14T08:44:04Z</time>
      </trkpt>
      <trkpt lat="44.61017" lon="2.59074">
        <ele>469.2</ele>
        <time>2024-08-14T08:44:05Z</time>
      </trkpt>
      <trkpt lat="44.61018" lon="2.59072">
        <ele>469.3</ele>
        <time>2024-08-14T08:44:06Z</time>
      </trkpt>
      <trkpt lat="44.6102" lon="2.59068">
        <ele>469.3</ele>
        <time>2024-08-14T08:44:08Z</time>
      </trkpt>
      <trkpt lat="44.61021" lon="2.59066">
        <ele>469.4</ele>
        <time>2024-08-14T08:44:09Z</time>
      </trkpt>
      <trkpt lat="44.61023" lon="2.59065">
        <ele>469.4</ele>
        <time>2024-08-14T08:44:10Z</time>
      </trkpt>
      <trkpt lat="44.61024" lon="2.5906">
        <ele>469.4</ele>
        <time>2024-08-14T08:44:12Z</time>
      </trkpt>
      <trkpt lat="44.61025" lon="2.59058">
        <ele>469.5</ele>
        <time>2024-08-14T08:44:13Z</time>
      </trkpt>
      <trkpt lat="44.61026" lon="2.59055">
        <ele>469.5</ele>
        <time>2024-08-14T08:44:14Z</time>
      </trkpt>
      <trkpt lat="44.61027" lon="2.59053">
        <ele>469.5</ele>
        <time>2024-08-14T08:44:15Z</time>
      </trkpt>
      <trkpt lat="44.61028" lon="2.5905">
        <ele>469.5</ele>
        <time>2024-08-14T08:44:16Z</time>
      </trkpt>
      <trkpt lat="44.6103" lon="2.59045">
        <ele>469.5</ele>
        <time>2024-08-14T08:44:18Z</time>
      </trkpt>
      <trkpt lat="44.61032" lon="2.5904">
        <ele>469.4</ele>
        <time>2024-08-14T08:44:20Z</time>
      </trkpt>
      <trkpt lat="44.61035" lon="2.59035">
        <ele>469.4</ele>
        <time>2024-08-14T08:44:22Z</time>
      </trkpt>
      <trkpt lat="44.61036" lon="2.59033">
        <ele>469.3</ele>
        <time>2024-08-14T08:44:23Z</time>
      </trkpt>
      <trkpt lat="44.61038" lon="2.5903">
        <ele>469.3</ele>
        <time>2024-08-14T08:44:24Z</time>
      </trkpt>
      <trkpt lat="44.61042" lon="2.59025">
        <ele>469.1</ele>
        <time>2024-08-14T08:44:26Z</time>
      </trkpt>
      <trkpt lat="44.61044" lon="2.59024">
        <ele>469</ele>
        <time>2024-08-14T08:44:27Z</time>
      </trkpt>
      <trkpt lat="44.61046" lon="2.59024">
        <ele>469</ele>
        <time>2024-08-14T08:44:28Z</time>
      </trkpt>
      <trkpt lat="44.61054" lon="2.59024">
        <ele>468.6</ele>
        <time>2024-08-14T08:44:30Z</time>
      </trkpt>
      <trkpt lat="44.6106" lon="2.59024">
        <ele>468.3</ele>
        <time>2024-08-14T08:44:32Z</time>
      </trkpt>
      <trkpt lat="44.61068" lon="2.59022">
        <ele>467.9</ele>
        <time>2024-08-14T08:44:34Z</time>
      </trkpt>
      <trkpt lat="44.61073" lon="2.59019">
        <ele>467.5</ele>
        <time>2024-08-14T08:44:36Z</time>
      </trkpt>
      <trkpt lat="44.61081" lon="2.59016">
        <ele>467</ele>
        <time>2024-08-14T08:44:38Z</time>
      </trkpt>
      <trkpt lat="44.61088" lon="2.59017">
        <ele>466.6</ele>
        <time>2024-08-14T08:44:40Z</time>
      </trkpt>
      <trkpt lat="44.61089" lon="2.59017">
        <ele>466.5</ele>
        <time>2024-08-14T08:44:41Z</time>
      </trkpt>
      <trkpt lat="44.61099" lon="2.59012">
        <ele>465.8</ele>
        <time>2024-08-14T08:44:47Z</time>
      </trkpt>
      <trkpt lat="44.61101" lon="2.5901">
        <ele>465.6</ele>
        <time>2024-08-14T08:44:48Z</time>
      </trkpt>
      <trkpt lat="44.61105" lon="2.59007">
        <ele>465.3</ele>
        <time>2024-08-14T08:44:50Z</time>
      </trkpt>
      <trkpt lat="44.61108" lon="2.59005">
        <ele>465.1</ele>
        <time>2024-08-14T08:44:51Z</time>
      </trkpt>
      <trkpt lat="44.6111" lon="2.59002">
        <ele>464.8</ele>
        <time>2024-08-14T08:44:52Z</time>
      </trkpt>
      <trkpt lat="44.61114" lon="2.58998">
        <ele>464.5</ele>
        <time>2024-08-14T08:44:53Z</time>
      </trkpt>
      <trkpt lat="44.61119" lon="2.58995">
        <ele>464.2</ele>
        <time>2024-08-14T08:44:54Z</time>
      </trkpt>
      <trkpt lat="44.61124" lon="2.58993">
        <ele>463.9</ele>
        <time>2024-08-14T08:44:55Z</time>
      </trkpt>
      <trkpt lat="44.61128" lon="2.5899">
        <ele>463.7</ele>
        <time>2024-08-14T08:44:56Z</time>
      </trkpt>
      <trkpt lat="44.61137" lon="2.58984">
        <ele>463.3</ele>
        <time>2024-08-14T08:44:58Z</time>
      </trkpt>
      <trkpt lat="44.61142" lon="2.5898">
        <ele>463.2</ele>
        <time>2024-08-14T08:44:59Z</time>
      </trkpt>
      <trkpt lat="44.61146" lon="2.58977">
        <ele>463.2</ele>
        <time>2024-08-14T08:45:00Z</time>
      </trkpt>
      <trkpt lat="44.61154" lon="2.58971">
        <ele>463.2</ele>
        <time>2024-08-14T08:45:02Z</time>
      </trkpt>
      <trkpt lat="44.61161" lon="2.58966">
        <ele>463.3</ele>
        <time>2024-08-14T08:45:04Z</time>
      </trkpt>
      <trkpt lat="44.61164" lon="2.58963">
        <ele>463.3</ele>
        <time>2024-08-14T08:45:05Z</time>
      </trkpt>
      <trkpt lat="44.61167" lon="2.5896">
        <ele>463.4</ele>
        <time>2024-08-14T08:45:06Z</time>
      </trkpt>
      <trkpt lat="44.61172" lon="2.58957">
        <ele>463.5</ele>
        <time>2024-08-14T08:45:08Z</time>
      </trkpt>
      <trkpt lat="44.61175" lon="2.58955">
        <ele>463.6</ele>
        <time>2024-08-14T08:45:09Z</time>
      </trkpt>
      <trkpt lat="44.61178" lon="2.58952">
        <ele>463.7</ele>
        <time>2024-08-14T08:45:10Z</time>
      </trkpt>
      <trkpt lat="44.61183" lon="2.58947">
        <ele>463.9</ele>
        <time>2024-08-14T08:45:12Z</time>
      </trkpt>
      <trkpt lat="44.61188" lon="2.58943">
        <ele>464</ele>
        <time>2024-08-14T08:45:14Z</time>
      </trkpt>
      <trkpt lat="44.61189" lon="2.58941">
        <ele>464.1</ele>
        <time>2024-08-14T08:45:15Z</time>
      </trkpt>
      <trkpt lat="44.61191" lon="2.58938">
        <ele>464.2</ele>
        <time>2024-08-14T08:45:16Z</time>
      </trkpt>
      <trkpt lat="44.61195" lon="2.58934">
        <ele>464.4</ele>
        <time>2024-08-14T08:45:18Z</time>
      </trkpt>
      <trkpt lat="44.61197" lon="2.58931">
        <ele>464.5</ele>
        <time>2024-08-14T08:45:19Z</time>
      </trkpt>
      <trkpt lat="44.61199" lon="2.5893">
        <ele>464.6</ele>
        <time>2024-08-14T08:45:20Z</time>
      </trkpt>
      <trkpt lat="44.61203" lon="2.58923">
        <ele>464.9</ele>
        <time>2024-08-14T08:45:22Z</time>
      </trkpt>
      <trkpt lat="44.61206" lon="2.58917">
        <ele>465.2</ele>
        <time>2024-08-14T08:45:24Z</time>
      </trkpt>
      <trkpt lat="44.6121" lon="2.5891">
        <ele>465.6</ele>
        <time>2024-08-14T08:45:26Z</time>
      </trkpt>
      <trkpt lat="44.61212" lon="2.58905">
        <ele>465.9</ele>
        <time>2024-08-14T08:45:28Z</time>
      </trkpt>
      <trkpt lat="44.61215" lon="2.58901">
        <ele>466</ele>
        <time>2024-08-14T08:45:30Z</time>
      </trkpt>
      <trkpt lat="44.61216" lon="2.58895">
        <ele>466.3</ele>
        <time>2024-08-14T08:45:32Z</time>
      </trkpt>
      <trkpt lat="44.61218" lon="2.58889">
        <ele>466.5</ele>
        <time>2024-08-14T08:45:34Z</time>
      </trkpt>
      <trkpt lat="44.61218" lon="2.58885">
        <ele>466.6</ele>
        <time>2024-08-14T08:45:35Z</time>
      </trkpt>
      <trkpt lat="44.61218" lon="2.58882">
        <ele>466.7</ele>
        <time>2024-08-14T08:45:36Z</time>
      </trkpt>
      <trkpt lat="44.61219" lon="2.58876">
        <ele>466.8</ele>
        <time>2024-08-14T08:45:38Z</time>
      </trkpt>
      <trkpt lat="44.6122" lon="2.58869">
        <ele>467</ele>
        <time>2024-08-14T08:45:40Z</time>
      </trkpt>
      <trkpt lat="44.6122" lon="2.58863">
        <ele>467.1</ele>
        <time>2024-08-14T08:45:41Z</time>
      </trkpt>
      <trkpt lat="44.61221" lon="2.5886">
        <ele>467.2</ele>
        <time>2024-08-14T08:45:42Z</time>
      </trkpt>
      <trkpt lat="44.61221" lon="2.58857">
        <ele>467.3</ele>
        <time>2024-08-14T08:45:43Z</time>
      </trkpt>
      <trkpt lat="44.6122" lon="2.58852">
        <ele>467.4</ele>
        <time>2024-08-14T08:45:44Z</time>
      </trkpt>
      <trkpt lat="44.6122" lon="2.58846">
        <ele>467.5</ele>
        <time>2024-08-14T08:45:46Z</time>
      </trkpt>
      <trkpt lat="44.6122" lon="2.58844">
        <ele>467.6</ele>
        <time>2024-08-14T08:45:47Z</time>
      </trkpt>
      <trkpt lat="44.6122" lon="2.58841">
        <ele>467.6</ele>
        <time>2024-08-14T08:45:48Z</time>
      </trkpt>
      <trkpt lat="44.6122" lon="2.58833">
        <ele>467.8</ele>
        <time>2024-08-14T08:45:50Z</time>
      </trkpt>
      <trkpt lat="44.61221" lon="2.58826">
        <ele>467.9</ele>
        <time>2024-08-14T08:45:52Z</time>
      </trkpt>
      <trkpt lat="44.6122" lon="2.58819">
        <ele>468.1</ele>
        <time>2024-08-14T08:45:54Z</time>
      </trkpt>
      <trkpt lat="44.6122" lon="2.58811">
        <ele>468.2</ele>
        <time>2024-08-14T08:45:56Z</time>
      </trkpt>
      <trkpt lat="44.61221" lon="2.58806">
        <ele>468.3</ele>
        <time>2024-08-14T08:45:58Z</time>
      </trkpt>
      <trkpt lat="44.61221" lon="2.58803">
        <ele>468.4</ele>
        <time>2024-08-14T08:45:59Z</time>
      </trkpt>
      <trkpt lat="44.61221" lon="2.58801">
        <ele>468.4</ele>
        <time>2024-08-14T08:46:00Z</time>
      </trkpt>
      <trkpt lat="44.61221" lon="2.58799">
        <ele>468.4</ele>
        <time>2024-08-14T08:46:01Z</time>
      </trkpt>
      <trkpt lat="44.61221" lon="2.58798">
        <ele>468.5</ele>
        <time>2024-08-14T08:46:02Z</time>
      </trkpt>
      <trkpt lat="44.61221" lon="2.58791">
        <ele>468.6</ele>
        <time>2024-08-14T08:46:04Z</time>
      </trkpt>
      <trkpt lat="44.61219" lon="2.58782">
        <ele>468.8</ele>
        <time>2024-08-14T08:46:06Z</time>
      </trkpt>
      <trkpt lat="44.61217" lon="2.58774">
        <ele>469</ele>
        <time>2024-08-14T08:46:08Z</time>
      </trkpt>
      <trkpt lat="44.61215" lon="2.58769">
        <ele>469.1</ele>
        <time>2024-08-14T08:46:10Z</time>
      </trkpt>
      <trkpt lat="44.61214" lon="2.58765">
        <ele>469.2</ele>
        <time>2024-08-14T08:46:11Z</time>
      </trkpt>
      <trkpt lat="44.61213" lon="2.58761">
        <ele>469.3</ele>
        <time>2024-08-14T08:46:12Z</time>
      </trkpt>
      <trkpt lat="44.61212" lon="2.58755">
        <ele>469.3</ele>
        <time>2024-08-14T08:46:14Z</time>
      </trkpt>
      <trkpt lat="44.61211" lon="2.58752">
        <ele>469.4</ele>
        <time>2024-08-14T08:46:15Z</time>
      </trkpt>
      <trkpt lat="44.61211" lon="2.58749">
        <ele>469.4</ele>
        <time>2024-08-14T08:46:16Z</time>
      </trkpt>
      <trkpt lat="44.6121" lon="2.58742">
        <ele>469.5</ele>
        <time>2024-08-14T08:46:18Z</time>
      </trkpt>
      <trkpt lat="44.61209" lon="2.58736">
        <ele>469.5</ele>
        <time>2024-08-14T08:46:20Z</time>
      </trkpt>
      <trkpt lat="44.61208" lon="2.5873">
        <ele>469.5</ele>
        <time>2024-08-14T08:46:22Z</time>
      </trkpt>
      <trkpt lat="44.61207" lon="2.58724">
        <ele>469.5</ele>
        <time>2024-08-14T08:46:24Z</time>
      </trkpt>
      <trkpt lat="44.61207" lon="2.58716">
        <ele>469.6</ele>
        <time>2024-08-14T08:46:26Z</time>
      </trkpt>
      <trkpt lat="44.61207" lon="2.58711">
        <ele>469.6</ele>
        <time>2024-08-14T08:46:27Z</time>
      </trkpt>
      <trkpt lat="44.61208" lon="2.58707">
        <ele>469.7</ele>
        <time>2024-08-14T08:46:28Z</time>
      </trkpt>
      <trkpt lat="44.61208" lon="2.58699">
        <ele>469.8</ele>
        <time>2024-08-14T08:46:30Z</time>
      </trkpt>
      <trkpt lat="44.61209" lon="2.58694">
        <ele>469.9</ele>
        <time>2024-08-14T08:46:32Z</time>
      </trkpt>
      <trkpt lat="44.61211" lon="2.5869">
        <ele>470</ele>
        <time>2024-08-14T08:46:34Z</time>
      </trkpt>
      <trkpt lat="44.61213" lon="2.58689">
        <ele>470</ele>
        <time>2024-08-14T08:46:35Z</time>
      </trkpt>
      <trkpt lat="44.61214" lon="2.58688">
        <ele>470.1</ele>
        <time>2024-08-14T08:46:36Z</time>
      </trkpt>
      <trkpt lat="44.61217" lon="2.58686">
        <ele>470.2</ele>
        <time>2024-08-14T08:46:38Z</time>
      </trkpt>
      <trkpt lat="44.61222" lon="2.58683">
        <ele>470.5</ele>
        <time>2024-08-14T08:46:42Z</time>
      </trkpt>
      <trkpt lat="44.61225" lon="2.58681">
        <ele>470.6</ele>
        <time>2024-08-14T08:46:43Z</time>
      </trkpt>
      <trkpt lat="44.61227" lon="2.5868">
        <ele>470.7</ele>
        <time>2024-08-14T08:46:44Z</time>
      </trkpt>
      <trkpt lat="44.61232" lon="2.58677">
        <ele>471.1</ele>
        <time>2024-08-14T08:46:46Z</time>
      </trkpt>
      <trkpt lat="44.61235" lon="2.58675">
        <ele>471.3</ele>
        <time>2024-08-14T08:46:47Z</time>
      </trkpt>
      <trkpt lat="44.61237" lon="2.58673">
        <ele>471.4</ele>
        <time>2024-08-14T08:46:48Z</time>
      </trkpt>
      <trkpt lat="44.61242" lon="2.58671">
        <ele>471.7</ele>
        <time>2024-08-14T08:46:50Z</time>
      </trkpt>
      <trkpt lat="44.61247" lon="2.58669">
        <ele>472</ele>
        <time>2024-08-14T08:46:52Z</time>
      </trkpt>
      <trkpt lat="44.6125" lon="2.58668">
        <ele>472.1</ele>
        <time>2024-08-14T08:46:53Z</time>
      </trkpt>
      <trkpt lat="44.61253" lon="2.58665">
        <ele>472.3</ele>
        <time>2024-08-14T08:46:54Z</time>
      </trkpt>
      <trkpt lat="44.61258" lon="2.58662">
        <ele>472.5</ele>
        <time>2024-08-14T08:46:56Z</time>
      </trkpt>
      <trkpt lat="44.61264" lon="2.58657">
        <ele>472.8</ele>
        <time>2024-08-14T08:46:58Z</time>
      </trkpt>
      <trkpt lat="44.61268" lon="2.58653">
        <ele>472.9</ele>
        <time>2024-08-14T08:47:00Z</time>
      </trkpt>
      <trkpt lat="44.61272" lon="2.58648">
        <ele>473</ele>
        <time>2024-08-14T08:47:02Z</time>
      </trkpt>
      <trkpt lat="44.61275" lon="2.58646">
        <ele>473.1</ele>
        <time>2024-08-14T08:47:03Z</time>
      </trkpt>
      <trkpt lat="44.61277" lon="2.58643">
        <ele>473.2</ele>
        <time>2024-08-14T08:47:04Z</time>
      </trkpt>
      <trkpt lat="44.6128" lon="2.58639">
        <ele>473.2</ele>
        <time>2024-08-14T08:47:06Z</time>
      </trkpt>
      <trkpt lat="44.61283" lon="2.58633">
        <ele>473.4</ele>
        <time>2024-08-14T08:47:08Z</time>
      </trkpt>
      <trkpt lat="44.61287" lon="2.58627">
        <ele>473.5</ele>
        <time>2024-08-14T08:47:10Z</time>
      </trkpt>
      <trkpt lat="44.6129" lon="2.58621">
        <ele>473.6</ele>
        <time>2024-08-14T08:47:12Z</time>
      </trkpt>
      <trkpt lat="44.61294" lon="2.58616">
        <ele>473.7</ele>
        <time>2024-08-14T08:47:14Z</time>
      </trkpt>
      <trkpt lat="44.61299" lon="2.5861">
        <ele>473.8</ele>
        <time>2024-08-14T08:47:16Z</time>
      </trkpt>
      <trkpt lat="44.61303" lon="2.58604">
        <ele>473.9</ele>
        <time>2024-08-14T08:47:18Z</time>
      </trkpt>
      <trkpt lat="44.61306" lon="2.58599">
        <ele>474</ele>
        <time>2024-08-14T08:47:20Z</time>
      </trkpt>
      <trkpt lat="44.61309" lon="2.58593">
        <ele>474.1</ele>
        <time>2024-08-14T08:47:22Z</time>
      </trkpt>
      <trkpt lat="44.61312" lon="2.58587">
        <ele>474.2</ele>
        <time>2024-08-14T08:47:24Z</time>
      </trkpt>
      <trkpt lat="44.61314" lon="2.58584">
        <ele>474.3</ele>
        <time>2024-08-14T08:47:25Z</time>
      </trkpt>
      <trkpt lat="44.61316" lon="2.58581">
        <ele>474.4</ele>
        <time>2024-08-14T08:47:26Z</time>
      </trkpt>
      <trkpt lat="44.61319" lon="2.58576">
        <ele>474.6</ele>
        <time>2024-08-14T08:47:28Z</time>
      </trkpt>
      <trkpt lat="44.61322" lon="2.5857">
        <ele>474.8</ele>
        <time>2024-08-14T08:47:30Z</time>
      </trkpt>
      <trkpt lat="44.61324" lon="2.58563">
        <ele>475.1</ele>
        <time>2024-08-14T08:47:32Z</time>
      </trkpt>
      <trkpt lat="44.61325" lon="2.58557">
        <ele>475.4</ele>
        <time>2024-08-14T08:47:34Z</time>
      </trkpt>
      <trkpt lat="44.61327" lon="2.5855">
        <ele>475.7</ele>
        <time>2024-08-14T08:47:36Z</time>
      </trkpt>
      <trkpt lat="44.61328" lon="2.58543">
        <ele>476</ele>
        <time>2024-08-14T08:47:38Z</time>
      </trkpt>
      <trkpt lat="44.6133" lon="2.58537">
        <ele>476.3</ele>
        <time>2024-08-14T08:47:40Z</time>
      </trkpt>
      <trkpt lat="44.61331" lon="2.58531">
        <ele>476.6</ele>
        <time>2024-08-14T08:47:42Z</time>
      </trkpt>
      <trkpt lat="44.61333" lon="2.58524">
        <ele>476.9</ele>
        <time>2024-08-14T08:47:44Z</time>
      </trkpt>
      <trkpt lat="44.61336" lon="2.58518">
        <ele>477.2</ele>
        <time>2024-08-14T08:47:46Z</time>
      </trkpt>
      <trkpt lat="44.61338" lon="2.58512">
        <ele>477.4</ele>
        <time>2024-08-14T08:47:48Z</time>
      </trkpt>
      <trkpt lat="44.6134" lon="2.58509">
        <ele>477.5</ele>
        <time>2024-08-14T08:47:49Z</time>
      </trkpt>
      <trkpt lat="44.61341" lon="2.58506">
        <ele>477.6</ele>
        <time>2024-08-14T08:47:50Z</time>
      </trkpt>
      <trkpt lat="44.61342" lon="2.58504">
        <ele>477.7</ele>
        <time>2024-08-14T08:47:51Z</time>
      </trkpt>
      <trkpt lat="44.61342" lon="2.58502">
        <ele>477.8</ele>
        <time>2024-08-14T08:47:52Z</time>
      </trkpt>
      <trkpt lat="44.61345" lon="2.58497">
        <ele>478</ele>
        <time>2024-08-14T08:47:54Z</time>
      </trkpt>
      <trkpt lat="44.61349" lon="2.58492">
        <ele>478.2</ele>
        <time>2024-08-14T08:47:56Z</time>
      </trkpt>
      <trkpt lat="44.61352" lon="2.58487">
        <ele>478.3</ele>
        <time>2024-08-14T08:47:58Z</time>
      </trkpt>
      <trkpt lat="44.61354" lon="2.58482">
        <ele>478.5</ele>
        <time>2024-08-14T08:48:00Z</time>
      </trkpt>
      <trkpt lat="44.61357" lon="2.58476">
        <ele>478.6</ele>
        <time>2024-08-14T08:48:02Z</time>
      </trkpt>
      <trkpt lat="44.61359" lon="2.58468">
        <ele>478.8</ele>
        <time>2024-08-14T08:48:04Z</time>
      </trkpt>
      <trkpt lat="44.61359" lon="2.58464">
        <ele>479</ele>
        <time>2024-08-14T08:48:05Z</time>
      </trkpt>
      <trkpt lat="44.61358" lon="2.58461">
        <ele>479</ele>
        <time>2024-08-14T08:48:06Z</time>
      </trkpt>
      <trkpt lat="44.61357" lon="2.5846">
        <ele>479.1</ele>
        <time>2024-08-14T08:48:07Z</time>
      </trkpt>
      <trkpt lat="44.61357" lon="2.58458">
        <ele>479.2</ele>
        <time>2024-08-14T08:48:08Z</time>
      </trkpt>
      <trkpt lat="44.61355" lon="2.58455">
        <ele>479.5</ele>
        <time>2024-08-14T08:48:10Z</time>
      </trkpt>
      <trkpt lat="44.61352" lon="2.58453">
        <ele>480.1</ele>
        <time>2024-08-14T08:48:12Z</time>
      </trkpt>
      <trkpt lat="44.61351" lon="2.58452">
        <ele>480.4</ele>
        <time>2024-08-14T08:48:13Z</time>
      </trkpt>
      <trkpt lat="44.6135" lon="2.58451">
        <ele>480.6</ele>
        <time>2024-08-14T08:48:14Z</time>
      </trkpt>
      <trkpt lat="44.61349" lon="2.58449">
        <ele>481</ele>
        <time>2024-08-14T08:48:16Z</time>
      </trkpt>
      <trkpt lat="44.61347" lon="2.58446">
        <ele>481.5</ele>
        <time>2024-08-14T08:48:18Z</time>
      </trkpt>
      <trkpt lat="44.61347" lon="2.58445">
        <ele>481.7</ele>
        <time>2024-08-14T08:48:19Z</time>
      </trkpt>
      <trkpt lat="44.61347" lon="2.58444">
        <ele>481.9</ele>
        <time>2024-08-14T08:48:20Z</time>
      </trkpt>
      <trkpt lat="44.61346" lon="2.58442">
        <ele>482.4</ele>
        <time>2024-08-14T08:48:21Z</time>
      </trkpt>
      <trkpt lat="44.61121" lon="2.58359">
        <ele>543.5</ele>
        <time>2024-08-14T08:53:03Z</time>
      </trkpt>
      <trkpt lat="44.6112" lon="2.58361">
        <ele>543.7</ele>
        <time>2024-08-14T08:53:04Z</time>
      </trkpt>
      <trkpt lat="44.61118" lon="2.58365">
        <ele>543.9</ele>
        <time>2024-08-14T08:53:06Z</time>
      </trkpt>
      <trkpt lat="44.61116" lon="2.58368">
        <ele>544.1</ele>
        <time>2024-08-14T08:53:08Z</time>
      </trkpt>
      <trkpt lat="44.61113" lon="2.58371">
        <ele>544.3</ele>
        <time>2024-08-14T08:53:10Z</time>
      </trkpt>
      <trkpt lat="44.61112" lon="2.58373">
        <ele>544.4</ele>
        <time>2024-08-14T08:53:11Z</time>
      </trkpt>
      <trkpt lat="44.61111" lon="2.58375">
        <ele>544.5</ele>
        <time>2024-08-14T08:53:12Z</time>
      </trkpt>
      <trkpt lat="44.61109" lon="2.58377">
        <ele>544.7</ele>
        <time>2024-08-14T08:53:14Z</time>
      </trkpt>
      <trkpt lat="44.61106" lon="2.5838">
        <ele>544.8</ele>
        <time>2024-08-14T08:53:16Z</time>
      </trkpt>
      <trkpt lat="44.61103" lon="2.58381">
        <ele>545</ele>
        <time>2024-08-14T08:53:18Z</time>
      </trkpt>
      <trkpt lat="44.61101" lon="2.58382">
        <ele>545.1</ele>
        <time>2024-08-14T08:53:19Z</time>
      </trkpt>
      <trkpt lat="44.611" lon="2.58383">
        <ele>545.1</ele>
        <time>2024-08-14T08:53:20Z</time>
      </trkpt>
      <trkpt lat="44.61097" lon="2.58383">
        <ele>545.3</ele>
        <time>2024-08-14T08:53:22Z</time>
      </trkpt>
      <trkpt lat="44.61094" lon="2.58383">
        <ele>545.4</ele>
        <time>2024-08-14T08:53:24Z</time>
      </trkpt>
      <trkpt lat="44.61091" lon="2.58383">
        <ele>545.5</ele>
        <time>2024-08-14T08:53:26Z</time>
      </trkpt>
      <trkpt lat="44.61087" lon="2.58384">
        <ele>545.6</ele>
        <time>2024-08-14T08:53:28Z</time>
      </trkpt>
      <trkpt lat="44.61084" lon="2.58384">
        <ele>545.7</ele>
        <time>2024-08-14T08:53:30Z</time>
      </trkpt>
      <trkpt lat="44.61081" lon="2.58384">
        <ele>545.8</ele>
        <time>2024-08-14T08:53:32Z</time>
      </trkpt>
      <trkpt lat="44.61076" lon="2.58384">
        <ele>545.9</ele>
        <time>2024-08-14T08:53:34Z</time>
      </trkpt>
      <trkpt lat="44.61072" lon="2.58384">
        <ele>546</ele>
        <time>2024-08-14T08:53:36Z</time>
      </trkpt>
      <trkpt lat="44.6107" lon="2.58384">
        <ele>546</ele>
        <time>2024-08-14T08:53:37Z</time>
      </trkpt>
      <trkpt lat="44.61068" lon="2.58385">
        <ele>546</ele>
        <time>2024-08-14T08:53:38Z</time>
      </trkpt>
      <trkpt lat="44.61065" lon="2.58385">
        <ele>546</ele>
        <time>2024-08-14T08:53:39Z</time>
      </trkpt>
      <trkpt lat="44.61063" lon="2.58387">
        <ele>546</ele>
        <time>2024-08-14T08:53:40Z</time>
      </trkpt>
      <trkpt lat="44.61059" lon="2.58388">
        <ele>546</ele>
        <time>2024-08-14T08:53:42Z</time>
      </trkpt>
      <trkpt lat="44.61057" lon="2.58389">
        <ele>546</ele>
        <time>2024-08-14T08:53:43Z</time>
      </trkpt>
      <trkpt lat="44.61055" lon="2.5839">
        <ele>546</ele>
        <time>2024-08-14T08:53:44Z</time>
      </trkpt>
      <trkpt lat="44.6105" lon="2.58392">
        <ele>546</ele>
        <time>2024-08-14T08:53:46Z</time>
      </trkpt>
      <trkpt lat="44.61044" lon="2.58396">
        <ele>545.9</ele>
        <time>2024-08-14T08:53:48Z</time>
      </trkpt>
      <trkpt lat="44.61041" lon="2.58398">
        <ele>545.8</ele>
        <time>2024-08-14T08:53:49Z</time>
      </trkpt>
      <trkpt lat="44.61038" lon="2.58401">
        <ele>545.8</ele>
        <time>2024-08-14T08:53:50Z</time>
      </trkpt>
      <trkpt lat="44.61032" lon="2.58406">
        <ele>545.6</ele>
        <time>2024-08-14T08:53:52Z</time>
      </trkpt>
      <trkpt lat="44.61027" lon="2.58412">
        <ele>545.4</ele>
        <time>2024-08-14T08:53:54Z</time>
      </trkpt>
      <trkpt lat="44.61024" lon="2.58415">
        <ele>545.4</ele>
        <time>2024-08-14T08:53:55Z</time>
      </trkpt>
      <trkpt lat="44.61022" lon="2.58418">
        <ele>545.3</ele>
        <time>2024-08-14T08:53:56Z</time>
      </trkpt>
      <trkpt lat="44.61018" lon="2.58424">
        <ele>545.3</ele>
        <time>2024-08-14T08:53:58Z</time>
      </trkpt>
      <trkpt lat="44.61014" lon="2.5843">
        <ele>545.5</ele>
        <time>2024-08-14T08:54:00Z</time>
      </trkpt>
      <trkpt lat="44.61012" lon="2.58433">
        <ele>545.6</ele>
        <time>2024-08-14T08:54:01Z</time>
      </trkpt>
      <trkpt lat="44.6101" lon="2.58435">
        <ele>545.7</ele>
        <time>2024-08-14T08:54:02Z</time>
      </trkpt>
      <trkpt lat="44.61008" lon="2.58437">
        <ele>546</ele>
        <time>2024-08-14T08:54:03Z</time>
      </trkpt>
      <trkpt lat="44.61006" lon="2.58438">
        <ele>546.9</ele>
        <time>2024-08-14T08:54:04Z</time>
      </trkpt>
      <trkpt lat="44.61004" lon="2.58439">
        <ele>547.7</ele>
        <time>2024-08-14T08:54:05Z</time>
      </trkpt>
      <trkpt lat="44.61003" lon="2.58438">
        <ele>548.3</ele>
        <time>2024-08-14T08:54:06Z</time>
      </trkpt>
      <trkpt lat="44.61002" lon="2.58437">
        <ele>548.6</ele>
        <time>2024-08-14T08:54:07Z</time>
      </trkpt>
      <trkpt lat="44.60844" lon="2.58413">
        <ele>580.4</ele>
        <time>2024-08-14T08:59:51Z</time>
      </trkpt>
      <trkpt lat="44.60842" lon="2.58416">
        <ele>580.7</ele>
        <time>2024-08-14T08:59:52Z</time>
      </trkpt>
      <trkpt lat="44.60839" lon="2.5842">
        <ele>581.2</ele>
        <time>2024-08-14T08:59:54Z</time>
      </trkpt>
      <trkpt lat="44.60838" lon="2.58424">
        <ele>581.5</ele>
        <time>2024-08-14T08:59:55Z</time>
      </trkpt>
      <trkpt lat="44.60838" lon="2.58426">
        <ele>581.7</ele>
        <time>2024-08-14T08:59:56Z</time>
      </trkpt>
      <trkpt lat="44.60833" lon="2.58434">
        <ele>582.6</ele>
        <time>2024-08-14T08:59:58Z</time>
      </trkpt>
      <trkpt lat="44.60831" lon="2.58439">
        <ele>583.1</ele>
        <time>2024-08-14T09:00:00Z</time>
      </trkpt>
      <trkpt lat="44.6083" lon="2.58441">
        <ele>583.3</ele>
        <time>2024-08-14T09:00:01Z</time>
      </trkpt>
      <trkpt lat="44.60829" lon="2.58442">
        <ele>583.5</ele>
        <time>2024-08-14T09:00:02Z</time>
      </trkpt>
      <trkpt lat="44.60828" lon="2.58443">
        <ele>583.7</ele>
        <time>2024-08-14T09:00:03Z</time>
      </trkpt>
      <trkpt lat="44.60827" lon="2.58444">
        <ele>583.9</ele>
        <time>2024-08-14T09:00:04Z</time>
      </trkpt>
      <trkpt lat="44.60826" lon="2.58445">
        <ele>584</ele>
        <time>2024-08-14T09:00:05Z</time>
      </trkpt>
      <trkpt lat="44.60825" lon="2.58446">
        <ele>584.2</ele>
        <time>2024-08-14T09:00:06Z</time>
      </trkpt>
      <trkpt lat="44.60823" lon="2.58448">
        <ele>584.6</ele>
        <time>2024-08-14T09:00:08Z</time>
      </trkpt>
      <trkpt lat="44.6082" lon="2.58452">
        <ele>585.1</ele>
        <time>2024-08-14T09:00:10Z</time>
      </trkpt>
      <trkpt lat="44.60817" lon="2.58453">
        <ele>585.8</ele>
        <time>2024-08-14T09:00:12Z</time>
      </trkpt>
      <trkpt lat="44.60814" lon="2.58455">
        <ele>586.3</ele>
        <time>2024-08-14T09:00:14Z</time>
      </trkpt>
      <trkpt lat="44.60812" lon="2.58455">
        <ele>586.8</ele>
        <time>2024-08-14T09:00:16Z</time>
      </trkpt>
      <trkpt lat="44.60809" lon="2.58456">
        <ele>587.4</ele>
        <time>2024-08-14T09:00:18Z</time>
      </trkpt>
      <trkpt lat="44.60807" lon="2.58459">
        <ele>588</ele>
        <time>2024-08-14T09:00:20Z</time>
      </trkpt>
      <trkpt lat="44.60806" lon="2.5846">
        <ele>588.3</ele>
        <time>2024-08-14T09:00:21Z</time>
      </trkpt>
      <trkpt lat="44.60805" lon="2.58461">
        <ele>588.6</ele>
        <time>2024-08-14T09:00:22Z</time>
      </trkpt>
      <trkpt lat="44.60804" lon="2.58461">
        <ele>588.8</ele>
        <time>2024-08-14T09:00:23Z</time>
      </trkpt>
      <trkpt lat="44.60771" lon="2.58386">
        <ele>601.1</ele>
        <time>2024-08-14T09:03:28Z</time>
      </trkpt>
      <trkpt lat="44.6077" lon="2.5839">
        <ele>601.7</ele>
        <time>2024-08-14T09:03:30Z</time>
      </trkpt>
      <trkpt lat="44.60769" lon="2.58393">
        <ele>602.1</ele>
        <time>2024-08-14T09:03:32Z</time>
      </trkpt>
      <trkpt lat="44.60668" lon="2.58382">
        <ele>616.7</ele>
        <time>2024-08-14T09:05:16Z</time>
      </trkpt>
      <trkpt lat="44.60666" lon="2.58378">
        <ele>616.9</ele>
        <time>2024-08-14T09:05:18Z</time>
      </trkpt>
      <trkpt lat="44.60664" lon="2.58376">
        <ele>617</ele>
        <time>2024-08-14T09:05:20Z</time>
      </trkpt>
      <trkpt lat="44.60662" lon="2.58373">
        <ele>617.1</ele>
        <time>2024-08-14T09:05:22Z</time>
      </trkpt>
      <trkpt lat="44.60661" lon="2.58371">
        <ele>617.1</ele>
        <time>2024-08-14T09:05:23Z</time>
      </trkpt>
      <trkpt lat="44.6066" lon="2.5837">
        <ele>617.2</ele>
        <time>2024-08-14T09:05:24Z</time>
      </trkpt>
      <trkpt lat="44.60657" lon="2.58367">
        <ele>617.3</ele>
        <time>2024-08-14T09:05:26Z</time>
      </trkpt>
      <trkpt lat="44.60656" lon="2.58366">
        <ele>617.4</ele>
        <time>2024-08-14T09:05:27Z</time>
      </trkpt>
      <trkpt lat="44.60655" lon="2.58364">
        <ele>617.5</ele>
        <time>2024-08-14T09:05:28Z</time>
      </trkpt>
      <trkpt lat="44.60653" lon="2.58362">
        <ele>617.6</ele>
        <time>2024-08-14T09:05:30Z</time>
      </trkpt>
      <trkpt lat="44.60651" lon="2.58359">
        <ele>617.8</ele>
        <time>2024-08-14T09:05:32Z</time>
      </trkpt>
      <trkpt lat="44.6065" lon="2.58359">
        <ele>617.8</ele>
        <time>2024-08-14T09:05:34Z</time>
      </trkpt>
      <trkpt lat="44.60645" lon="2.58354">
        <ele>618.1</ele>
        <time>2024-08-14T09:07:32Z</time>
      </trkpt>
      <trkpt lat="44.60643" lon="2.58351">
        <ele>618.2</ele>
        <time>2024-08-14T09:07:34Z</time>
      </trkpt>
      <trkpt lat="44.60642" lon="2.5835">
        <ele>618.3</ele>
        <time>2024-08-14T09:07:35Z</time>
      </trkpt>
      <trkpt lat="44.60641" lon="2.58349">
        <ele>618.4</ele>
        <time>2024-08-14T09:07:36Z</time>
      </trkpt>
      <trkpt lat="44.6064" lon="2.58348">
        <ele>618.5</ele>
        <time>2024-08-14T09:07:37Z</time>
      </trkpt>
      <trkpt lat="44.60638" lon="2.58347">
        <ele>618.6</ele>
        <time>2024-08-14T09:07:38Z</time>
      </trkpt>
      <trkpt lat="44.60634" lon="2.58346">
        <ele>618.8</ele>
        <time>2024-08-14T09:07:40Z</time>
      </trkpt>
      <trkpt lat="44.60633" lon="2.58345">
        <ele>618.9</ele>
        <time>2024-08-14T09:07:41Z</time>
      </trkpt>
      <trkpt lat="44.60631" lon="2.58345">
        <ele>619.1</ele>
        <time>2024-08-14T09:07:42Z</time>
      </trkpt>
      <trkpt lat="44.60627" lon="2.58345">
        <ele>619.4</ele>
        <time>2024-08-14T09:07:44Z</time>
      </trkpt>
      <trkpt lat="44.60623" lon="2.58345">
        <ele>619.7</ele>
        <time>2024-08-14T09:07:46Z</time>
      </trkpt>
      <trkpt lat="44.6062" lon="2.58345">
        <ele>620</ele>
        <time>2024-08-14T09:07:48Z</time>
      </trkpt>
      <trkpt lat="44.60617" lon="2.58345">
        <ele>620.3</ele>
        <time>2024-08-14T09:07:50Z</time>
      </trkpt>
      <trkpt lat="44.60614" lon="2.58347">
        <ele>620.7</ele>
        <time>2024-08-14T09:07:52Z</time>
      </trkpt>
      <trkpt lat="44.60611" lon="2.58348">
        <ele>621</ele>
        <time>2024-08-14T09:07:53Z</time>
      </trkpt>
      <trkpt lat="44.6061" lon="2.58349">
        <ele>621.2</ele>
        <time>2024-08-14T09:07:54Z</time>
      </trkpt>
      <trkpt lat="44.60607" lon="2.5835">
        <ele>621.5</ele>
        <time>2024-08-14T09:07:56Z</time>
      </trkpt>
      <trkpt lat="44.60604" lon="2.58355">
        <ele>622.1</ele>
        <time>2024-08-14T09:07:58Z</time>
      </trkpt>
      <trkpt lat="44.60601" lon="2.58359">
        <ele>622.6</ele>
        <time>2024-08-14T09:08:00Z</time>
      </trkpt>
      <trkpt lat="44.606" lon="2.58362">
        <ele>622.9</ele>
        <time>2024-08-14T09:08:01Z</time>
      </trkpt>
      <trkpt lat="44.60599" lon="2.58364">
        <ele>623.1</ele>
        <time>2024-08-14T09:08:02Z</time>
      </trkpt>
      <trkpt lat="44.60598" lon="2.58366">
        <ele>623.3</ele>
        <time>2024-08-14T09:08:03Z</time>
      </trkpt>
      <trkpt lat="44.60597" lon="2.58367">
        <ele>623.5</ele>
        <time>2024-08-14T09:08:04Z</time>
      </trkpt>
      <trkpt lat="44.60594" lon="2.5837">
        <ele>624</ele>
        <time>2024-08-14T09:08:06Z</time>
      </trkpt>
      <trkpt lat="44.60591" lon="2.58372">
        <ele>624.5</ele>
        <time>2024-08-14T09:08:08Z</time>
      </trkpt>
      <trkpt lat="44.60589" lon="2.58371">
        <ele>624.7</ele>
        <time>2024-08-14T09:08:09Z</time>
      </trkpt>
      <trkpt lat="44.60588" lon="2.58371">
        <ele>624.9</ele>
        <time>2024-08-14T09:08:10Z</time>
      </trkpt>
      <trkpt lat="44.60586" lon="2.58367">
        <ele>625.4</ele>
        <time>2024-08-14T09:08:12Z</time>
      </trkpt>
      <trkpt lat="44.60585" lon="2.58365">
        <ele>625.6</ele>
        <time>2024-08-14T09:08:13Z</time>
      </trkpt>
      <trkpt lat="44.60585" lon="2.58363">
        <ele>625.8</ele>
        <time>2024-08-14T09:08:14Z</time>
      </trkpt>
      <trkpt lat="44.60585" lon="2.5836">
        <ele>626.2</ele>
        <time>2024-08-14T09:08:16Z</time>
      </trkpt>
      <trkpt lat="44.60586" lon="2.58358">
        <ele>626.4</ele>
        <time>2024-08-14T09:08:17Z</time>
      </trkpt>
      <trkpt lat="44.60586" lon="2.58356">
        <ele>626.5</ele>
        <time>2024-08-14T09:08:18Z</time>
      </trkpt>
      <trkpt lat="44.60586" lon="2.58355">
        <ele>626.7</ele>
        <time>2024-08-14T09:08:19Z</time>
      </trkpt>
      <trkpt lat="44.60587" lon="2.58353">
        <ele>627</ele>
        <time>2024-08-14T09:08:20Z</time>
      </trkpt>
      <trkpt lat="44.60588" lon="2.58349">
        <ele>627.4</ele>
        <time>2024-08-14T09:08:22Z</time>
      </trkpt>
      <trkpt lat="44.60589" lon="2.58345">
        <ele>627.8</ele>
        <time>2024-08-14T09:08:24Z</time>
      </trkpt>
      <trkpt lat="44.60589" lon="2.58343">
        <ele>628</ele>
        <time>2024-08-14T09:08:25Z</time>
      </trkpt>
      <trkpt lat="44.60589" lon="2.58341">
        <ele>628.2</ele>
        <time>2024-08-14T09:08:26Z</time>
      </trkpt>
      <trkpt lat="44.60589" lon="2.58337">
        <ele>628.6</ele>
        <time>2024-08-14T09:08:28Z</time>
      </trkpt>
      <trkpt lat="44.60588" lon="2.58333">
        <ele>629</ele>
        <time>2024-08-14T09:08:30Z</time>
      </trkpt>
      <trkpt lat="44.60588" lon="2.58331">
        <ele>629.2</ele>
        <time>2024-08-14T09:08:31Z</time>
      </trkpt>
      <trkpt lat="44.60587" lon="2.58329">
        <ele>629.4</ele>
        <time>2024-08-14T09:08:32Z</time>
      </trkpt>
      <trkpt lat="44.60586" lon="2.58327">
        <ele>629.8</ele>
        <time>2024-08-14T09:08:34Z</time>
      </trkpt>
      <trkpt lat="44.60584" lon="2.58325">
        <ele>630.1</ele>
        <time>2024-08-14T09:08:36Z</time>
      </trkpt>
      <trkpt lat="44.60582" lon="2.58323">
        <ele>630.4</ele>
        <time>2024-08-14T09:08:38Z</time>
      </trkpt>
      <trkpt lat="44.60581" lon="2.58323">
        <ele>630.5</ele>
        <time>2024-08-14T09:08:39Z</time>
      </trkpt>
      <trkpt lat="44.6058" lon="2.58323">
        <ele>630.8</ele>
        <time>2024-08-14T09:08:40Z</time>
      </trkpt>
      <trkpt lat="44.60578" lon="2.58322">
        <ele>631</ele>
        <time>2024-08-14T09:08:41Z</time>
      </trkpt>
      <trkpt lat="44.60578" lon="2.58321">
        <ele>631.1</ele>
        <time>2024-08-14T09:08:42Z</time>
      </trkpt>
      <trkpt lat="44.60577" lon="2.58321">
        <ele>631.2</ele>
        <time>2024-08-14T09:08:43Z</time>
      </trkpt>
      <trkpt lat="44.60575" lon="2.5832">
        <ele>631.4</ele>
        <time>2024-08-14T09:08:44Z</time>
      </trkpt>
      <trkpt lat="44.60573" lon="2.5832">
        <ele>631.8</ele>
        <time>2024-08-14T09:08:46Z</time>
      </trkpt>
      <trkpt lat="44.60572" lon="2.5832">
        <ele>632</ele>
        <time>2024-08-14T09:08:47Z</time>
      </trkpt>
      <trkpt lat="44.60571" lon="2.5832">
        <ele>632.2</ele>
        <time>2024-08-14T09:08:48Z</time>
      </trkpt>
      <trkpt lat="44.60568" lon="2.58319">
        <ele>632.5</ele>
        <time>2024-08-14T09:08:50Z</time>
      </trkpt>
      <trkpt lat="44.60566" lon="2.58319">
        <ele>633</ele>
        <time>2024-08-14T09:08:52Z</time>
      </trkpt>
      <trkpt lat="44.60563" lon="2.58318">
        <ele>633.4</ele>
        <time>2024-08-14T09:08:54Z</time>
      </trkpt>
      <trkpt lat="44.6056" lon="2.58317">
        <ele>633.9</ele>
        <time>2024-08-14T09:08:56Z</time>
      </trkpt>
      <trkpt lat="44.60538" lon="2.58303">
        <ele>637.9</ele>
        <time>2024-08-14T09:09:16Z</time>
      </trkpt>
      <trkpt lat="44.60537" lon="2.58302">
        <ele>638</ele>
        <time>2024-08-14T09:09:17Z</time>
      </trkpt>
      <trkpt lat="44.60536" lon="2.58301">
        <ele>638.2</ele>
        <time>2024-08-14T09:09:18Z</time>
      </trkpt>
      <trkpt lat="44.60535" lon="2.58301">
        <ele>638.4</ele>
        <time>2024-08-14T09:09:19Z</time>
      </trkpt>
      <trkpt lat="44.60534" lon="2.583">
        <ele>638.5</ele>
        <time>2024-08-14T09:09:20Z</time>
      </trkpt>
      <trkpt lat="44.60532" lon="2.58298">
        <ele>638.9</ele>
        <time>2024-08-14T09:09:22Z</time>
      </trkpt>
      <trkpt lat="44.60531" lon="2.58297">
        <ele>639.1</ele>
        <time>2024-08-14T09:09:23Z</time>
      </trkpt>
      <trkpt lat="44.6053" lon="2.58296">
        <ele>639.2</ele>
        <time>2024-08-14T09:09:24Z</time>
      </trkpt>
      <trkpt lat="44.60528" lon="2.58294">
        <ele>639.6</ele>
        <time>2024-08-14T09:09:26Z</time>
      </trkpt>
      <trkpt lat="44.60526" lon="2.58292">
        <ele>639.9</ele>
        <time>2024-08-14T09:09:28Z</time>
      </trkpt>
      <trkpt lat="44.60525" lon="2.58291">
        <ele>640.2</ele>
        <time>2024-08-14T09:09:30Z</time>
      </trkpt>
      <trkpt lat="44.60523" lon="2.58291">
        <ele>640.1</ele>
        <time>2024-08-14T09:09:32Z</time>
      </trkpt>
      <trkpt lat="44.60522" lon="2.58295">
        <ele>640</ele>
        <time>2024-08-14T09:09:34Z</time>
      </trkpt>
      <trkpt lat="44.60522" lon="2.58299">
        <ele>639.9</ele>
        <time>2024-08-14T09:09:36Z</time>
      </trkpt>
      <trkpt lat="44.60522" lon="2.58303">
        <ele>639.8</ele>
        <time>2024-08-14T09:09:38Z</time>
      </trkpt>
      <trkpt lat="44.60522" lon="2.58305">
        <ele>639.7</ele>
        <time>2024-08-14T09:09:39Z</time>
      </trkpt>
      <trkpt lat="44.60521" lon="2.58307">
        <ele>639.7</ele>
        <time>2024-08-14T09:09:40Z</time>
      </trkpt>
      <trkpt lat="44.60521" lon="2.58309">
        <ele>639.6</ele>
        <time>2024-08-14T09:09:41Z</time>
      </trkpt>
      <trkpt lat="44.6052" lon="2.58311">
        <ele>639.6</ele>
        <time>2024-08-14T09:09:42Z</time>
      </trkpt>
      <trkpt lat="44.60519" lon="2.58316">
        <ele>639.5</ele>
        <time>2024-08-14T09:09:44Z</time>
      </trkpt>
      <trkpt lat="44.60519" lon="2.5832">
        <ele>639.4</ele>
        <time>2024-08-14T09:09:46Z</time>
      </trkpt>
      <trkpt lat="44.60519" lon="2.58325">
        <ele>639.3</ele>
        <time>2024-08-14T09:09:48Z</time>
      </trkpt>
      <trkpt lat="44.60521" lon="2.58329">
        <ele>639.2</ele>
        <time>2024-08-14T09:09:50Z</time>
      </trkpt>
      <trkpt lat="44.60521" lon="2.58334">
        <ele>639</ele>
        <time>2024-08-14T09:09:52Z</time>
      </trkpt>
      <trkpt lat="44.6052" lon="2.58335">
        <ele>639</ele>
        <time>2024-08-14T09:09:53Z</time>
      </trkpt>
      <trkpt lat="44.60518" lon="2.58336">
        <ele>638.9</ele>
        <time>2024-08-14T09:09:54Z</time>
      </trkpt>
      <trkpt lat="44.60514" lon="2.58337">
        <ele>638.8</ele>
        <time>2024-08-14T09:09:56Z</time>
      </trkpt>
      <trkpt lat="44.60513" lon="2.58337">
        <ele>638.8</ele>
        <time>2024-08-14T09:09:57Z</time>
      </trkpt>
      <trkpt lat="44.60511" lon="2.58338">
        <ele>638.7</ele>
        <time>2024-08-14T09:09:58Z</time>
      </trkpt>
      <trkpt lat="44.60508" lon="2.58339">
        <ele>638.7</ele>
        <time>2024-08-14T09:10:00Z</time>
      </trkpt>
      <trkpt lat="44.60504" lon="2.5834">
        <ele>638.6</ele>
        <time>2024-08-14T09:10:02Z</time>
      </trkpt>
      <trkpt lat="44.60503" lon="2.58341">
        <ele>638.6</ele>
        <time>2024-08-14T09:10:03Z</time>
      </trkpt>
      <trkpt lat="44.60501" lon="2.58341">
        <ele>638.6</ele>
        <time>2024-08-14T09:10:04Z</time>
      </trkpt>
      <trkpt lat="44.60498" lon="2.58341">
        <ele>638.6</ele>
        <time>2024-08-14T09:10:06Z</time>
      </trkpt>
      <trkpt lat="44.60497" lon="2.58341">
        <ele>638.7</ele>
        <time>2024-08-14T09:10:07Z</time>
      </trkpt>
      <trkpt lat="44.60495" lon="2.58341">
        <ele>638.8</ele>
        <time>2024-08-14T09:10:08Z</time>
      </trkpt>
      <trkpt lat="44.60494" lon="2.58342">
        <ele>639</ele>
        <time>2024-08-14T09:10:09Z</time>
      </trkpt>
      <trkpt lat="44.60492" lon="2.58342">
        <ele>639.1</ele>
        <time>2024-08-14T09:10:10Z</time>
      </trkpt>
      <trkpt lat="44.60491" lon="2.58341">
        <ele>639.3</ele>
        <time>2024-08-14T09:10:11Z</time>
      </trkpt>
      <trkpt lat="44.6049" lon="2.58341">
        <ele>639.4</ele>
        <time>2024-08-14T09:10:12Z</time>
      </trkpt>
      <trkpt lat="44.60489" lon="2.58342">
        <ele>639.5</ele>
        <time>2024-08-14T09:10:13Z</time>
      </trkpt>
      <trkpt lat="44.60488" lon="2.58344">
        <ele>639.6</ele>
        <time>2024-08-14T09:10:14Z</time>
      </trkpt>
      <trkpt lat="44.60489" lon="2.58348">
        <ele>639.9</ele>
        <time>2024-08-14T09:10:16Z</time>
      </trkpt>
      <trkpt lat="44.60489" lon="2.58353">
        <ele>640.3</ele>
        <time>2024-08-14T09:10:18Z</time>
      </trkpt>
      <trkpt lat="44.60489" lon="2.5836">
        <ele>640.8</ele>
        <time>2024-08-14T09:10:20Z</time>
      </trkpt>
      <trkpt lat="44.60488" lon="2.58363">
        <ele>641.1</ele>
        <time>2024-08-14T09:10:21Z</time>
      </trkpt>
      <trkpt lat="44.60487" lon="2.58365">
        <ele>641.2</ele>
        <time>2024-08-14T09:10:22Z</time>
      </trkpt>
      <trkpt lat="44.60487" lon="2.58366">
        <ele>641.3</ele>
        <time>2024-08-14T09:10:23Z</time>
      </trkpt>
      <trkpt lat="44.60487" lon="2.58366">
        <ele>641.3</ele>
        <time>2024-08-14T09:10:24Z</time>
      </trkpt>
      <trkpt lat="44.60476" lon="2.58359">
        <ele>642.6</ele>
        <time>2024-08-14T09:24:58Z</time>
      </trkpt>
      <trkpt lat="44.60477" lon="2.58352">
        <ele>642.6</ele>
        <time>2024-08-14T09:25:00Z</time>
      </trkpt>
      <trkpt lat="44.60478" lon="2.58347">
        <ele>642.8</ele>
        <time>2024-08-14T09:25:02Z</time>
      </trkpt>
      <trkpt lat="44.60479" lon="2.58343">
        <ele>642.9</ele>
        <time>2024-08-14T09:25:03Z</time>
      </trkpt>
      <trkpt lat="44.60479" lon="2.58339">
        <ele>643</ele>
        <time>2024-08-14T09:25:04Z</time>
      </trkpt>
      <trkpt lat="44.60479" lon="2.58336">
        <ele>643.1</ele>
        <time>2024-08-14T09:25:05Z</time>
      </trkpt>
      <trkpt lat="44.60478" lon="2.58333">
        <ele>643.2</ele>
        <time>2024-08-14T09:25:06Z</time>
      </trkpt>
      <trkpt lat="44.60478" lon="2.58327">
        <ele>643.5</ele>
        <time>2024-08-14T09:25:08Z</time>
      </trkpt>
      <trkpt lat="44.60477" lon="2.58321">
        <ele>643.7</ele>
        <time>2024-08-14T09:25:10Z</time>
      </trkpt>
      <trkpt lat="44.60476" lon="2.58316">
        <ele>644</ele>
        <time>2024-08-14T09:25:12Z</time>
      </trkpt>
      <trkpt lat="44.60476" lon="2.5831">
        <ele>644.2</ele>
        <time>2024-08-14T09:25:14Z</time>
      </trkpt>
      <trkpt lat="44.60478" lon="2.58306">
        <ele>644.5</ele>
        <time>2024-08-14T09:25:16Z</time>
      </trkpt>
      <trkpt lat="44.6048" lon="2.58301">
        <ele>644.7</ele>
        <time>2024-08-14T09:25:18Z</time>
      </trkpt>
      <trkpt lat="44.60482" lon="2.58296">
        <ele>644.9</ele>
        <time>2024-08-14T09:25:20Z</time>
      </trkpt>
      <trkpt lat="44.60482" lon="2.58294">
        <ele>644.9</ele>
        <time>2024-08-14T09:25:21Z</time>
      </trkpt>
      <trkpt lat="44.60483" lon="2.58292">
        <ele>645</ele>
        <time>2024-08-14T09:25:22Z</time>
      </trkpt>
      <trkpt lat="44.60486" lon="2.58288">
        <ele>645.1</ele>
        <time>2024-08-14T09:25:24Z</time>
      </trkpt>
      <trkpt lat="44.60489" lon="2.58284">
        <ele>645.2</ele>
        <time>2024-08-14T09:25:26Z</time>
      </trkpt>
      <trkpt lat="44.6049" lon="2.58278">
        <ele>645.2</ele>
        <time>2024-08-14T09:25:28Z</time>
      </trkpt>
      <trkpt lat="44.6049" lon="2.58273">
        <ele>645.3</ele>
        <time>2024-08-14T09:25:30Z</time>
      </trkpt>
      <trkpt lat="44.60486" lon="2.58271">
        <ele>645.5</ele>
        <time>2024-08-14T09:25:32Z</time>
      </trkpt>
      <trkpt lat="44.60484" lon="2.58272">
        <ele>645.5</ele>
        <time>2024-08-14T09:25:33Z</time>
      </trkpt>
      <trkpt lat="44.60483" lon="2.58274">
        <ele>645.6</ele>
        <time>2024-08-14T09:25:34Z</time>
      </trkpt>
      <trkpt lat="44.60482" lon="2.58278">
        <ele>645.8</ele>
        <time>2024-08-14T09:25:36Z</time>
      </trkpt>
      <trkpt lat="44.6048" lon="2.58282">
        <ele>646.3</ele>
        <time>2024-08-14T09:25:38Z</time>
      </trkpt>
      <trkpt lat="44.60479" lon="2.58286">
        <ele>646.8</ele>
        <time>2024-08-14T09:25:40Z</time>
      </trkpt>
      <trkpt lat="44.60478" lon="2.58287">
        <ele>647.1</ele>
        <time>2024-08-14T09:25:41Z</time>
      </trkpt>
      <trkpt lat="44.60477" lon="2.58288">
        <ele>647.3</ele>
        <time>2024-08-14T09:25:42Z</time>
      </trkpt>
      <trkpt lat="44.60476" lon="2.58289">
        <ele>647.5</ele>
        <time>2024-08-14T09:25:43Z</time>
      </trkpt>
      <trkpt lat="44.60475" lon="2.5829">
        <ele>647.7</ele>
        <time>2024-08-14T09:25:44Z</time>
      </trkpt>
      <trkpt lat="44.60473" lon="2.58291">
        <ele>648</ele>
        <time>2024-08-14T09:25:46Z</time>
      </trkpt>
      <trkpt lat="44.60471" lon="2.58294">
        <ele>648.4</ele>
        <time>2024-08-14T09:25:48Z</time>
      </trkpt>
      <trkpt lat="44.60469" lon="2.58296">
        <ele>648.8</ele>
        <time>2024-08-14T09:25:50Z</time>
      </trkpt>
      <trkpt lat="44.60468" lon="2.58297">
        <ele>649.1</ele>
        <time>2024-08-14T09:25:51Z</time>
      </trkpt>
      <trkpt lat="44.60466" lon="2.58296">
        <ele>649.3</ele>
        <time>2024-08-14T09:25:52Z</time>
      </trkpt>
      <trkpt lat="44.60464" lon="2.58295">
        <ele>650.2</ele>
        <time>2024-08-14T09:25:54Z</time>
      </trkpt>
      <trkpt lat="44.60461" lon="2.58295">
        <ele>650.3</ele>
        <time>2024-08-14T09:25:55Z</time>
      </trkpt>
      <trkpt lat="44.60461" lon="2.58293">
        <ele>650.4</ele>
        <time>2024-08-14T09:25:56Z</time>
      </trkpt>
      <trkpt lat="44.60461" lon="2.58288">
        <ele>650.6</ele>
        <time>2024-08-14T09:25:58Z</time>
      </trkpt>
      <trkpt lat="44.60461" lon="2.58282">
        <ele>650.8</ele>
        <time>2024-08-14T09:26:00Z</time>
      </trkpt>
      <trkpt lat="44.6046" lon="2.58278">
        <ele>651</ele>
        <time>2024-08-14T09:26:02Z</time>
      </trkpt>
      <trkpt lat="44.60459" lon="2.58273">
        <ele>651.2</ele>
        <time>2024-08-14T09:26:04Z</time>
      </trkpt>
      <trkpt lat="44.60458" lon="2.58271">
        <ele>651.3</ele>
        <time>2024-08-14T09:26:05Z</time>
      </trkpt>
      <trkpt lat="44.60457" lon="2.58269">
        <ele>651.5</ele>
        <time>2024-08-14T09:26:06Z</time>
      </trkpt>
      <trkpt lat="44.60455" lon="2.58265">
        <ele>651.8</ele>
        <time>2024-08-14T09:26:08Z</time>
      </trkpt>
      <trkpt lat="44.60454" lon="2.58263">
        <ele>652</ele>
        <time>2024-08-14T09:26:09Z</time>
      </trkpt>
      <trkpt lat="44.60453" lon="2.58262">
        <ele>652.1</ele>
        <time>2024-08-14T09:26:10Z</time>
      </trkpt>
      <trkpt lat="44.60451" lon="2.58259">
        <ele>652.5</ele>
        <time>2024-08-14T09:26:12Z</time>
      </trkpt>
      <trkpt lat="44.6045" lon="2.58257">
        <ele>652.8</ele>
        <time>2024-08-14T09:26:14Z</time>
      </trkpt>
      <trkpt lat="44.60448" lon="2.58254">
        <ele>653.1</ele>
        <time>2024-08-14T09:26:16Z</time>
      </trkpt>
      <trkpt lat="44.60446" lon="2.58252">
        <ele>653.4</ele>
        <time>2024-08-14T09:26:18Z</time>
      </trkpt>
      <trkpt lat="44.60445" lon="2.58249">
        <ele>653.8</ele>
        <time>2024-08-14T09:26:20Z</time>
      </trkpt>
      <trkpt lat="44.60442" lon="2.58248">
        <ele>654.2</ele>
        <time>2024-08-14T09:26:22Z</time>
      </trkpt>
      <trkpt lat="44.6044" lon="2.58245">
        <ele>654.6</ele>
        <time>2024-08-14T09:26:24Z</time>
      </trkpt>
      <trkpt lat="44.60438" lon="2.58242">
        <ele>655</ele>
        <time>2024-08-14T09:26:26Z</time>
      </trkpt>
      <trkpt lat="44.60435" lon="2.5824">
        <ele>655.4</ele>
        <time>2024-08-14T09:26:28Z</time>
      </trkpt>
      <trkpt lat="44.60434" lon="2.58237">
        <ele>655.8</ele>
        <time>2024-08-14T09:26:30Z</time>
      </trkpt>
      <trkpt lat="44.60433" lon="2.58235">
        <ele>656.1</ele>
        <time>2024-08-14T09:26:32Z</time>
      </trkpt>
      <trkpt lat="44.60431" lon="2.58232">
        <ele>656.5</ele>
        <time>2024-08-14T09:26:34Z</time>
      </trkpt>
      <trkpt lat="44.6043" lon="2.58231">
        <ele>656.7</ele>
        <time>2024-08-14T09:26:35Z</time>
      </trkpt>
      <trkpt lat="44.60429" lon="2.5823">
        <ele>656.9</ele>
        <time>2024-08-14T09:26:36Z</time>
      </trkpt>
      <trkpt lat="44.60427" lon="2.58229">
        <ele>657.2</ele>
        <time>2024-08-14T09:26:37Z</time>
      </trkpt>
      <trkpt lat="44.60426" lon="2.58228">
        <ele>657.4</ele>
        <time>2024-08-14T09:26:38Z</time>
      </trkpt>
      <trkpt lat="44.60425" lon="2.58226">
        <ele>657.6</ele>
        <time>2024-08-14T09:26:39Z</time>
      </trkpt>
      <trkpt lat="44.60424" lon="2.58225">
        <ele>657.8</ele>
        <time>2024-08-14T09:26:40Z</time>
      </trkpt>
      <trkpt lat="44.60422" lon="2.58223">
        <ele>658.2</ele>
        <time>2024-08-14T09:26:42Z</time>
      </trkpt>
      <trkpt lat="44.60421" lon="2.58221">
        <ele>658.4</ele>
        <time>2024-08-14T09:26:43Z</time>
      </trkpt>
      <trkpt lat="44.60421" lon="2.5822">
        <ele>658.6</ele>
        <time>2024-08-14T09:26:44Z</time>
      </trkpt>
      <trkpt lat="44.6042" lon="2.58219">
        <ele>658.8</ele>
        <time>2024-08-14T09:26:45Z</time>
      </trkpt>
      <trkpt lat="44.60419" lon="2.58217">
        <ele>659</ele>
        <time>2024-08-14T09:26:46Z</time>
      </trkpt>
      <trkpt lat="44.60418" lon="2.58214">
        <ele>659.5</ele>
        <time>2024-08-14T09:26:48Z</time>
      </trkpt>
      <trkpt lat="44.60417" lon="2.58213">
        <ele>659.6</ele>
        <time>2024-08-14T09:26:49Z</time>
      </trkpt>
      <trkpt lat="44.60417" lon="2.58211">
        <ele>659.8</ele>
        <time>2024-08-14T09:26:50Z</time>
      </trkpt>
      <trkpt lat="44.60416" lon="2.58209">
        <ele>660.2</ele>
        <time>2024-08-14T09:26:52Z</time>
      </trkpt>
      <trkpt lat="44.60414" lon="2.58207">
        <ele>660.6</ele>
        <time>2024-08-14T09:26:54Z</time>
      </trkpt>
      <trkpt lat="44.60414" lon="2.58206">
        <ele>660.7</ele>
        <time>2024-08-14T09:26:55Z</time>
      </trkpt>
      <trkpt lat="44.60413" lon="2.58205">
        <ele>660.9</ele>
        <time>2024-08-14T09:26:56Z</time>
      </trkpt>
      <trkpt lat="44.60412" lon="2.58203">
        <ele>661.2</ele>
        <time>2024-08-14T09:26:58Z</time>
      </trkpt>
      <trkpt lat="44.60411" lon="2.58201">
        <ele>661.5</ele>
        <time>2024-08-14T09:27:00Z</time>
      </trkpt>
      <trkpt lat="44.6036" lon="2.58071">
        <ele>677.8</ele>
        <time>2024-08-14T09:29:01Z</time>
      </trkpt>
      <trkpt lat="44.60359" lon="2.58069">
        <ele>677.9</ele>
        <time>2024-08-14T09:29:02Z</time>
      </trkpt>
      <trkpt lat="44.60357" lon="2.58068">
        <ele>678</ele>
        <time>2024-08-14T09:29:03Z</time>
      </trkpt>
      <trkpt lat="44.60356" lon="2.58067">
        <ele>678</ele>
        <time>2024-08-14T09:29:04Z</time>
      </trkpt>
      <trkpt lat="44.60356" lon="2.58064">
        <ele>678.1</ele>
        <time>2024-08-14T09:29:06Z</time>
      </trkpt>
      <trkpt lat="44.60355" lon="2.58059">
        <ele>678.2</ele>
        <time>2024-08-14T09:29:20Z</time>
      </trkpt>
      <trkpt lat="44.60355" lon="2.58055">
        <ele>678.2</ele>
        <time>2024-08-14T09:29:21Z</time>
      </trkpt>
      <trkpt lat="44.60356" lon="2.58053">
        <ele>678.2</ele>
        <time>2024-08-14T09:29:22Z</time>
      </trkpt>
      <trkpt lat="44.60357" lon="2.58048">
        <ele>678.1</ele>
        <time>2024-08-14T09:29:24Z</time>
      </trkpt>
      <trkpt lat="44.60357" lon="2.58046">
        <ele>678.1</ele>
        <time>2024-08-14T09:29:25Z</time>
      </trkpt>
      <trkpt lat="44.60357" lon="2.58044">
        <ele>678.1</ele>
        <time>2024-08-14T09:29:26Z</time>
      </trkpt>
      <trkpt lat="44.60358" lon="2.58041">
        <ele>678.1</ele>
        <time>2024-08-14T09:29:27Z</time>
      </trkpt>
      <trkpt lat="44.60358" lon="2.58038">
        <ele>678</ele>
        <time>2024-08-14T09:29:28Z</time>
      </trkpt>
      <trkpt lat="44.6036" lon="2.58032">
        <ele>678</ele>
        <time>2024-08-14T09:29:30Z</time>
      </trkpt>
      <trkpt lat="44.6036" lon="2.58025">
        <ele>677.9</ele>
        <time>2024-08-14T09:29:32Z</time>
      </trkpt>
      <trkpt lat="44.60361" lon="2.58018">
        <ele>677.8</ele>
        <time>2024-08-14T09:29:34Z</time>
      </trkpt>
      <trkpt lat="44.60363" lon="2.58009">
        <ele>677.7</ele>
        <time>2024-08-14T09:29:36Z</time>
      </trkpt>
      <trkpt lat="44.60363" lon="2.58005">
        <ele>677.7</ele>
        <time>2024-08-14T09:29:37Z</time>
      </trkpt>
      <trkpt lat="44.60363" lon="2.58">
        <ele>677.6</ele>
        <time>2024-08-14T09:29:38Z</time>
      </trkpt>
      <trkpt lat="44.60364" lon="2.57996">
        <ele>677.5</ele>
        <time>2024-08-14T09:29:39Z</time>
      </trkpt>
      <trkpt lat="44.60364" lon="2.57991">
        <ele>677.4</ele>
        <time>2024-08-14T09:29:40Z</time>
      </trkpt>
      <trkpt lat="44.60365" lon="2.57982">
        <ele>677.3</ele>
        <time>2024-08-14T09:29:42Z</time>
      </trkpt>
      <trkpt lat="44.60365" lon="2.57977">
        <ele>677.2</ele>
        <time>2024-08-14T09:29:43Z</time>
      </trkpt>
      <trkpt lat="44.60366" lon="2.57972">
        <ele>677.1</ele>
        <time>2024-08-14T09:29:44Z</time>
      </trkpt>
      <trkpt lat="44.60366" lon="2.57963">
        <ele>676.9</ele>
        <time>2024-08-14T09:29:46Z</time>
      </trkpt>
      <trkpt lat="44.60367" lon="2.57958">
        <ele>676.8</ele>
        <time>2024-08-14T09:29:47Z</time>
      </trkpt>
      <trkpt lat="44.60367" lon="2.57953">
        <ele>676.7</ele>
        <time>2024-08-14T09:29:48Z</time>
      </trkpt>
      <trkpt lat="44.60369" lon="2.57942">
        <ele>676.5</ele>
        <time>2024-08-14T09:29:50Z</time>
      </trkpt>
      <trkpt lat="44.6037" lon="2.57931">
        <ele>676.3</ele>
        <time>2024-08-14T09:29:52Z</time>
      </trkpt>
      <trkpt lat="44.60371" lon="2.57926">
        <ele>676.2</ele>
        <time>2024-08-14T09:29:53Z</time>
      </trkpt>
      <trkpt lat="44.60372" lon="2.5792">
        <ele>676.1</ele>
        <time>2024-08-14T09:29:54Z</time>
      </trkpt>
      <trkpt lat="44.60373" lon="2.5791">
        <ele>675.9</ele>
        <time>2024-08-14T09:29:56Z</time>
      </trkpt>
      <trkpt lat="44.60375" lon="2.57898">
        <ele>675.6</ele>
        <time>2024-08-14T09:29:58Z</time>
      </trkpt>
      <trkpt lat="44.60377" lon="2.57888">
        <ele>675.5</ele>
        <time>2024-08-14T09:30:00Z</time>
      </trkpt>
      <trkpt lat="44.60377" lon="2.57879">
        <ele>675.4</ele>
        <time>2024-08-14T09:30:02Z</time>
      </trkpt>
      <trkpt lat="44.60378" lon="2.57874">
        <ele>675.4</ele>
        <time>2024-08-14T09:30:04Z</time>
      </trkpt>
      <trkpt lat="44.60378" lon="2.5787">
        <ele>675.4</ele>
        <time>2024-08-14T09:30:06Z</time>
      </trkpt>
      <trkpt lat="44.60377" lon="2.57866">
        <ele>675.4</ele>
        <time>2024-08-14T09:30:08Z</time>
      </trkpt>
      <trkpt lat="44.60377" lon="2.57863">
        <ele>675.4</ele>
        <time>2024-08-14T09:30:10Z</time>
      </trkpt>
      <trkpt lat="44.60377" lon="2.57859">
        <ele>675.4</ele>
        <time>2024-08-14T09:30:12Z</time>
      </trkpt>
      <trkpt lat="44.60378" lon="2.57855">
        <ele>675.4</ele>
        <time>2024-08-14T09:30:14Z</time>
      </trkpt>
      <trkpt lat="44.60379" lon="2.5785">
        <ele>675.4</ele>
        <time>2024-08-14T09:30:16Z</time>
      </trkpt>
      <trkpt lat="44.60378" lon="2.57847">
        <ele>675.4</ele>
        <time>2024-08-14T09:30:17Z</time>
      </trkpt>
      <trkpt lat="44.60378" lon="2.57846">
        <ele>675.4</ele>
        <time>2024-08-14T09:30:18Z</time>
      </trkpt>
      <trkpt lat="44.60379" lon="2.57844">
        <ele>675.4</ele>
        <time>2024-08-14T09:30:19Z</time>
      </trkpt>
      <trkpt lat="44.60379" lon="2.57841">
        <ele>675.4</ele>
        <time>2024-08-14T09:30:20Z</time>
      </trkpt>
      <trkpt lat="44.60379" lon="2.57835">
        <ele>675.4</ele>
        <time>2024-08-14T09:30:22Z</time>
      </trkpt>
      <trkpt lat="44.60379" lon="2.57831">
        <ele>675.4</ele>
        <time>2024-08-14T09:30:23Z</time>
      </trkpt>
      <trkpt lat="44.60379" lon="2.57826">
        <ele>675.4</ele>
        <time>2024-08-14T09:30:24Z</time>
      </trkpt>
      <trkpt lat="44.6038" lon="2.57815">
        <ele>675.4</ele>
        <time>2024-08-14T09:30:26Z</time>
      </trkpt>
      <trkpt lat="44.60379" lon="2.57805">
        <ele>675.4</ele>
        <time>2024-08-14T09:30:28Z</time>
      </trkpt>
      <trkpt lat="44.60379" lon="2.578">
        <ele>675.3</ele>
        <time>2024-08-14T09:30:29Z</time>
      </trkpt>
      <trkpt lat="44.60378" lon="2.57794">
        <ele>675.3</ele>
        <time>2024-08-14T09:30:30Z</time>
      </trkpt>
      <trkpt lat="44.60379" lon="2.57782">
        <ele>675.1</ele>
        <time>2024-08-14T09:30:32Z</time>
      </trkpt>
      <trkpt lat="44.60379" lon="2.57771">
        <ele>674.9</ele>
        <time>2024-08-14T09:30:34Z</time>
      </trkpt>
      <trkpt lat="44.60379" lon="2.57765">
        <ele>674.8</ele>
        <time>2024-08-14T09:30:35Z</time>
      </trkpt>
      <trkpt lat="44.60379" lon="2.5776">
        <ele>674.7</ele>
        <time>2024-08-14T09:30:36Z</time>
      </trkpt>
      <trkpt lat="44.60379" lon="2.57749">
        <ele>674.5</ele>
        <time>2024-08-14T09:30:38Z</time>
      </trkpt>
      <trkpt lat="44.6038" lon="2.5774">
        <ele>674.3</ele>
        <time>2024-08-14T09:30:40Z</time>
      </trkpt>
      <trkpt lat="44.60383" lon="2.57732">
        <ele>674</ele>
        <time>2024-08-14T09:30:42Z</time>
      </trkpt>
      <trkpt lat="44.60389" lon="2.57725">
        <ele>674</ele>
        <time>2024-08-14T09:30:44Z</time>
      </trkpt>
      <trkpt lat="44.60392" lon="2.57723">
        <ele>674</ele>
        <time>2024-08-14T09:30:45Z</time>
      </trkpt>
      <trkpt lat="44.60395" lon="2.5772">
        <ele>674</ele>
        <time>2024-08-14T09:30:46Z</time>
      </trkpt>
      <trkpt lat="44.60402" lon="2.57713">
        <ele>674</ele>
        <time>2024-08-14T09:30:48Z</time>
      </trkpt>
      <trkpt lat="44.60405" lon="2.5771">
        <ele>674.1</ele>
        <time>2024-08-14T09:30:49Z</time>
      </trkpt>
      <trkpt lat="44.60409" lon="2.57706">
        <ele>674.1</ele>
        <time>2024-08-14T09:30:50Z</time>
      </trkpt>
      <trkpt lat="44.60416" lon="2.57699">
        <ele>674.2</ele>
        <time>2024-08-14T09:30:52Z</time>
      </trkpt>
      <trkpt lat="44.60421" lon="2.57693">
        <ele>674.3</ele>
        <time>2024-08-14T09:30:54Z</time>
      </trkpt>
      <trkpt lat="44.60427" lon="2.57686">
        <ele>674.4</ele>
        <time>2024-08-14T09:30:56Z</time>
      </trkpt>
      <trkpt lat="44.60431" lon="2.57682">
        <ele>674.5</ele>
        <time>2024-08-14T09:30:57Z</time>
      </trkpt>
      <trkpt lat="44.60434" lon="2.57679">
        <ele>674.5</ele>
        <time>2024-08-14T09:30:58Z</time>
      </trkpt>
      <trkpt lat="44.60438" lon="2.57675">
        <ele>674.6</ele>
        <time>2024-08-14T09:30:59Z</time>
      </trkpt>
      <trkpt lat="44.60441" lon="2.57672">
        <ele>674.6</ele>
        <time>2024-08-14T09:31:00Z</time>
      </trkpt>
      <trkpt lat="44.60445" lon="2.57669">
        <ele>674.7</ele>
        <time>2024-08-14T09:31:01Z</time>
      </trkpt>
      <trkpt lat="44.60448" lon="2.57667">
        <ele>674.8</ele>
        <time>2024-08-14T09:31:02Z</time>
      </trkpt>
      <trkpt lat="44.60451" lon="2.57665">
        <ele>674.8</ele>
        <time>2024-08-14T09:31:03Z</time>
      </trkpt>
      <trkpt lat="44.60454" lon="2.57662">
        <ele>674.9</ele>
        <time>2024-08-14T09:31:04Z</time>
      </trkpt>
      <trkpt lat="44.6046" lon="2.57658">
        <ele>674.9</ele>
        <time>2024-08-14T09:31:06Z</time>
      </trkpt>
      <trkpt lat="44.60466" lon="2.57654">
        <ele>675</ele>
        <time>2024-08-14T09:31:08Z</time>
      </trkpt>
      <trkpt lat="44.60472" lon="2.57649">
        <ele>675</ele>
        <time>2024-08-14T09:31:10Z</time>
      </trkpt>
      <trkpt lat="44.60478" lon="2.57646">
        <ele>674.9</ele>
        <time>2024-08-14T09:31:12Z</time>
      </trkpt>
      <trkpt lat="44.60485" lon="2.57642">
        <ele>674.9</ele>
        <time>2024-08-14T09:31:14Z</time>
      </trkpt>
      <trkpt lat="44.60491" lon="2.57637">
        <ele>674.9</ele>
        <time>2024-08-14T09:31:16Z</time>
      </trkpt>
      <trkpt lat="44.60494" lon="2.57634">
        <ele>674.8</ele>
        <time>2024-08-14T09:31:17Z</time>
      </trkpt>
      <trkpt lat="44.60498" lon="2.57631">
        <ele>674.8</ele>
        <time>2024-08-14T09:31:18Z</time>
      </trkpt>
      <trkpt lat="44.60504" lon="2.57624">
        <ele>674.7</ele>
        <time>2024-08-14T09:31:20Z</time>
      </trkpt>
      <trkpt lat="44.60511" lon="2.57617">
        <ele>674.5</ele>
        <time>2024-08-14T09:31:22Z</time>
      </trkpt>
      <trkpt lat="44.60514" lon="2.57613">
        <ele>674.4</ele>
        <time>2024-08-14T09:31:23Z</time>
      </trkpt>
      <trkpt lat="44.60517" lon="2.5761">
        <ele>674.4</ele>
        <time>2024-08-14T09:31:24Z</time>
      </trkpt>
      <trkpt lat="44.60523" lon="2.57602">
        <ele>674.2</ele>
        <time>2024-08-14T09:31:26Z</time>
      </trkpt>
      <trkpt lat="44.60529" lon="2.57594">
        <ele>674</ele>
        <time>2024-08-14T09:31:28Z</time>
      </trkpt>
      <trkpt lat="44.60536" lon="2.57584">
        <ele>673.8</ele>
        <time>2024-08-14T09:31:30Z</time>
      </trkpt>
      <trkpt lat="44.60539" lon="2.5758">
        <ele>673.7</ele>
        <time>2024-08-14T09:31:31Z</time>
      </trkpt>
      <trkpt lat="44.60542" lon="2.57575">
        <ele>673.6</ele>
        <time>2024-08-14T09:31:32Z</time>
      </trkpt>
      <trkpt lat="44.60546" lon="2.5757">
        <ele>673.6</ele>
        <time>2024-08-14T09:31:33Z</time>
      </trkpt>
      <trkpt lat="44.60549" lon="2.57566">
        <ele>673.5</ele>
        <time>2024-08-14T09:31:34Z</time>
      </trkpt>
      <trkpt lat="44.60555" lon="2.57558">
        <ele>673.3</ele>
        <time>2024-08-14T09:31:36Z</time>
      </trkpt>
      <trkpt lat="44.60562" lon="2.5755">
        <ele>673.1</ele>
        <time>2024-08-14T09:31:38Z</time>
      </trkpt>
      <trkpt lat="44.60569" lon="2.57543">
        <ele>672.9</ele>
        <time>2024-08-14T09:31:40Z</time>
      </trkpt>
      <trkpt lat="44.60575" lon="2.57535">
        <ele>672.7</ele>
        <time>2024-08-14T09:31:42Z</time>
      </trkpt>
      <trkpt lat="44.60579" lon="2.57531">
        <ele>672.6</ele>
        <time>2024-08-14T09:31:43Z</time>
      </trkpt>
      <trkpt lat="44.60582" lon="2.57526">
        <ele>672.5</ele>
        <time>2024-08-14T09:31:44Z</time>
      </trkpt>
      <trkpt lat="44.60586" lon="2.57522">
        <ele>672.4</ele>
        <time>2024-08-14T09:31:45Z</time>
      </trkpt>
      <trkpt lat="44.60589" lon="2.57517">
        <ele>672.3</ele>
        <time>2024-08-14T09:31:46Z</time>
      </trkpt>
      <trkpt lat="44.60594" lon="2.57507">
        <ele>672.1</ele>
        <time>2024-08-14T09:31:48Z</time>
      </trkpt>
      <trkpt lat="44.60597" lon="2.57502">
        <ele>672</ele>
        <time>2024-08-14T09:31:49Z</time>
      </trkpt>
      <trkpt lat="44.60601" lon="2.57496">
        <ele>671.8</ele>
        <time>2024-08-14T09:31:50Z</time>
      </trkpt>
      <trkpt lat="44.60606" lon="2.57485">
        <ele>671.5</ele>
        <time>2024-08-14T09:31:52Z</time>
      </trkpt>
      <trkpt lat="44.60609" lon="2.5748">
        <ele>671.4</ele>
        <time>2024-08-14T09:31:53Z</time>
      </trkpt>
      <trkpt lat="44.60613" lon="2.57474">
        <ele>671.2</ele>
        <time>2024-08-14T09:31:54Z</time>
      </trkpt>
      <trkpt lat="44.60619" lon="2.57463">
        <ele>670.8</ele>
        <time>2024-08-14T09:31:56Z</time>
      </trkpt>
      <trkpt lat="44.60626" lon="2.57452">
        <ele>670.5</ele>
        <time>2024-08-14T09:31:58Z</time>
      </trkpt>
      <trkpt lat="44.60628" lon="2.57446">
        <ele>670.4</ele>
        <time>2024-08-14T09:31:59Z</time>
      </trkpt>
      <trkpt lat="44.60632" lon="2.5744">
        <ele>670.3</ele>
        <time>2024-08-14T09:32:00Z</time>
      </trkpt>
      <trkpt lat="44.60639" lon="2.57432">
        <ele>670.2</ele>
        <time>2024-08-14T09:32:02Z</time>
      </trkpt>
      <trkpt lat="44.60643" lon="2.5743">
        <ele>670.2</ele>
        <time>2024-08-14T09:32:03Z</time>
      </trkpt>
      <trkpt lat="44.60646" lon="2.5743">
        <ele>670</ele>
        <time>2024-08-14T09:32:04Z</time>
      </trkpt>
      <trkpt lat="44.60648" lon="2.57429">
        <ele>669.2</ele>
        <time>2024-08-14T09:32:05Z</time>
      </trkpt>
      <trkpt lat="44.60649" lon="2.57427">
        <ele>668.5</ele>
        <time>2024-08-14T09:32:06Z</time>
      </trkpt>
      <trkpt lat="44.6065" lon="2.57424">
        <ele>668.1</ele>
        <time>2024-08-14T09:32:07Z</time>
      </trkpt>
      <trkpt lat="44.6065" lon="2.5742">
        <ele>667.9</ele>
        <time>2024-08-14T09:32:08Z</time>
      </trkpt>
      <trkpt lat="44.60652" lon="2.57408">
        <ele>667.2</ele>
        <time>2024-08-14T09:32:10Z</time>
      </trkpt>
      <trkpt lat="44.60652" lon="2.57402">
        <ele>666.8</ele>
        <time>2024-08-14T09:32:11Z</time>
      </trkpt>
      <trkpt lat="44.60653" lon="2.57395">
        <ele>666.4</ele>
        <time>2024-08-14T09:32:12Z</time>
      </trkpt>
      <trkpt lat="44.60654" lon="2.5738">
        <ele>665.6</ele>
        <time>2024-08-14T09:32:14Z</time>
      </trkpt>
      <trkpt lat="44.60655" lon="2.57364">
        <ele>664.8</ele>
        <time>2024-08-14T09:32:16Z</time>
      </trkpt>
      <trkpt lat="44.60656" lon="2.57356">
        <ele>664.3</ele>
        <time>2024-08-14T09:32:17Z</time>
      </trkpt>
      <trkpt lat="44.60658" lon="2.57347">
        <ele>663.9</ele>
        <time>2024-08-14T09:32:18Z</time>
      </trkpt>
      <trkpt lat="44.60662" lon="2.57331">
        <ele>663.1</ele>
        <time>2024-08-14T09:32:20Z</time>
      </trkpt>
      <trkpt lat="44.60668" lon="2.57315">
        <ele>662.3</ele>
        <time>2024-08-14T09:32:22Z</time>
      </trkpt>
      <trkpt lat="44.60674" lon="2.57297">
        <ele>661.4</ele>
        <time>2024-08-14T09:32:24Z</time>
      </trkpt>
      <trkpt lat="44.60675" lon="2.57287">
        <ele>661</ele>
        <time>2024-08-14T09:32:25Z</time>
      </trkpt>
      <trkpt lat="44.60676" lon="2.57277">
        <ele>660.6</ele>
        <time>2024-08-14T09:32:26Z</time>
      </trkpt>
      <trkpt lat="44.60675" lon="2.57267">
        <ele>660.3</ele>
        <time>2024-08-14T09:32:27Z</time>
      </trkpt>
      <trkpt lat="44.60672" lon="2.57258">
        <ele>660</ele>
        <time>2024-08-14T09:32:28Z</time>
      </trkpt>
      <trkpt lat="44.60669" lon="2.5725">
        <ele>659.7</ele>
        <time>2024-08-14T09:32:29Z</time>
      </trkpt>
      <trkpt lat="44.60666" lon="2.57241">
        <ele>659.4</ele>
        <time>2024-08-14T09:32:30Z</time>
      </trkpt>
      <trkpt lat="44.60661" lon="2.57222">
        <ele>658.7</ele>
        <time>2024-08-14T09:32:32Z</time>
      </trkpt>
      <trkpt lat="44.60657" lon="2.57203">
        <ele>658.1</ele>
        <time>2024-08-14T09:32:34Z</time>
      </trkpt>
      <trkpt lat="44.60656" lon="2.57192">
        <ele>657.8</ele>
        <time>2024-08-14T09:32:35Z</time>
      </trkpt>
      <trkpt lat="44.60656" lon="2.57182">
        <ele>657.5</ele>
        <time>2024-08-14T09:32:36Z</time>
      </trkpt>
      <trkpt lat="44.60657" lon="2.57162">
        <ele>656.9</ele>
        <time>2024-08-14T09:32:38Z</time>
      </trkpt>
      <trkpt lat="44.60657" lon="2.57151">
        <ele>656.6</ele>
        <time>2024-08-14T09:32:39Z</time>
      </trkpt>
      <trkpt lat="44.60657" lon="2.57142">
        <ele>656.2</ele>
        <time>2024-08-14T09:32:40Z</time>
      </trkpt>
      <trkpt lat="44.60659" lon="2.57127">
        <ele>655.7</ele>
        <time>2024-08-14T09:32:42Z</time>
      </trkpt>
      <trkpt lat="44.60666" lon="2.57116">
        <ele>654.7</ele>
        <time>2024-08-14T09:32:44Z</time>
      </trkpt>
      <trkpt lat="44.60677" lon="2.57107">
        <ele>653.5</ele>
        <time>2024-08-14T09:32:46Z</time>
      </trkpt>
      <trkpt lat="44.60682" lon="2.57103">
        <ele>652.9</ele>
        <time>2024-08-14T09:32:47Z</time>
      </trkpt>
      <trkpt lat="44.6069" lon="2.57099">
        <ele>652.2</ele>
        <time>2024-08-14T09:32:48Z</time>
      </trkpt>
      <trkpt lat="44.607" lon="2.57098">
        <ele>651.4</ele>
        <time>2024-08-14T09:32:49Z</time>
      </trkpt>
      <trkpt lat="44.6071" lon="2.57097">
        <ele>650.8</ele>
        <time>2024-08-14T09:32:50Z</time>
      </trkpt>
      <trkpt lat="44.6072" lon="2.57098">
        <ele>650.6</ele>
        <time>2024-08-14T09:32:51Z</time>
      </trkpt>
      <trkpt lat="44.60729" lon="2.57099">
        <ele>650.6</ele>
        <time>2024-08-14T09:32:52Z</time>
      </trkpt>
      <trkpt lat="44.60738" lon="2.57101">
        <ele>650.7</ele>
        <time>2024-08-14T09:32:53Z</time>
      </trkpt>
      <trkpt lat="44.60746" lon="2.57101">
        <ele>650.8</ele>
        <time>2024-08-14T09:32:54Z</time>
      </trkpt>
      <trkpt lat="44.60761" lon="2.57101">
        <ele>651.2</ele>
        <time>2024-08-14T09:32:56Z</time>
      </trkpt>
      <trkpt lat="44.60775" lon="2.57099">
        <ele>651.5</ele>
        <time>2024-08-14T09:32:58Z</time>
      </trkpt>
      <trkpt lat="44.60787" lon="2.57088">
        <ele>651.9</ele>
        <time>2024-08-14T09:33:00Z</time>
      </trkpt>
      <trkpt lat="44.60791" lon="2.57082">
        <ele>652</ele>
        <time>2024-08-14T09:33:01Z</time>
      </trkpt>
      <trkpt lat="44.60795" lon="2.57076">
        <ele>652.2</ele>
        <time>2024-08-14T09:33:02Z</time>
      </trkpt>
      <trkpt lat="44.60803" lon="2.57064">
        <ele>652.6</ele>
        <time>2024-08-14T09:33:04Z</time>
      </trkpt>
      <trkpt lat="44.6081" lon="2.57054">
        <ele>653</ele>
        <time>2024-08-14T09:33:06Z</time>
      </trkpt>
      <trkpt lat="44.60813" lon="2.57049">
        <ele>653.2</ele>
        <time>2024-08-14T09:33:07Z</time>
      </trkpt>
      <trkpt lat="44.60817" lon="2.57044">
        <ele>653.4</ele>
        <time>2024-08-14T09:33:08Z</time>
      </trkpt>
      <trkpt lat="44.60822" lon="2.57034">
        <ele>653.8</ele>
        <time>2024-08-14T09:33:10Z</time>
      </trkpt>
      <trkpt lat="44.60826" lon="2.57025">
        <ele>654.1</ele>
        <time>2024-08-14T09:33:12Z</time>
      </trkpt>
      <trkpt lat="44.60828" lon="2.57016">
        <ele>654.4</ele>
        <time>2024-08-14T09:33:14Z</time>
      </trkpt>
      <trkpt lat="44.60831" lon="2.5701">
        <ele>654.6</ele>
        <time>2024-08-14T09:33:16Z</time>
      </trkpt>
      <trkpt lat="44.60832" lon="2.57006">
        <ele>654.6</ele>
        <time>2024-08-14T09:33:17Z</time>
      </trkpt>
      <trkpt lat="44.60833" lon="2.57003">
        <ele>654.6</ele>
        <time>2024-08-14T09:33:18Z</time>
      </trkpt>
      <trkpt lat="44.60835" lon="2.56994">
        <ele>654.4</ele>
        <time>2024-08-14T09:33:20Z</time>
      </trkpt>
      <trkpt lat="44.60843" lon="2.56981">
        <ele>653.6</ele>
        <time>2024-08-14T09:33:22Z</time>
      </trkpt>
      <trkpt lat="44.60851" lon="2.56975">
        <ele>653</ele>
        <time>2024-08-14T09:33:23Z</time>
      </trkpt>
      <trkpt lat="44.60861" lon="2.56967">
        <ele>652.2</ele>
        <time>2024-08-14T09:33:24Z</time>
      </trkpt>
      <trkpt lat="44.60873" lon="2.56959">
        <ele>651.7</ele>
        <time>2024-08-14T09:33:25Z</time>
      </trkpt>
      <trkpt lat="44.60881" lon="2.56952">
        <ele>651.4</ele>
        <time>2024-08-14T09:33:26Z</time>
      </trkpt>
      <trkpt lat="44.60889" lon="2.56947">
        <ele>651.2</ele>
        <time>2024-08-14T09:33:27Z</time>
      </trkpt>
      <trkpt lat="44.60896" lon="2.56943">
        <ele>651</ele>
        <time>2024-08-14T09:33:28Z</time>
      </trkpt>
      <trkpt lat="44.6091" lon="2.56936">
        <ele>650.4</ele>
        <time>2024-08-14T09:33:30Z</time>
      </trkpt>
      <trkpt lat="44.60923" lon="2.56927">
        <ele>650</ele>
        <time>2024-08-14T09:33:32Z</time>
      </trkpt>
      <trkpt lat="44.60933" lon="2.56916">
        <ele>649.7</ele>
        <time>2024-08-14T09:33:34Z</time>
      </trkpt>
      <trkpt lat="44.60939" lon="2.5691">
        <ele>649.5</ele>
        <time>2024-08-14T09:33:35Z</time>
      </trkpt>
      <trkpt lat="44.60943" lon="2.56905">
        <ele>649.4</ele>
        <time>2024-08-14T09:33:36Z</time>
      </trkpt>
      <trkpt lat="44.6095" lon="2.56895">
        <ele>649.3</ele>
        <time>2024-08-14T09:33:38Z</time>
      </trkpt>
      <trkpt lat="44.60954" lon="2.5689">
        <ele>649.2</ele>
        <time>2024-08-14T09:33:39Z</time>
      </trkpt>
      <trkpt lat="44.60958" lon="2.56886">
        <ele>649.2</ele>
        <time>2024-08-14T09:33:40Z</time>
      </trkpt>
      <trkpt lat="44.60965" lon="2.56878">
        <ele>649.1</ele>
        <time>2024-08-14T09:33:42Z</time>
      </trkpt>
      <trkpt lat="44.6097" lon="2.56871">
        <ele>649.1</ele>
        <time>2024-08-14T09:33:44Z</time>
      </trkpt>
      <trkpt lat="44.60976" lon="2.56865">
        <ele>649</ele>
        <time>2024-08-14T09:33:46Z</time>
      </trkpt>
      <trkpt lat="44.60981" lon="2.5686">
        <ele>649</ele>
        <time>2024-08-14T09:33:48Z</time>
      </trkpt>
      <trkpt lat="44.60985" lon="2.56855">
        <ele>649</ele>
        <time>2024-08-14T09:33:50Z</time>
      </trkpt>
      <trkpt lat="44.60991" lon="2.56847">
        <ele>648.9</ele>
        <time>2024-08-14T09:33:52Z</time>
      </trkpt>
      <trkpt lat="44.60996" lon="2.56844">
        <ele>648.9</ele>
        <time>2024-08-14T09:33:53Z</time>
      </trkpt>
      <trkpt lat="44.61" lon="2.5684">
        <ele>648.8</ele>
        <time>2024-08-14T09:33:54Z</time>
      </trkpt>
      <trkpt lat="44.61004" lon="2.56835">
        <ele>648.7</ele>
        <time>2024-08-14T09:33:55Z</time>
      </trkpt>
      <trkpt lat="44.61009" lon="2.56828">
        <ele>648.5</ele>
        <time>2024-08-14T09:33:56Z</time>
      </trkpt>
      <trkpt lat="44.61013" lon="2.56821">
        <ele>648.2</ele>
        <time>2024-08-14T09:33:57Z</time>
      </trkpt>
      <trkpt lat="44.61016" lon="2.56814">
        <ele>648</ele>
        <time>2024-08-14T09:33:58Z</time>
      </trkpt>
      <trkpt lat="44.61019" lon="2.56807">
        <ele>647.7</ele>
        <time>2024-08-14T09:33:59Z</time>
      </trkpt>
      <trkpt lat="44.61022" lon="2.56799">
        <ele>647.4</ele>
        <time>2024-08-14T09:34:00Z</time>
      </trkpt>
      <trkpt lat="44.61024" lon="2.56791">
        <ele>647</ele>
        <time>2024-08-14T09:34:01Z</time>
      </trkpt>
      <trkpt lat="44.61023" lon="2.56782">
        <ele>646.5</ele>
        <time>2024-08-14T09:34:02Z</time>
      </trkpt>
      <trkpt lat="44.61022" lon="2.56762">
        <ele>645.1</ele>
        <time>2024-08-14T09:34:04Z</time>
      </trkpt>
      <trkpt lat="44.61025" lon="2.56754">
        <ele>644.6</ele>
        <time>2024-08-14T09:34:05Z</time>
      </trkpt>
      <trkpt lat="44.61028" lon="2.56749">
        <ele>644.1</ele>
        <time>2024-08-14T09:34:06Z</time>
      </trkpt>
      <trkpt lat="44.61038" lon="2.56746">
        <ele>643.1</ele>
        <time>2024-08-14T09:34:08Z</time>
      </trkpt>
      <trkpt lat="44.61046" lon="2.56745">
        <ele>642.2</ele>
        <time>2024-08-14T09:34:10Z</time>
      </trkpt>
      <trkpt lat="44.61058" lon="2.56747">
        <ele>640.5</ele>
        <time>2024-08-14T09:34:12Z</time>
      </trkpt>
      <trkpt lat="44.61077" lon="2.56752">
        <ele>638.7</ele>
        <time>2024-08-14T09:34:14Z</time>
      </trkpt>
      <trkpt lat="44.61085" lon="2.56753">
        <ele>637.9</ele>
        <time>2024-08-14T09:34:15Z</time>
      </trkpt>
      <trkpt lat="44.61092" lon="2.56753">
        <ele>637.2</ele>
        <time>2024-08-14T09:34:16Z</time>
      </trkpt>
      <trkpt lat="44.611" lon="2.56752">
        <ele>636.5</ele>
        <time>2024-08-14T09:34:17Z</time>
      </trkpt>
      <trkpt lat="44.61107" lon="2.5675">
        <ele>636</ele>
        <time>2024-08-14T09:34:18Z</time>
      </trkpt>
      <trkpt lat="44.61114" lon="2.56746">
        <ele>635.5</ele>
        <time>2024-08-14T09:34:19Z</time>
      </trkpt>
      <trkpt lat="44.6112" lon="2.56741">
        <ele>635</ele>
        <time>2024-08-14T09:34:20Z</time>
      </trkpt>
      <trkpt lat="44.61131" lon="2.5673">
        <ele>634.1</ele>
        <time>2024-08-14T09:34:22Z</time>
      </trkpt>
      <trkpt lat="44.6114" lon="2.5672">
        <ele>633.4</ele>
        <time>2024-08-14T09:34:24Z</time>
      </trkpt>
      <trkpt lat="44.61149" lon="2.5671">
        <ele>632.8</ele>
        <time>2024-08-14T09:34:26Z</time>
      </trkpt>
      <trkpt lat="44.61159" lon="2.56697">
        <ele>632.1</ele>
        <time>2024-08-14T09:34:28Z</time>
      </trkpt>
      <trkpt lat="44.61163" lon="2.56691">
        <ele>631.8</ele>
        <time>2024-08-14T09:34:29Z</time>
      </trkpt>
      <trkpt lat="44.61165" lon="2.56684">
        <ele>631.6</ele>
        <time>2024-08-14T09:34:30Z</time>
      </trkpt>
      <trkpt lat="44.61173" lon="2.56669">
        <ele>631.2</ele>
        <time>2024-08-14T09:34:32Z</time>
      </trkpt>
      <trkpt lat="44.61176" lon="2.56661">
        <ele>631</ele>
        <time>2024-08-14T09:34:33Z</time>
      </trkpt>
      <trkpt lat="44.61178" lon="2.56654">
        <ele>630.8</ele>
        <time>2024-08-14T09:34:34Z</time>
      </trkpt>
      <trkpt lat="44.61183" lon="2.56647">
        <ele>630.6</ele>
        <time>2024-08-14T09:34:35Z</time>
      </trkpt>
      <trkpt lat="44.61189" lon="2.56641">
        <ele>630.4</ele>
        <time>2024-08-14T09:34:36Z</time>
      </trkpt>
      <trkpt lat="44.61195" lon="2.56637">
        <ele>630.1</ele>
        <time>2024-08-14T09:34:37Z</time>
      </trkpt>
      <trkpt lat="44.61201" lon="2.56633">
        <ele>629.8</ele>
        <time>2024-08-14T09:34:38Z</time>
      </trkpt>
      <trkpt lat="44.61212" lon="2.56624">
        <ele>628.8</ele>
        <time>2024-08-14T09:34:40Z</time>
      </trkpt>
      <trkpt lat="44.61218" lon="2.56618">
        <ele>628</ele>
        <time>2024-08-14T09:34:41Z</time>
      </trkpt>
      <trkpt lat="44.61225" lon="2.56612">
        <ele>627.1</ele>
        <time>2024-08-14T09:34:42Z</time>
      </trkpt>
      <trkpt lat="44.61232" lon="2.56605">
        <ele>626.3</ele>
        <time>2024-08-14T09:34:43Z</time>
      </trkpt>
      <trkpt lat="44.61237" lon="2.56597">
        <ele>625.7</ele>
        <time>2024-08-14T09:34:44Z</time>
      </trkpt>
      <trkpt lat="44.61242" lon="2.56589">
        <ele>625.3</ele>
        <time>2024-08-14T09:34:45Z</time>
      </trkpt>
      <trkpt lat="44.61246" lon="2.56583">
        <ele>625.1</ele>
        <time>2024-08-14T09:34:46Z</time>
      </trkpt>
      <trkpt lat="44.61249" lon="2.56576">
        <ele>624.9</ele>
        <time>2024-08-14T09:34:47Z</time>
      </trkpt>
      <trkpt lat="44.61253" lon="2.5657">
        <ele>624.8</ele>
        <time>2024-08-14T09:34:48Z</time>
      </trkpt>
      <trkpt lat="44.61261" lon="2.5656">
        <ele>624.5</ele>
        <time>2024-08-14T09:34:50Z</time>
      </trkpt>
      <trkpt lat="44.61271" lon="2.56552">
        <ele>624.3</ele>
        <time>2024-08-14T09:34:52Z</time>
      </trkpt>
      <trkpt lat="44.61275" lon="2.56549">
        <ele>624.2</ele>
        <time>2024-08-14T09:34:54Z</time>
      </trkpt>
      <trkpt lat="44.61278" lon="2.56547">
        <ele>624.1</ele>
        <time>2024-08-14T09:34:55Z</time>
      </trkpt>
      <trkpt lat="44.61282" lon="2.56543">
        <ele>623.9</ele>
        <time>2024-08-14T09:34:56Z</time>
      </trkpt>
      <trkpt lat="44.61293" lon="2.56534">
        <ele>623.3</ele>
        <time>2024-08-14T09:34:58Z</time>
      </trkpt>
      <trkpt lat="44.61299" lon="2.56529">
        <ele>622.9</ele>
        <time>2024-08-14T09:34:59Z</time>
      </trkpt>
      <trkpt lat="44.61305" lon="2.56525">
        <ele>622.6</ele>
        <time>2024-08-14T09:35:00Z</time>
      </trkpt>
      <trkpt lat="44.61318" lon="2.56517">
        <ele>621.8</ele>
        <time>2024-08-14T09:35:02Z</time>
      </trkpt>
      <trkpt lat="44.6133" lon="2.5651">
        <ele>621</ele>
        <time>2024-08-14T09:35:04Z</time>
      </trkpt>
      <trkpt lat="44.61337" lon="2.56506">
        <ele>620.4</ele>
        <time>2024-08-14T09:35:05Z</time>
      </trkpt>
      <trkpt lat="44.61342" lon="2.56501">
        <ele>619.9</ele>
        <time>2024-08-14T09:35:06Z</time>
      </trkpt>
      <trkpt lat="44.61349" lon="2.56493">
        <ele>619.1</ele>
        <time>2024-08-14T09:35:08Z</time>
      </trkpt>
      <trkpt lat="44.61354" lon="2.56487">
        <ele>618.5</ele>
        <time>2024-08-14T09:35:10Z</time>
      </trkpt>
      <trkpt lat="44.61357" lon="2.56484">
        <ele>618.2</ele>
        <time>2024-08-14T09:35:11Z</time>
      </trkpt>
      <trkpt lat="44.61358" lon="2.56481">
        <ele>618</ele>
        <time>2024-08-14T09:35:12Z</time>
      </trkpt>
      <trkpt lat="44.61362" lon="2.56476">
        <ele>617.5</ele>
        <time>2024-08-14T09:35:14Z</time>
      </trkpt>
      <trkpt lat="44.61366" lon="2.5647">
        <ele>617.1</ele>
        <time>2024-08-14T09:35:16Z</time>
      </trkpt>
      <trkpt lat="44.61369" lon="2.56467">
        <ele>616.8</ele>
        <time>2024-08-14T09:35:17Z</time>
      </trkpt>
      <trkpt lat="44.61371" lon="2.56464">
        <ele>616.6</ele>
        <time>2024-08-14T09:35:18Z</time>
      </trkpt>
      <trkpt lat="44.61377" lon="2.56457">
        <ele>616</ele>
        <time>2024-08-14T09:35:20Z</time>
      </trkpt>
      <trkpt lat="44.61385" lon="2.56451">
        <ele>615.4</ele>
        <time>2024-08-14T09:35:22Z</time>
      </trkpt>
      <trkpt lat="44.61391" lon="2.56445">
        <ele>614.8</ele>
        <time>2024-08-14T09:35:24Z</time>
      </trkpt>
      <trkpt lat="44.614" lon="2.56439">
        <ele>614.2</ele>
        <time>2024-08-14T09:35:26Z</time>
      </trkpt>
      <trkpt lat="44.61408" lon="2.56433">
        <ele>613.6</ele>
        <time>2024-08-14T09:35:28Z</time>
      </trkpt>
      <trkpt lat="44.61412" lon="2.5643">
        <ele>613.4</ele>
        <time>2024-08-14T09:35:29Z</time>
      </trkpt>
      <trkpt lat="44.61415" lon="2.56429">
        <ele>613.2</ele>
        <time>2024-08-14T09:35:30Z</time>
      </trkpt>
      <trkpt lat="44.61419" lon="2.56428">
        <ele>613.1</ele>
        <time>2024-08-14T09:35:31Z</time>
      </trkpt>
      <trkpt lat="44.61422" lon="2.56429">
        <ele>612.9</ele>
        <time>2024-08-14T09:35:32Z</time>
      </trkpt>
      <trkpt lat="44.61426" lon="2.5643">
        <ele>612.7</ele>
        <time>2024-08-14T09:35:33Z</time>
      </trkpt>
      <trkpt lat="44.61429" lon="2.56432">
        <ele>612.6</ele>
        <time>2024-08-14T09:35:34Z</time>
      </trkpt>
      <trkpt lat="44.61432" lon="2.56433">
        <ele>612.4</ele>
        <time>2024-08-14T09:35:35Z</time>
      </trkpt>
      <trkpt lat="44.61436" lon="2.56433">
        <ele>612.2</ele>
        <time>2024-08-14T09:35:36Z</time>
      </trkpt>
      <trkpt lat="44.61442" lon="2.56435">
        <ele>611.8</ele>
        <time>2024-08-14T09:35:38Z</time>
      </trkpt>
      <trkpt lat="44.61447" lon="2.56436">
        <ele>611.7</ele>
        <time>2024-08-14T09:35:40Z</time>
      </trkpt>
      <trkpt lat="44.61448" lon="2.56436">
        <ele>611.7</ele>
        <time>2024-08-14T09:35:41Z</time>
      </trkpt>
      <trkpt lat="44.61448" lon="2.56436">
        <ele>611.7</ele>
        <time>2024-08-14T09:35:42Z</time>
      </trkpt>
      <trkpt lat="44.61458" lon="2.56438">
        <ele>611.7</ele>
        <time>2024-08-14T09:38:53Z</time>
      </trkpt>
      <trkpt lat="44.6146" lon="2.56439">
        <ele>611.7</ele>
        <time>2024-08-14T09:38:54Z</time>
      </trkpt>
      <trkpt lat="44.61464" lon="2.5644">
        <ele>611.6</ele>
        <time>2024-08-14T09:38:56Z</time>
      </trkpt>
      <trkpt lat="44.61468" lon="2.56441">
        <ele>611.5</ele>
        <time>2024-08-14T09:38:58Z</time>
      </trkpt>
      <trkpt lat="44.61474" lon="2.56442">
        <ele>611.4</ele>
        <time>2024-08-14T09:39:00Z</time>
      </trkpt>
      <trkpt lat="44.6148" lon="2.56443">
        <ele>611.2</ele>
        <time>2024-08-14T09:39:02Z</time>
      </trkpt>
      <trkpt lat="44.61485" lon="2.56444">
        <ele>611</ele>
        <time>2024-08-14T09:39:04Z</time>
      </trkpt>
      <trkpt lat="44.61491" lon="2.56447">
        <ele>610.9</ele>
        <time>2024-08-14T09:39:06Z</time>
      </trkpt>
      <trkpt lat="44.61496" lon="2.5645">
        <ele>610.7</ele>
        <time>2024-08-14T09:39:08Z</time>
      </trkpt>
      <trkpt lat="44.61502" lon="2.56453">
        <ele>610.5</ele>
        <time>2024-08-14T09:39:10Z</time>
      </trkpt>
      <trkpt lat="44.61507" lon="2.56457">
        <ele>610.3</ele>
        <time>2024-08-14T09:39:12Z</time>
      </trkpt>
      <trkpt lat="44.6151" lon="2.56459">
        <ele>610.2</ele>
        <time>2024-08-14T09:39:13Z</time>
      </trkpt>
      <trkpt lat="44.61513" lon="2.56462">
        <ele>610</ele>
        <time>2024-08-14T09:39:14Z</time>
      </trkpt>
      <trkpt lat="44.61518" lon="2.56467">
        <ele>609.8</ele>
        <time>2024-08-14T09:39:16Z</time>
      </trkpt>
      <trkpt lat="44.61523" lon="2.56473">
        <ele>609.6</ele>
        <time>2024-08-14T09:39:18Z</time>
      </trkpt>
      <trkpt lat="44.61525" lon="2.56477">
        <ele>609.5</ele>
        <time>2024-08-14T09:39:19Z</time>
      </trkpt>
      <trkpt lat="44.61528" lon="2.5648">
        <ele>609.4</ele>
        <time>2024-08-14T09:39:20Z</time>
      </trkpt>
      <trkpt lat="44.61533" lon="2.56486">
        <ele>609.2</ele>
        <time>2024-08-14T09:39:22Z</time>
      </trkpt>
      <trkpt lat="44.61538" lon="2.56494">
        <ele>608.9</ele>
        <time>2024-08-14T09:39:24Z</time>
      </trkpt>
      <trkpt lat="44.61542" lon="2.56501">
        <ele>608.6</ele>
        <time>2024-08-14T09:39:26Z</time>
      </trkpt>
      <trkpt lat="44.61547" lon="2.56509">
        <ele>608.4</ele>
        <time>2024-08-14T09:39:28Z</time>
      </trkpt>
      <trkpt lat="44.61552" lon="2.56517">
        <ele>608.1</ele>
        <time>2024-08-14T09:39:30Z</time>
      </trkpt>
      <trkpt lat="44.61557" lon="2.56524">
        <ele>607.9</ele>
        <time>2024-08-14T09:39:32Z</time>
      </trkpt>
      <trkpt lat="44.61559" lon="2.56528">
        <ele>607.7</ele>
        <time>2024-08-14T09:39:33Z</time>
      </trkpt>
      <trkpt lat="44.61562" lon="2.56531">
        <ele>607.6</ele>
        <time>2024-08-14T09:39:34Z</time>
      </trkpt>
      <trkpt lat="44.61568" lon="2.56538">
        <ele>607.1</ele>
        <time>2024-08-14T09:39:36Z</time>
      </trkpt>
      <trkpt lat="44.61576" lon="2.56545">
        <ele>606.5</ele>
        <time>2024-08-14T09:39:38Z</time>
      </trkpt>
      <trkpt lat="44.6158" lon="2.5655">
        <ele>606.1</ele>
        <time>2024-08-14T09:39:39Z</time>
      </trkpt>
      <trkpt lat="44.61584" lon="2.56555">
        <ele>605.5</ele>
        <time>2024-08-14T09:39:40Z</time>
      </trkpt>
      <trkpt lat="44.61594" lon="2.56566">
        <ele>604.3</ele>
        <time>2024-08-14T09:39:42Z</time>
      </trkpt>
      <trkpt lat="44.61605" lon="2.56577">
        <ele>603.1</ele>
        <time>2024-08-14T09:39:44Z</time>
      </trkpt>
      <trkpt lat="44.61615" lon="2.56587">
        <ele>602.3</ele>
        <time>2024-08-14T09:39:46Z</time>
      </trkpt>
      <trkpt lat="44.61623" lon="2.56594">
        <ele>601.8</ele>
        <time>2024-08-14T09:39:48Z</time>
      </trkpt>
      <trkpt lat="44.61627" lon="2.56599">
        <ele>601.6</ele>
        <time>2024-08-14T09:39:50Z</time>
      </trkpt>
      <trkpt lat="44.61628" lon="2.56601">
        <ele>601.5</ele>
        <time>2024-08-14T09:39:51Z</time>
      </trkpt>
      <trkpt lat="44.6163" lon="2.56602">
        <ele>601.4</ele>
        <time>2024-08-14T09:39:52Z</time>
      </trkpt>
      <trkpt lat="44.61634" lon="2.56606">
        <ele>601.1</ele>
        <time>2024-08-14T09:39:54Z</time>
      </trkpt>
      <trkpt lat="44.61639" lon="2.56612">
        <ele>600.7</ele>
        <time>2024-08-14T09:39:56Z</time>
      </trkpt>
      <trkpt lat="44.61644" lon="2.56618">
        <ele>600.3</ele>
        <time>2024-08-14T09:39:58Z</time>
      </trkpt>
      <trkpt lat="44.6165" lon="2.56623">
        <ele>599.8</ele>
        <time>2024-08-14T09:40:00Z</time>
      </trkpt>
      <trkpt lat="44.61654" lon="2.56625">
        <ele>599.4</ele>
        <time>2024-08-14T09:40:01Z</time>
      </trkpt>
      <trkpt lat="44.6166" lon="2.56625">
        <ele>598.9</ele>
        <time>2024-08-14T09:40:02Z</time>
      </trkpt>
      <trkpt lat="44.61666" lon="2.56624">
        <ele>598.4</ele>
        <time>2024-08-14T09:40:03Z</time>
      </trkpt>
      <trkpt lat="44.61673" lon="2.56624">
        <ele>597.8</ele>
        <time>2024-08-14T09:40:04Z</time>
      </trkpt>
      <trkpt lat="44.6168" lon="2.56625">
        <ele>597.2</ele>
        <time>2024-08-14T09:40:05Z</time>
      </trkpt>
      <trkpt lat="44.61687" lon="2.56628">
        <ele>596.5</ele>
        <time>2024-08-14T09:40:06Z</time>
      </trkpt>
      <trkpt lat="44.61695" lon="2.56632">
        <ele>595.8</ele>
        <time>2024-08-14T09:40:07Z</time>
      </trkpt>
      <trkpt lat="44.61702" lon="2.56637">
        <ele>595</ele>
        <time>2024-08-14T09:40:08Z</time>
      </trkpt>
      <trkpt lat="44.61708" lon="2.56645">
        <ele>594.3</ele>
        <time>2024-08-14T09:40:09Z</time>
      </trkpt>
      <trkpt lat="44.61712" lon="2.56654">
        <ele>593.6</ele>
        <time>2024-08-14T09:40:10Z</time>
      </trkpt>
      <trkpt lat="44.61718" lon="2.56674">
        <ele>592.6</ele>
        <time>2024-08-14T09:40:12Z</time>
      </trkpt>
      <trkpt lat="44.61727" lon="2.56692">
        <ele>591.8</ele>
        <time>2024-08-14T09:40:14Z</time>
      </trkpt>
      <trkpt lat="44.61736" lon="2.56705">
        <ele>591.1</ele>
        <time>2024-08-14T09:40:16Z</time>
      </trkpt>
      <trkpt lat="44.61739" lon="2.5671">
        <ele>590.9</ele>
        <time>2024-08-14T09:40:17Z</time>
      </trkpt>
      <trkpt lat="44.61743" lon="2.56714">
        <ele>590.6</ele>
        <time>2024-08-14T09:40:18Z</time>
      </trkpt>
      <trkpt lat="44.61751" lon="2.56721">
        <ele>590.3</ele>
        <time>2024-08-14T09:40:20Z</time>
      </trkpt>
      <trkpt lat="44.61755" lon="2.56722">
        <ele>590.2</ele>
        <time>2024-08-14T09:40:21Z</time>
      </trkpt>
      <trkpt lat="44.6176" lon="2.56721">
        <ele>590.2</ele>
        <time>2024-08-14T09:40:22Z</time>
      </trkpt>
      <trkpt lat="44.6177" lon="2.56721">
        <ele>590.1</ele>
        <time>2024-08-14T09:40:24Z</time>
      </trkpt>
      <trkpt lat="44.61777" lon="2.56723">
        <ele>590.1</ele>
        <time>2024-08-14T09:40:26Z</time>
      </trkpt>
      <trkpt lat="44.61786" lon="2.5673">
        <ele>589.7</ele>
        <time>2024-08-14T09:40:28Z</time>
      </trkpt>
      <trkpt lat="44.61789" lon="2.56735">
        <ele>589.4</ele>
        <time>2024-08-14T09:40:29Z</time>
      </trkpt>
      <trkpt lat="44.61793" lon="2.56741">
        <ele>589</ele>
        <time>2024-08-14T09:40:30Z</time>
      </trkpt>
      <trkpt lat="44.61797" lon="2.56747">
        <ele>588.6</ele>
        <time>2024-08-14T09:40:31Z</time>
      </trkpt>
      <trkpt lat="44.61801" lon="2.56751">
        <ele>588.2</ele>
        <time>2024-08-14T09:40:32Z</time>
      </trkpt>
      <trkpt lat="44.61806" lon="2.56754">
        <ele>587.8</ele>
        <time>2024-08-14T09:40:33Z</time>
      </trkpt>
      <trkpt lat="44.61812" lon="2.56756">
        <ele>587.3</ele>
        <time>2024-08-14T09:40:34Z</time>
      </trkpt>
      <trkpt lat="44.61818" lon="2.56758">
        <ele>586.7</ele>
        <time>2024-08-14T09:40:35Z</time>
      </trkpt>
      <trkpt lat="44.61825" lon="2.56759">
        <ele>586.2</ele>
        <time>2024-08-14T09:40:36Z</time>
      </trkpt>
      <trkpt lat="44.61832" lon="2.5676">
        <ele>585.8</ele>
        <time>2024-08-14T09:40:37Z</time>
      </trkpt>
      <trkpt lat="44.6184" lon="2.5676">
        <ele>585.5</ele>
        <time>2024-08-14T09:40:38Z</time>
      </trkpt>
      <trkpt lat="44.61855" lon="2.56756">
        <ele>585.3</ele>
        <time>2024-08-14T09:40:40Z</time>
      </trkpt>
      <trkpt lat="44.61863" lon="2.56753">
        <ele>585.4</ele>
        <time>2024-08-14T09:40:41Z</time>
      </trkpt>
      <trkpt lat="44.6187" lon="2.56749">
        <ele>585.6</ele>
        <time>2024-08-14T09:40:42Z</time>
      </trkpt>
      <trkpt lat="44.61882" lon="2.56743">
        <ele>585.9</ele>
        <time>2024-08-14T09:40:44Z</time>
      </trkpt>
      <trkpt lat="44.6189" lon="2.56743">
        <ele>586.1</ele>
        <time>2024-08-14T09:40:46Z</time>
      </trkpt>
      <trkpt lat="44.61897" lon="2.56743">
        <ele>586.2</ele>
        <time>2024-08-14T09:40:48Z</time>
      </trkpt>
      <trkpt lat="44.61905" lon="2.56744">
        <ele>586.4</ele>
        <time>2024-08-14T09:40:50Z</time>
      </trkpt>
      <trkpt lat="44.61909" lon="2.56743">
        <ele>586.4</ele>
        <time>2024-08-14T09:40:51Z</time>
      </trkpt>
      <trkpt lat="44.61914" lon="2.56743">
        <ele>586.4</ele>
        <time>2024-08-14T09:40:52Z</time>
      </trkpt>
      <trkpt lat="44.61919" lon="2.56742">
        <ele>586.4</ele>
        <time>2024-08-14T09:40:53Z</time>
      </trkpt>
      <trkpt lat="44.61924" lon="2.56741">
        <ele>586.4</ele>
        <time>2024-08-14T09:40:54Z</time>
      </trkpt>
      <trkpt lat="44.61928" lon="2.5674">
        <ele>586.4</ele>
        <time>2024-08-14T09:40:55Z</time>
      </trkpt>
      <trkpt lat="44.61933" lon="2.56738">
        <ele>586.3</ele>
        <time>2024-08-14T09:40:56Z</time>
      </trkpt>
      <trkpt lat="44.61938" lon="2.56736">
        <ele>586.2</ele>
        <time>2024-08-14T09:40:57Z</time>
      </trkpt>
      <trkpt lat="44.61942" lon="2.56734">
        <ele>586.2</ele>
        <time>2024-08-14T09:40:58Z</time>
      </trkpt>
      <trkpt lat="44.61947" lon="2.5673">
        <ele>586.2</ele>
        <time>2024-08-14T09:41:00Z</time>
      </trkpt>
      <trkpt lat="44.61948" lon="2.56729">
        <ele>586.2</ele>
        <time>2024-08-14T09:41:01Z</time>
      </trkpt>
      <trkpt lat="44.6195" lon="2.56728">
        <ele>586.2</ele>
        <time>2024-08-14T09:41:02Z</time>
      </trkpt>
      <trkpt lat="44.61953" lon="2.56726">
        <ele>586.3</ele>
        <time>2024-08-14T09:41:04Z</time>
      </trkpt>
      <trkpt lat="44.61953" lon="2.56726">
        <ele>586.3</ele>
        <time>2024-08-14T09:41:05Z</time>
      </trkpt>
      <trkpt lat="44.61961" lon="2.56715">
        <ele>586.6</ele>
        <time>2024-08-14T09:42:10Z</time>
      </trkpt>
      <trkpt lat="44.61965" lon="2.56712">
        <ele>586.7</ele>
        <time>2024-08-14T09:42:12Z</time>
      </trkpt>
      <trkpt lat="44.61966" lon="2.56711">
        <ele>586.8</ele>
        <time>2024-08-14T09:42:14Z</time>
      </trkpt>
      <trkpt lat="44.61967" lon="2.5671">
        <ele>586.8</ele>
        <time>2024-08-14T09:42:15Z</time>
      </trkpt>
      <trkpt lat="44.61968" lon="2.56709">
        <ele>586.9</ele>
        <time>2024-08-14T09:42:16Z</time>
      </trkpt>
      <trkpt lat="44.6197" lon="2.56708">
        <ele>587</ele>
        <time>2024-08-14T09:42:17Z</time>
      </trkpt>
      <trkpt lat="44.61972" lon="2.56707">
        <ele>587.1</ele>
        <time>2024-08-14T09:42:18Z</time>
      </trkpt>
      <trkpt lat="44.61973" lon="2.56706">
        <ele>587.1</ele>
        <time>2024-08-14T09:42:20Z</time>
      </trkpt>
      <trkpt lat="44.61973" lon="2.56706">
        <ele>587.1</ele>
        <time>2024-08-14T09:42:22Z</time>
      </trkpt>
      <trkpt lat="44.61973" lon="2.56706">
        <ele>587.1</ele>
        <time>2024-08-14T09:42:23Z</time>
      </trkpt>
      <trkpt lat="44.61972" lon="2.56704">
        <ele>587.2</ele>
        <time>2024-08-14T09:42:27Z</time>
      </trkpt>
      <trkpt lat="44.61973" lon="2.56701">
        <ele>587.3</ele>
        <time>2024-08-14T09:42:28Z</time>
      </trkpt>
      <trkpt lat="44.61975" lon="2.56695">
        <ele>587.7</ele>
        <time>2024-08-14T09:42:30Z</time>
      </trkpt>
      <trkpt lat="44.61977" lon="2.5669">
        <ele>588</ele>
        <time>2024-08-14T09:42:32Z</time>
      </trkpt>
      <trkpt lat="44.61977" lon="2.56688">
        <ele>588.2</ele>
        <time>2024-08-14T09:42:33Z</time>
      </trkpt>
      <trkpt lat="44.61978" lon="2.56686">
        <ele>588.3</ele>
        <time>2024-08-14T09:42:34Z</time>
      </trkpt>
      <trkpt lat="44.61981" lon="2.56683">
        <ele>588.6</ele>
        <time>2024-08-14T09:42:36Z</time>
      </trkpt>
      <trkpt lat="44.61982" lon="2.56681">
        <ele>588.8</ele>
        <time>2024-08-14T09:42:37Z</time>
      </trkpt>
      <trkpt lat="44.61983" lon="2.56679">
        <ele>588.9</ele>
        <time>2024-08-14T09:42:38Z</time>
      </trkpt>
      <trkpt lat="44.61986" lon="2.56675">
        <ele>589.3</ele>
        <time>2024-08-14T09:42:40Z</time>
      </trkpt>
      <trkpt lat="44.61989" lon="2.56671">
        <ele>589.7</ele>
        <time>2024-08-14T09:42:42Z</time>
      </trkpt>
      <trkpt lat="44.61991" lon="2.56668">
        <ele>589.9</ele>
        <time>2024-08-14T09:42:43Z</time>
      </trkpt>
      <trkpt lat="44.61992" lon="2.56666">
        <ele>590.1</ele>
        <time>2024-08-14T09:42:44Z</time>
      </trkpt>
      <trkpt lat="44.61994" lon="2.56663">
        <ele>590.4</ele>
        <time>2024-08-14T09:42:46Z</time>
      </trkpt>
      <trkpt lat="44.61996" lon="2.5666">
        <ele>590.7</ele>
        <time>2024-08-14T09:42:48Z</time>
      </trkpt>
      <trkpt lat="44.61997" lon="2.56658">
        <ele>590.8</ele>
        <time>2024-08-14T09:42:49Z</time>
      </trkpt>
      <trkpt lat="44.61997" lon="2.56656">
        <ele>591</ele>
        <time>2024-08-14T09:42:50Z</time>
      </trkpt>
      <trkpt lat="44.61999" lon="2.56653">
        <ele>591.3</ele>
        <time>2024-08-14T09:42:52Z</time>
      </trkpt>
      <trkpt lat="44.62002" lon="2.56649">
        <ele>591.7</ele>
        <time>2024-08-14T09:42:54Z</time>
      </trkpt>
      <trkpt lat="44.62003" lon="2.56645">
        <ele>592.1</ele>
        <time>2024-08-14T09:42:56Z</time>
      </trkpt>
      <trkpt lat="44.62006" lon="2.56641">
        <ele>592.4</ele>
        <time>2024-08-14T09:42:58Z</time>
      </trkpt>
      <trkpt lat="44.62008" lon="2.56637">
        <ele>592.8</ele>
        <time>2024-08-14T09:43:00Z</time>
      </trkpt>
      <trkpt lat="44.6201" lon="2.56633">
        <ele>593.2</ele>
        <time>2024-08-14T09:43:02Z</time>
      </trkpt>
      <trkpt lat="44.62011" lon="2.56629">
        <ele>593.5</ele>
        <time>2024-08-14T09:43:04Z</time>
      </trkpt>
      <trkpt lat="44.62012" lon="2.56625">
        <ele>593.8</ele>
        <time>2024-08-14T09:43:06Z</time>
      </trkpt>
      <trkpt lat="44.62015" lon="2.56621">
        <ele>594.1</ele>
        <time>2024-08-14T09:43:08Z</time>
      </trkpt>
      <trkpt lat="44.62017" lon="2.56618">
        <ele>594.5</ele>
        <time>2024-08-14T09:43:10Z</time>
      </trkpt>
      <trkpt lat="44.62017" lon="2.56616">
        <ele>594.6</ele>
        <time>2024-08-14T09:43:11Z</time>
      </trkpt>
      <trkpt lat="44.62018" lon="2.56614">
        <ele>594.7</ele>
        <time>2024-08-14T09:43:12Z</time>
      </trkpt>
      <trkpt lat="44.6202" lon="2.56611">
        <ele>595</ele>
        <time>2024-08-14T09:43:14Z</time>
      </trkpt>
      <trkpt lat="44.62021" lon="2.56607">
        <ele>595.3</ele>
        <time>2024-08-14T09:43:16Z</time>
      </trkpt>
      <trkpt lat="44.62023" lon="2.56603">
        <ele>595.6</ele>
        <time>2024-08-14T09:43:18Z</time>
      </trkpt>
      <trkpt lat="44.62024" lon="2.56601">
        <ele>595.8</ele>
        <time>2024-08-14T09:43:19Z</time>
      </trkpt>
      <trkpt lat="44.62025" lon="2.56599">
        <ele>595.9</ele>
        <time>2024-08-14T09:43:20Z</time>
      </trkpt>
      <trkpt lat="44.62026" lon="2.56596">
        <ele>596.2</ele>
        <time>2024-08-14T09:43:22Z</time>
      </trkpt>
      <trkpt lat="44.62027" lon="2.56593">
        <ele>596.4</ele>
        <time>2024-08-14T09:43:24Z</time>
      </trkpt>
      <trkpt lat="44.62028" lon="2.56589">
        <ele>596.7</ele>
        <time>2024-08-14T09:43:26Z</time>
      </trkpt>
      <trkpt lat="44.62029" lon="2.56588">
        <ele>596.8</ele>
        <time>2024-08-14T09:43:27Z</time>
      </trkpt>
      <trkpt lat="44.6203" lon="2.56586">
        <ele>596.9</ele>
        <time>2024-08-14T09:43:28Z</time>
      </trkpt>
      <trkpt lat="44.62033" lon="2.56583">
        <ele>597.2</ele>
        <time>2024-08-14T09:43:30Z</time>
      </trkpt>
      <trkpt lat="44.62035" lon="2.56579">
        <ele>597.5</ele>
        <time>2024-08-14T09:43:32Z</time>
      </trkpt>
      <trkpt lat="44.62036" lon="2.56578">
        <ele>597.6</ele>
        <time>2024-08-14T09:43:33Z</time>
      </trkpt>
      <trkpt lat="44.62037" lon="2.56576">
        <ele>597.7</ele>
        <time>2024-08-14T09:43:34Z</time>
      </trkpt>
      <trkpt lat="44.62038" lon="2.56574">
        <ele>597.9</ele>
        <time>2024-08-14T09:43:35Z</time>
      </trkpt>
      <trkpt lat="44.62038" lon="2.56572">
        <ele>598</ele>
        <time>2024-08-14T09:43:36Z</time>
      </trkpt>
      <trkpt lat="44.6204" lon="2.56569">
        <ele>598.2</ele>
        <time>2024-08-14T09:43:38Z</time>
      </trkpt>
      <trkpt lat="44.62042" lon="2.56565">
        <ele>598.5</ele>
        <time>2024-08-14T09:43:40Z</time>
      </trkpt>
      <trkpt lat="44.62044" lon="2.56561">
        <ele>598.7</ele>
        <time>2024-08-14T09:43:42Z</time>
      </trkpt>
      <trkpt lat="44.62046" lon="2.56557">
        <ele>599</ele>
        <time>2024-08-14T09:43:44Z</time>
      </trkpt>
      <trkpt lat="44.62047" lon="2.56556">
        <ele>599.1</ele>
        <time>2024-08-14T09:43:45Z</time>
      </trkpt>
      <trkpt lat="44.62048" lon="2.56554">
        <ele>599.3</ele>
        <time>2024-08-14T09:43:46Z</time>
      </trkpt>
      <trkpt lat="44.6205" lon="2.5655">
        <ele>599.5</ele>
        <time>2024-08-14T09:43:48Z</time>
      </trkpt>
      <trkpt lat="44.62053" lon="2.56546">
        <ele>599.8</ele>
        <time>2024-08-14T09:43:50Z</time>
      </trkpt>
      <trkpt lat="44.62055" lon="2.56542">
        <ele>600.1</ele>
        <time>2024-08-14T09:43:52Z</time>
      </trkpt>
      <trkpt lat="44.62058" lon="2.56538">
        <ele>600.4</ele>
        <time>2024-08-14T09:43:54Z</time>
      </trkpt>
      <trkpt lat="44.6206" lon="2.56533">
        <ele>600.7</ele>
        <time>2024-08-14T09:43:56Z</time>
      </trkpt>
      <trkpt lat="44.62063" lon="2.56529">
        <ele>601</ele>
        <time>2024-08-14T09:43:58Z</time>
      </trkpt>
      <trkpt lat="44.62065" lon="2.56524">
        <ele>601.3</ele>
        <time>2024-08-14T09:44:00Z</time>
      </trkpt>
      <trkpt lat="44.62066" lon="2.56522">
        <ele>601.4</ele>
        <time>2024-08-14T09:44:01Z</time>
      </trkpt>
      <trkpt lat="44.62068" lon="2.5652">
        <ele>601.6</ele>
        <time>2024-08-14T09:44:02Z</time>
      </trkpt>
      <trkpt lat="44.6207" lon="2.56516">
        <ele>601.9</ele>
        <time>2024-08-14T09:44:04Z</time>
      </trkpt>
      <trkpt lat="44.62072" lon="2.56512">
        <ele>602.1</ele>
        <time>2024-08-14T09:44:06Z</time>
      </trkpt>
      <trkpt lat="44.62075" lon="2.56508">
        <ele>602.3</ele>
        <time>2024-08-14T09:44:08Z</time>
      </trkpt>
      <trkpt lat="44.62077" lon="2.56503">
        <ele>602.5</ele>
        <time>2024-08-14T09:44:10Z</time>
      </trkpt>
      <trkpt lat="44.62079" lon="2.56499">
        <ele>602.6</ele>
        <time>2024-08-14T09:44:12Z</time>
      </trkpt>
      <trkpt lat="44.62082" lon="2.56494">
        <ele>602.8</ele>
        <time>2024-08-14T09:44:14Z</time>
      </trkpt>
      <trkpt lat="44.62084" lon="2.5649">
        <ele>603</ele>
        <time>2024-08-14T09:44:16Z</time>
      </trkpt>
      <trkpt lat="44.62086" lon="2.56486">
        <ele>603.2</ele>
        <time>2024-08-14T09:44:18Z</time>
      </trkpt>
      <trkpt lat="44.62088" lon="2.56482">
        <ele>603.4</ele>
        <time>2024-08-14T09:44:20Z</time>
      </trkpt>
      <trkpt lat="44.62091" lon="2.56478">
        <ele>603.6</ele>
        <time>2024-08-14T09:44:22Z</time>
      </trkpt>
      <trkpt lat="44.62092" lon="2.56475">
        <ele>603.7</ele>
        <time>2024-08-14T09:44:23Z</time>
      </trkpt>
      <trkpt lat="44.62093" lon="2.56474">
        <ele>603.8</ele>
        <time>2024-08-14T09:44:24Z</time>
      </trkpt>
      <trkpt lat="44.62095" lon="2.56469">
        <ele>604</ele>
        <time>2024-08-14T09:44:26Z</time>
      </trkpt>
      <trkpt lat="44.62097" lon="2.56465">
        <ele>604.3</ele>
        <time>2024-08-14T09:44:28Z</time>
      </trkpt>
      <trkpt lat="44.62099" lon="2.56461">
        <ele>604.5</ele>
        <time>2024-08-14T09:44:30Z</time>
      </trkpt>
      <trkpt lat="44.62101" lon="2.56457">
        <ele>604.8</ele>
        <time>2024-08-14T09:44:32Z</time>
      </trkpt>
      <trkpt lat="44.62103" lon="2.56453">
        <ele>605</ele>
        <time>2024-08-14T09:44:34Z</time>
      </trkpt>
      <trkpt lat="44.62105" lon="2.56448">
        <ele>605.3</ele>
        <time>2024-08-14T09:44:36Z</time>
      </trkpt>
      <trkpt lat="44.62107" lon="2.56444">
        <ele>605.5</ele>
        <time>2024-08-14T09:44:38Z</time>
      </trkpt>
      <trkpt lat="44.62109" lon="2.5644">
        <ele>605.8</ele>
        <time>2024-08-14T09:44:40Z</time>
      </trkpt>
      <trkpt lat="44.62111" lon="2.56435">
        <ele>606</ele>
        <time>2024-08-14T09:44:42Z</time>
      </trkpt>
      <trkpt lat="44.62113" lon="2.5643">
        <ele>606.3</ele>
        <time>2024-08-14T09:44:44Z</time>
      </trkpt>
      <trkpt lat="44.62115" lon="2.56425">
        <ele>606.6</ele>
        <time>2024-08-14T09:44:46Z</time>
      </trkpt>
      <trkpt lat="44.62117" lon="2.56419">
        <ele>606.8</ele>
        <time>2024-08-14T09:44:48Z</time>
      </trkpt>
      <trkpt lat="44.62118" lon="2.56413">
        <ele>607.1</ele>
        <time>2024-08-14T09:44:50Z</time>
      </trkpt>
      <trkpt lat="44.62119" lon="2.56407">
        <ele>607.3</ele>
        <time>2024-08-14T09:44:52Z</time>
      </trkpt>
      <trkpt lat="44.62119" lon="2.56401">
        <ele>607.6</ele>
        <time>2024-08-14T09:44:54Z</time>
      </trkpt>
      <trkpt lat="44.62119" lon="2.56394">
        <ele>607.7</ele>
        <time>2024-08-14T09:44:56Z</time>
      </trkpt>
      <trkpt lat="44.62118" lon="2.56386">
        <ele>607.8</ele>
        <time>2024-08-14T09:44:58Z</time>
      </trkpt>
      <trkpt lat="44.62118" lon="2.56378">
        <ele>607.6</ele>
        <time>2024-08-14T09:45:00Z</time>
      </trkpt>
      <trkpt lat="44.62117" lon="2.56369">
        <ele>607</ele>
        <time>2024-08-14T09:45:02Z</time>
      </trkpt>
      <trkpt lat="44.62116" lon="2.56364">
        <ele>606.7</ele>
        <time>2024-08-14T09:45:03Z</time>
      </trkpt>
      <trkpt lat="44.62115" lon="2.56359">
        <ele>606.3</ele>
        <time>2024-08-14T09:45:04Z</time>
      </trkpt>
      <trkpt lat="44.62114" lon="2.56347">
        <ele>605.5</ele>
        <time>2024-08-14T09:45:06Z</time>
      </trkpt>
      <trkpt lat="44.62112" lon="2.56334">
        <ele>604.6</ele>
        <time>2024-08-14T09:45:08Z</time>
      </trkpt>
      <trkpt lat="44.6211" lon="2.5632">
        <ele>603.4</ele>
        <time>2024-08-14T09:45:10Z</time>
      </trkpt>
      <trkpt lat="44.62108" lon="2.56305">
        <ele>602.2</ele>
        <time>2024-08-14T09:45:12Z</time>
      </trkpt>
      <trkpt lat="44.62106" lon="2.56289">
        <ele>600.9</ele>
        <time>2024-08-14T09:45:14Z</time>
      </trkpt>
      <trkpt lat="44.62105" lon="2.56282">
        <ele>600.3</ele>
        <time>2024-08-14T09:45:15Z</time>
      </trkpt>
      <trkpt lat="44.62105" lon="2.56274">
        <ele>599.7</ele>
        <time>2024-08-14T09:45:16Z</time>
      </trkpt>
      <trkpt lat="44.62105" lon="2.56259">
        <ele>598.7</ele>
        <time>2024-08-14T09:45:18Z</time>
      </trkpt>
      <trkpt lat="44.62105" lon="2.56245">
        <ele>597.7</ele>
        <time>2024-08-14T09:45:20Z</time>
      </trkpt>
      <trkpt lat="44.62105" lon="2.56238">
        <ele>597.2</ele>
        <time>2024-08-14T09:45:21Z</time>
      </trkpt>
      <trkpt lat="44.62105" lon="2.5623">
        <ele>596.6</ele>
        <time>2024-08-14T09:45:22Z</time>
      </trkpt>
      <trkpt lat="44.62106" lon="2.56215">
        <ele>595.6</ele>
        <time>2024-08-14T09:45:24Z</time>
      </trkpt>
      <trkpt lat="44.62106" lon="2.56207">
        <ele>595</ele>
        <time>2024-08-14T09:45:25Z</time>
      </trkpt>
      <trkpt lat="44.62105" lon="2.56198">
        <ele>594.4</ele>
        <time>2024-08-14T09:45:26Z</time>
      </trkpt>
      <trkpt lat="44.62104" lon="2.56183">
        <ele>593.1</ele>
        <time>2024-08-14T09:45:28Z</time>
      </trkpt>
      <trkpt lat="44.62102" lon="2.56169">
        <ele>592</ele>
        <time>2024-08-14T09:45:30Z</time>
      </trkpt>
      <trkpt lat="44.62098" lon="2.56156">
        <ele>590.8</ele>
        <time>2024-08-14T09:45:32Z</time>
      </trkpt>
      <trkpt lat="44.62092" lon="2.56146">
        <ele>589.8</ele>
        <time>2024-08-14T09:45:34Z</time>
      </trkpt>
      <trkpt lat="44.62084" lon="2.56139">
        <ele>588.7</ele>
        <time>2024-08-14T09:45:36Z</time>
      </trkpt>
      <trkpt lat="44.62081" lon="2.56132">
        <ele>588.1</ele>
        <time>2024-08-14T09:45:38Z</time>
      </trkpt>
      <trkpt lat="44.62079" lon="2.56124">
        <ele>587.5</ele>
        <time>2024-08-14T09:45:40Z</time>
      </trkpt>
      <trkpt lat="44.62077" lon="2.56119">
        <ele>587.1</ele>
        <time>2024-08-14T09:45:41Z</time>
      </trkpt>
      <trkpt lat="44.62074" lon="2.56115">
        <ele>586.6</ele>
        <time>2024-08-14T09:45:42Z</time>
      </trkpt>
      <trkpt lat="44.6207" lon="2.56112">
        <ele>586.1</ele>
        <time>2024-08-14T09:45:43Z</time>
      </trkpt>
      <trkpt lat="44.62067" lon="2.56109">
        <ele>585.7</ele>
        <time>2024-08-14T09:45:44Z</time>
      </trkpt>
      <trkpt lat="44.6206" lon="2.56102">
        <ele>584.7</ele>
        <time>2024-08-14T09:45:46Z</time>
      </trkpt>
      <trkpt lat="44.62053" lon="2.56094">
        <ele>583.8</ele>
        <time>2024-08-14T09:45:48Z</time>
      </trkpt>
      <trkpt lat="44.62049" lon="2.5609">
        <ele>583.4</ele>
        <time>2024-08-14T09:45:49Z</time>
      </trkpt>
      <trkpt lat="44.62045" lon="2.56085">
        <ele>582.9</ele>
        <time>2024-08-14T09:45:50Z</time>
      </trkpt>
      <trkpt lat="44.62037" lon="2.56076">
        <ele>582</ele>
        <time>2024-08-14T09:45:52Z</time>
      </trkpt>
      <trkpt lat="44.62032" lon="2.56071">
        <ele>581.4</ele>
        <time>2024-08-14T09:45:53Z</time>
      </trkpt>
      <trkpt lat="44.62028" lon="2.56066">
        <ele>580.8</ele>
        <time>2024-08-14T09:45:54Z</time>
      </trkpt>
      <trkpt lat="44.62018" lon="2.56058">
        <ele>579.8</ele>
        <time>2024-08-14T09:45:56Z</time>
      </trkpt>
      <trkpt lat="44.62008" lon="2.56053">
        <ele>578.7</ele>
        <time>2024-08-14T09:45:58Z</time>
      </trkpt>
      <trkpt lat="44.61997" lon="2.56049">
        <ele>577.7</ele>
        <time>2024-08-14T09:46:00Z</time>
      </trkpt>
      <trkpt lat="44.61985" lon="2.56045">
        <ele>576.7</ele>
        <time>2024-08-14T09:46:02Z</time>
      </trkpt>
      <trkpt lat="44.61979" lon="2.56043">
        <ele>576.2</ele>
        <time>2024-08-14T09:46:03Z</time>
      </trkpt>
      <trkpt lat="44.61973" lon="2.56041">
        <ele>575.7</ele>
        <time>2024-08-14T09:46:04Z</time>
      </trkpt>
      <trkpt lat="44.61961" lon="2.56036">
        <ele>574.9</ele>
        <time>2024-08-14T09:46:06Z</time>
      </trkpt>
      <trkpt lat="44.6195" lon="2.56031">
        <ele>574.2</ele>
        <time>2024-08-14T09:46:08Z</time>
      </trkpt>
      <trkpt lat="44.61944" lon="2.56028">
        <ele>573.8</ele>
        <time>2024-08-14T09:46:09Z</time>
      </trkpt>
      <trkpt lat="44.61938" lon="2.56025">
        <ele>573.4</ele>
        <time>2024-08-14T09:46:10Z</time>
      </trkpt>
      <trkpt lat="44.61926" lon="2.5602">
        <ele>572.6</ele>
        <time>2024-08-14T09:46:12Z</time>
      </trkpt>
      <trkpt lat="44.61921" lon="2.56017">
        <ele>572.1</ele>
        <time>2024-08-14T09:46:13Z</time>
      </trkpt>
      <trkpt lat="44.61916" lon="2.56013">
        <ele>571.8</ele>
        <time>2024-08-14T09:46:14Z</time>
      </trkpt>
      <trkpt lat="44.61911" lon="2.5601">
        <ele>571.4</ele>
        <time>2024-08-14T09:46:15Z</time>
      </trkpt>
      <trkpt lat="44.61906" lon="2.56005">
        <ele>571.1</ele>
        <time>2024-08-14T09:46:16Z</time>
      </trkpt>
      <trkpt lat="44.61895" lon="2.55997">
        <ele>570.5</ele>
        <time>2024-08-14T09:46:18Z</time>
      </trkpt>
      <trkpt lat="44.61891" lon="2.55992">
        <ele>570.3</ele>
        <time>2024-08-14T09:46:19Z</time>
      </trkpt>
      <trkpt lat="44.61886" lon="2.55988">
        <ele>570.1</ele>
        <time>2024-08-14T09:46:20Z</time>
      </trkpt>
      <trkpt lat="44.61878" lon="2.55978">
        <ele>569.6</ele>
        <time>2024-08-14T09:46:22Z</time>
      </trkpt>
      <trkpt lat="44.61874" lon="2.55973">
        <ele>569.4</ele>
        <time>2024-08-14T09:46:23Z</time>
      </trkpt>
      <trkpt lat="44.61873" lon="2.55966">
        <ele>569.1</ele>
        <time>2024-08-14T09:46:24Z</time>
      </trkpt>
      <trkpt lat="44.61871" lon="2.55954">
        <ele>568.4</ele>
        <time>2024-08-14T09:46:26Z</time>
      </trkpt>
      <trkpt lat="44.61871" lon="2.5594">
        <ele>567.4</ele>
        <time>2024-08-14T09:46:28Z</time>
      </trkpt>
      <trkpt lat="44.61871" lon="2.55926">
        <ele>566.4</ele>
        <time>2024-08-14T09:46:30Z</time>
      </trkpt>
      <trkpt lat="44.61871" lon="2.55912">
        <ele>565.5</ele>
        <time>2024-08-14T09:46:32Z</time>
      </trkpt>
      <trkpt lat="44.61872" lon="2.55899">
        <ele>564.6</ele>
        <time>2024-08-14T09:46:34Z</time>
      </trkpt>
      <trkpt lat="44.61875" lon="2.55888">
        <ele>563.8</ele>
        <time>2024-08-14T09:46:36Z</time>
      </trkpt>
      <trkpt lat="44.61876" lon="2.55882">
        <ele>563.4</ele>
        <time>2024-08-14T09:46:37Z</time>
      </trkpt>
      <trkpt lat="44.61878" lon="2.55877">
        <ele>563</ele>
        <time>2024-08-14T09:46:38Z</time>
      </trkpt>
      <trkpt lat="44.61879" lon="2.55871">
        <ele>562.5</ele>
        <time>2024-08-14T09:46:39Z</time>
      </trkpt>
      <trkpt lat="44.61877" lon="2.55866">
        <ele>562</ele>
        <time>2024-08-14T09:46:40Z</time>
      </trkpt>
      <trkpt lat="44.61875" lon="2.55862">
        <ele>561.5</ele>
        <time>2024-08-14T09:46:41Z</time>
      </trkpt>
      <trkpt lat="44.61871" lon="2.5586">
        <ele>560.9</ele>
        <time>2024-08-14T09:46:42Z</time>
      </trkpt>
      <trkpt lat="44.61863" lon="2.55855">
        <ele>559.5</ele>
        <time>2024-08-14T09:46:44Z</time>
      </trkpt>
      <trkpt lat="44.61859" lon="2.55853">
        <ele>558.8</ele>
        <time>2024-08-14T09:46:45Z</time>
      </trkpt>
      <trkpt lat="44.61855" lon="2.55851">
        <ele>558.1</ele>
        <time>2024-08-14T09:46:46Z</time>
      </trkpt>
      <trkpt lat="44.61844" lon="2.55848">
        <ele>556.2</ele>
        <time>2024-08-14T09:46:48Z</time>
      </trkpt>
      <trkpt lat="44.61838" lon="2.55847">
        <ele>555.1</ele>
        <time>2024-08-14T09:46:49Z</time>
      </trkpt>
      <trkpt lat="44.61833" lon="2.55845">
        <ele>554.2</ele>
        <time>2024-08-14T09:46:50Z</time>
      </trkpt>
      <trkpt lat="44.61828" lon="2.55844">
        <ele>553.2</ele>
        <time>2024-08-14T09:46:51Z</time>
      </trkpt>
      <trkpt lat="44.61823" lon="2.55843">
        <ele>552.2</ele>
        <time>2024-08-14T09:46:52Z</time>
      </trkpt>
      <trkpt lat="44.61817" lon="2.55843">
        <ele>551.1</ele>
        <time>2024-08-14T09:46:53Z</time>
      </trkpt>
      <trkpt lat="44.61811" lon="2.55845">
        <ele>550</ele>
        <time>2024-08-14T09:46:54Z</time>
      </trkpt>
      <trkpt lat="44.61799" lon="2.55851">
        <ele>547.6</ele>
        <time>2024-08-14T09:46:56Z</time>
      </trkpt>
      <trkpt lat="44.61793" lon="2.55855">
        <ele>546.5</ele>
        <time>2024-08-14T09:46:57Z</time>
      </trkpt>
      <trkpt lat="44.61787" lon="2.55859">
        <ele>545.5</ele>
        <time>2024-08-14T09:46:58Z</time>
      </trkpt>
      <trkpt lat="44.61781" lon="2.55862">
        <ele>544.5</ele>
        <time>2024-08-14T09:46:59Z</time>
      </trkpt>
      <trkpt lat="44.61775" lon="2.55865">
        <ele>543.5</ele>
        <time>2024-08-14T09:47:00Z</time>
      </trkpt>
      <trkpt lat="44.61768" lon="2.55866">
        <ele>542.3</ele>
        <time>2024-08-14T09:47:01Z</time>
      </trkpt>
      <trkpt lat="44.6176" lon="2.55867">
        <ele>541</ele>
        <time>2024-08-14T09:47:02Z</time>
      </trkpt>
      <trkpt lat="44.61746" lon="2.55868">
        <ele>538.4</ele>
        <time>2024-08-14T09:47:04Z</time>
      </trkpt>
      <trkpt lat="44.6173" lon="2.55871">
        <ele>535.8</ele>
        <time>2024-08-14T09:47:06Z</time>
      </trkpt>
      <trkpt lat="44.61722" lon="2.55874">
        <ele>534.6</ele>
        <time>2024-08-14T09:47:07Z</time>
      </trkpt>
      <trkpt lat="44.61713" lon="2.55875">
        <ele>533.6</ele>
        <time>2024-08-14T09:47:08Z</time>
      </trkpt>
      <trkpt lat="44.61704" lon="2.55876">
        <ele>532.7</ele>
        <time>2024-08-14T09:47:09Z</time>
      </trkpt>
      <trkpt lat="44.61695" lon="2.55875">
        <ele>531.8</ele>
        <time>2024-08-14T09:47:10Z</time>
      </trkpt>
      <trkpt lat="44.61687" lon="2.55872">
        <ele>531.1</ele>
        <time>2024-08-14T09:47:11Z</time>
      </trkpt>
      <trkpt lat="44.61679" lon="2.55868">
        <ele>530.3</ele>
        <time>2024-08-14T09:47:12Z</time>
      </trkpt>
      <trkpt lat="44.61664" lon="2.55862">
        <ele>529</ele>
        <time>2024-08-14T09:47:14Z</time>
      </trkpt>
      <trkpt lat="44.61657" lon="2.55859">
        <ele>528.3</ele>
        <time>2024-08-14T09:47:15Z</time>
      </trkpt>
      <trkpt lat="44.6165" lon="2.55856">
        <ele>527.6</ele>
        <time>2024-08-14T09:47:16Z</time>
      </trkpt>
      <trkpt lat="44.6164" lon="2.55852">
        <ele>526.6</ele>
        <time>2024-08-14T09:47:18Z</time>
      </trkpt>
      <trkpt lat="44.61633" lon="2.55845">
        <ele>525.6</ele>
        <time>2024-08-14T09:47:20Z</time>
      </trkpt>
      <trkpt lat="44.61632" lon="2.5584">
        <ele>525.2</ele>
        <time>2024-08-14T09:47:21Z</time>
      </trkpt>
      <trkpt lat="44.61635" lon="2.55837">
        <ele>524.8</ele>
        <time>2024-08-14T09:47:22Z</time>
      </trkpt>
      <trkpt lat="44.61638" lon="2.55834">
        <ele>524.3</ele>
        <time>2024-08-14T09:47:23Z</time>
      </trkpt>
      <trkpt lat="44.61643" lon="2.55831">
        <ele>523.7</ele>
        <time>2024-08-14T09:47:24Z</time>
      </trkpt>
      <trkpt lat="44.61655" lon="2.55822">
        <ele>522.5</ele>
        <time>2024-08-14T09:47:26Z</time>
      </trkpt>
      <trkpt lat="44.61662" lon="2.55815">
        <ele>522.2</ele>
        <time>2024-08-14T09:47:27Z</time>
      </trkpt>
      <trkpt lat="44.61667" lon="2.55808">
        <ele>521.9</ele>
        <time>2024-08-14T09:47:28Z</time>
      </trkpt>
      <trkpt lat="44.61676" lon="2.55792">
        <ele>521.7</ele>
        <time>2024-08-14T09:47:30Z</time>
      </trkpt>
      <trkpt lat="44.61688" lon="2.55779">
        <ele>521.7</ele>
        <time>2024-08-14T09:47:32Z</time>
      </trkpt>
      <trkpt lat="44.61695" lon="2.55775">
        <ele>521.8</ele>
        <time>2024-08-14T09:47:33Z</time>
      </trkpt>
      <trkpt lat="44.61702" lon="2.55771">
        <ele>521.9</ele>
        <time>2024-08-14T09:47:34Z</time>
      </trkpt>
      <trkpt lat="44.61716" lon="2.55765">
        <ele>522.1</ele>
        <time>2024-08-14T09:47:36Z</time>
      </trkpt>
      <trkpt lat="44.61722" lon="2.55763">
        <ele>522.2</ele>
        <time>2024-08-14T09:47:37Z</time>
      </trkpt>
      <trkpt lat="44.61728" lon="2.55759">
        <ele>522.3</ele>
        <time>2024-08-14T09:47:38Z</time>
      </trkpt>
      <trkpt lat="44.6174" lon="2.5575">
        <ele>522.6</ele>
        <time>2024-08-14T09:47:40Z</time>
      </trkpt>
      <trkpt lat="44.6175" lon="2.55739">
        <ele>522.7</ele>
        <time>2024-08-14T09:47:42Z</time>
      </trkpt>
      <trkpt lat="44.61755" lon="2.55733">
        <ele>522.8</ele>
        <time>2024-08-14T09:47:43Z</time>
      </trkpt>
      <trkpt lat="44.6176" lon="2.55729">
        <ele>522.9</ele>
        <time>2024-08-14T09:47:44Z</time>
      </trkpt>
      <trkpt lat="44.61771" lon="2.55717">
        <ele>522.5</ele>
        <time>2024-08-14T09:47:46Z</time>
      </trkpt>
      <trkpt lat="44.61781" lon="2.55703">
        <ele>521.7</ele>
        <time>2024-08-14T09:47:48Z</time>
      </trkpt>
      <trkpt lat="44.61791" lon="2.55691">
        <ele>520.8</ele>
        <time>2024-08-14T09:47:50Z</time>
      </trkpt>
      <trkpt lat="44.61796" lon="2.55685">
        <ele>520.4</ele>
        <time>2024-08-14T09:47:51Z</time>
      </trkpt>
      <trkpt lat="44.61802" lon="2.5568">
        <ele>520</ele>
        <time>2024-08-14T09:47:52Z</time>
      </trkpt>
      <trkpt lat="44.61813" lon="2.55672">
        <ele>519</ele>
        <time>2024-08-14T09:47:54Z</time>
      </trkpt>
      <trkpt lat="44.61823" lon="2.55664">
        <ele>517.9</ele>
        <time>2024-08-14T09:47:56Z</time>
      </trkpt>
      <trkpt lat="44.61829" lon="2.5566">
        <ele>517.3</ele>
        <time>2024-08-14T09:47:57Z</time>
      </trkpt>
      <trkpt lat="44.61835" lon="2.55656">
        <ele>516.8</ele>
        <time>2024-08-14T09:47:58Z</time>
      </trkpt>
      <trkpt lat="44.61846" lon="2.55648">
        <ele>515.7</ele>
        <time>2024-08-14T09:48:00Z</time>
      </trkpt>
      <trkpt lat="44.61853" lon="2.55645">
        <ele>515.2</ele>
        <time>2024-08-14T09:48:01Z</time>
      </trkpt>
      <trkpt lat="44.61859" lon="2.55643">
        <ele>514.5</ele>
        <time>2024-08-14T09:48:02Z</time>
      </trkpt>
      <trkpt lat="44.61873" lon="2.5564">
        <ele>513.2</ele>
        <time>2024-08-14T09:48:04Z</time>
      </trkpt>
      <trkpt lat="44.6188" lon="2.55639">
        <ele>512.5</ele>
        <time>2024-08-14T09:48:05Z</time>
      </trkpt>
      <trkpt lat="44.61888" lon="2.55639">
        <ele>511.9</ele>
        <time>2024-08-14T09:48:06Z</time>
      </trkpt>
      <trkpt lat="44.61902" lon="2.55637">
        <ele>510.6</ele>
        <time>2024-08-14T09:48:08Z</time>
      </trkpt>
      <trkpt lat="44.61916" lon="2.55635">
        <ele>509.4</ele>
        <time>2024-08-14T09:48:10Z</time>
      </trkpt>
      <trkpt lat="44.61921" lon="2.55635">
        <ele>508.9</ele>
        <time>2024-08-14T09:48:11Z</time>
      </trkpt>
      <trkpt lat="44.61925" lon="2.55634">
        <ele>508.5</ele>
        <time>2024-08-14T09:48:12Z</time>
      </trkpt>
      <trkpt lat="44.6193" lon="2.55635">
        <ele>508.2</ele>
        <time>2024-08-14T09:48:14Z</time>
      </trkpt>
      <trkpt lat="44.6193" lon="2.55634">
        <ele>508.1</ele>
        <time>2024-08-14T09:48:16Z</time>
      </trkpt>
      <trkpt lat="44.61933" lon="2.55628">
        <ele>507.7</ele>
        <time>2024-08-14T09:49:04Z</time>
      </trkpt>
      <trkpt lat="44.61934" lon="2.55624">
        <ele>507.5</ele>
        <time>2024-08-14T09:49:06Z</time>
      </trkpt>
      <trkpt lat="44.61936" lon="2.55621">
        <ele>507.4</ele>
        <time>2024-08-14T09:49:08Z</time>
      </trkpt>
      <trkpt lat="44.61938" lon="2.55617">
        <ele>507.3</ele>
        <time>2024-08-14T09:49:10Z</time>
      </trkpt>
      <trkpt lat="44.61939" lon="2.55615">
        <ele>507.3</ele>
        <time>2024-08-14T09:49:11Z</time>
      </trkpt>
      <trkpt lat="44.6194" lon="2.55612">
        <ele>507.3</ele>
        <time>2024-08-14T09:49:12Z</time>
      </trkpt>
      <trkpt lat="44.61943" lon="2.55606">
        <ele>507.4</ele>
        <time>2024-08-14T09:49:14Z</time>
      </trkpt>
      <trkpt lat="44.61946" lon="2.55602">
        <ele>507.5</ele>
        <time>2024-08-14T09:49:16Z</time>
      </trkpt>
      <trkpt lat="44.61947" lon="2.556">
        <ele>507.6</ele>
        <time>2024-08-14T09:49:17Z</time>
      </trkpt>
      <trkpt lat="44.61948" lon="2.55597">
        <ele>507.7</ele>
        <time>2024-08-14T09:49:18Z</time>
      </trkpt>
      <trkpt lat="44.61951" lon="2.55592">
        <ele>507.9</ele>
        <time>2024-08-14T09:49:20Z</time>
      </trkpt>
      <trkpt lat="44.61952" lon="2.55588">
        <ele>508</ele>
        <time>2024-08-14T09:49:22Z</time>
      </trkpt>
      <trkpt lat="44.61954" lon="2.55585">
        <ele>508.1</ele>
        <time>2024-08-14T09:49:24Z</time>
      </trkpt>
      <trkpt lat="44.61956" lon="2.55582">
        <ele>508.3</ele>
        <time>2024-08-14T09:49:26Z</time>
      </trkpt>
      <trkpt lat="44.61958" lon="2.55578">
        <ele>508.4</ele>
        <time>2024-08-14T09:49:28Z</time>
      </trkpt>
      <trkpt lat="44.6196" lon="2.55575">
        <ele>508.5</ele>
        <time>2024-08-14T09:49:30Z</time>
      </trkpt>
      <trkpt lat="44.61961" lon="2.55573">
        <ele>508.5</ele>
        <time>2024-08-14T09:49:31Z</time>
      </trkpt>
      <trkpt lat="44.61962" lon="2.55572">
        <ele>508.6</ele>
        <time>2024-08-14T09:49:32Z</time>
      </trkpt>
      <trkpt lat="44.61963" lon="2.55568">
        <ele>508.7</ele>
        <time>2024-08-14T09:49:34Z</time>
      </trkpt>
      <trkpt lat="44.61963" lon="2.55567">
        <ele>508.7</ele>
        <time>2024-08-14T09:49:35Z</time>
      </trkpt>
      <trkpt lat="44.61964" lon="2.55565">
        <ele>508.8</ele>
        <time>2024-08-14T09:49:36Z</time>
      </trkpt>
      <trkpt lat="44.61966" lon="2.55562">
        <ele>508.8</ele>
        <time>2024-08-14T09:49:38Z</time>
      </trkpt>
      <trkpt lat="44.61969" lon="2.55559">
        <ele>508.9</ele>
        <time>2024-08-14T09:49:40Z</time>
      </trkpt>
      <trkpt lat="44.6197" lon="2.55558">
        <ele>509</ele>
        <time>2024-08-14T09:49:41Z</time>
      </trkpt>
      <trkpt lat="44.61972" lon="2.55556">
        <ele>509</ele>
        <time>2024-08-14T09:49:42Z</time>
      </trkpt>
      <trkpt lat="44.61973" lon="2.55555">
        <ele>509</ele>
        <time>2024-08-14T09:49:43Z</time>
      </trkpt>
      <trkpt lat="44.61973" lon="2.55553">
        <ele>509.1</ele>
        <time>2024-08-14T09:49:44Z</time>
      </trkpt>
      <trkpt lat="44.61975" lon="2.55552">
        <ele>509.1</ele>
        <time>2024-08-14T09:49:45Z</time>
      </trkpt>
      <trkpt lat="44.61976" lon="2.55551">
        <ele>509.1</ele>
        <time>2024-08-14T09:49:46Z</time>
      </trkpt>
      <trkpt lat="44.61978" lon="2.55549">
        <ele>509.1</ele>
        <time>2024-08-14T09:49:48Z</time>
      </trkpt>
      <trkpt lat="44.61981" lon="2.55546">
        <ele>509.2</ele>
        <time>2024-08-14T09:49:50Z</time>
      </trkpt>
      <trkpt lat="44.61984" lon="2.55545">
        <ele>509.2</ele>
        <time>2024-08-14T09:49:51Z</time>
      </trkpt>
      <trkpt lat="44.61985" lon="2.55544">
        <ele>509.3</ele>
        <time>2024-08-14T09:49:52Z</time>
      </trkpt>
      <trkpt lat="44.61988" lon="2.55541">
        <ele>509.3</ele>
        <time>2024-08-14T09:49:54Z</time>
      </trkpt>
      <trkpt lat="44.61993" lon="2.55539">
        <ele>509.4</ele>
        <time>2024-08-14T09:49:56Z</time>
      </trkpt>
      <trkpt lat="44.61995" lon="2.55537">
        <ele>509.4</ele>
        <time>2024-08-14T09:49:57Z</time>
      </trkpt>
      <trkpt lat="44.61996" lon="2.55536">
        <ele>509.4</ele>
        <time>2024-08-14T09:49:58Z</time>
      </trkpt>
      <trkpt lat="44.61998" lon="2.55534">
        <ele>509.4</ele>
        <time>2024-08-14T09:50:00Z</time>
      </trkpt>
      <trkpt lat="44.61998" lon="2.55532">
        <ele>509.4</ele>
        <time>2024-08-14T09:50:01Z</time>
      </trkpt>
      <trkpt lat="44.61998" lon="2.5553">
        <ele>509.5</ele>
        <time>2024-08-14T09:50:02Z</time>
      </trkpt>
      <trkpt lat="44.61997" lon="2.55529">
        <ele>509.5</ele>
        <time>2024-08-14T09:50:03Z</time>
      </trkpt>
      <trkpt lat="44.61996" lon="2.55527">
        <ele>509.5</ele>
        <time>2024-08-14T09:50:04Z</time>
      </trkpt>
      <trkpt lat="44.61996" lon="2.55526">
        <ele>509.5</ele>
        <time>2024-08-14T09:50:05Z</time>
      </trkpt>
      <trkpt lat="44.61995" lon="2.55525">
        <ele>509.5</ele>
        <time>2024-08-14T09:50:06Z</time>
      </trkpt>
      <trkpt lat="44.61994" lon="2.55524">
        <ele>509.5</ele>
        <time>2024-08-14T09:50:07Z</time>
      </trkpt>
      <trkpt lat="44.61995" lon="2.55521">
        <ele>509.5</ele>
        <time>2024-08-14T09:50:08Z</time>
      </trkpt>
      <trkpt lat="44.61999" lon="2.55518">
        <ele>509.5</ele>
        <time>2024-08-14T09:50:09Z</time>
      </trkpt>
      <trkpt lat="44.62005" lon="2.55514">
        <ele>509.6</ele>
        <time>2024-08-14T09:50:10Z</time>
      </trkpt>
      <trkpt lat="44.62012" lon="2.55511">
        <ele>509.6</ele>
        <time>2024-08-14T09:50:11Z</time>
      </trkpt>
      <trkpt lat="44.62017" lon="2.55507">
        <ele>509.6</ele>
        <time>2024-08-14T09:50:12Z</time>
      </trkpt>
      <trkpt lat="44.62019" lon="2.55504">
        <ele>509.5</ele>
        <time>2024-08-14T09:50:13Z</time>
      </trkpt>
      <trkpt lat="44.62021" lon="2.555">
        <ele>509.5</ele>
        <time>2024-08-14T09:50:14Z</time>
      </trkpt>
      <trkpt lat="44.62024" lon="2.55497">
        <ele>509.5</ele>
        <time>2024-08-14T09:50:15Z</time>
      </trkpt>
      <trkpt lat="44.62027" lon="2.55493">
        <ele>509.4</ele>
        <time>2024-08-14T09:50:16Z</time>
      </trkpt>
      <trkpt lat="44.6203" lon="2.5549">
        <ele>509.2</ele>
        <time>2024-08-14T09:50:17Z</time>
      </trkpt>
      <trkpt lat="44.62033" lon="2.55486">
        <ele>509.1</ele>
        <time>2024-08-14T09:50:18Z</time>
      </trkpt>
      <trkpt lat="44.62039" lon="2.55478">
        <ele>508.8</ele>
        <time>2024-08-14T09:50:20Z</time>
      </trkpt>
      <trkpt lat="44.62045" lon="2.5547">
        <ele>508.5</ele>
        <time>2024-08-14T09:50:22Z</time>
      </trkpt>
      <trkpt lat="44.6205" lon="2.55462">
        <ele>508.3</ele>
        <time>2024-08-14T09:50:24Z</time>
      </trkpt>
      <trkpt lat="44.62056" lon="2.55456">
        <ele>508</ele>
        <time>2024-08-14T09:50:26Z</time>
      </trkpt>
      <trkpt lat="44.62061" lon="2.5545">
        <ele>507.9</ele>
        <time>2024-08-14T09:50:28Z</time>
      </trkpt>
      <trkpt lat="44.62067" lon="2.55444">
        <ele>507.7</ele>
        <time>2024-08-14T09:50:30Z</time>
      </trkpt>
      <trkpt lat="44.62074" lon="2.55436">
        <ele>507.4</ele>
        <time>2024-08-14T09:50:32Z</time>
      </trkpt>
      <trkpt lat="44.6208" lon="2.55428">
        <ele>507.2</ele>
        <time>2024-08-14T09:50:34Z</time>
      </trkpt>
      <trkpt lat="44.62088" lon="2.55419">
        <ele>506.9</ele>
        <time>2024-08-14T09:50:36Z</time>
      </trkpt>
      <trkpt lat="44.62092" lon="2.55414">
        <ele>506.7</ele>
        <time>2024-08-14T09:50:37Z</time>
      </trkpt>
      <trkpt lat="44.62095" lon="2.5541">
        <ele>506.6</ele>
        <time>2024-08-14T09:50:38Z</time>
      </trkpt>
      <trkpt lat="44.62102" lon="2.554">
        <ele>506.4</ele>
        <time>2024-08-14T09:50:40Z</time>
      </trkpt>
      <trkpt lat="44.62104" lon="2.55395">
        <ele>506.2</ele>
        <time>2024-08-14T09:50:41Z</time>
      </trkpt>
      <trkpt lat="44.62106" lon="2.55389">
        <ele>506.1</ele>
        <time>2024-08-14T09:50:42Z</time>
      </trkpt>
      <trkpt lat="44.62108" lon="2.55376">
        <ele>505.8</ele>
        <time>2024-08-14T09:50:44Z</time>
      </trkpt>
      <trkpt lat="44.62108" lon="2.55369">
        <ele>505.7</ele>
        <time>2024-08-14T09:50:45Z</time>
      </trkpt>
      <trkpt lat="44.62108" lon="2.55363">
        <ele>505.6</ele>
        <time>2024-08-14T09:50:46Z</time>
      </trkpt>
      <trkpt lat="44.62109" lon="2.55356">
        <ele>505.6</ele>
        <time>2024-08-14T09:50:47Z</time>
      </trkpt>
      <trkpt lat="44.6211" lon="2.55349">
        <ele>505.5</ele>
        <time>2024-08-14T09:50:48Z</time>
      </trkpt>
      <trkpt lat="44.62111" lon="2.55342">
        <ele>505.5</ele>
        <time>2024-08-14T09:50:49Z</time>
      </trkpt>
      <trkpt lat="44.62113" lon="2.55337">
        <ele>505.4</ele>
        <time>2024-08-14T09:50:50Z</time>
      </trkpt>
      <trkpt lat="44.62119" lon="2.55328">
        <ele>505.3</ele>
        <time>2024-08-14T09:50:52Z</time>
      </trkpt>
      <trkpt lat="44.62121" lon="2.55324">
        <ele>505.3</ele>
        <time>2024-08-14T09:50:53Z</time>
      </trkpt>
      <trkpt lat="44.62124" lon="2.5532">
        <ele>505.2</ele>
        <time>2024-08-14T09:50:54Z</time>
      </trkpt>
      <trkpt lat="44.62127" lon="2.55312">
        <ele>505.2</ele>
        <time>2024-08-14T09:50:56Z</time>
      </trkpt>
      <trkpt lat="44.62127" lon="2.55305">
        <ele>505.2</ele>
        <time>2024-08-14T09:50:58Z</time>
      </trkpt>
      <trkpt lat="44.62128" lon="2.55298">
        <ele>505.2</ele>
        <time>2024-08-14T09:51:00Z</time>
      </trkpt>
      <trkpt lat="44.62129" lon="2.55291">
        <ele>505.2</ele>
        <time>2024-08-14T09:51:02Z</time>
      </trkpt>
      <trkpt lat="44.6213" lon="2.55288">
        <ele>505.2</ele>
        <time>2024-08-14T09:51:03Z</time>
      </trkpt>
      <trkpt lat="44.6213" lon="2.55285">
        <ele>505.3</ele>
        <time>2024-08-14T09:51:04Z</time>
      </trkpt>
      <trkpt lat="44.6213" lon="2.55279">
        <ele>505.3</ele>
        <time>2024-08-14T09:51:06Z</time>
      </trkpt>
      <trkpt lat="44.62131" lon="2.55273">
        <ele>505.4</ele>
        <time>2024-08-14T09:51:08Z</time>
      </trkpt>
      <trkpt lat="44.62132" lon="2.55267">
        <ele>505.6</ele>
        <time>2024-08-14T09:51:10Z</time>
      </trkpt>
      <trkpt lat="44.62131" lon="2.55261">
        <ele>505.7</ele>
        <time>2024-08-14T09:51:12Z</time>
      </trkpt>
      <trkpt lat="44.6213" lon="2.55259">
        <ele>505.8</ele>
        <time>2024-08-14T09:51:13Z</time>
      </trkpt>
      <trkpt lat="44.62128" lon="2.55257">
        <ele>505.9</ele>
        <time>2024-08-14T09:51:14Z</time>
      </trkpt>
      <trkpt lat="44.62126" lon="2.55254">
        <ele>506.1</ele>
        <time>2024-08-14T09:51:16Z</time>
      </trkpt>
      <trkpt lat="44.62125" lon="2.55252">
        <ele>506.2</ele>
        <time>2024-08-14T09:51:17Z</time>
      </trkpt>
      <trkpt lat="44.62124" lon="2.5525">
        <ele>506.2</ele>
        <time>2024-08-14T09:51:18Z</time>
      </trkpt>
      <trkpt lat="44.62124" lon="2.55245">
        <ele>506.4</ele>
        <time>2024-08-14T09:51:20Z</time>
      </trkpt>
      <trkpt lat="44.62122" lon="2.5524">
        <ele>506.6</ele>
        <time>2024-08-14T09:51:22Z</time>
      </trkpt>
      <trkpt lat="44.62121" lon="2.55236">
        <ele>506.8</ele>
        <time>2024-08-14T09:51:24Z</time>
      </trkpt>
      <trkpt lat="44.6212" lon="2.55231">
        <ele>507.1</ele>
        <time>2024-08-14T09:51:26Z</time>
      </trkpt>
      <trkpt lat="44.62118" lon="2.55227">
        <ele>507.4</ele>
        <time>2024-08-14T09:51:28Z</time>
      </trkpt>
      <trkpt lat="44.62118" lon="2.55225">
        <ele>507.5</ele>
        <time>2024-08-14T09:51:29Z</time>
      </trkpt>
      <trkpt lat="44.62116" lon="2.55223">
        <ele>507.7</ele>
        <time>2024-08-14T09:51:30Z</time>
      </trkpt>
      <trkpt lat="44.62115" lon="2.55219">
        <ele>508</ele>
        <time>2024-08-14T09:51:32Z</time>
      </trkpt>
      <trkpt lat="44.62113" lon="2.55215">
        <ele>508.3</ele>
        <time>2024-08-14T09:51:34Z</time>
      </trkpt>
      <trkpt lat="44.62111" lon="2.55211">
        <ele>508.6</ele>
        <time>2024-08-14T09:51:36Z</time>
      </trkpt>
      <trkpt lat="44.62111" lon="2.55209">
        <ele>508.7</ele>
        <time>2024-08-14T09:51:37Z</time>
      </trkpt>
      <trkpt lat="44.6211" lon="2.55207">
        <ele>508.9</ele>
        <time>2024-08-14T09:51:38Z</time>
      </trkpt>
      <trkpt lat="44.6211" lon="2.55202">
        <ele>509.2</ele>
        <time>2024-08-14T09:51:40Z</time>
      </trkpt>
      <trkpt lat="44.6211" lon="2.55199">
        <ele>509.4</ele>
        <time>2024-08-14T09:51:41Z</time>
      </trkpt>
      <trkpt lat="44.6211" lon="2.55197">
        <ele>509.6</ele>
        <time>2024-08-14T09:51:42Z</time>
      </trkpt>
      <trkpt lat="44.62111" lon="2.55193">
        <ele>509.8</ele>
        <time>2024-08-14T09:51:44Z</time>
      </trkpt>
      <trkpt lat="44.6211" lon="2.55189">
        <ele>510.1</ele>
        <time>2024-08-14T09:51:46Z</time>
      </trkpt>
      <trkpt lat="44.6211" lon="2.55184">
        <ele>510.5</ele>
        <time>2024-08-14T09:51:48Z</time>
      </trkpt>
      <trkpt lat="44.6211" lon="2.55179">
        <ele>510.7</ele>
        <time>2024-08-14T09:51:50Z</time>
      </trkpt>
      <trkpt lat="44.62111" lon="2.55175">
        <ele>511</ele>
        <time>2024-08-14T09:51:52Z</time>
      </trkpt>
      <trkpt lat="44.6211" lon="2.55173">
        <ele>511.1</ele>
        <time>2024-08-14T09:51:53Z</time>
      </trkpt>
      <trkpt lat="44.62111" lon="2.55171">
        <ele>511.3</ele>
        <time>2024-08-14T09:51:54Z</time>
      </trkpt>
      <trkpt lat="44.62111" lon="2.55166">
        <ele>511.6</ele>
        <time>2024-08-14T09:51:56Z</time>
      </trkpt>
      <trkpt lat="44.62112" lon="2.55164">
        <ele>511.7</ele>
        <time>2024-08-14T09:51:57Z</time>
      </trkpt>
      <trkpt lat="44.62113" lon="2.55161">
        <ele>511.9</ele>
        <time>2024-08-14T09:51:58Z</time>
      </trkpt>
      <trkpt lat="44.62115" lon="2.55157">
        <ele>512.2</ele>
        <time>2024-08-14T09:52:00Z</time>
      </trkpt>
      <trkpt lat="44.62117" lon="2.55154">
        <ele>512.5</ele>
        <time>2024-08-14T09:52:02Z</time>
      </trkpt>
      <trkpt lat="44.62119" lon="2.55152">
        <ele>512.7</ele>
        <time>2024-08-14T09:52:03Z</time>
      </trkpt>
      <trkpt lat="44.62121" lon="2.55151">
        <ele>512.9</ele>
        <time>2024-08-14T09:52:04Z</time>
      </trkpt>
      <trkpt lat="44.62124" lon="2.55147">
        <ele>513.2</ele>
        <time>2024-08-14T09:52:06Z</time>
      </trkpt>
      <trkpt lat="44.62128" lon="2.55143">
        <ele>513.6</ele>
        <time>2024-08-14T09:52:08Z</time>
      </trkpt>
      <trkpt lat="44.62132" lon="2.5514">
        <ele>513.9</ele>
        <time>2024-08-14T09:52:10Z</time>
      </trkpt>
      <trkpt lat="44.62135" lon="2.55139">
        <ele>514.1</ele>
        <time>2024-08-14T09:52:11Z</time>
      </trkpt>
      <trkpt lat="44.62138" lon="2.55138">
        <ele>514.3</ele>
        <time>2024-08-14T09:52:12Z</time>
      </trkpt>
      <trkpt lat="44.62141" lon="2.55137">
        <ele>514.5</ele>
        <time>2024-08-14T09:52:13Z</time>
      </trkpt>
      <trkpt lat="44.62142" lon="2.55136">
        <ele>514.6</ele>
        <time>2024-08-14T09:52:14Z</time>
      </trkpt>
      <trkpt lat="44.62147" lon="2.55137">
        <ele>514.9</ele>
        <time>2024-08-14T09:52:15Z</time>
      </trkpt>
      <trkpt lat="44.62156" lon="2.55129">
        <ele>515.5</ele>
        <time>2024-08-14T09:52:22Z</time>
      </trkpt>
      <trkpt lat="44.62159" lon="2.55123">
        <ele>515.8</ele>
        <time>2024-08-14T09:52:24Z</time>
      </trkpt>
      <trkpt lat="44.6216" lon="2.5512">
        <ele>515.9</ele>
        <time>2024-08-14T09:52:25Z</time>
      </trkpt>
      <trkpt lat="44.62162" lon="2.55117">
        <ele>516.1</ele>
        <time>2024-08-14T09:52:26Z</time>
      </trkpt>
      <trkpt lat="44.62164" lon="2.55111">
        <ele>516.3</ele>
        <time>2024-08-14T09:52:28Z</time>
      </trkpt>
      <trkpt lat="44.62166" lon="2.55104">
        <ele>516.7</ele>
        <time>2024-08-14T09:52:30Z</time>
      </trkpt>
      <trkpt lat="44.62167" lon="2.55101">
        <ele>516.8</ele>
        <time>2024-08-14T09:52:31Z</time>
      </trkpt>
      <trkpt lat="44.62168" lon="2.55098">
        <ele>516.9</ele>
        <time>2024-08-14T09:52:32Z</time>
      </trkpt>
      <trkpt lat="44.62169" lon="2.55092">
        <ele>517.2</ele>
        <time>2024-08-14T09:52:34Z</time>
      </trkpt>
      <trkpt lat="44.62168" lon="2.55087">
        <ele>517.4</ele>
        <time>2024-08-14T09:52:36Z</time>
      </trkpt>
      <trkpt lat="44.62168" lon="2.55084">
        <ele>517.5</ele>
        <time>2024-08-14T09:52:37Z</time>
      </trkpt>
      <trkpt lat="44.62167" lon="2.55082">
        <ele>517.6</ele>
        <time>2024-08-14T09:52:38Z</time>
      </trkpt>
      <trkpt lat="44.62164" lon="2.55078">
        <ele>517.7</ele>
        <time>2024-08-14T09:52:40Z</time>
      </trkpt>
      <trkpt lat="44.62163" lon="2.55073">
        <ele>517.9</ele>
        <time>2024-08-14T09:52:42Z</time>
      </trkpt>
      <trkpt lat="44.62161" lon="2.55071">
        <ele>518</ele>
        <time>2024-08-14T09:52:43Z</time>
      </trkpt>
      <trkpt lat="44.6216" lon="2.55068">
        <ele>518.1</ele>
        <time>2024-08-14T09:52:44Z</time>
      </trkpt>
      <trkpt lat="44.62159" lon="2.55066">
        <ele>518.2</ele>
        <time>2024-08-14T09:52:45Z</time>
      </trkpt>
      <trkpt lat="44.62159" lon="2.55064">
        <ele>518.2</ele>
        <time>2024-08-14T09:52:46Z</time>
      </trkpt>
      <trkpt lat="44.62158" lon="2.55062">
        <ele>518.3</ele>
        <time>2024-08-14T09:52:47Z</time>
      </trkpt>
      <trkpt lat="44.62157" lon="2.5506">
        <ele>518.4</ele>
        <time>2024-08-14T09:52:48Z</time>
      </trkpt>
      <trkpt lat="44.62155" lon="2.55055">
        <ele>518.6</ele>
        <time>2024-08-14T09:52:50Z</time>
      </trkpt>
      <trkpt lat="44.62151" lon="2.55052">
        <ele>518.9</ele>
        <time>2024-08-14T09:52:52Z</time>
      </trkpt>
      <trkpt lat="44.62151" lon="2.55047">
        <ele>519.1</ele>
        <time>2024-08-14T09:52:54Z</time>
      </trkpt>
      <trkpt lat="44.62151" lon="2.55041">
        <ele>519.3</ele>
        <time>2024-08-14T09:52:56Z</time>
      </trkpt>
      <trkpt lat="44.62151" lon="2.55039">
        <ele>519.5</ele>
        <time>2024-08-14T09:52:57Z</time>
      </trkpt>
      <trkpt lat="44.62152" lon="2.55037">
        <ele>519.6</ele>
        <time>2024-08-14T09:52:58Z</time>
      </trkpt>
      <trkpt lat="44.62151" lon="2.55033">
        <ele>519.8</ele>
        <time>2024-08-14T09:53:00Z</time>
      </trkpt>
      <trkpt lat="44.62152" lon="2.55028">
        <ele>520</ele>
        <time>2024-08-14T09:53:02Z</time>
      </trkpt>
      <trkpt lat="44.62153" lon="2.55025">
        <ele>520.1</ele>
        <time>2024-08-14T09:53:03Z</time>
      </trkpt>
      <trkpt lat="44.62153" lon="2.55023">
        <ele>520.2</ele>
        <time>2024-08-14T09:53:04Z</time>
      </trkpt>
      <trkpt lat="44.62157" lon="2.5502">
        <ele>520.5</ele>
        <time>2024-08-14T09:53:06Z</time>
      </trkpt>
      <trkpt lat="44.6216" lon="2.55017">
        <ele>520.7</ele>
        <time>2024-08-14T09:53:08Z</time>
      </trkpt>
      <trkpt lat="44.62163" lon="2.55014">
        <ele>521</ele>
        <time>2024-08-14T09:53:10Z</time>
      </trkpt>
      <trkpt lat="44.62164" lon="2.55012">
        <ele>521.1</ele>
        <time>2024-08-14T09:53:11Z</time>
      </trkpt>
      <trkpt lat="44.62166" lon="2.5501">
        <ele>521.3</ele>
        <time>2024-08-14T09:53:12Z</time>
      </trkpt>
      <trkpt lat="44.62168" lon="2.55006">
        <ele>521.5</ele>
        <time>2024-08-14T09:53:14Z</time>
      </trkpt>
      <trkpt lat="44.62168" lon="2.55004">
        <ele>521.7</ele>
        <time>2024-08-14T09:53:15Z</time>
      </trkpt>
      <trkpt lat="44.62169" lon="2.55002">
        <ele>521.8</ele>
        <time>2024-08-14T09:53:16Z</time>
      </trkpt>
      <trkpt lat="44.62169" lon="2.55">
        <ele>521.9</ele>
        <time>2024-08-14T09:53:17Z</time>
      </trkpt>
      <trkpt lat="44.6217" lon="2.54998">
        <ele>522.1</ele>
        <time>2024-08-14T09:53:18Z</time>
      </trkpt>
      <trkpt lat="44.62171" lon="2.54996">
        <ele>522.2</ele>
        <time>2024-08-14T09:53:19Z</time>
      </trkpt>
      <trkpt lat="44.62172" lon="2.54994">
        <ele>522.4</ele>
        <time>2024-08-14T09:53:20Z</time>
      </trkpt>
      <trkpt lat="44.62174" lon="2.54991">
        <ele>522.7</ele>
        <time>2024-08-14T09:53:22Z</time>
      </trkpt>
      <trkpt lat="44.62176" lon="2.54987">
        <ele>523</ele>
        <time>2024-08-14T09:53:24Z</time>
      </trkpt>
      <trkpt lat="44.62178" lon="2.54985">
        <ele>523.1</ele>
        <time>2024-08-14T09:53:25Z</time>
      </trkpt>
      <trkpt lat="44.62179" lon="2.54984">
        <ele>523.2</ele>
        <time>2024-08-14T09:53:26Z</time>
      </trkpt>
      <trkpt lat="44.6218" lon="2.54983">
        <ele>523.4</ele>
        <time>2024-08-14T09:53:27Z</time>
      </trkpt>
      <trkpt lat="44.62181" lon="2.5498">
        <ele>523.5</ele>
        <time>2024-08-14T09:53:28Z</time>
      </trkpt>
      <trkpt lat="44.62181" lon="2.54979">
        <ele>523.6</ele>
        <time>2024-08-14T09:53:29Z</time>
      </trkpt>
      <trkpt lat="44.62183" lon="2.54978">
        <ele>523.7</ele>
        <time>2024-08-14T09:53:30Z</time>
      </trkpt>
      <trkpt lat="44.62185" lon="2.54976">
        <ele>524</ele>
        <time>2024-08-14T09:53:32Z</time>
      </trkpt>
      <trkpt lat="44.62188" lon="2.54972">
        <ele>524.2</ele>
        <time>2024-08-14T09:53:34Z</time>
      </trkpt>
      <trkpt lat="44.62189" lon="2.54971">
        <ele>524.3</ele>
        <time>2024-08-14T09:53:35Z</time>
      </trkpt>
      <trkpt lat="44.6219" lon="2.54969">
        <ele>524.4</ele>
        <time>2024-08-14T09:53:36Z</time>
      </trkpt>
      <trkpt lat="44.62191" lon="2.54967">
        <ele>524.5</ele>
        <time>2024-08-14T09:53:37Z</time>
      </trkpt>
      <trkpt lat="44.62191" lon="2.54965">
        <ele>524.6</ele>
        <time>2024-08-14T09:53:38Z</time>
      </trkpt>
      <trkpt lat="44.62192" lon="2.5496">
        <ele>524.8</ele>
        <time>2024-08-14T09:53:40Z</time>
      </trkpt>
      <trkpt lat="44.62192" lon="2.54955">
        <ele>525</ele>
        <time>2024-08-14T09:53:42Z</time>
      </trkpt>
      <trkpt lat="44.62192" lon="2.54951">
        <ele>525.2</ele>
        <time>2024-08-14T09:53:44Z</time>
      </trkpt>
      <trkpt lat="44.62192" lon="2.54947">
        <ele>525.3</ele>
        <time>2024-08-14T09:53:46Z</time>
      </trkpt>
      <trkpt lat="44.62191" lon="2.54945">
        <ele>525.4</ele>
        <time>2024-08-14T09:53:47Z</time>
      </trkpt>
      <trkpt lat="44.62191" lon="2.54943">
        <ele>525.4</ele>
        <time>2024-08-14T09:53:48Z</time>
      </trkpt>
      <trkpt lat="44.62191" lon="2.54938">
        <ele>525.6</ele>
        <time>2024-08-14T09:53:50Z</time>
      </trkpt>
      <trkpt lat="44.6219" lon="2.54934">
        <ele>525.7</ele>
        <time>2024-08-14T09:53:52Z</time>
      </trkpt>
      <trkpt lat="44.62189" lon="2.54929">
        <ele>526</ele>
        <time>2024-08-14T09:53:54Z</time>
      </trkpt>
      <trkpt lat="44.62188" lon="2.54925">
        <ele>526.4</ele>
        <time>2024-08-14T09:53:56Z</time>
      </trkpt>
      <trkpt lat="44.62186" lon="2.54921">
        <ele>526.7</ele>
        <time>2024-08-14T09:53:58Z</time>
      </trkpt>
      <trkpt lat="44.62185" lon="2.54917">
        <ele>527.1</ele>
        <time>2024-08-14T09:54:00Z</time>
      </trkpt>
      <trkpt lat="44.62183" lon="2.54914">
        <ele>527.4</ele>
        <time>2024-08-14T09:54:02Z</time>
      </trkpt>
      <trkpt lat="44.62181" lon="2.54911">
        <ele>527.7</ele>
        <time>2024-08-14T09:54:04Z</time>
      </trkpt>
      <trkpt lat="44.62179" lon="2.5491">
        <ele>528</ele>
        <time>2024-08-14T09:54:06Z</time>
      </trkpt>
      <trkpt lat="44.62177" lon="2.54907">
        <ele>528.4</ele>
        <time>2024-08-14T09:54:08Z</time>
      </trkpt>
      <trkpt lat="44.62174" lon="2.54905">
        <ele>528.9</ele>
        <time>2024-08-14T09:54:10Z</time>
      </trkpt>
      <trkpt lat="44.62172" lon="2.54903">
        <ele>529.3</ele>
        <time>2024-08-14T09:54:12Z</time>
      </trkpt>
      <trkpt lat="44.62171" lon="2.54901">
        <ele>529.6</ele>
        <time>2024-08-14T09:54:13Z</time>
      </trkpt>
      <trkpt lat="44.62169" lon="2.549">
        <ele>529.9</ele>
        <time>2024-08-14T09:54:14Z</time>
      </trkpt>
      <trkpt lat="44.62168" lon="2.54897">
        <ele>530.3</ele>
        <time>2024-08-14T09:54:16Z</time>
      </trkpt>
      <trkpt lat="44.62167" lon="2.54896">
        <ele>530.5</ele>
        <time>2024-08-14T09:54:17Z</time>
      </trkpt>
      <trkpt lat="44.62166" lon="2.54894">
        <ele>530.8</ele>
        <time>2024-08-14T09:54:18Z</time>
      </trkpt>
      <trkpt lat="44.62163" lon="2.54892">
        <ele>531.5</ele>
        <time>2024-08-14T09:54:20Z</time>
      </trkpt>
      <trkpt lat="44.62159" lon="2.54889">
        <ele>532.4</ele>
        <time>2024-08-14T09:54:22Z</time>
      </trkpt>
      <trkpt lat="44.62156" lon="2.54886">
        <ele>533.1</ele>
        <time>2024-08-14T09:54:24Z</time>
      </trkpt>
      <trkpt lat="44.62154" lon="2.54885">
        <ele>533.4</ele>
        <time>2024-08-14T09:54:25Z</time>
      </trkpt>
      <trkpt lat="44.62153" lon="2.54884">
        <ele>533.6</ele>
        <time>2024-08-14T09:54:26Z</time>
      </trkpt>
      <trkpt lat="44.62151" lon="2.54881">
        <ele>534.1</ele>
        <time>2024-08-14T09:54:28Z</time>
      </trkpt>
      <trkpt lat="44.6215" lon="2.54877">
        <ele>534.8</ele>
        <time>2024-08-14T09:54:30Z</time>
      </trkpt>
      <trkpt lat="44.62149" lon="2.54876">
        <ele>535</ele>
        <time>2024-08-14T09:54:31Z</time>
      </trkpt>
      <trkpt lat="44.62148" lon="2.54874">
        <ele>535.3</ele>
        <time>2024-08-14T09:54:32Z</time>
      </trkpt>
      <trkpt lat="44.62147" lon="2.5487">
        <ele>535.8</ele>
        <time>2024-08-14T09:54:34Z</time>
      </trkpt>
      <trkpt lat="44.62145" lon="2.54867">
        <ele>536.4</ele>
        <time>2024-08-14T09:54:36Z</time>
      </trkpt>
      <trkpt lat="44.62145" lon="2.54867">
        <ele>536.5</ele>
        <time>2024-08-14T09:54:37Z</time>
      </trkpt>
      <trkpt lat="44.62145" lon="2.54865">
        <ele>536.7</ele>
        <time>2024-08-14T09:54:38Z</time>
      </trkpt>
      <trkpt lat="44.62143" lon="2.54862">
        <ele>537.2</ele>
        <time>2024-08-14T09:54:40Z</time>
      </trkpt>
      <trkpt lat="44.62142" lon="2.5486">
        <ele>537.6</ele>
        <time>2024-08-14T09:54:41Z</time>
      </trkpt>
      <trkpt lat="44.62141" lon="2.54858">
        <ele>537.9</ele>
        <time>2024-08-14T09:54:42Z</time>
      </trkpt>
      <trkpt lat="44.62139" lon="2.54854">
        <ele>538.4</ele>
        <time>2024-08-14T09:54:44Z</time>
      </trkpt>
      <trkpt lat="44.62138" lon="2.54851">
        <ele>538.9</ele>
        <time>2024-08-14T09:54:46Z</time>
      </trkpt>
      <trkpt lat="44.62137" lon="2.54849">
        <ele>539.2</ele>
        <time>2024-08-14T09:54:47Z</time>
      </trkpt>
      <trkpt lat="44.6213" lon="2.54829">
        <ele>541.5</ele>
        <time>2024-08-14T09:54:58Z</time>
      </trkpt>
      <trkpt lat="44.62127" lon="2.54826">
        <ele>542</ele>
        <time>2024-08-14T09:55:00Z</time>
      </trkpt>
      <trkpt lat="44.62124" lon="2.54823">
        <ele>542.3</ele>
        <time>2024-08-14T09:55:02Z</time>
      </trkpt>
      <trkpt lat="44.62121" lon="2.54819">
        <ele>542.7</ele>
        <time>2024-08-14T09:55:04Z</time>
      </trkpt>
      <trkpt lat="44.62117" lon="2.54816">
        <ele>543.1</ele>
        <time>2024-08-14T09:55:06Z</time>
      </trkpt>
      <trkpt lat="44.62114" lon="2.54814">
        <ele>543.3</ele>
        <time>2024-08-14T09:55:07Z</time>
      </trkpt>
      <trkpt lat="44.62111" lon="2.54813">
        <ele>543.4</ele>
        <time>2024-08-14T09:55:08Z</time>
      </trkpt>
      <trkpt lat="44.62105" lon="2.54812">
        <ele>543.8</ele>
        <time>2024-08-14T09:55:10Z</time>
      </trkpt>
      <trkpt lat="44.62103" lon="2.54812">
        <ele>544</ele>
        <time>2024-08-14T09:55:11Z</time>
      </trkpt>
      <trkpt lat="44.621" lon="2.54811">
        <ele>544.1</ele>
        <time>2024-08-14T09:55:12Z</time>
      </trkpt>
      <trkpt lat="44.62094" lon="2.5481">
        <ele>544.4</ele>
        <time>2024-08-14T09:55:14Z</time>
      </trkpt>
      <trkpt lat="44.62089" lon="2.54809">
        <ele>544.7</ele>
        <time>2024-08-14T09:55:15Z</time>
      </trkpt>
      <trkpt lat="44.62086" lon="2.54809">
        <ele>544.9</ele>
        <time>2024-08-14T09:55:17Z</time>
      </trkpt>
      <trkpt lat="44.62082" lon="2.54808">
        <ele>545.1</ele>
        <time>2024-08-14T09:55:18Z</time>
      </trkpt>
      <trkpt lat="44.62078" lon="2.54807">
        <ele>545.4</ele>
        <time>2024-08-14T09:55:19Z</time>
      </trkpt>
      <trkpt lat="44.62072" lon="2.54805">
        <ele>545.7</ele>
        <time>2024-08-14T09:55:20Z</time>
      </trkpt>
      <trkpt lat="44.62067" lon="2.54804">
        <ele>546.1</ele>
        <time>2024-08-14T09:55:21Z</time>
      </trkpt>
      <trkpt lat="44.62064" lon="2.54803">
        <ele>546.4</ele>
        <time>2024-08-14T09:55:22Z</time>
      </trkpt>
      <trkpt lat="44.62058" lon="2.54801">
        <ele>546.9</ele>
        <time>2024-08-14T09:55:24Z</time>
      </trkpt>
      <trkpt lat="44.62053" lon="2.54801">
        <ele>547.2</ele>
        <time>2024-08-14T09:55:26Z</time>
      </trkpt>
      <trkpt lat="44.62047" lon="2.54801">
        <ele>547.6</ele>
        <time>2024-08-14T09:55:28Z</time>
      </trkpt>
      <trkpt lat="44.62042" lon="2.54802">
        <ele>548</ele>
        <time>2024-08-14T09:55:30Z</time>
      </trkpt>
      <trkpt lat="44.62038" lon="2.54803">
        <ele>548.3</ele>
        <time>2024-08-14T09:55:31Z</time>
      </trkpt>
      <trkpt lat="44.62035" lon="2.54805">
        <ele>548.6</ele>
        <time>2024-08-14T09:55:32Z</time>
      </trkpt>
      <trkpt lat="44.6203" lon="2.54807">
        <ele>549</ele>
        <time>2024-08-14T09:55:34Z</time>
      </trkpt>
      <trkpt lat="44.62024" lon="2.54809">
        <ele>549.5</ele>
        <time>2024-08-14T09:55:36Z</time>
      </trkpt>
      <trkpt lat="44.62021" lon="2.54812">
        <ele>549.8</ele>
        <time>2024-08-14T09:55:38Z</time>
      </trkpt>
      <trkpt lat="44.62019" lon="2.54813">
        <ele>550</ele>
        <time>2024-08-14T09:55:39Z</time>
      </trkpt>
      <trkpt lat="44.62016" lon="2.54815">
        <ele>550.3</ele>
        <time>2024-08-14T09:55:40Z</time>
      </trkpt>
      <trkpt lat="44.62015" lon="2.54818">
        <ele>550.5</ele>
        <time>2024-08-14T09:55:42Z</time>
      </trkpt>
      <trkpt lat="44.62012" lon="2.54819">
        <ele>550.8</ele>
        <time>2024-08-14T09:55:43Z</time>
      </trkpt>
      <trkpt lat="44.62006" lon="2.5482">
        <ele>551.4</ele>
        <time>2024-08-14T09:55:44Z</time>
      </trkpt>
      <trkpt lat="44.61998" lon="2.5482">
        <ele>552.3</ele>
        <time>2024-08-14T09:55:46Z</time>
      </trkpt>
      <trkpt lat="44.61991" lon="2.54817">
        <ele>553.1</ele>
        <time>2024-08-14T09:55:48Z</time>
      </trkpt>
      <trkpt lat="44.61986" lon="2.54813">
        <ele>553.8</ele>
        <time>2024-08-14T09:55:50Z</time>
      </trkpt>
      <trkpt lat="44.61984" lon="2.54812">
        <ele>554.1</ele>
        <time>2024-08-14T09:55:51Z</time>
      </trkpt>
      <trkpt lat="44.61982" lon="2.5481">
        <ele>554.4</ele>
        <time>2024-08-14T09:55:52Z</time>
      </trkpt>
      <trkpt lat="44.61976" lon="2.54804">
        <ele>555.3</ele>
        <time>2024-08-14T09:55:54Z</time>
      </trkpt>
      <trkpt lat="44.61974" lon="2.54801">
        <ele>555.6</ele>
        <time>2024-08-14T09:55:55Z</time>
      </trkpt>
      <trkpt lat="44.61973" lon="2.54798">
        <ele>555.8</ele>
        <time>2024-08-14T09:55:56Z</time>
      </trkpt>
      <trkpt lat="44.61971" lon="2.54794">
        <ele>556.1</ele>
        <time>2024-08-14T09:55:58Z</time>
      </trkpt>
      <trkpt lat="44.6197" lon="2.54792">
        <ele>556.3</ele>
        <time>2024-08-14T09:55:59Z</time>
      </trkpt>
      <trkpt lat="44.61968" lon="2.54789">
        <ele>556.5</ele>
        <time>2024-08-14T09:56:00Z</time>
      </trkpt>
      <trkpt lat="44.61965" lon="2.54783">
        <ele>556.8</ele>
        <time>2024-08-14T09:56:02Z</time>
      </trkpt>
      <trkpt lat="44.6196" lon="2.54778">
        <ele>557.1</ele>
        <time>2024-08-14T09:56:04Z</time>
      </trkpt>
      <trkpt lat="44.61958" lon="2.54774">
        <ele>557.3</ele>
        <time>2024-08-14T09:56:06Z</time>
      </trkpt>
      <trkpt lat="44.61955" lon="2.5477">
        <ele>557.5</ele>
        <time>2024-08-14T09:56:08Z</time>
      </trkpt>
      <trkpt lat="44.61953" lon="2.54768">
        <ele>557.6</ele>
        <time>2024-08-14T09:56:09Z</time>
      </trkpt>
      <trkpt lat="44.61952" lon="2.54766">
        <ele>557.7</ele>
        <time>2024-08-14T09:56:10Z</time>
      </trkpt>
      <trkpt lat="44.61948" lon="2.54763">
        <ele>557.9</ele>
        <time>2024-08-14T09:56:12Z</time>
      </trkpt>
      <trkpt lat="44.61945" lon="2.54762">
        <ele>558.1</ele>
        <time>2024-08-14T09:56:14Z</time>
      </trkpt>
      <trkpt lat="44.61939" lon="2.5476">
        <ele>558.3</ele>
        <time>2024-08-14T09:56:16Z</time>
      </trkpt>
      <trkpt lat="44.61937" lon="2.54759">
        <ele>558.4</ele>
        <time>2024-08-14T09:56:17Z</time>
      </trkpt>
      <trkpt lat="44.61935" lon="2.54759">
        <ele>558.5</ele>
        <time>2024-08-14T09:56:18Z</time>
      </trkpt>
      <trkpt lat="44.61931" lon="2.54758">
        <ele>558.6</ele>
        <time>2024-08-14T09:56:20Z</time>
      </trkpt>
      <trkpt lat="44.61926" lon="2.54758">
        <ele>558.8</ele>
        <time>2024-08-14T09:56:22Z</time>
      </trkpt>
      <trkpt lat="44.61924" lon="2.54758">
        <ele>558.9</ele>
        <time>2024-08-14T09:56:23Z</time>
      </trkpt>
      <trkpt lat="44.61921" lon="2.54759">
        <ele>559</ele>
        <time>2024-08-14T09:56:25Z</time>
      </trkpt>
      <trkpt lat="44.61919" lon="2.54759">
        <ele>559</ele>
        <time>2024-08-14T09:56:26Z</time>
      </trkpt>
      <trkpt lat="44.6191" lon="2.54755">
        <ele>559.2</ele>
        <time>2024-08-14T09:56:28Z</time>
      </trkpt>
      <trkpt lat="44.61905" lon="2.54752">
        <ele>559.3</ele>
        <time>2024-08-14T09:56:30Z</time>
      </trkpt>
      <trkpt lat="44.61903" lon="2.54748">
        <ele>559.4</ele>
        <time>2024-08-14T09:56:32Z</time>
      </trkpt>
      <trkpt lat="44.61899" lon="2.54742">
        <ele>559.5</ele>
        <time>2024-08-14T09:56:34Z</time>
      </trkpt>
      <trkpt lat="44.61898" lon="2.54739">
        <ele>559.5</ele>
        <time>2024-08-14T09:56:35Z</time>
      </trkpt>
      <trkpt lat="44.61896" lon="2.54736">
        <ele>559.6</ele>
        <time>2024-08-14T09:56:36Z</time>
      </trkpt>
      <trkpt lat="44.61896" lon="2.54734">
        <ele>559.6</ele>
        <time>2024-08-14T09:56:37Z</time>
      </trkpt>
      <trkpt lat="44.61894" lon="2.54732">
        <ele>559.7</ele>
        <time>2024-08-14T09:56:38Z</time>
      </trkpt>
      <trkpt lat="44.61893" lon="2.54732">
        <ele>559.7</ele>
        <time>2024-08-14T09:56:39Z</time>
      </trkpt>
      <trkpt lat="44.6189" lon="2.54727">
        <ele>559.9</ele>
        <time>2024-08-14T09:56:40Z</time>
      </trkpt>
      <trkpt lat="44.61885" lon="2.5472">
        <ele>560.2</ele>
        <time>2024-08-14T09:56:42Z</time>
      </trkpt>
      <trkpt lat="44.61881" lon="2.54714">
        <ele>560.7</ele>
        <time>2024-08-14T09:56:44Z</time>
      </trkpt>
      <trkpt lat="44.61876" lon="2.54708">
        <ele>561.2</ele>
        <time>2024-08-14T09:56:46Z</time>
      </trkpt>
      <trkpt lat="44.61873" lon="2.54706">
        <ele>561.4</ele>
        <time>2024-08-14T09:56:47Z</time>
      </trkpt>
      <trkpt lat="44.61872" lon="2.54705">
        <ele>561.5</ele>
        <time>2024-08-14T09:56:48Z</time>
      </trkpt>
      <trkpt lat="44.61868" lon="2.54701">
        <ele>561.8</ele>
        <time>2024-08-14T09:56:50Z</time>
      </trkpt>
      <trkpt lat="44.61866" lon="2.547">
        <ele>562</ele>
        <time>2024-08-14T09:56:52Z</time>
      </trkpt>
      <trkpt lat="44.61864" lon="2.54698">
        <ele>562.1</ele>
        <time>2024-08-14T09:56:53Z</time>
      </trkpt>
      <trkpt lat="44.61862" lon="2.54697">
        <ele>562.3</ele>
        <time>2024-08-14T09:56:54Z</time>
      </trkpt>
      <trkpt lat="44.61858" lon="2.54693">
        <ele>562.5</ele>
        <time>2024-08-14T09:56:56Z</time>
      </trkpt>
      <trkpt lat="44.61854" lon="2.54689">
        <ele>562.8</ele>
        <time>2024-08-14T09:56:58Z</time>
      </trkpt>
      <trkpt lat="44.61851" lon="2.54685">
        <ele>563</ele>
        <time>2024-08-14T09:57:00Z</time>
      </trkpt>
      <trkpt lat="44.61849" lon="2.54682">
        <ele>563.1</ele>
        <time>2024-08-14T09:57:02Z</time>
      </trkpt>
      <trkpt lat="44.61848" lon="2.54681">
        <ele>563.2</ele>
        <time>2024-08-14T09:57:03Z</time>
      </trkpt>
      <trkpt lat="44.61848" lon="2.5468">
        <ele>563.2</ele>
        <time>2024-08-14T09:57:04Z</time>
      </trkpt>
      <trkpt lat="44.61847" lon="2.54676">
        <ele>563.3</ele>
        <time>2024-08-14T09:57:06Z</time>
      </trkpt>
      <trkpt lat="44.61846" lon="2.54672">
        <ele>563.5</ele>
        <time>2024-08-14T09:57:08Z</time>
      </trkpt>
      <trkpt lat="44.61845" lon="2.54668">
        <ele>563.6</ele>
        <time>2024-08-14T09:57:10Z</time>
      </trkpt>
      <trkpt lat="44.61845" lon="2.54666">
        <ele>563.7</ele>
        <time>2024-08-14T09:57:11Z</time>
      </trkpt>
      <trkpt lat="44.61844" lon="2.54663">
        <ele>563.8</ele>
        <time>2024-08-14T09:57:12Z</time>
      </trkpt>
      <trkpt lat="44.61842" lon="2.54659">
        <ele>564</ele>
        <time>2024-08-14T09:57:14Z</time>
      </trkpt>
      <trkpt lat="44.61842" lon="2.54657">
        <ele>564</ele>
        <time>2024-08-14T09:57:15Z</time>
      </trkpt>
      <trkpt lat="44.61842" lon="2.54655">
        <ele>564.1</ele>
        <time>2024-08-14T09:57:16Z</time>
      </trkpt>
      <trkpt lat="44.61841" lon="2.54651">
        <ele>564.4</ele>
        <time>2024-08-14T09:57:18Z</time>
      </trkpt>
      <trkpt lat="44.61838" lon="2.54646">
        <ele>564.7</ele>
        <time>2024-08-14T09:57:20Z</time>
      </trkpt>
      <trkpt lat="44.61836" lon="2.54641">
        <ele>565</ele>
        <time>2024-08-14T09:57:22Z</time>
      </trkpt>
      <trkpt lat="44.61835" lon="2.54639">
        <ele>565.2</ele>
        <time>2024-08-14T09:57:23Z</time>
      </trkpt>
      <trkpt lat="44.61835" lon="2.54635">
        <ele>565.4</ele>
        <time>2024-08-14T09:57:24Z</time>
      </trkpt>
      <trkpt lat="44.61834" lon="2.54632">
        <ele>565.7</ele>
        <time>2024-08-14T09:57:25Z</time>
      </trkpt>
      <trkpt lat="44.61834" lon="2.54628">
        <ele>565.9</ele>
        <time>2024-08-14T09:57:26Z</time>
      </trkpt>
      <trkpt lat="44.61834" lon="2.54622">
        <ele>566.2</ele>
        <time>2024-08-14T09:57:28Z</time>
      </trkpt>
      <trkpt lat="44.61836" lon="2.54616">
        <ele>566.5</ele>
        <time>2024-08-14T09:57:30Z</time>
      </trkpt>
      <trkpt lat="44.61836" lon="2.54614">
        <ele>566.6</ele>
        <time>2024-08-14T09:57:31Z</time>
      </trkpt>
      <trkpt lat="44.61836" lon="2.54612">
        <ele>566.7</ele>
        <time>2024-08-14T09:57:32Z</time>
      </trkpt>
      <trkpt lat="44.61837" lon="2.54608">
        <ele>567</ele>
        <time>2024-08-14T09:57:34Z</time>
      </trkpt>
      <trkpt lat="44.61838" lon="2.54605">
        <ele>567.1</ele>
        <time>2024-08-14T09:57:35Z</time>
      </trkpt>
      <trkpt lat="44.61838" lon="2.54603">
        <ele>567.2</ele>
        <time>2024-08-14T09:57:36Z</time>
      </trkpt>
      <trkpt lat="44.61837" lon="2.54598">
        <ele>567.3</ele>
        <time>2024-08-14T09:57:38Z</time>
      </trkpt>
      <trkpt lat="44.61837" lon="2.54593">
        <ele>567.5</ele>
        <time>2024-08-14T09:57:40Z</time>
      </trkpt>
      <trkpt lat="44.61837" lon="2.5459">
        <ele>567.6</ele>
        <time>2024-08-14T09:57:41Z</time>
      </trkpt>
      <trkpt lat="44.61836" lon="2.54588">
        <ele>567.6</ele>
        <time>2024-08-14T09:57:42Z</time>
      </trkpt>
      <trkpt lat="44.61836" lon="2.54587">
        <ele>567.6</ele>
        <time>2024-08-14T09:57:43Z</time>
      </trkpt>
      <trkpt lat="44.61835" lon="2.54585">
        <ele>567.7</ele>
        <time>2024-08-14T09:57:44Z</time>
      </trkpt>
      <trkpt lat="44.61833" lon="2.54582">
        <ele>567.7</ele>
        <time>2024-08-14T09:57:46Z</time>
      </trkpt>
      <trkpt lat="44.61833" lon="2.5458">
        <ele>567.7</ele>
        <time>2024-08-14T09:57:47Z</time>
      </trkpt>
      <trkpt lat="44.61833" lon="2.54579">
        <ele>567.8</ele>
        <time>2024-08-14T09:57:48Z</time>
      </trkpt>
      <trkpt lat="44.61833" lon="2.54577">
        <ele>567.8</ele>
        <time>2024-08-14T09:57:50Z</time>
      </trkpt>
      <trkpt lat="44.61837" lon="2.54576">
        <ele>567.8</ele>
        <time>2024-08-14T09:57:52Z</time>
      </trkpt>
      <trkpt lat="44.61837" lon="2.54575">
        <ele>567.8</ele>
        <time>2024-08-14T09:57:53Z</time>
      </trkpt>
      <trkpt lat="44.61837" lon="2.54574">
        <ele>567.8</ele>
        <time>2024-08-14T09:57:54Z</time>
      </trkpt>
      <trkpt lat="44.61834" lon="2.54571">
        <ele>567.8</ele>
        <time>2024-08-14T09:57:56Z</time>
      </trkpt>
      <trkpt lat="44.61832" lon="2.5457">
        <ele>567.8</ele>
        <time>2024-08-14T09:57:57Z</time>
      </trkpt>
      <trkpt lat="44.6183" lon="2.54568">
        <ele>567.8</ele>
        <time>2024-08-14T09:57:58Z</time>
      </trkpt>
      <trkpt lat="44.61827" lon="2.54565">
        <ele>567.7</ele>
        <time>2024-08-14T09:58:00Z</time>
      </trkpt>
      <trkpt lat="44.61825" lon="2.54564">
        <ele>567.7</ele>
        <time>2024-08-14T09:58:02Z</time>
      </trkpt>
      <trkpt lat="44.61822" lon="2.54562">
        <ele>567.7</ele>
        <time>2024-08-14T09:58:04Z</time>
      </trkpt>
      <trkpt lat="44.61818" lon="2.54559">
        <ele>567.6</ele>
        <time>2024-08-14T09:58:06Z</time>
      </trkpt>
      <trkpt lat="44.61816" lon="2.54558">
        <ele>567.5</ele>
        <time>2024-08-14T09:58:07Z</time>
      </trkpt>
      <trkpt lat="44.61814" lon="2.54557">
        <ele>567.4</ele>
        <time>2024-08-14T09:58:08Z</time>
      </trkpt>
      <trkpt lat="44.61809" lon="2.54555">
        <ele>567.2</ele>
        <time>2024-08-14T09:58:10Z</time>
      </trkpt>
      <trkpt lat="44.61808" lon="2.54554">
        <ele>567.2</ele>
        <time>2024-08-14T09:58:11Z</time>
      </trkpt>
      <trkpt lat="44.61806" lon="2.54554">
        <ele>567.1</ele>
        <time>2024-08-14T09:58:12Z</time>
      </trkpt>
      <trkpt lat="44.61801" lon="2.54552">
        <ele>566.9</ele>
        <time>2024-08-14T09:58:14Z</time>
      </trkpt>
      <trkpt lat="44.61798" lon="2.54552">
        <ele>566.9</ele>
        <time>2024-08-14T09:58:15Z</time>
      </trkpt>
      <trkpt lat="44.61796" lon="2.54551">
        <ele>566.8</ele>
        <time>2024-08-14T09:58:16Z</time>
      </trkpt>
      <trkpt lat="44.61793" lon="2.54551">
        <ele>566.7</ele>
        <time>2024-08-14T09:58:18Z</time>
      </trkpt>
      <trkpt lat="44.61791" lon="2.5455">
        <ele>566.7</ele>
        <time>2024-08-14T09:58:19Z</time>
      </trkpt>
      <trkpt lat="44.61789" lon="2.5455">
        <ele>566.6</ele>
        <time>2024-08-14T09:58:20Z</time>
      </trkpt>
      <trkpt lat="44.61786" lon="2.54548">
        <ele>566.6</ele>
        <time>2024-08-14T09:58:21Z</time>
      </trkpt>
      <trkpt lat="44.61784" lon="2.54547">
        <ele>566.5</ele>
        <time>2024-08-14T09:58:22Z</time>
      </trkpt>
      <trkpt lat="44.6178" lon="2.54546">
        <ele>566.4</ele>
        <time>2024-08-14T09:58:23Z</time>
      </trkpt>
      <trkpt lat="44.61777" lon="2.54544">
        <ele>566.4</ele>
        <time>2024-08-14T09:58:24Z</time>
      </trkpt>
      <trkpt lat="44.61773" lon="2.54543">
        <ele>566.3</ele>
        <time>2024-08-14T09:58:26Z</time>
      </trkpt>
      <trkpt lat="44.61769" lon="2.54543">
        <ele>566.2</ele>
        <time>2024-08-14T09:58:28Z</time>
      </trkpt>
      <trkpt lat="44.61765" lon="2.54541">
        <ele>566.2</ele>
        <time>2024-08-14T09:58:30Z</time>
      </trkpt>
      <trkpt lat="44.61761" lon="2.5454">
        <ele>566.1</ele>
        <time>2024-08-14T09:58:32Z</time>
      </trkpt>
      <trkpt lat="44.61761" lon="2.5454">
        <ele>566.1</ele>
        <time>2024-08-14T09:58:33Z</time>
      </trkpt>
      <trkpt lat="44.61755" lon="2.54538">
        <ele>566.1</ele>
        <time>2024-08-14T09:58:38Z</time>
      </trkpt>
      <trkpt lat="44.61751" lon="2.54538">
        <ele>566</ele>
        <time>2024-08-14T09:58:39Z</time>
      </trkpt>
      <trkpt lat="44.61748" lon="2.54537">
        <ele>566</ele>
        <time>2024-08-14T09:58:40Z</time>
      </trkpt>
      <trkpt lat="44.61743" lon="2.54535">
        <ele>566</ele>
        <time>2024-08-14T09:58:42Z</time>
      </trkpt>
      <trkpt lat="44.61738" lon="2.54532">
        <ele>565.9</ele>
        <time>2024-08-14T09:58:44Z</time>
      </trkpt>
      <trkpt lat="44.61734" lon="2.54529">
        <ele>565.7</ele>
        <time>2024-08-14T09:58:46Z</time>
      </trkpt>
      <trkpt lat="44.6173" lon="2.54526">
        <ele>565.6</ele>
        <time>2024-08-14T09:58:48Z</time>
      </trkpt>
      <trkpt lat="44.61726" lon="2.54523">
        <ele>565.5</ele>
        <time>2024-08-14T09:58:50Z</time>
      </trkpt>
      <trkpt lat="44.6172" lon="2.54519">
        <ele>565.3</ele>
        <time>2024-08-14T09:58:52Z</time>
      </trkpt>
      <trkpt lat="44.61714" lon="2.54516">
        <ele>565</ele>
        <time>2024-08-14T09:58:54Z</time>
      </trkpt>
      <trkpt lat="44.61712" lon="2.54515">
        <ele>564.9</ele>
        <time>2024-08-14T09:58:55Z</time>
      </trkpt>
      <trkpt lat="44.6171" lon="2.54513">
        <ele>564.8</ele>
        <time>2024-08-14T09:58:56Z</time>
      </trkpt>
      <trkpt lat="44.61704" lon="2.5451">
        <ele>564.4</ele>
        <time>2024-08-14T09:58:58Z</time>
      </trkpt>
      <trkpt lat="44.61697" lon="2.54508">
        <ele>563.9</ele>
        <time>2024-08-14T09:58:59Z</time>
      </trkpt>
      <trkpt lat="44.61692" lon="2.54504">
        <ele>563.5</ele>
        <time>2024-08-14T09:59:00Z</time>
      </trkpt>
      <trkpt lat="44.61688" lon="2.545">
        <ele>563.2</ele>
        <time>2024-08-14T09:59:01Z</time>
      </trkpt>
      <trkpt lat="44.61686" lon="2.54495">
        <ele>563.1</ele>
        <time>2024-08-14T09:59:02Z</time>
      </trkpt>
      <trkpt lat="44.61685" lon="2.54491">
        <ele>563</ele>
        <time>2024-08-14T09:59:03Z</time>
      </trkpt>
      <trkpt lat="44.61684" lon="2.54488">
        <ele>563</ele>
        <time>2024-08-14T09:59:04Z</time>
      </trkpt>
      <trkpt lat="44.61681" lon="2.54482">
        <ele>562.9</ele>
        <time>2024-08-14T09:59:06Z</time>
      </trkpt>
      <trkpt lat="44.61682" lon="2.54479">
        <ele>562.9</ele>
        <time>2024-08-14T09:59:08Z</time>
      </trkpt>
      <trkpt lat="44.61685" lon="2.54475">
        <ele>562.9</ele>
        <time>2024-08-14T09:59:10Z</time>
      </trkpt>
      <trkpt lat="44.61686" lon="2.54473">
        <ele>563</ele>
        <time>2024-08-14T09:59:11Z</time>
      </trkpt>
      <trkpt lat="44.61688" lon="2.54471">
        <ele>563</ele>
        <time>2024-08-14T09:59:12Z</time>
      </trkpt>
      <trkpt lat="44.61689" lon="2.54467">
        <ele>563.1</ele>
        <time>2024-08-14T09:59:14Z</time>
      </trkpt>
      <trkpt lat="44.61689" lon="2.54462">
        <ele>563.2</ele>
        <time>2024-08-14T09:59:16Z</time>
      </trkpt>
      <trkpt lat="44.61689" lon="2.5446">
        <ele>563.3</ele>
        <time>2024-08-14T09:59:17Z</time>
      </trkpt>
      <trkpt lat="44.61689" lon="2.54457">
        <ele>563.3</ele>
        <time>2024-08-14T09:59:18Z</time>
      </trkpt>
      <trkpt lat="44.61689" lon="2.54454">
        <ele>563.4</ele>
        <time>2024-08-14T09:59:19Z</time>
      </trkpt>
      <trkpt lat="44.6169" lon="2.54452">
        <ele>563.5</ele>
        <time>2024-08-14T09:59:20Z</time>
      </trkpt>
      <trkpt lat="44.61693" lon="2.54449">
        <ele>563.6</ele>
        <time>2024-08-14T09:59:22Z</time>
      </trkpt>
      <trkpt lat="44.61695" lon="2.54445">
        <ele>563.7</ele>
        <time>2024-08-14T09:59:24Z</time>
      </trkpt>
      <trkpt lat="44.61699" lon="2.54444">
        <ele>563.8</ele>
        <time>2024-08-14T09:59:26Z</time>
      </trkpt>
      <trkpt lat="44.61703" lon="2.54445">
        <ele>563.8</ele>
        <time>2024-08-14T09:59:28Z</time>
      </trkpt>
      <trkpt lat="44.61705" lon="2.54445">
        <ele>563.9</ele>
        <time>2024-08-14T09:59:29Z</time>
      </trkpt>
      <trkpt lat="44.61707" lon="2.54445">
        <ele>563.9</ele>
        <time>2024-08-14T09:59:30Z</time>
      </trkpt>
      <trkpt lat="44.61712" lon="2.54446">
        <ele>564.1</ele>
        <time>2024-08-14T09:59:32Z</time>
      </trkpt>
      <trkpt lat="44.61718" lon="2.54446">
        <ele>564.2</ele>
        <time>2024-08-14T09:59:34Z</time>
      </trkpt>
      <trkpt lat="44.61721" lon="2.54446">
        <ele>564.3</ele>
        <time>2024-08-14T09:59:35Z</time>
      </trkpt>
      <trkpt lat="44.61724" lon="2.54446">
        <ele>564.3</ele>
        <time>2024-08-14T09:59:36Z</time>
      </trkpt>
      <trkpt lat="44.6173" lon="2.54446">
        <ele>564.4</ele>
        <time>2024-08-14T09:59:38Z</time>
      </trkpt>
      <trkpt lat="44.61736" lon="2.54447">
        <ele>564.4</ele>
        <time>2024-08-14T09:59:40Z</time>
      </trkpt>
      <trkpt lat="44.61738" lon="2.54448">
        <ele>564.4</ele>
        <time>2024-08-14T09:59:41Z</time>
      </trkpt>
      <trkpt lat="44.61741" lon="2.54449">
        <ele>564.4</ele>
        <time>2024-08-14T09:59:42Z</time>
      </trkpt>
      <trkpt lat="44.61748" lon="2.5445">
        <ele>564.4</ele>
        <time>2024-08-14T09:59:44Z</time>
      </trkpt>
      <trkpt lat="44.61755" lon="2.54451">
        <ele>564.4</ele>
        <time>2024-08-14T09:59:46Z</time>
      </trkpt>
      <trkpt lat="44.61758" lon="2.54452">
        <ele>564.4</ele>
        <time>2024-08-14T09:59:47Z</time>
      </trkpt>
      <trkpt lat="44.61762" lon="2.54452">
        <ele>564.4</ele>
        <time>2024-08-14T09:59:48Z</time>
      </trkpt>
      <trkpt lat="44.61769" lon="2.5445">
        <ele>564.4</ele>
        <time>2024-08-14T09:59:50Z</time>
      </trkpt>
      <trkpt lat="44.61775" lon="2.54447">
        <ele>564.5</ele>
        <time>2024-08-14T09:59:52Z</time>
      </trkpt>
      <trkpt lat="44.61776" lon="2.54444">
        <ele>564.5</ele>
        <time>2024-08-14T09:59:53Z</time>
      </trkpt>
      <trkpt lat="44.61777" lon="2.54441">
        <ele>564.5</ele>
        <time>2024-08-14T09:59:54Z</time>
      </trkpt>
      <trkpt lat="44.6178" lon="2.54438">
        <ele>564.6</ele>
        <time>2024-08-14T09:59:55Z</time>
      </trkpt>
      <trkpt lat="44.61783" lon="2.54435">
        <ele>564.6</ele>
        <time>2024-08-14T09:59:56Z</time>
      </trkpt>
      <trkpt lat="44.61787" lon="2.54433">
        <ele>564.7</ele>
        <time>2024-08-14T09:59:58Z</time>
      </trkpt>
      <trkpt lat="44.61789" lon="2.54432">
        <ele>564.7</ele>
        <time>2024-08-14T09:59:59Z</time>
      </trkpt>
      <trkpt lat="44.61792" lon="2.54433">
        <ele>564.8</ele>
        <time>2024-08-14T10:00:00Z</time>
      </trkpt>
      <trkpt lat="44.61798" lon="2.54434">
        <ele>564.9</ele>
        <time>2024-08-14T10:00:01Z</time>
      </trkpt>
      <trkpt lat="44.61803" lon="2.54437">
        <ele>564.9</ele>
        <time>2024-08-14T10:00:02Z</time>
      </trkpt>
      <trkpt lat="44.61815" lon="2.54443">
        <ele>565</ele>
        <time>2024-08-14T10:00:04Z</time>
      </trkpt>
      <trkpt lat="44.61822" lon="2.54448">
        <ele>565</ele>
        <time>2024-08-14T10:00:06Z</time>
      </trkpt>
      <trkpt lat="44.61829" lon="2.54454">
        <ele>564.9</ele>
        <time>2024-08-14T10:00:08Z</time>
      </trkpt>
      <trkpt lat="44.61832" lon="2.54456">
        <ele>564.8</ele>
        <time>2024-08-14T10:00:09Z</time>
      </trkpt>
      <trkpt lat="44.61836" lon="2.54458">
        <ele>564.7</ele>
        <time>2024-08-14T10:00:10Z</time>
      </trkpt>
      <trkpt lat="44.61841" lon="2.54462">
        <ele>564.6</ele>
        <time>2024-08-14T10:00:12Z</time>
      </trkpt>
      <trkpt lat="44.61844" lon="2.54464">
        <ele>564.6</ele>
        <time>2024-08-14T10:00:13Z</time>
      </trkpt>
      <trkpt lat="44.61847" lon="2.54467">
        <ele>564.5</ele>
        <time>2024-08-14T10:00:14Z</time>
      </trkpt>
      <trkpt lat="44.61853" lon="2.54472">
        <ele>564.5</ele>
        <time>2024-08-14T10:00:16Z</time>
      </trkpt>
      <trkpt lat="44.61855" lon="2.54474">
        <ele>564.5</ele>
        <time>2024-08-14T10:00:17Z</time>
      </trkpt>
      <trkpt lat="44.61856" lon="2.54476">
        <ele>564.5</ele>
        <time>2024-08-14T10:00:18Z</time>
      </trkpt>
      <trkpt lat="44.61862" lon="2.54483">
        <ele>564.5</ele>
        <time>2024-08-14T10:00:20Z</time>
      </trkpt>
      <trkpt lat="44.61866" lon="2.54488">
        <ele>564.6</ele>
        <time>2024-08-14T10:00:22Z</time>
      </trkpt>
      <trkpt lat="44.61871" lon="2.54496">
        <ele>564.8</ele>
        <time>2024-08-14T10:00:24Z</time>
      </trkpt>
      <trkpt lat="44.61877" lon="2.54501">
        <ele>565</ele>
        <time>2024-08-14T10:00:26Z</time>
      </trkpt>
      <trkpt lat="44.61884" lon="2.54505">
        <ele>565.2</ele>
        <time>2024-08-14T10:00:28Z</time>
      </trkpt>
      <trkpt lat="44.61887" lon="2.54506">
        <ele>565.3</ele>
        <time>2024-08-14T10:00:29Z</time>
      </trkpt>
      <trkpt lat="44.61888" lon="2.54506">
        <ele>565.3</ele>
        <time>2024-08-14T10:00:30Z</time>
      </trkpt>
      <trkpt lat="44.61891" lon="2.54506">
        <ele>565.4</ele>
        <time>2024-08-14T10:00:31Z</time>
      </trkpt>
      <trkpt lat="44.61894" lon="2.54505">
        <ele>565.5</ele>
        <time>2024-08-14T10:00:32Z</time>
      </trkpt>
      <trkpt lat="44.61897" lon="2.54505">
        <ele>565.6</ele>
        <time>2024-08-14T10:00:33Z</time>
      </trkpt>
      <trkpt lat="44.619" lon="2.54505">
        <ele>565.8</ele>
        <time>2024-08-14T10:00:34Z</time>
      </trkpt>
      <trkpt lat="44.61907" lon="2.54506">
        <ele>566.1</ele>
        <time>2024-08-14T10:00:36Z</time>
      </trkpt>
      <trkpt lat="44.61913" lon="2.54506">
        <ele>566.3</ele>
        <time>2024-08-14T10:00:38Z</time>
      </trkpt>
      <trkpt lat="44.61919" lon="2.54507">
        <ele>566.6</ele>
        <time>2024-08-14T10:00:40Z</time>
      </trkpt>
      <trkpt lat="44.61924" lon="2.54507">
        <ele>566.7</ele>
        <time>2024-08-14T10:00:42Z</time>
      </trkpt>
      <trkpt lat="44.61929" lon="2.54508">
        <ele>566.9</ele>
        <time>2024-08-14T10:00:44Z</time>
      </trkpt>
      <trkpt lat="44.61934" lon="2.54509">
        <ele>567</ele>
        <time>2024-08-14T10:00:46Z</time>
      </trkpt>
      <trkpt lat="44.61939" lon="2.5451">
        <ele>567.1</ele>
        <time>2024-08-14T10:00:48Z</time>
      </trkpt>
      <trkpt lat="44.61941" lon="2.5451">
        <ele>567.2</ele>
        <time>2024-08-14T10:00:49Z</time>
      </trkpt>
      <trkpt lat="44.61943" lon="2.54509">
        <ele>567.3</ele>
        <time>2024-08-14T10:00:50Z</time>
      </trkpt>
      <trkpt lat="44.61947" lon="2.54505">
        <ele>567.5</ele>
        <time>2024-08-14T10:00:52Z</time>
      </trkpt>
      <trkpt lat="44.61949" lon="2.54502">
        <ele>567.6</ele>
        <time>2024-08-14T10:00:54Z</time>
      </trkpt>
      <trkpt lat="44.61954" lon="2.54497">
        <ele>568.1</ele>
        <time>2024-08-14T10:00:56Z</time>
      </trkpt>
      <trkpt lat="44.61956" lon="2.54492">
        <ele>568.4</ele>
        <time>2024-08-14T10:00:58Z</time>
      </trkpt>
      <trkpt lat="44.61955" lon="2.54489">
        <ele>568.7</ele>
        <time>2024-08-14T10:01:00Z</time>
      </trkpt>
      <trkpt lat="44.61954" lon="2.54488">
        <ele>568.8</ele>
        <time>2024-08-14T10:01:01Z</time>
      </trkpt>
      <trkpt lat="44.61954" lon="2.54486">
        <ele>568.9</ele>
        <time>2024-08-14T10:01:02Z</time>
      </trkpt>
      <trkpt lat="44.61954" lon="2.54483">
        <ele>569.2</ele>
        <time>2024-08-14T10:01:04Z</time>
      </trkpt>
      <trkpt lat="44.61956" lon="2.5448">
        <ele>569.5</ele>
        <time>2024-08-14T10:01:06Z</time>
      </trkpt>
      <trkpt lat="44.61957" lon="2.54477">
        <ele>569.8</ele>
        <time>2024-08-14T10:01:08Z</time>
      </trkpt>
      <trkpt lat="44.61957" lon="2.54474">
        <ele>570.1</ele>
        <time>2024-08-14T10:01:10Z</time>
      </trkpt>
      <trkpt lat="44.61955" lon="2.54471">
        <ele>570.6</ele>
        <time>2024-08-14T10:01:12Z</time>
      </trkpt>
      <trkpt lat="44.61955" lon="2.54466">
        <ele>571.1</ele>
        <time>2024-08-14T10:01:14Z</time>
      </trkpt>
      <trkpt lat="44.61953" lon="2.54462">
        <ele>571.6</ele>
        <time>2024-08-14T10:01:16Z</time>
      </trkpt>
      <trkpt lat="44.61953" lon="2.54459">
        <ele>572</ele>
        <time>2024-08-14T10:01:17Z</time>
      </trkpt>
      <trkpt lat="44.61951" lon="2.54457">
        <ele>572.3</ele>
        <time>2024-08-14T10:01:18Z</time>
      </trkpt>
      <trkpt lat="44.6195" lon="2.54454">
        <ele>572.8</ele>
        <time>2024-08-14T10:01:20Z</time>
      </trkpt>
      <trkpt lat="44.6195" lon="2.54451">
        <ele>573.2</ele>
        <time>2024-08-14T10:01:22Z</time>
      </trkpt>
      <trkpt lat="44.6195" lon="2.54448">
        <ele>573.6</ele>
        <time>2024-08-14T10:01:24Z</time>
      </trkpt>
      <trkpt lat="44.6195" lon="2.54444">
        <ele>574</ele>
        <time>2024-08-14T10:01:26Z</time>
      </trkpt>
      <trkpt lat="44.6195" lon="2.54441">
        <ele>574.3</ele>
        <time>2024-08-14T10:01:28Z</time>
      </trkpt>
      <trkpt lat="44.61949" lon="2.54439">
        <ele>574.5</ele>
        <time>2024-08-14T10:01:29Z</time>
      </trkpt>
      <trkpt lat="44.61949" lon="2.54438">
        <ele>574.7</ele>
        <time>2024-08-14T10:01:30Z</time>
      </trkpt>
      <trkpt lat="44.61951" lon="2.54434">
        <ele>575.3</ele>
        <time>2024-08-14T10:01:32Z</time>
      </trkpt>
      <trkpt lat="44.61952" lon="2.54429">
        <ele>575.8</ele>
        <time>2024-08-14T10:01:34Z</time>
      </trkpt>
      <trkpt lat="44.61952" lon="2.54428">
        <ele>576</ele>
        <time>2024-08-14T10:01:35Z</time>
      </trkpt>
      <trkpt lat="44.61953" lon="2.54426">
        <ele>576.1</ele>
        <time>2024-08-14T10:01:36Z</time>
      </trkpt>
      <trkpt lat="44.61953" lon="2.54423">
        <ele>576.4</ele>
        <time>2024-08-14T10:01:38Z</time>
      </trkpt>
      <trkpt lat="44.61953" lon="2.54419">
        <ele>576.8</ele>
        <time>2024-08-14T10:01:40Z</time>
      </trkpt>
      <trkpt lat="44.61953" lon="2.54415">
        <ele>577.2</ele>
        <time>2024-08-14T10:01:42Z</time>
      </trkpt>
      <trkpt lat="44.61953" lon="2.54412">
        <ele>577.5</ele>
        <time>2024-08-14T10:01:44Z</time>
      </trkpt>
      <trkpt lat="44.61953" lon="2.54408">
        <ele>577.8</ele>
        <time>2024-08-14T10:01:46Z</time>
      </trkpt>
      <trkpt lat="44.61953" lon="2.54404">
        <ele>578.2</ele>
        <time>2024-08-14T10:01:48Z</time>
      </trkpt>
      <trkpt lat="44.61952" lon="2.54403">
        <ele>578.3</ele>
        <time>2024-08-14T10:01:49Z</time>
      </trkpt>
      <trkpt lat="44.61952" lon="2.54401">
        <ele>578.5</ele>
        <time>2024-08-14T10:01:50Z</time>
      </trkpt>
      <trkpt lat="44.61952" lon="2.54398">
        <ele>578.8</ele>
        <time>2024-08-14T10:01:52Z</time>
      </trkpt>
      <trkpt lat="44.61953" lon="2.54396">
        <ele>579</ele>
        <time>2024-08-14T10:01:53Z</time>
      </trkpt>
      <trkpt lat="44.61952" lon="2.54394">
        <ele>579.2</ele>
        <time>2024-08-14T10:01:54Z</time>
      </trkpt>
      <trkpt lat="44.61952" lon="2.54391">
        <ele>579.5</ele>
        <time>2024-08-14T10:01:56Z</time>
      </trkpt>
      <trkpt lat="44.61952" lon="2.54387">
        <ele>579.8</ele>
        <time>2024-08-14T10:01:58Z</time>
      </trkpt>
      <trkpt lat="44.61951" lon="2.54383">
        <ele>580.1</ele>
        <time>2024-08-14T10:02:00Z</time>
      </trkpt>
      <trkpt lat="44.61952" lon="2.54382">
        <ele>580.3</ele>
        <time>2024-08-14T10:02:01Z</time>
      </trkpt>
      <trkpt lat="44.61952" lon="2.5438">
        <ele>580.4</ele>
        <time>2024-08-14T10:02:02Z</time>
      </trkpt>
      <trkpt lat="44.61953" lon="2.54376">
        <ele>580.7</ele>
        <time>2024-08-14T10:02:04Z</time>
      </trkpt>
      <trkpt lat="44.61953" lon="2.54372">
        <ele>581</ele>
        <time>2024-08-14T10:02:06Z</time>
      </trkpt>
      <trkpt lat="44.61952" lon="2.54368">
        <ele>581.3</ele>
        <time>2024-08-14T10:02:08Z</time>
      </trkpt>
      <trkpt lat="44.61952" lon="2.54364">
        <ele>581.6</ele>
        <time>2024-08-14T10:02:10Z</time>
      </trkpt>
      <trkpt lat="44.61952" lon="2.5436">
        <ele>581.9</ele>
        <time>2024-08-14T10:02:12Z</time>
      </trkpt>
      <trkpt lat="44.61952" lon="2.54355">
        <ele>582.1</ele>
        <time>2024-08-14T10:02:14Z</time>
      </trkpt>
      <trkpt lat="44.61952" lon="2.5435">
        <ele>582.4</ele>
        <time>2024-08-14T10:02:16Z</time>
      </trkpt>
      <trkpt lat="44.61952" lon="2.54348">
        <ele>582.5</ele>
        <time>2024-08-14T10:02:17Z</time>
      </trkpt>
      <trkpt lat="44.61953" lon="2.54346">
        <ele>582.7</ele>
        <time>2024-08-14T10:02:18Z</time>
      </trkpt>
      <trkpt lat="44.61953" lon="2.54342">
        <ele>582.8</ele>
        <time>2024-08-14T10:02:20Z</time>
      </trkpt>
      <trkpt lat="44.61953" lon="2.54338">
        <ele>583</ele>
        <time>2024-08-14T10:02:22Z</time>
      </trkpt>
      <trkpt lat="44.61954" lon="2.54334">
        <ele>583.2</ele>
        <time>2024-08-14T10:02:24Z</time>
      </trkpt>
      <trkpt lat="44.61953" lon="2.5433">
        <ele>583.3</ele>
        <time>2024-08-14T10:02:26Z</time>
      </trkpt>
      <trkpt lat="44.61952" lon="2.54326">
        <ele>583.5</ele>
        <time>2024-08-14T10:02:28Z</time>
      </trkpt>
      <trkpt lat="44.61951" lon="2.54324">
        <ele>583.7</ele>
        <time>2024-08-14T10:02:30Z</time>
      </trkpt>
      <trkpt lat="44.6195" lon="2.54323">
        <ele>583.7</ele>
        <time>2024-08-14T10:02:31Z</time>
      </trkpt>
      <trkpt lat="44.61948" lon="2.54323">
        <ele>583.9</ele>
        <time>2024-08-14T10:02:32Z</time>
      </trkpt>
      <trkpt lat="44.61947" lon="2.54323">
        <ele>583.9</ele>
        <time>2024-08-14T10:02:33Z</time>
      </trkpt>
      <trkpt lat="44.61946" lon="2.54323">
        <ele>584</ele>
        <time>2024-08-14T10:02:34Z</time>
      </trkpt>
      <trkpt lat="44.61945" lon="2.54323">
        <ele>584.1</ele>
        <time>2024-08-14T10:02:36Z</time>
      </trkpt>
      <trkpt lat="44.61945" lon="2.54323">
        <ele>584.1</ele>
        <time>2024-08-14T10:02:37Z</time>
      </trkpt>
      <trkpt lat="44.61937" lon="2.54324">
        <ele>584.6</ele>
        <time>2024-08-14T10:03:06Z</time>
      </trkpt>
      <trkpt lat="44.61936" lon="2.54324">
        <ele>584.7</ele>
        <time>2024-08-14T10:03:07Z</time>
      </trkpt>
      <trkpt lat="44.61934" lon="2.54324">
        <ele>584.8</ele>
        <time>2024-08-14T10:03:08Z</time>
      </trkpt>
      <trkpt lat="44.61933" lon="2.54323">
        <ele>584.9</ele>
        <time>2024-08-14T10:03:09Z</time>
      </trkpt>
      <trkpt lat="44.61932" lon="2.54323">
        <ele>585</ele>
        <time>2024-08-14T10:03:10Z</time>
      </trkpt>
      <trkpt lat="44.61928" lon="2.54322">
        <ele>585.2</ele>
        <time>2024-08-14T10:03:12Z</time>
      </trkpt>
      <trkpt lat="44.61925" lon="2.54323">
        <ele>585.4</ele>
        <time>2024-08-14T10:03:14Z</time>
      </trkpt>
      <trkpt lat="44.6192" lon="2.54322">
        <ele>585.7</ele>
        <time>2024-08-14T10:03:16Z</time>
      </trkpt>
      <trkpt lat="44.61916" lon="2.54322">
        <ele>586</ele>
        <time>2024-08-14T10:03:18Z</time>
      </trkpt>
      <trkpt lat="44.61912" lon="2.54322">
        <ele>586.2</ele>
        <time>2024-08-14T10:03:20Z</time>
      </trkpt>
      <trkpt lat="44.61911" lon="2.54322">
        <ele>586.4</ele>
        <time>2024-08-14T10:03:21Z</time>
      </trkpt>
      <trkpt lat="44.61909" lon="2.54322">
        <ele>586.5</ele>
        <time>2024-08-14T10:03:22Z</time>
      </trkpt>
      <trkpt lat="44.61906" lon="2.54321">
        <ele>586.7</ele>
        <time>2024-08-14T10:03:24Z</time>
      </trkpt>
      <trkpt lat="44.61905" lon="2.54321">
        <ele>586.7</ele>
        <time>2024-08-14T10:03:25Z</time>
      </trkpt>
      <trkpt lat="44.61903" lon="2.54321">
        <ele>586.9</ele>
        <time>2024-08-14T10:03:26Z</time>
      </trkpt>
      <trkpt lat="44.61901" lon="2.54321">
        <ele>587</ele>
        <time>2024-08-14T10:03:27Z</time>
      </trkpt>
      <trkpt lat="44.61899" lon="2.54321">
        <ele>587.1</ele>
        <time>2024-08-14T10:03:28Z</time>
      </trkpt>
      <trkpt lat="44.61898" lon="2.5432">
        <ele>587.3</ele>
        <time>2024-08-14T10:03:29Z</time>
      </trkpt>
      <trkpt lat="44.61896" lon="2.5432">
        <ele>587.5</ele>
        <time>2024-08-14T10:03:30Z</time>
      </trkpt>
      <trkpt lat="44.61891" lon="2.54319">
        <ele>587.9</ele>
        <time>2024-08-14T10:03:32Z</time>
      </trkpt>
      <trkpt lat="44.61888" lon="2.54318">
        <ele>588.2</ele>
        <time>2024-08-14T10:03:34Z</time>
      </trkpt>
      <trkpt lat="44.61885" lon="2.54317">
        <ele>588.6</ele>
        <time>2024-08-14T10:03:36Z</time>
      </trkpt>
      <trkpt lat="44.61882" lon="2.54316">
        <ele>588.9</ele>
        <time>2024-08-14T10:03:38Z</time>
      </trkpt>
      <trkpt lat="44.6188" lon="2.54315">
        <ele>589.1</ele>
        <time>2024-08-14T10:03:39Z</time>
      </trkpt>
      <trkpt lat="44.61879" lon="2.54314">
        <ele>589.3</ele>
        <time>2024-08-14T10:03:40Z</time>
      </trkpt>
      <trkpt lat="44.61878" lon="2.54313">
        <ele>589.4</ele>
        <time>2024-08-14T10:03:41Z</time>
      </trkpt>
      <trkpt lat="44.61876" lon="2.54312">
        <ele>589.6</ele>
        <time>2024-08-14T10:03:42Z</time>
      </trkpt>
      <trkpt lat="44.61875" lon="2.54312">
        <ele>589.8</ele>
        <time>2024-08-14T10:03:44Z</time>
      </trkpt>
      <trkpt lat="44.61871" lon="2.54309">
        <ele>590.3</ele>
        <time>2024-08-14T10:03:46Z</time>
      </trkpt>
      <trkpt lat="44.61868" lon="2.54308">
        <ele>590.6</ele>
        <time>2024-08-14T10:03:47Z</time>
      </trkpt>
      <trkpt lat="44.61867" lon="2.54307">
        <ele>590.7</ele>
        <time>2024-08-14T10:03:48Z</time>
      </trkpt>
      <trkpt lat="44.61864" lon="2.54305">
        <ele>591.1</ele>
        <time>2024-08-14T10:03:50Z</time>
      </trkpt>
      <trkpt lat="44.61863" lon="2.54304">
        <ele>591.3</ele>
        <time>2024-08-14T10:03:51Z</time>
      </trkpt>
      <trkpt lat="44.61863" lon="2.54304">
        <ele>591.3</ele>
        <time>2024-08-14T10:03:52Z</time>
      </trkpt>
      <trkpt lat="44.6186" lon="2.54302">
        <ele>591.7</ele>
        <time>2024-08-14T10:03:54Z</time>
      </trkpt>
      <trkpt lat="44.61856" lon="2.543">
        <ele>592.1</ele>
        <time>2024-08-14T10:03:56Z</time>
      </trkpt>
      <trkpt lat="44.61853" lon="2.54298">
        <ele>592.6</ele>
        <time>2024-08-14T10:03:58Z</time>
      </trkpt>
      <trkpt lat="44.61849" lon="2.54296">
        <ele>593</ele>
        <time>2024-08-14T10:04:00Z</time>
      </trkpt>
      <trkpt lat="44.61848" lon="2.54295">
        <ele>593.2</ele>
        <time>2024-08-14T10:04:01Z</time>
      </trkpt>
      <trkpt lat="44.61847" lon="2.54294">
        <ele>593.3</ele>
        <time>2024-08-14T10:04:02Z</time>
      </trkpt>
      <trkpt lat="44.61845" lon="2.54292">
        <ele>593.7</ele>
        <time>2024-08-14T10:04:04Z</time>
      </trkpt>
      <trkpt lat="44.61843" lon="2.54291">
        <ele>593.9</ele>
        <time>2024-08-14T10:04:05Z</time>
      </trkpt>
      <trkpt lat="44.61842" lon="2.5429">
        <ele>594.1</ele>
        <time>2024-08-14T10:04:06Z</time>
      </trkpt>
      <trkpt lat="44.6184" lon="2.54288">
        <ele>594.5</ele>
        <time>2024-08-14T10:04:08Z</time>
      </trkpt>
      <trkpt lat="44.61835" lon="2.54285">
        <ele>595.2</ele>
        <time>2024-08-14T10:04:10Z</time>
      </trkpt>
      <trkpt lat="44.6183" lon="2.5428">
        <ele>595.9</ele>
        <time>2024-08-14T10:04:12Z</time>
      </trkpt>
      <trkpt lat="44.61829" lon="2.54278">
        <ele>596.3</ele>
        <time>2024-08-14T10:04:14Z</time>
      </trkpt>
      <trkpt lat="44.61828" lon="2.54276">
        <ele>596.6</ele>
        <time>2024-08-14T10:04:15Z</time>
      </trkpt>
      <trkpt lat="44.6182" lon="2.54261">
        <ele>598.4</ele>
        <time>2024-08-14T10:04:23Z</time>
      </trkpt>
      <trkpt lat="44.61819" lon="2.54259">
        <ele>598.7</ele>
        <time>2024-08-14T10:04:24Z</time>
      </trkpt>
      <trkpt lat="44.61817" lon="2.54255">
        <ele>599.2</ele>
        <time>2024-08-14T10:04:26Z</time>
      </trkpt>
      <trkpt lat="44.61814" lon="2.54252">
        <ele>599.6</ele>
        <time>2024-08-14T10:04:28Z</time>
      </trkpt>
      <trkpt lat="44.61812" lon="2.54249">
        <ele>600</ele>
        <time>2024-08-14T10:04:30Z</time>
      </trkpt>
      <trkpt lat="44.6181" lon="2.54245">
        <ele>600.5</ele>
        <time>2024-08-14T10:04:32Z</time>
      </trkpt>
      <trkpt lat="44.61807" lon="2.54241">
        <ele>600.9</ele>
        <time>2024-08-14T10:04:34Z</time>
      </trkpt>
      <trkpt lat="44.61806" lon="2.54238">
        <ele>601.2</ele>
        <time>2024-08-14T10:04:36Z</time>
      </trkpt>
      <trkpt lat="44.61805" lon="2.54236">
        <ele>601.3</ele>
        <time>2024-08-14T10:04:37Z</time>
      </trkpt>
      <trkpt lat="44.61805" lon="2.54235">
        <ele>601.5</ele>
        <time>2024-08-14T10:04:38Z</time>
      </trkpt>
      <trkpt lat="44.61803" lon="2.5423">
        <ele>601.8</ele>
        <time>2024-08-14T10:04:40Z</time>
      </trkpt>
      <trkpt lat="44.618" lon="2.54226">
        <ele>602.2</ele>
        <time>2024-08-14T10:04:42Z</time>
      </trkpt>
      <trkpt lat="44.61797" lon="2.54221">
        <ele>602.6</ele>
        <time>2024-08-14T10:04:44Z</time>
      </trkpt>
      <trkpt lat="44.61794" lon="2.54216">
        <ele>602.9</ele>
        <time>2024-08-14T10:04:46Z</time>
      </trkpt>
      <trkpt lat="44.6179" lon="2.54211">
        <ele>603.1</ele>
        <time>2024-08-14T10:04:48Z</time>
      </trkpt>
      <trkpt lat="44.61788" lon="2.54206">
        <ele>603.4</ele>
        <time>2024-08-14T10:04:50Z</time>
      </trkpt>
      <trkpt lat="44.61784" lon="2.54201">
        <ele>603.6</ele>
        <time>2024-08-14T10:04:52Z</time>
      </trkpt>
      <trkpt lat="44.6178" lon="2.54196">
        <ele>603.8</ele>
        <time>2024-08-14T10:04:54Z</time>
      </trkpt>
      <trkpt lat="44.61776" lon="2.54191">
        <ele>604</ele>
        <time>2024-08-14T10:04:56Z</time>
      </trkpt>
      <trkpt lat="44.61773" lon="2.54189">
        <ele>604.1</ele>
        <time>2024-08-14T10:04:57Z</time>
      </trkpt>
      <trkpt lat="44.61771" lon="2.54187">
        <ele>604.2</ele>
        <time>2024-08-14T10:04:58Z</time>
      </trkpt>
      <trkpt lat="44.61768" lon="2.54182">
        <ele>604.4</ele>
        <time>2024-08-14T10:05:00Z</time>
      </trkpt>
      <trkpt lat="44.61765" lon="2.5418">
        <ele>604.5</ele>
        <time>2024-08-14T10:05:01Z</time>
      </trkpt>
      <trkpt lat="44.61764" lon="2.54178">
        <ele>604.5</ele>
        <time>2024-08-14T10:05:02Z</time>
      </trkpt>
      <trkpt lat="44.6176" lon="2.54174">
        <ele>604.7</ele>
        <time>2024-08-14T10:05:04Z</time>
      </trkpt>
      <trkpt lat="44.61756" lon="2.54171">
        <ele>604.9</ele>
        <time>2024-08-14T10:05:06Z</time>
      </trkpt>
      <trkpt lat="44.61753" lon="2.54168">
        <ele>605.1</ele>
        <time>2024-08-14T10:05:08Z</time>
      </trkpt>
      <trkpt lat="44.61749" lon="2.54164">
        <ele>605.3</ele>
        <time>2024-08-14T10:05:10Z</time>
      </trkpt>
      <trkpt lat="44.61746" lon="2.54161">
        <ele>605.5</ele>
        <time>2024-08-14T10:05:11Z</time>
      </trkpt>
      <trkpt lat="44.61744" lon="2.54159">
        <ele>605.7</ele>
        <time>2024-08-14T10:05:12Z</time>
      </trkpt>
      <trkpt lat="44.6174" lon="2.54155">
        <ele>605.9</ele>
        <time>2024-08-14T10:05:14Z</time>
      </trkpt>
      <trkpt lat="44.61739" lon="2.54153">
        <ele>606</ele>
        <time>2024-08-14T10:05:15Z</time>
      </trkpt>
      <trkpt lat="44.61737" lon="2.54151">
        <ele>606.1</ele>
        <time>2024-08-14T10:05:16Z</time>
      </trkpt>
      <trkpt lat="44.61734" lon="2.54147">
        <ele>606.3</ele>
        <time>2024-08-14T10:05:18Z</time>
      </trkpt>
      <trkpt lat="44.61732" lon="2.54146">
        <ele>606.4</ele>
        <time>2024-08-14T10:05:19Z</time>
      </trkpt>
      <trkpt lat="44.6173" lon="2.54144">
        <ele>606.6</ele>
        <time>2024-08-14T10:05:20Z</time>
      </trkpt>
      <trkpt lat="44.61725" lon="2.5414">
        <ele>606.9</ele>
        <time>2024-08-14T10:05:22Z</time>
      </trkpt>
      <trkpt lat="44.61721" lon="2.54136">
        <ele>607.2</ele>
        <time>2024-08-14T10:05:24Z</time>
      </trkpt>
      <trkpt lat="44.61717" lon="2.54132">
        <ele>607.5</ele>
        <time>2024-08-14T10:05:26Z</time>
      </trkpt>
      <trkpt lat="44.61715" lon="2.54131">
        <ele>607.6</ele>
        <time>2024-08-14T10:05:27Z</time>
      </trkpt>
      <trkpt lat="44.61713" lon="2.54129">
        <ele>607.7</ele>
        <time>2024-08-14T10:05:28Z</time>
      </trkpt>
      <trkpt lat="44.61709" lon="2.54125">
        <ele>608</ele>
        <time>2024-08-14T10:05:30Z</time>
      </trkpt>
      <trkpt lat="44.61704" lon="2.54121">
        <ele>608.3</ele>
        <time>2024-08-14T10:05:32Z</time>
      </trkpt>
      <trkpt lat="44.61702" lon="2.54119">
        <ele>608.4</ele>
        <time>2024-08-14T10:05:33Z</time>
      </trkpt>
      <trkpt lat="44.617" lon="2.54117">
        <ele>608.5</ele>
        <time>2024-08-14T10:05:34Z</time>
      </trkpt>
      <trkpt lat="44.61696" lon="2.54111">
        <ele>608.8</ele>
        <time>2024-08-14T10:05:36Z</time>
      </trkpt>
      <trkpt lat="44.61691" lon="2.54106">
        <ele>609</ele>
        <time>2024-08-14T10:05:38Z</time>
      </trkpt>
      <trkpt lat="44.61687" lon="2.541">
        <ele>609.2</ele>
        <time>2024-08-14T10:05:40Z</time>
      </trkpt>
      <trkpt lat="44.61683" lon="2.54094">
        <ele>609.4</ele>
        <time>2024-08-14T10:05:42Z</time>
      </trkpt>
      <trkpt lat="44.61681" lon="2.54091">
        <ele>609.5</ele>
        <time>2024-08-14T10:05:43Z</time>
      </trkpt>
      <trkpt lat="44.61679" lon="2.54088">
        <ele>609.6</ele>
        <time>2024-08-14T10:05:44Z</time>
      </trkpt>
      <trkpt lat="44.61675" lon="2.54082">
        <ele>609.7</ele>
        <time>2024-08-14T10:05:46Z</time>
      </trkpt>
      <trkpt lat="44.61672" lon="2.54079">
        <ele>609.8</ele>
        <time>2024-08-14T10:05:47Z</time>
      </trkpt>
      <trkpt lat="44.61669" lon="2.54075">
        <ele>609.9</ele>
        <time>2024-08-14T10:05:48Z</time>
      </trkpt>
      <trkpt lat="44.61664" lon="2.54071">
        <ele>610.1</ele>
        <time>2024-08-14T10:05:50Z</time>
      </trkpt>
      <trkpt lat="44.61662" lon="2.54069">
        <ele>610.1</ele>
        <time>2024-08-14T10:05:51Z</time>
      </trkpt>
      <trkpt lat="44.61659" lon="2.54068">
        <ele>610.2</ele>
        <time>2024-08-14T10:05:52Z</time>
      </trkpt>
      <trkpt lat="44.61654" lon="2.54066">
        <ele>610.3</ele>
        <time>2024-08-14T10:05:54Z</time>
      </trkpt>
      <trkpt lat="44.6165" lon="2.54065">
        <ele>610.4</ele>
        <time>2024-08-14T10:05:56Z</time>
      </trkpt>
      <trkpt lat="44.61646" lon="2.54066">
        <ele>610.5</ele>
        <time>2024-08-14T10:05:58Z</time>
      </trkpt>
      <trkpt lat="44.61638" lon="2.54067">
        <ele>610.6</ele>
        <time>2024-08-14T10:06:00Z</time>
      </trkpt>
      <trkpt lat="44.61631" lon="2.54068">
        <ele>610.8</ele>
        <time>2024-08-14T10:06:02Z</time>
      </trkpt>
      <trkpt lat="44.61625" lon="2.5407">
        <ele>610.9</ele>
        <time>2024-08-14T10:06:04Z</time>
      </trkpt>
      <trkpt lat="44.61622" lon="2.54072">
        <ele>610.9</ele>
        <time>2024-08-14T10:06:05Z</time>
      </trkpt>
      <trkpt lat="44.61619" lon="2.54074">
        <ele>611</ele>
        <time>2024-08-14T10:06:06Z</time>
      </trkpt>
      <trkpt lat="44.61614" lon="2.54079">
        <ele>611.1</ele>
        <time>2024-08-14T10:06:08Z</time>
      </trkpt>
      <trkpt lat="44.61608" lon="2.54084">
        <ele>611.3</ele>
        <time>2024-08-14T10:06:10Z</time>
      </trkpt>
      <trkpt lat="44.61606" lon="2.54086">
        <ele>611.4</ele>
        <time>2024-08-14T10:06:11Z</time>
      </trkpt>
      <trkpt lat="44.61603" lon="2.54088">
        <ele>611.5</ele>
        <time>2024-08-14T10:06:12Z</time>
      </trkpt>
      <trkpt lat="44.61598" lon="2.54093">
        <ele>611.6</ele>
        <time>2024-08-14T10:06:14Z</time>
      </trkpt>
      <trkpt lat="44.61595" lon="2.54095">
        <ele>611.8</ele>
        <time>2024-08-14T10:06:15Z</time>
      </trkpt>
      <trkpt lat="44.61591" lon="2.54097">
        <ele>611.9</ele>
        <time>2024-08-14T10:06:16Z</time>
      </trkpt>
      <trkpt lat="44.61584" lon="2.54101">
        <ele>612.1</ele>
        <time>2024-08-14T10:06:18Z</time>
      </trkpt>
      <trkpt lat="44.61578" lon="2.54106">
        <ele>612.4</ele>
        <time>2024-08-14T10:06:20Z</time>
      </trkpt>
      <trkpt lat="44.61575" lon="2.54108">
        <ele>612.5</ele>
        <time>2024-08-14T10:06:21Z</time>
      </trkpt>
      <trkpt lat="44.61573" lon="2.5411">
        <ele>612.6</ele>
        <time>2024-08-14T10:06:22Z</time>
      </trkpt>
      <trkpt lat="44.6157" lon="2.54112">
        <ele>612.7</ele>
        <time>2024-08-14T10:06:23Z</time>
      </trkpt>
      <trkpt lat="44.61568" lon="2.54114">
        <ele>612.8</ele>
        <time>2024-08-14T10:06:24Z</time>
      </trkpt>
      <trkpt lat="44.61563" lon="2.54118">
        <ele>613</ele>
        <time>2024-08-14T10:06:26Z</time>
      </trkpt>
      <trkpt lat="44.61558" lon="2.54121">
        <ele>613.3</ele>
        <time>2024-08-14T10:06:28Z</time>
      </trkpt>
      <trkpt lat="44.61552" lon="2.54123">
        <ele>613.6</ele>
        <time>2024-08-14T10:06:30Z</time>
      </trkpt>
      <trkpt lat="44.6155" lon="2.54123">
        <ele>613.8</ele>
        <time>2024-08-14T10:06:31Z</time>
      </trkpt>
      <trkpt lat="44.61547" lon="2.54123">
        <ele>614</ele>
        <time>2024-08-14T10:06:32Z</time>
      </trkpt>
      <trkpt lat="44.61543" lon="2.54122">
        <ele>614.3</ele>
        <time>2024-08-14T10:06:34Z</time>
      </trkpt>
      <trkpt lat="44.6154" lon="2.5412">
        <ele>614.5</ele>
        <time>2024-08-14T10:06:35Z</time>
      </trkpt>
      <trkpt lat="44.61538" lon="2.54117">
        <ele>614.6</ele>
        <time>2024-08-14T10:06:36Z</time>
      </trkpt>
      <trkpt lat="44.61536" lon="2.54111">
        <ele>614.7</ele>
        <time>2024-08-14T10:06:38Z</time>
      </trkpt>
      <trkpt lat="44.61535" lon="2.54108">
        <ele>614.8</ele>
        <time>2024-08-14T10:06:39Z</time>
      </trkpt>
      <trkpt lat="44.61534" lon="2.54104">
        <ele>614.8</ele>
        <time>2024-08-14T10:06:40Z</time>
      </trkpt>
      <trkpt lat="44.61533" lon="2.54098">
        <ele>614.9</ele>
        <time>2024-08-14T10:06:42Z</time>
      </trkpt>
      <trkpt lat="44.61531" lon="2.54093">
        <ele>615</ele>
        <time>2024-08-14T10:06:44Z</time>
      </trkpt>
      <trkpt lat="44.61528" lon="2.54087">
        <ele>615.2</ele>
        <time>2024-08-14T10:06:46Z</time>
      </trkpt>
      <trkpt lat="44.61524" lon="2.54083">
        <ele>615.3</ele>
        <time>2024-08-14T10:06:48Z</time>
      </trkpt>
      <trkpt lat="44.61521" lon="2.54082">
        <ele>615.3</ele>
        <time>2024-08-14T10:06:49Z</time>
      </trkpt>
      <trkpt lat="44.61519" lon="2.54082">
        <ele>615.4</ele>
        <time>2024-08-14T10:06:50Z</time>
      </trkpt>
      <trkpt lat="44.61514" lon="2.54081">
        <ele>615.5</ele>
        <time>2024-08-14T10:06:52Z</time>
      </trkpt>
      <trkpt lat="44.61512" lon="2.54082">
        <ele>615.5</ele>
        <time>2024-08-14T10:06:53Z</time>
      </trkpt>
      <trkpt lat="44.61509" lon="2.54082">
        <ele>615.6</ele>
        <time>2024-08-14T10:06:54Z</time>
      </trkpt>
      <trkpt lat="44.61506" lon="2.54082">
        <ele>615.6</ele>
        <time>2024-08-14T10:06:55Z</time>
      </trkpt>
      <trkpt lat="44.61504" lon="2.54083">
        <ele>615.7</ele>
        <time>2024-08-14T10:06:56Z</time>
      </trkpt>
      <trkpt lat="44.61501" lon="2.54083">
        <ele>615.7</ele>
        <time>2024-08-14T10:06:57Z</time>
      </trkpt>
      <trkpt lat="44.61498" lon="2.54083">
        <ele>615.8</ele>
        <time>2024-08-14T10:06:58Z</time>
      </trkpt>
      <trkpt lat="44.61492" lon="2.54083">
        <ele>615.9</ele>
        <time>2024-08-14T10:07:00Z</time>
      </trkpt>
      <trkpt lat="44.61487" lon="2.54082">
        <ele>616</ele>
        <time>2024-08-14T10:07:02Z</time>
      </trkpt>
      <trkpt lat="44.61482" lon="2.54081">
        <ele>616.1</ele>
        <time>2024-08-14T10:07:04Z</time>
      </trkpt>
      <trkpt lat="44.61477" lon="2.5408">
        <ele>616.3</ele>
        <time>2024-08-14T10:07:06Z</time>
      </trkpt>
      <trkpt lat="44.61471" lon="2.54078">
        <ele>616.4</ele>
        <time>2024-08-14T10:07:08Z</time>
      </trkpt>
      <trkpt lat="44.61465" lon="2.54077">
        <ele>616.6</ele>
        <time>2024-08-14T10:07:10Z</time>
      </trkpt>
      <trkpt lat="44.61463" lon="2.54076">
        <ele>616.7</ele>
        <time>2024-08-14T10:07:11Z</time>
      </trkpt>
      <trkpt lat="44.6146" lon="2.54076">
        <ele>616.8</ele>
        <time>2024-08-14T10:07:12Z</time>
      </trkpt>
      <trkpt lat="44.61454" lon="2.54076">
        <ele>617</ele>
        <time>2024-08-14T10:07:14Z</time>
      </trkpt>
      <trkpt lat="44.61448" lon="2.54075">
        <ele>617.3</ele>
        <time>2024-08-14T10:07:16Z</time>
      </trkpt>
      <trkpt lat="44.61443" lon="2.54075">
        <ele>617.5</ele>
        <time>2024-08-14T10:07:18Z</time>
      </trkpt>
      <trkpt lat="44.61437" lon="2.54075">
        <ele>617.7</ele>
        <time>2024-08-14T10:07:20Z</time>
      </trkpt>
      <trkpt lat="44.61432" lon="2.54075">
        <ele>618</ele>
        <time>2024-08-14T10:07:22Z</time>
      </trkpt>
      <trkpt lat="44.61426" lon="2.54074">
        <ele>618.2</ele>
        <time>2024-08-14T10:07:24Z</time>
      </trkpt>
      <trkpt lat="44.61421" lon="2.54074">
        <ele>618.4</ele>
        <time>2024-08-14T10:07:26Z</time>
      </trkpt>
      <trkpt lat="44.61415" lon="2.54074">
        <ele>618.6</ele>
        <time>2024-08-14T10:07:28Z</time>
      </trkpt>
      <trkpt lat="44.61413" lon="2.54074">
        <ele>618.7</ele>
        <time>2024-08-14T10:07:29Z</time>
      </trkpt>
      <trkpt lat="44.6141" lon="2.54074">
        <ele>618.8</ele>
        <time>2024-08-14T10:07:30Z</time>
      </trkpt>
      <trkpt lat="44.61404" lon="2.54073">
        <ele>619.1</ele>
        <time>2024-08-14T10:07:32Z</time>
      </trkpt>
      <trkpt lat="44.614" lon="2.54074">
        <ele>619.3</ele>
        <time>2024-08-14T10:07:34Z</time>
      </trkpt>
      <trkpt lat="44.61393" lon="2.54073">
        <ele>619.6</ele>
        <time>2024-08-14T10:07:36Z</time>
      </trkpt>
      <trkpt lat="44.61391" lon="2.54073">
        <ele>619.7</ele>
        <time>2024-08-14T10:07:37Z</time>
      </trkpt>
      <trkpt lat="44.61389" lon="2.54073">
        <ele>619.8</ele>
        <time>2024-08-14T10:07:38Z</time>
      </trkpt>
      <trkpt lat="44.61383" lon="2.54074">
        <ele>620.1</ele>
        <time>2024-08-14T10:07:40Z</time>
      </trkpt>
      <trkpt lat="44.61379" lon="2.54076">
        <ele>620.3</ele>
        <time>2024-08-14T10:07:42Z</time>
      </trkpt>
      <trkpt lat="44.61377" lon="2.54076">
        <ele>620.4</ele>
        <time>2024-08-14T10:07:43Z</time>
      </trkpt>
      <trkpt lat="44.61375" lon="2.54074">
        <ele>620.4</ele>
        <time>2024-08-14T10:07:44Z</time>
      </trkpt>
      <trkpt lat="44.61374" lon="2.54072">
        <ele>620.5</ele>
        <time>2024-08-14T10:07:45Z</time>
      </trkpt>
      <trkpt lat="44.61373" lon="2.5407">
        <ele>620.8</ele>
        <time>2024-08-14T10:07:46Z</time>
      </trkpt>
      <trkpt lat="44.61372" lon="2.54067">
        <ele>621</ele>
        <time>2024-08-14T10:07:48Z</time>
      </trkpt>
      <trkpt lat="44.61372" lon="2.54065">
        <ele>621.1</ele>
        <time>2024-08-14T10:07:49Z</time>
      </trkpt>
      <trkpt lat="44.61373" lon="2.54063">
        <ele>621.2</ele>
        <time>2024-08-14T10:07:50Z</time>
      </trkpt>
      <trkpt lat="44.61374" lon="2.54063">
        <ele>621.3</ele>
        <time>2024-08-14T10:07:51Z</time>
      </trkpt>
      <trkpt lat="44.61375" lon="2.54062">
        <ele>621.3</ele>
        <time>2024-08-14T10:07:52Z</time>
      </trkpt>
      <trkpt lat="44.61377" lon="2.54059">
        <ele>621.5</ele>
        <time>2024-08-14T10:07:54Z</time>
      </trkpt>
      <trkpt lat="44.61379" lon="2.54058">
        <ele>621.7</ele>
        <time>2024-08-14T10:07:55Z</time>
      </trkpt>
      <trkpt lat="44.61381" lon="2.54057">
        <ele>621.8</ele>
        <time>2024-08-14T10:07:56Z</time>
      </trkpt>
      <trkpt lat="44.61383" lon="2.54054">
        <ele>622</ele>
        <time>2024-08-14T10:07:58Z</time>
      </trkpt>
      <trkpt lat="44.61386" lon="2.54052">
        <ele>622.2</ele>
        <time>2024-08-14T10:08:00Z</time>
      </trkpt>
      <trkpt lat="44.61387" lon="2.5405">
        <ele>622.3</ele>
        <time>2024-08-14T10:08:01Z</time>
      </trkpt>
      <trkpt lat="44.61388" lon="2.54049">
        <ele>622.4</ele>
        <time>2024-08-14T10:08:02Z</time>
      </trkpt>
      <trkpt lat="44.61389" lon="2.54047">
        <ele>622.5</ele>
        <time>2024-08-14T10:08:03Z</time>
      </trkpt>
      <trkpt lat="44.6139" lon="2.54046">
        <ele>622.6</ele>
        <time>2024-08-14T10:08:04Z</time>
      </trkpt>
      <trkpt lat="44.61391" lon="2.54045">
        <ele>622.7</ele>
        <time>2024-08-14T10:08:05Z</time>
      </trkpt>
      <trkpt lat="44.61392" lon="2.54044">
        <ele>622.8</ele>
        <time>2024-08-14T10:08:06Z</time>
      </trkpt>
      <trkpt lat="44.61393" lon="2.54043">
        <ele>622.9</ele>
        <time>2024-08-14T10:08:07Z</time>
      </trkpt>
      <trkpt lat="44.61394" lon="2.54042">
        <ele>623</ele>
        <time>2024-08-14T10:08:08Z</time>
      </trkpt>
      <trkpt lat="44.61397" lon="2.54039">
        <ele>623.3</ele>
        <time>2024-08-14T10:08:10Z</time>
      </trkpt>
      <trkpt lat="44.61399" lon="2.54037">
        <ele>623.5</ele>
        <time>2024-08-14T10:08:12Z</time>
      </trkpt>
      <trkpt lat="44.61401" lon="2.54034">
        <ele>623.7</ele>
        <time>2024-08-14T10:08:14Z</time>
      </trkpt>
      <trkpt lat="44.61403" lon="2.54032">
        <ele>623.9</ele>
        <time>2024-08-14T10:08:16Z</time>
      </trkpt>
      <trkpt lat="44.61405" lon="2.54029">
        <ele>624.1</ele>
        <time>2024-08-14T10:08:18Z</time>
      </trkpt>
      <trkpt lat="44.61406" lon="2.54026">
        <ele>624.3</ele>
        <time>2024-08-14T10:08:20Z</time>
      </trkpt>
      <trkpt lat="44.61408" lon="2.54024">
        <ele>624.4</ele>
        <time>2024-08-14T10:08:22Z</time>
      </trkpt>
      <trkpt lat="44.61411" lon="2.54023">
        <ele>624.7</ele>
        <time>2024-08-14T10:08:24Z</time>
      </trkpt>
      <trkpt lat="44.61414" lon="2.54022">
        <ele>625</ele>
        <time>2024-08-14T10:08:26Z</time>
      </trkpt>
      <trkpt lat="44.61417" lon="2.54019">
        <ele>625.2</ele>
        <time>2024-08-14T10:08:28Z</time>
      </trkpt>
      <trkpt lat="44.61419" lon="2.54017">
        <ele>625.5</ele>
        <time>2024-08-14T10:08:30Z</time>
      </trkpt>
      <trkpt lat="44.61421" lon="2.54014">
        <ele>625.7</ele>
        <time>2024-08-14T10:08:32Z</time>
      </trkpt>
      <trkpt lat="44.61424" lon="2.5401">
        <ele>626</ele>
        <time>2024-08-14T10:08:34Z</time>
      </trkpt>
      <trkpt lat="44.61426" lon="2.54007">
        <ele>626.3</ele>
        <time>2024-08-14T10:08:36Z</time>
      </trkpt>
      <trkpt lat="44.61427" lon="2.54005">
        <ele>626.4</ele>
        <time>2024-08-14T10:08:37Z</time>
      </trkpt>
      <trkpt lat="44.61428" lon="2.54002">
        <ele>626.5</ele>
        <time>2024-08-14T10:08:38Z</time>
      </trkpt>
      <trkpt lat="44.61429" lon="2.54">
        <ele>626.7</ele>
        <time>2024-08-14T10:08:39Z</time>
      </trkpt>
      <trkpt lat="44.6143" lon="2.53999">
        <ele>626.8</ele>
        <time>2024-08-14T10:08:40Z</time>
      </trkpt>
      <trkpt lat="44.61432" lon="2.53998">
        <ele>626.9</ele>
        <time>2024-08-14T10:08:41Z</time>
      </trkpt>
      <trkpt lat="44.61433" lon="2.53996">
        <ele>627.1</ele>
        <time>2024-08-14T10:08:42Z</time>
      </trkpt>
      <trkpt lat="44.61435" lon="2.53992">
        <ele>627.3</ele>
        <time>2024-08-14T10:08:44Z</time>
      </trkpt>
      <trkpt lat="44.61437" lon="2.53989">
        <ele>627.6</ele>
        <time>2024-08-14T10:08:46Z</time>
      </trkpt>
      <trkpt lat="44.61439" lon="2.53986">
        <ele>627.8</ele>
        <time>2024-08-14T10:08:48Z</time>
      </trkpt>
      <trkpt lat="44.6144" lon="2.53984">
        <ele>627.9</ele>
        <time>2024-08-14T10:08:49Z</time>
      </trkpt>
      <trkpt lat="44.61441" lon="2.53983">
        <ele>628</ele>
        <time>2024-08-14T10:08:50Z</time>
      </trkpt>
      <trkpt lat="44.61442" lon="2.53981">
        <ele>628.2</ele>
        <time>2024-08-14T10:08:51Z</time>
      </trkpt>
      <trkpt lat="44.61444" lon="2.53979">
        <ele>628.3</ele>
        <time>2024-08-14T10:08:52Z</time>
      </trkpt>
      <trkpt lat="44.61448" lon="2.53976">
        <ele>628.6</ele>
        <time>2024-08-14T10:08:54Z</time>
      </trkpt>
      <trkpt lat="44.61451" lon="2.53973">
        <ele>628.9</ele>
        <time>2024-08-14T10:08:56Z</time>
      </trkpt>
      <trkpt lat="44.61455" lon="2.53971">
        <ele>629.2</ele>
        <time>2024-08-14T10:08:58Z</time>
      </trkpt>
      <trkpt lat="44.61458" lon="2.53968">
        <ele>629.4</ele>
        <time>2024-08-14T10:09:00Z</time>
      </trkpt>
      <trkpt lat="44.61461" lon="2.53965">
        <ele>629.7</ele>
        <time>2024-08-14T10:09:02Z</time>
      </trkpt>
      <trkpt lat="44.61462" lon="2.53963">
        <ele>629.8</ele>
        <time>2024-08-14T10:09:03Z</time>
      </trkpt>
      <trkpt lat="44.61464" lon="2.53962">
        <ele>629.9</ele>
        <time>2024-08-14T10:09:04Z</time>
      </trkpt>
      <trkpt lat="44.61466" lon="2.53959">
        <ele>630.2</ele>
        <time>2024-08-14T10:09:06Z</time>
      </trkpt>
      <trkpt lat="44.61469" lon="2.53956">
        <ele>630.4</ele>
        <time>2024-08-14T10:09:08Z</time>
      </trkpt>
      <trkpt lat="44.61471" lon="2.53954">
        <ele>630.6</ele>
        <time>2024-08-14T10:09:10Z</time>
      </trkpt>
      <trkpt lat="44.61472" lon="2.53952">
        <ele>630.7</ele>
        <time>2024-08-14T10:09:12Z</time>
      </trkpt>
      <trkpt lat="44.61474" lon="2.53949">
        <ele>631</ele>
        <time>2024-08-14T10:09:14Z</time>
      </trkpt>
      <trkpt lat="44.61478" lon="2.53946">
        <ele>631.4</ele>
        <time>2024-08-14T10:09:16Z</time>
      </trkpt>
      <trkpt lat="44.61479" lon="2.53944">
        <ele>631.6</ele>
        <time>2024-08-14T10:09:17Z</time>
      </trkpt>
      <trkpt lat="44.61479" lon="2.53941">
        <ele>631.8</ele>
        <time>2024-08-14T10:09:18Z</time>
      </trkpt>
      <trkpt lat="44.61479" lon="2.53939">
        <ele>631.9</ele>
        <time>2024-08-14T10:09:19Z</time>
      </trkpt>
      <trkpt lat="44.61482" lon="2.53938">
        <ele>632.3</ele>
        <time>2024-08-14T10:09:20Z</time>
      </trkpt>
      <trkpt lat="44.61485" lon="2.53937">
        <ele>632.5</ele>
        <time>2024-08-14T10:09:21Z</time>
      </trkpt>
      <trkpt lat="44.61487" lon="2.53936">
        <ele>632.8</ele>
        <time>2024-08-14T10:09:22Z</time>
      </trkpt>
      <trkpt lat="44.61489" lon="2.53933">
        <ele>633.1</ele>
        <time>2024-08-14T10:09:24Z</time>
      </trkpt>
      <trkpt lat="44.61493" lon="2.53931">
        <ele>633.5</ele>
        <time>2024-08-14T10:09:26Z</time>
      </trkpt>
      <trkpt lat="44.61495" lon="2.53931">
        <ele>633.9</ele>
        <time>2024-08-14T10:09:28Z</time>
      </trkpt>
      <trkpt lat="44.61498" lon="2.5393">
        <ele>634.2</ele>
        <time>2024-08-14T10:09:30Z</time>
      </trkpt>
      <trkpt lat="44.61499" lon="2.53929">
        <ele>634.4</ele>
        <time>2024-08-14T10:09:31Z</time>
      </trkpt>
      <trkpt lat="44.615" lon="2.53929">
        <ele>634.5</ele>
        <time>2024-08-14T10:09:32Z</time>
      </trkpt>
      <trkpt lat="44.615" lon="2.53927">
        <ele>634.6</ele>
        <time>2024-08-14T10:09:34Z</time>
      </trkpt>
      <trkpt lat="44.61501" lon="2.53926">
        <ele>634.8</ele>
        <time>2024-08-14T10:09:36Z</time>
      </trkpt>
      <trkpt lat="44.61502" lon="2.53925">
        <ele>634.9</ele>
        <time>2024-08-14T10:09:37Z</time>
      </trkpt>
      <trkpt lat="44.61503" lon="2.53924">
        <ele>635</ele>
        <time>2024-08-14T10:09:38Z</time>
      </trkpt>
      <trkpt lat="44.61503" lon="2.53923">
        <ele>635.1</ele>
        <time>2024-08-14T10:09:39Z</time>
      </trkpt>
      <trkpt lat="44.61512" lon="2.5391">
        <ele>636.6</ele>
        <time>2024-08-14T10:09:48Z</time>
      </trkpt>
      <trkpt lat="44.61511" lon="2.53907">
        <ele>636.8</ele>
        <time>2024-08-14T10:09:49Z</time>
      </trkpt>
      <trkpt lat="44.61511" lon="2.53904">
        <ele>637</ele>
        <time>2024-08-14T10:09:50Z</time>
      </trkpt>
      <trkpt lat="44.6151" lon="2.53901">
        <ele>637.2</ele>
        <time>2024-08-14T10:09:51Z</time>
      </trkpt>
      <trkpt lat="44.61509" lon="2.53898">
        <ele>637.4</ele>
        <time>2024-08-14T10:09:52Z</time>
      </trkpt>
      <trkpt lat="44.61507" lon="2.53896">
        <ele>637.7</ele>
        <time>2024-08-14T10:09:53Z</time>
      </trkpt>
      <trkpt lat="44.61507" lon="2.53894">
        <ele>637.8</ele>
        <time>2024-08-14T10:09:54Z</time>
      </trkpt>
      <trkpt lat="44.6151" lon="2.53891">
        <ele>638.1</ele>
        <time>2024-08-14T10:09:56Z</time>
      </trkpt>
      <trkpt lat="44.61511" lon="2.53886">
        <ele>638.4</ele>
        <time>2024-08-14T10:09:58Z</time>
      </trkpt>
      <trkpt lat="44.61513" lon="2.53885">
        <ele>638.6</ele>
        <time>2024-08-14T10:09:59Z</time>
      </trkpt>
      <trkpt lat="44.61515" lon="2.53883">
        <ele>638.8</ele>
        <time>2024-08-14T10:10:00Z</time>
      </trkpt>
      <trkpt lat="44.61518" lon="2.53879">
        <ele>639.1</ele>
        <time>2024-08-14T10:10:02Z</time>
      </trkpt>
      <trkpt lat="44.61518" lon="2.53877">
        <ele>639.2</ele>
        <time>2024-08-14T10:10:03Z</time>
      </trkpt>
      <trkpt lat="44.61518" lon="2.53874">
        <ele>639.4</ele>
        <time>2024-08-14T10:10:04Z</time>
      </trkpt>
      <trkpt lat="44.61514" lon="2.53866">
        <ele>639.8</ele>
        <time>2024-08-14T10:10:06Z</time>
      </trkpt>
      <trkpt lat="44.61513" lon="2.53861">
        <ele>640.1</ele>
        <time>2024-08-14T10:10:08Z</time>
      </trkpt>
      <trkpt lat="44.61521" lon="2.53864">
        <ele>640.5</ele>
        <time>2024-08-14T10:10:09Z</time>
      </trkpt>
      <trkpt lat="44.61526" lon="2.53865">
        <ele>640.9</ele>
        <time>2024-08-14T10:10:10Z</time>
      </trkpt>
      <trkpt lat="44.6153" lon="2.53868">
        <ele>641.2</ele>
        <time>2024-08-14T10:10:11Z</time>
      </trkpt>
      <trkpt lat="44.61544" lon="2.53861">
        <ele>642.3</ele>
        <time>2024-08-14T10:10:28Z</time>
      </trkpt>
      <trkpt lat="44.61544" lon="2.53857">
        <ele>642.6</ele>
        <time>2024-08-14T10:10:30Z</time>
      </trkpt>
      <trkpt lat="44.61545" lon="2.53853">
        <ele>642.8</ele>
        <time>2024-08-14T10:10:32Z</time>
      </trkpt>
      <trkpt lat="44.61545" lon="2.53851">
        <ele>642.9</ele>
        <time>2024-08-14T10:10:33Z</time>
      </trkpt>
      <trkpt lat="44.61546" lon="2.53848">
        <ele>643.1</ele>
        <time>2024-08-14T10:10:34Z</time>
      </trkpt>
      <trkpt lat="44.61546" lon="2.53844">
        <ele>643.3</ele>
        <time>2024-08-14T10:10:36Z</time>
      </trkpt>
      <trkpt lat="44.61546" lon="2.5384">
        <ele>643.6</ele>
        <time>2024-08-14T10:10:38Z</time>
      </trkpt>
      <trkpt lat="44.61546" lon="2.53835">
        <ele>643.9</ele>
        <time>2024-08-14T10:10:40Z</time>
      </trkpt>
      <trkpt lat="44.61546" lon="2.53833">
        <ele>644</ele>
        <time>2024-08-14T10:10:41Z</time>
      </trkpt>
      <trkpt lat="44.61546" lon="2.53831">
        <ele>644.1</ele>
        <time>2024-08-14T10:10:42Z</time>
      </trkpt>
      <trkpt lat="44.61546" lon="2.53827">
        <ele>644.4</ele>
        <time>2024-08-14T10:10:44Z</time>
      </trkpt>
      <trkpt lat="44.61546" lon="2.53823">
        <ele>644.7</ele>
        <time>2024-08-14T10:10:46Z</time>
      </trkpt>
      <trkpt lat="44.61545" lon="2.53821">
        <ele>644.8</ele>
        <time>2024-08-14T10:10:47Z</time>
      </trkpt>
      <trkpt lat="44.61545" lon="2.53819">
        <ele>645</ele>
        <time>2024-08-14T10:10:48Z</time>
      </trkpt>
      <trkpt lat="44.61545" lon="2.53817">
        <ele>645.1</ele>
        <time>2024-08-14T10:10:49Z</time>
      </trkpt>
      <trkpt lat="44.61545" lon="2.53815">
        <ele>645.2</ele>
        <time>2024-08-14T10:10:50Z</time>
      </trkpt>
      <trkpt lat="44.61544" lon="2.5381">
        <ele>645.5</ele>
        <time>2024-08-14T10:10:52Z</time>
      </trkpt>
      <trkpt lat="44.61545" lon="2.53807">
        <ele>645.8</ele>
        <time>2024-08-14T10:10:54Z</time>
      </trkpt>
      <trkpt lat="44.61545" lon="2.53803">
        <ele>646</ele>
        <time>2024-08-14T10:10:56Z</time>
      </trkpt>
      <trkpt lat="44.61546" lon="2.53802">
        <ele>646.2</ele>
        <time>2024-08-14T10:10:57Z</time>
      </trkpt>
      <trkpt lat="44.61546" lon="2.538">
        <ele>646.3</ele>
        <time>2024-08-14T10:10:58Z</time>
      </trkpt>
      <trkpt lat="44.61545" lon="2.53796">
        <ele>646.5</ele>
        <time>2024-08-14T10:11:00Z</time>
      </trkpt>
      <trkpt lat="44.61544" lon="2.53791">
        <ele>646.8</ele>
        <time>2024-08-14T10:11:02Z</time>
      </trkpt>
      <trkpt lat="44.61544" lon="2.53789">
        <ele>646.9</ele>
        <time>2024-08-14T10:11:03Z</time>
      </trkpt>
      <trkpt lat="44.61544" lon="2.53787">
        <ele>647</ele>
        <time>2024-08-14T10:11:04Z</time>
      </trkpt>
      <trkpt lat="44.61544" lon="2.53784">
        <ele>647.2</ele>
        <time>2024-08-14T10:11:05Z</time>
      </trkpt>
      <trkpt lat="44.61544" lon="2.53782">
        <ele>647.3</ele>
        <time>2024-08-14T10:11:06Z</time>
      </trkpt>
      <trkpt lat="44.61544" lon="2.5378">
        <ele>647.4</ele>
        <time>2024-08-14T10:11:07Z</time>
      </trkpt>
      <trkpt lat="44.61545" lon="2.53778">
        <ele>647.5</ele>
        <time>2024-08-14T10:11:08Z</time>
      </trkpt>
      <trkpt lat="44.61546" lon="2.53773">
        <ele>647.8</ele>
        <time>2024-08-14T10:11:10Z</time>
      </trkpt>
      <trkpt lat="44.61547" lon="2.53769">
        <ele>648</ele>
        <time>2024-08-14T10:11:12Z</time>
      </trkpt>
      <trkpt lat="44.61548" lon="2.53764">
        <ele>648.1</ele>
        <time>2024-08-14T10:11:14Z</time>
      </trkpt>
      <trkpt lat="44.61549" lon="2.53761">
        <ele>648.2</ele>
        <time>2024-08-14T10:11:15Z</time>
      </trkpt>
      <trkpt lat="44.61551" lon="2.5376">
        <ele>648.3</ele>
        <time>2024-08-14T10:11:16Z</time>
      </trkpt>
      <trkpt lat="44.61552" lon="2.53757">
        <ele>648.3</ele>
        <time>2024-08-14T10:11:17Z</time>
      </trkpt>
      <trkpt lat="44.61554" lon="2.53754">
        <ele>648.3</ele>
        <time>2024-08-14T10:11:18Z</time>
      </trkpt>
      <trkpt lat="44.61556" lon="2.5375">
        <ele>648.4</ele>
        <time>2024-08-14T10:11:20Z</time>
      </trkpt>
      <trkpt lat="44.61557" lon="2.53747">
        <ele>648.4</ele>
        <time>2024-08-14T10:11:22Z</time>
      </trkpt>
      <trkpt lat="44.61558" lon="2.53745">
        <ele>648.3</ele>
        <time>2024-08-14T10:11:23Z</time>
      </trkpt>
      <trkpt lat="44.61558" lon="2.53743">
        <ele>648.3</ele>
        <time>2024-08-14T10:11:24Z</time>
      </trkpt>
      <trkpt lat="44.6156" lon="2.53741">
        <ele>648.3</ele>
        <time>2024-08-14T10:11:26Z</time>
      </trkpt>
      <trkpt lat="44.61564" lon="2.53739">
        <ele>648.3</ele>
        <time>2024-08-14T10:11:28Z</time>
      </trkpt>
      <trkpt lat="44.61568" lon="2.53738">
        <ele>648.3</ele>
        <time>2024-08-14T10:11:30Z</time>
      </trkpt>
      <trkpt lat="44.61573" lon="2.53737">
        <ele>648.3</ele>
        <time>2024-08-14T10:11:32Z</time>
      </trkpt>
      <trkpt lat="44.61578" lon="2.53736">
        <ele>648.3</ele>
        <time>2024-08-14T10:11:34Z</time>
      </trkpt>
      <trkpt lat="44.61583" lon="2.53735">
        <ele>648.3</ele>
        <time>2024-08-14T10:11:36Z</time>
      </trkpt>
      <trkpt lat="44.61588" lon="2.53733">
        <ele>648.3</ele>
        <time>2024-08-14T10:11:38Z</time>
      </trkpt>
      <trkpt lat="44.61591" lon="2.5373">
        <ele>648.4</ele>
        <time>2024-08-14T10:11:40Z</time>
      </trkpt>
      <trkpt lat="44.61593" lon="2.53729">
        <ele>648.4</ele>
        <time>2024-08-14T10:11:41Z</time>
      </trkpt>
      <trkpt lat="44.61595" lon="2.53727">
        <ele>648.4</ele>
        <time>2024-08-14T10:11:42Z</time>
      </trkpt>
      <trkpt lat="44.61599" lon="2.53723">
        <ele>648.5</ele>
        <time>2024-08-14T10:11:44Z</time>
      </trkpt>
      <trkpt lat="44.616" lon="2.53721">
        <ele>648.6</ele>
        <time>2024-08-14T10:11:45Z</time>
      </trkpt>
      <trkpt lat="44.61601" lon="2.53718">
        <ele>648.6</ele>
        <time>2024-08-14T10:11:46Z</time>
      </trkpt>
      <trkpt lat="44.61602" lon="2.53714">
        <ele>648.7</ele>
        <time>2024-08-14T10:11:47Z</time>
      </trkpt>
      <trkpt lat="44.61602" lon="2.53711">
        <ele>648.7</ele>
        <time>2024-08-14T10:11:48Z</time>
      </trkpt>
      <trkpt lat="44.61603" lon="2.53707">
        <ele>648.8</ele>
        <time>2024-08-14T10:11:49Z</time>
      </trkpt>
      <trkpt lat="44.61605" lon="2.53705">
        <ele>648.8</ele>
        <time>2024-08-14T10:11:50Z</time>
      </trkpt>
      <trkpt lat="44.61607" lon="2.53701">
        <ele>648.9</ele>
        <time>2024-08-14T10:11:51Z</time>
      </trkpt>
      <trkpt lat="44.61609" lon="2.53698">
        <ele>649</ele>
        <time>2024-08-14T10:11:52Z</time>
      </trkpt>
      <trkpt lat="44.61611" lon="2.53691">
        <ele>649.1</ele>
        <time>2024-08-14T10:11:54Z</time>
      </trkpt>
      <trkpt lat="44.61614" lon="2.53685">
        <ele>649.2</ele>
        <time>2024-08-14T10:11:56Z</time>
      </trkpt>
      <trkpt lat="44.61618" lon="2.53681">
        <ele>649.2</ele>
        <time>2024-08-14T10:11:58Z</time>
      </trkpt>
      <trkpt lat="44.6162" lon="2.53675">
        <ele>649.2</ele>
        <time>2024-08-14T10:12:00Z</time>
      </trkpt>
      <trkpt lat="44.61623" lon="2.53668">
        <ele>649.2</ele>
        <time>2024-08-14T10:12:02Z</time>
      </trkpt>
      <trkpt lat="44.61625" lon="2.53664">
        <ele>649.1</ele>
        <time>2024-08-14T10:12:03Z</time>
      </trkpt>
      <trkpt lat="44.61626" lon="2.53661">
        <ele>649.1</ele>
        <time>2024-08-14T10:12:04Z</time>
      </trkpt>
      <trkpt lat="44.61629" lon="2.53652">
        <ele>648.9</ele>
        <time>2024-08-14T10:12:06Z</time>
      </trkpt>
      <trkpt lat="44.61632" lon="2.53643">
        <ele>648.6</ele>
        <time>2024-08-14T10:12:08Z</time>
      </trkpt>
      <trkpt lat="44.61633" lon="2.53637">
        <ele>648.4</ele>
        <time>2024-08-14T10:12:09Z</time>
      </trkpt>
      <trkpt lat="44.61634" lon="2.53632">
        <ele>648.1</ele>
        <time>2024-08-14T10:12:10Z</time>
      </trkpt>
      <trkpt lat="44.61637" lon="2.5362">
        <ele>647.5</ele>
        <time>2024-08-14T10:12:12Z</time>
      </trkpt>
      <trkpt lat="44.6164" lon="2.53606">
        <ele>646.5</ele>
        <time>2024-08-14T10:12:14Z</time>
      </trkpt>
      <trkpt lat="44.61642" lon="2.53591">
        <ele>645.4</ele>
        <time>2024-08-14T10:12:16Z</time>
      </trkpt>
      <trkpt lat="44.61644" lon="2.53576">
        <ele>644</ele>
        <time>2024-08-14T10:12:18Z</time>
      </trkpt>
      <trkpt lat="44.61647" lon="2.5356">
        <ele>642.7</ele>
        <time>2024-08-14T10:12:20Z</time>
      </trkpt>
      <trkpt lat="44.61649" lon="2.53544">
        <ele>641.4</ele>
        <time>2024-08-14T10:12:22Z</time>
      </trkpt>
      <trkpt lat="44.61651" lon="2.53536">
        <ele>640.7</ele>
        <time>2024-08-14T10:12:23Z</time>
      </trkpt>
      <trkpt lat="44.61653" lon="2.53528">
        <ele>640.1</ele>
        <time>2024-08-14T10:12:24Z</time>
      </trkpt>
      <trkpt lat="44.61656" lon="2.53521">
        <ele>639.5</ele>
        <time>2024-08-14T10:12:25Z</time>
      </trkpt>
      <trkpt lat="44.61659" lon="2.53513">
        <ele>638.8</ele>
        <time>2024-08-14T10:12:26Z</time>
      </trkpt>
      <trkpt lat="44.61666" lon="2.535">
        <ele>637.5</ele>
        <time>2024-08-14T10:12:28Z</time>
      </trkpt>
      <trkpt lat="44.61671" lon="2.53488">
        <ele>636.2</ele>
        <time>2024-08-14T10:12:30Z</time>
      </trkpt>
      <trkpt lat="44.61676" lon="2.53479">
        <ele>635</ele>
        <time>2024-08-14T10:12:32Z</time>
      </trkpt>
      <trkpt lat="44.61682" lon="2.53473">
        <ele>633.8</ele>
        <time>2024-08-14T10:12:34Z</time>
      </trkpt>
      <trkpt lat="44.61689" lon="2.53469">
        <ele>632.8</ele>
        <time>2024-08-14T10:12:36Z</time>
      </trkpt>
      <trkpt lat="44.61696" lon="2.53464">
        <ele>632.1</ele>
        <time>2024-08-14T10:12:38Z</time>
      </trkpt>
      <trkpt lat="44.61703" lon="2.5346">
        <ele>631.7</ele>
        <time>2024-08-14T10:12:40Z</time>
      </trkpt>
      <trkpt lat="44.61712" lon="2.53459">
        <ele>631.3</ele>
        <time>2024-08-14T10:12:42Z</time>
      </trkpt>
      <trkpt lat="44.61716" lon="2.53459">
        <ele>631.1</ele>
        <time>2024-08-14T10:12:43Z</time>
      </trkpt>
      <trkpt lat="44.6172" lon="2.53458">
        <ele>630.8</ele>
        <time>2024-08-14T10:12:44Z</time>
      </trkpt>
      <trkpt lat="44.61729" lon="2.53457">
        <ele>630.3</ele>
        <time>2024-08-14T10:12:46Z</time>
      </trkpt>
      <trkpt lat="44.61737" lon="2.53455">
        <ele>629.8</ele>
        <time>2024-08-14T10:12:48Z</time>
      </trkpt>
      <trkpt lat="44.61741" lon="2.53454">
        <ele>629.6</ele>
        <time>2024-08-14T10:12:49Z</time>
      </trkpt>
      <trkpt lat="44.61745" lon="2.53453">
        <ele>629.3</ele>
        <time>2024-08-14T10:12:50Z</time>
      </trkpt>
      <trkpt lat="44.61755" lon="2.5345">
        <ele>628.7</ele>
        <time>2024-08-14T10:12:52Z</time>
      </trkpt>
      <trkpt lat="44.61765" lon="2.53445">
        <ele>628</ele>
        <time>2024-08-14T10:12:54Z</time>
      </trkpt>
      <trkpt lat="44.61776" lon="2.53438">
        <ele>627.3</ele>
        <time>2024-08-14T10:12:56Z</time>
      </trkpt>
      <trkpt lat="44.61788" lon="2.53428">
        <ele>626.6</ele>
        <time>2024-08-14T10:12:58Z</time>
      </trkpt>
      <trkpt lat="44.61793" lon="2.53422">
        <ele>626.3</ele>
        <time>2024-08-14T10:12:59Z</time>
      </trkpt>
      <trkpt lat="44.61798" lon="2.53414">
        <ele>626</ele>
        <time>2024-08-14T10:13:00Z</time>
      </trkpt>
      <trkpt lat="44.61807" lon="2.534">
        <ele>625.6</ele>
        <time>2024-08-14T10:13:02Z</time>
      </trkpt>
      <trkpt lat="44.61815" lon="2.53386">
        <ele>625.4</ele>
        <time>2024-08-14T10:13:04Z</time>
      </trkpt>
      <trkpt lat="44.61822" lon="2.53372">
        <ele>625.3</ele>
        <time>2024-08-14T10:13:06Z</time>
      </trkpt>
      <trkpt lat="44.61829" lon="2.5336">
        <ele>625.1</ele>
        <time>2024-08-14T10:13:08Z</time>
      </trkpt>
      <trkpt lat="44.61836" lon="2.53348">
        <ele>624.7</ele>
        <time>2024-08-14T10:13:10Z</time>
      </trkpt>
      <trkpt lat="44.61839" lon="2.53342">
        <ele>624.6</ele>
        <time>2024-08-14T10:13:11Z</time>
      </trkpt>
      <trkpt lat="44.61842" lon="2.53335">
        <ele>624.4</ele>
        <time>2024-08-14T10:13:12Z</time>
      </trkpt>
      <trkpt lat="44.61849" lon="2.53323">
        <ele>624</ele>
        <time>2024-08-14T10:13:14Z</time>
      </trkpt>
      <trkpt lat="44.61855" lon="2.5331">
        <ele>623.6</ele>
        <time>2024-08-14T10:13:16Z</time>
      </trkpt>
      <trkpt lat="44.61862" lon="2.53297">
        <ele>623.2</ele>
        <time>2024-08-14T10:13:18Z</time>
      </trkpt>
      <trkpt lat="44.61869" lon="2.53284">
        <ele>622.8</ele>
        <time>2024-08-14T10:13:20Z</time>
      </trkpt>
      <trkpt lat="44.61875" lon="2.5327">
        <ele>622.4</ele>
        <time>2024-08-14T10:13:22Z</time>
      </trkpt>
      <trkpt lat="44.61883" lon="2.53257">
        <ele>622</ele>
        <time>2024-08-14T10:13:24Z</time>
      </trkpt>
      <trkpt lat="44.6189" lon="2.53242">
        <ele>621.6</ele>
        <time>2024-08-14T10:13:26Z</time>
      </trkpt>
      <trkpt lat="44.61897" lon="2.53228">
        <ele>621.1</ele>
        <time>2024-08-14T10:13:28Z</time>
      </trkpt>
      <trkpt lat="44.619" lon="2.5322">
        <ele>620.9</ele>
        <time>2024-08-14T10:13:29Z</time>
      </trkpt>
      <trkpt lat="44.61903" lon="2.53212">
        <ele>620.7</ele>
        <time>2024-08-14T10:13:30Z</time>
      </trkpt>
      <trkpt lat="44.61909" lon="2.53196">
        <ele>620.2</ele>
        <time>2024-08-14T10:13:32Z</time>
      </trkpt>
      <trkpt lat="44.61911" lon="2.53188">
        <ele>620</ele>
        <time>2024-08-14T10:13:33Z</time>
      </trkpt>
      <trkpt lat="44.61913" lon="2.53179">
        <ele>619.8</ele>
        <time>2024-08-14T10:13:34Z</time>
      </trkpt>
      <trkpt lat="44.61916" lon="2.53161">
        <ele>619.4</ele>
        <time>2024-08-14T10:13:36Z</time>
      </trkpt>
      <trkpt lat="44.61919" lon="2.53144">
        <ele>618.9</ele>
        <time>2024-08-14T10:13:38Z</time>
      </trkpt>
      <trkpt lat="44.6192" lon="2.53135">
        <ele>618.7</ele>
        <time>2024-08-14T10:13:39Z</time>
      </trkpt>
      <trkpt lat="44.61922" lon="2.53126">
        <ele>618.4</ele>
        <time>2024-08-14T10:13:40Z</time>
      </trkpt>
      <trkpt lat="44.61925" lon="2.53109">
        <ele>617.8</ele>
        <time>2024-08-14T10:13:42Z</time>
      </trkpt>
      <trkpt lat="44.61928" lon="2.53092">
        <ele>617.3</ele>
        <time>2024-08-14T10:13:44Z</time>
      </trkpt>
      <trkpt lat="44.6193" lon="2.53075">
        <ele>616.7</ele>
        <time>2024-08-14T10:13:46Z</time>
      </trkpt>
      <trkpt lat="44.61933" lon="2.53058">
        <ele>616.1</ele>
        <time>2024-08-14T10:13:48Z</time>
      </trkpt>
      <trkpt lat="44.61935" lon="2.53041">
        <ele>615.5</ele>
        <time>2024-08-14T10:13:50Z</time>
      </trkpt>
      <trkpt lat="44.61938" lon="2.53024">
        <ele>615</ele>
        <time>2024-08-14T10:13:52Z</time>
      </trkpt>
      <trkpt lat="44.61939" lon="2.53016">
        <ele>614.7</ele>
        <time>2024-08-14T10:13:53Z</time>
      </trkpt>
      <trkpt lat="44.6194" lon="2.53007">
        <ele>614.4</ele>
        <time>2024-08-14T10:13:54Z</time>
      </trkpt>
      <trkpt lat="44.6194" lon="2.52998">
        <ele>614.2</ele>
        <time>2024-08-14T10:13:55Z</time>
      </trkpt>
      <trkpt lat="44.6194" lon="2.5299">
        <ele>613.9</ele>
        <time>2024-08-14T10:13:56Z</time>
      </trkpt>
      <trkpt lat="44.61939" lon="2.52971">
        <ele>613.3</ele>
        <time>2024-08-14T10:13:58Z</time>
      </trkpt>
      <trkpt lat="44.61936" lon="2.52953">
        <ele>612.7</ele>
        <time>2024-08-14T10:14:00Z</time>
      </trkpt>
      <trkpt lat="44.61931" lon="2.52934">
        <ele>612.2</ele>
        <time>2024-08-14T10:14:02Z</time>
      </trkpt>
      <trkpt lat="44.61926" lon="2.52916">
        <ele>611.6</ele>
        <time>2024-08-14T10:14:04Z</time>
      </trkpt>
      <trkpt lat="44.61923" lon="2.52906">
        <ele>611.3</ele>
        <time>2024-08-14T10:14:05Z</time>
      </trkpt>
      <trkpt lat="44.61922" lon="2.52896">
        <ele>611</ele>
        <time>2024-08-14T10:14:06Z</time>
      </trkpt>
      <trkpt lat="44.61922" lon="2.52886">
        <ele>610.7</ele>
        <time>2024-08-14T10:14:07Z</time>
      </trkpt>
      <trkpt lat="44.61923" lon="2.52875">
        <ele>610.5</ele>
        <time>2024-08-14T10:14:08Z</time>
      </trkpt>
      <trkpt lat="44.61926" lon="2.52866">
        <ele>610.2</ele>
        <time>2024-08-14T10:14:09Z</time>
      </trkpt>
      <trkpt lat="44.6193" lon="2.52857">
        <ele>609.9</ele>
        <time>2024-08-14T10:14:10Z</time>
      </trkpt>
      <trkpt lat="44.61934" lon="2.52849">
        <ele>609.7</ele>
        <time>2024-08-14T10:14:11Z</time>
      </trkpt>
      <trkpt lat="44.61939" lon="2.52842">
        <ele>609.4</ele>
        <time>2024-08-14T10:14:12Z</time>
      </trkpt>
      <trkpt lat="44.61945" lon="2.52836">
        <ele>609.2</ele>
        <time>2024-08-14T10:14:13Z</time>
      </trkpt>
      <trkpt lat="44.61951" lon="2.52832">
        <ele>608.9</ele>
        <time>2024-08-14T10:14:14Z</time>
      </trkpt>
      <trkpt lat="44.61965" lon="2.52826">
        <ele>608.4</ele>
        <time>2024-08-14T10:14:16Z</time>
      </trkpt>
      <trkpt lat="44.61972" lon="2.52825">
        <ele>608.2</ele>
        <time>2024-08-14T10:14:17Z</time>
      </trkpt>
      <trkpt lat="44.61979" lon="2.52825">
        <ele>607.9</ele>
        <time>2024-08-14T10:14:18Z</time>
      </trkpt>
      <trkpt lat="44.61993" lon="2.52827">
        <ele>607.5</ele>
        <time>2024-08-14T10:14:20Z</time>
      </trkpt>
      <trkpt lat="44.61999" lon="2.52829">
        <ele>607.3</ele>
        <time>2024-08-14T10:14:21Z</time>
      </trkpt>
      <trkpt lat="44.62006" lon="2.52832">
        <ele>607.1</ele>
        <time>2024-08-14T10:14:22Z</time>
      </trkpt>
      <trkpt lat="44.62018" lon="2.52836">
        <ele>606.7</ele>
        <time>2024-08-14T10:14:24Z</time>
      </trkpt>
      <trkpt lat="44.62025" lon="2.52838">
        <ele>606.6</ele>
        <time>2024-08-14T10:14:25Z</time>
      </trkpt>
      <trkpt lat="44.62031" lon="2.52838">
        <ele>606.4</ele>
        <time>2024-08-14T10:14:26Z</time>
      </trkpt>
      <trkpt lat="44.62038" lon="2.52838">
        <ele>606.2</ele>
        <time>2024-08-14T10:14:27Z</time>
      </trkpt>
      <trkpt lat="44.62044" lon="2.52836">
        <ele>606</ele>
        <time>2024-08-14T10:14:28Z</time>
      </trkpt>
      <trkpt lat="44.62051" lon="2.52833">
        <ele>605.9</ele>
        <time>2024-08-14T10:14:29Z</time>
      </trkpt>
      <trkpt lat="44.62057" lon="2.52829">
        <ele>605.7</ele>
        <time>2024-08-14T10:14:30Z</time>
      </trkpt>
      <trkpt lat="44.62062" lon="2.52824">
        <ele>605.5</ele>
        <time>2024-08-14T10:14:31Z</time>
      </trkpt>
      <trkpt lat="44.62066" lon="2.52818">
        <ele>605.4</ele>
        <time>2024-08-14T10:14:32Z</time>
      </trkpt>
      <trkpt lat="44.62074" lon="2.52805">
        <ele>605.1</ele>
        <time>2024-08-14T10:14:34Z</time>
      </trkpt>
      <trkpt lat="44.62076" lon="2.52797">
        <ele>604.9</ele>
        <time>2024-08-14T10:14:35Z</time>
      </trkpt>
      <trkpt lat="44.62078" lon="2.52789">
        <ele>604.7</ele>
        <time>2024-08-14T10:14:36Z</time>
      </trkpt>
      <trkpt lat="44.62081" lon="2.52772">
        <ele>604.3</ele>
        <time>2024-08-14T10:14:38Z</time>
      </trkpt>
      <trkpt lat="44.62085" lon="2.52755">
        <ele>604</ele>
        <time>2024-08-14T10:14:40Z</time>
      </trkpt>
      <trkpt lat="44.62086" lon="2.52747">
        <ele>603.8</ele>
        <time>2024-08-14T10:14:41Z</time>
      </trkpt>
      <trkpt lat="44.62088" lon="2.52739">
        <ele>603.6</ele>
        <time>2024-08-14T10:14:42Z</time>
      </trkpt>
      <trkpt lat="44.62092" lon="2.52722">
        <ele>603.3</ele>
        <time>2024-08-14T10:14:44Z</time>
      </trkpt>
      <trkpt lat="44.62096" lon="2.52706">
        <ele>602.9</ele>
        <time>2024-08-14T10:14:46Z</time>
      </trkpt>
      <trkpt lat="44.62099" lon="2.5269">
        <ele>602.5</ele>
        <time>2024-08-14T10:14:48Z</time>
      </trkpt>
      <trkpt lat="44.62102" lon="2.52674">
        <ele>602.2</ele>
        <time>2024-08-14T10:14:50Z</time>
      </trkpt>
      <trkpt lat="44.62103" lon="2.52658">
        <ele>601.9</ele>
        <time>2024-08-14T10:14:52Z</time>
      </trkpt>
      <trkpt lat="44.62103" lon="2.52642">
        <ele>601.6</ele>
        <time>2024-08-14T10:14:54Z</time>
      </trkpt>
      <trkpt lat="44.62103" lon="2.52634">
        <ele>601.4</ele>
        <time>2024-08-14T10:14:55Z</time>
      </trkpt>
      <trkpt lat="44.62103" lon="2.52626">
        <ele>601.2</ele>
        <time>2024-08-14T10:14:56Z</time>
      </trkpt>
      <trkpt lat="44.62102" lon="2.5261">
        <ele>600.9</ele>
        <time>2024-08-14T10:14:58Z</time>
      </trkpt>
      <trkpt lat="44.621" lon="2.52594">
        <ele>600.6</ele>
        <time>2024-08-14T10:15:00Z</time>
      </trkpt>
      <trkpt lat="44.62099" lon="2.52587">
        <ele>600.4</ele>
        <time>2024-08-14T10:15:01Z</time>
      </trkpt>
      <trkpt lat="44.62097" lon="2.52579">
        <ele>600.3</ele>
        <time>2024-08-14T10:15:02Z</time>
      </trkpt>
      <trkpt lat="44.62093" lon="2.52565">
        <ele>600</ele>
        <time>2024-08-14T10:15:04Z</time>
      </trkpt>
      <trkpt lat="44.62093" lon="2.52556">
        <ele>599.9</ele>
        <time>2024-08-14T10:15:05Z</time>
      </trkpt>
      <trkpt lat="44.62093" lon="2.52548">
        <ele>600</ele>
        <time>2024-08-14T10:15:06Z</time>
      </trkpt>
      <trkpt lat="44.62096" lon="2.52533">
        <ele>600.3</ele>
        <time>2024-08-14T10:15:08Z</time>
      </trkpt>
      <trkpt lat="44.62101" lon="2.52519">
        <ele>600.7</ele>
        <time>2024-08-14T10:15:10Z</time>
      </trkpt>
      <trkpt lat="44.62105" lon="2.52507">
        <ele>601.1</ele>
        <time>2024-08-14T10:15:12Z</time>
      </trkpt>
      <trkpt lat="44.62109" lon="2.52495">
        <ele>601.7</ele>
        <time>2024-08-14T10:15:14Z</time>
      </trkpt>
      <trkpt lat="44.62113" lon="2.52485">
        <ele>602.2</ele>
        <time>2024-08-14T10:15:16Z</time>
      </trkpt>
      <trkpt lat="44.62116" lon="2.52475">
        <ele>602.7</ele>
        <time>2024-08-14T10:15:18Z</time>
      </trkpt>
      <trkpt lat="44.6212" lon="2.52465">
        <ele>603.1</ele>
        <time>2024-08-14T10:15:20Z</time>
      </trkpt>
      <trkpt lat="44.62122" lon="2.52457">
        <ele>603.5</ele>
        <time>2024-08-14T10:15:22Z</time>
      </trkpt>
      <trkpt lat="44.62125" lon="2.52447">
        <ele>604</ele>
        <time>2024-08-14T10:15:24Z</time>
      </trkpt>
      <trkpt lat="44.62128" lon="2.52438">
        <ele>604.5</ele>
        <time>2024-08-14T10:15:26Z</time>
      </trkpt>
      <trkpt lat="44.62131" lon="2.52429">
        <ele>605</ele>
        <time>2024-08-14T10:15:28Z</time>
      </trkpt>
      <trkpt lat="44.62134" lon="2.52419">
        <ele>605.4</ele>
        <time>2024-08-14T10:15:30Z</time>
      </trkpt>
      <trkpt lat="44.62135" lon="2.52414">
        <ele>605.7</ele>
        <time>2024-08-14T10:15:31Z</time>
      </trkpt>
      <trkpt lat="44.62137" lon="2.52409">
        <ele>605.9</ele>
        <time>2024-08-14T10:15:32Z</time>
      </trkpt>
      <trkpt lat="44.62138" lon="2.52404">
        <ele>606.1</ele>
        <time>2024-08-14T10:15:33Z</time>
      </trkpt>
      <trkpt lat="44.6214" lon="2.52399">
        <ele>606.3</ele>
        <time>2024-08-14T10:15:34Z</time>
      </trkpt>
      <trkpt lat="44.62143" lon="2.52389">
        <ele>606.8</ele>
        <time>2024-08-14T10:15:36Z</time>
      </trkpt>
      <trkpt lat="44.62145" lon="2.5238">
        <ele>607.1</ele>
        <time>2024-08-14T10:15:38Z</time>
      </trkpt>
      <trkpt lat="44.62147" lon="2.52372">
        <ele>607.4</ele>
        <time>2024-08-14T10:15:40Z</time>
      </trkpt>
      <trkpt lat="44.62148" lon="2.52369">
        <ele>607.6</ele>
        <time>2024-08-14T10:15:41Z</time>
      </trkpt>
      <trkpt lat="44.62149" lon="2.52365">
        <ele>607.7</ele>
        <time>2024-08-14T10:15:42Z</time>
      </trkpt>
      <trkpt lat="44.62151" lon="2.52359">
        <ele>607.8</ele>
        <time>2024-08-14T10:15:44Z</time>
      </trkpt>
      <trkpt lat="44.62154" lon="2.52355">
        <ele>608</ele>
        <time>2024-08-14T10:15:46Z</time>
      </trkpt>
      <trkpt lat="44.62156" lon="2.52354">
        <ele>608</ele>
        <time>2024-08-14T10:15:47Z</time>
      </trkpt>
      <trkpt lat="44.62158" lon="2.52353">
        <ele>608.1</ele>
        <time>2024-08-14T10:15:48Z</time>
      </trkpt>
      <trkpt lat="44.62161" lon="2.52354">
        <ele>607.4</ele>
        <time>2024-08-14T10:15:50Z</time>
      </trkpt>
      <trkpt lat="44.62164" lon="2.52356">
        <ele>607</ele>
        <time>2024-08-14T10:15:52Z</time>
      </trkpt>
      <trkpt lat="44.62168" lon="2.5236">
        <ele>606.4</ele>
        <time>2024-08-14T10:15:54Z</time>
      </trkpt>
      <trkpt lat="44.62173" lon="2.52366">
        <ele>605.8</ele>
        <time>2024-08-14T10:15:56Z</time>
      </trkpt>
      <trkpt lat="44.62178" lon="2.52371">
        <ele>605.1</ele>
        <time>2024-08-14T10:15:58Z</time>
      </trkpt>
      <trkpt lat="44.62183" lon="2.52378">
        <ele>604.4</ele>
        <time>2024-08-14T10:16:00Z</time>
      </trkpt>
      <trkpt lat="44.6219" lon="2.52386">
        <ele>603.5</ele>
        <time>2024-08-14T10:16:02Z</time>
      </trkpt>
      <trkpt lat="44.62193" lon="2.5239">
        <ele>603.1</ele>
        <time>2024-08-14T10:16:03Z</time>
      </trkpt>
      <trkpt lat="44.62197" lon="2.52394">
        <ele>602.7</ele>
        <time>2024-08-14T10:16:04Z</time>
      </trkpt>
      <trkpt lat="44.62205" lon="2.52403">
        <ele>602</ele>
        <time>2024-08-14T10:16:06Z</time>
      </trkpt>
      <trkpt lat="44.62214" lon="2.52412">
        <ele>601.3</ele>
        <time>2024-08-14T10:16:08Z</time>
      </trkpt>
      <trkpt lat="44.62223" lon="2.52421">
        <ele>600.8</ele>
        <time>2024-08-14T10:16:10Z</time>
      </trkpt>
      <trkpt lat="44.62232" lon="2.52429">
        <ele>600.3</ele>
        <time>2024-08-14T10:16:12Z</time>
      </trkpt>
      <trkpt lat="44.62241" lon="2.52436">
        <ele>599.9</ele>
        <time>2024-08-14T10:16:14Z</time>
      </trkpt>
      <trkpt lat="44.6225" lon="2.52443">
        <ele>599.6</ele>
        <time>2024-08-14T10:16:16Z</time>
      </trkpt>
      <trkpt lat="44.62259" lon="2.52448">
        <ele>599.4</ele>
        <time>2024-08-14T10:16:18Z</time>
      </trkpt>
      <trkpt lat="44.62269" lon="2.52452">
        <ele>599.2</ele>
        <time>2024-08-14T10:16:20Z</time>
      </trkpt>
      <trkpt lat="44.62278" lon="2.52456">
        <ele>599</ele>
        <time>2024-08-14T10:16:22Z</time>
      </trkpt>
      <trkpt lat="44.62288" lon="2.5246">
        <ele>598.7</ele>
        <time>2024-08-14T10:16:24Z</time>
      </trkpt>
      <trkpt lat="44.62297" lon="2.52464">
        <ele>598.4</ele>
        <time>2024-08-14T10:16:26Z</time>
      </trkpt>
      <trkpt lat="44.62302" lon="2.52466">
        <ele>598.3</ele>
        <time>2024-08-14T10:16:27Z</time>
      </trkpt>
      <trkpt lat="44.62307" lon="2.52468">
        <ele>598.1</ele>
        <time>2024-08-14T10:16:28Z</time>
      </trkpt>
      <trkpt lat="44.62312" lon="2.5247">
        <ele>597.9</ele>
        <time>2024-08-14T10:16:29Z</time>
      </trkpt>
      <trkpt lat="44.62317" lon="2.52472">
        <ele>597.7</ele>
        <time>2024-08-14T10:16:30Z</time>
      </trkpt>
      <trkpt lat="44.62327" lon="2.52477">
        <ele>597.3</ele>
        <time>2024-08-14T10:16:32Z</time>
      </trkpt>
      <trkpt lat="44.62337" lon="2.52482">
        <ele>596.9</ele>
        <time>2024-08-14T10:16:34Z</time>
      </trkpt>
      <trkpt lat="44.62347" lon="2.52488">
        <ele>596.4</ele>
        <time>2024-08-14T10:16:36Z</time>
      </trkpt>
      <trkpt lat="44.62357" lon="2.52494">
        <ele>595.8</ele>
        <time>2024-08-14T10:16:38Z</time>
      </trkpt>
      <trkpt lat="44.62367" lon="2.525">
        <ele>595.1</ele>
        <time>2024-08-14T10:16:40Z</time>
      </trkpt>
      <trkpt lat="44.62378" lon="2.52507">
        <ele>594.5</ele>
        <time>2024-08-14T10:16:42Z</time>
      </trkpt>
      <trkpt lat="44.62383" lon="2.52511">
        <ele>594.2</ele>
        <time>2024-08-14T10:16:43Z</time>
      </trkpt>
      <trkpt lat="44.62389" lon="2.52514">
        <ele>593.8</ele>
        <time>2024-08-14T10:16:44Z</time>
      </trkpt>
      <trkpt lat="44.62401" lon="2.5252">
        <ele>593.2</ele>
        <time>2024-08-14T10:16:46Z</time>
      </trkpt>
      <trkpt lat="44.62413" lon="2.52526">
        <ele>592.6</ele>
        <time>2024-08-14T10:16:48Z</time>
      </trkpt>
      <trkpt lat="44.62419" lon="2.52529">
        <ele>592.4</ele>
        <time>2024-08-14T10:16:49Z</time>
      </trkpt>
      <trkpt lat="44.62426" lon="2.52532">
        <ele>592.1</ele>
        <time>2024-08-14T10:16:50Z</time>
      </trkpt>
      <trkpt lat="44.62438" lon="2.52538">
        <ele>591.8</ele>
        <time>2024-08-14T10:16:52Z</time>
      </trkpt>
      <trkpt lat="44.6245" lon="2.52543">
        <ele>591.5</ele>
        <time>2024-08-14T10:16:54Z</time>
      </trkpt>
      <trkpt lat="44.62456" lon="2.52545">
        <ele>591.3</ele>
        <time>2024-08-14T10:16:55Z</time>
      </trkpt>
      <trkpt lat="44.62461" lon="2.52546">
        <ele>591.1</ele>
        <time>2024-08-14T10:16:56Z</time>
      </trkpt>
      <trkpt lat="44.62472" lon="2.52546">
        <ele>590.7</ele>
        <time>2024-08-14T10:16:58Z</time>
      </trkpt>
      <trkpt lat="44.62478" lon="2.52545">
        <ele>590.4</ele>
        <time>2024-08-14T10:16:59Z</time>
      </trkpt>
      <trkpt lat="44.62484" lon="2.52544">
        <ele>590.1</ele>
        <time>2024-08-14T10:17:00Z</time>
      </trkpt>
      <trkpt lat="44.6249" lon="2.52541">
        <ele>589.7</ele>
        <time>2024-08-14T10:17:01Z</time>
      </trkpt>
      <trkpt lat="44.62496" lon="2.52539">
        <ele>589.2</ele>
        <time>2024-08-14T10:17:02Z</time>
      </trkpt>
      <trkpt lat="44.62502" lon="2.52536">
        <ele>588.8</ele>
        <time>2024-08-14T10:17:03Z</time>
      </trkpt>
      <trkpt lat="44.62509" lon="2.52533">
        <ele>588.2</ele>
        <time>2024-08-14T10:17:04Z</time>
      </trkpt>
      <trkpt lat="44.62525" lon="2.52528">
        <ele>587</ele>
        <time>2024-08-14T10:17:06Z</time>
      </trkpt>
      <trkpt lat="44.62533" lon="2.52527">
        <ele>586.5</ele>
        <time>2024-08-14T10:17:07Z</time>
      </trkpt>
      <trkpt lat="44.62542" lon="2.52528">
        <ele>585.8</ele>
        <time>2024-08-14T10:17:08Z</time>
      </trkpt>
      <trkpt lat="44.62551" lon="2.52529">
        <ele>585.1</ele>
        <time>2024-08-14T10:17:09Z</time>
      </trkpt>
      <trkpt lat="44.62559" lon="2.52531">
        <ele>584.3</ele>
        <time>2024-08-14T10:17:10Z</time>
      </trkpt>
      <trkpt lat="44.62576" lon="2.52536">
        <ele>583</ele>
        <time>2024-08-14T10:17:12Z</time>
      </trkpt>
      <trkpt lat="44.62593" lon="2.52544">
        <ele>581.6</ele>
        <time>2024-08-14T10:17:14Z</time>
      </trkpt>
      <trkpt lat="44.62608" lon="2.52552">
        <ele>580.3</ele>
        <time>2024-08-14T10:17:16Z</time>
      </trkpt>
      <trkpt lat="44.62614" lon="2.52556">
        <ele>579.6</ele>
        <time>2024-08-14T10:17:17Z</time>
      </trkpt>
      <trkpt lat="44.62619" lon="2.52561">
        <ele>578.9</ele>
        <time>2024-08-14T10:17:18Z</time>
      </trkpt>
      <trkpt lat="44.62623" lon="2.52569">
        <ele>578</ele>
        <time>2024-08-14T10:17:19Z</time>
      </trkpt>
      <trkpt lat="44.62624" lon="2.52579">
        <ele>577.1</ele>
        <time>2024-08-14T10:17:20Z</time>
      </trkpt>
      <trkpt lat="44.62622" lon="2.52588">
        <ele>576</ele>
        <time>2024-08-14T10:17:21Z</time>
      </trkpt>
      <trkpt lat="44.62618" lon="2.52598">
        <ele>574.7</ele>
        <time>2024-08-14T10:17:22Z</time>
      </trkpt>
      <trkpt lat="44.6261" lon="2.52618">
        <ele>572.1</ele>
        <time>2024-08-14T10:17:24Z</time>
      </trkpt>
      <trkpt lat="44.62605" lon="2.52628">
        <ele>571.1</ele>
        <time>2024-08-14T10:17:25Z</time>
      </trkpt>
      <trkpt lat="44.62601" lon="2.52638">
        <ele>570.1</ele>
        <time>2024-08-14T10:17:26Z</time>
      </trkpt>
      <trkpt lat="44.62597" lon="2.52648">
        <ele>569.3</ele>
        <time>2024-08-14T10:17:27Z</time>
      </trkpt>
      <trkpt lat="44.62594" lon="2.52658">
        <ele>568.5</ele>
        <time>2024-08-14T10:17:28Z</time>
      </trkpt>
      <trkpt lat="44.62592" lon="2.52668">
        <ele>567.8</ele>
        <time>2024-08-14T10:17:29Z</time>
      </trkpt>
      <trkpt lat="44.62591" lon="2.52679">
        <ele>567</ele>
        <time>2024-08-14T10:17:30Z</time>
      </trkpt>
      <trkpt lat="44.62592" lon="2.527">
        <ele>565.5</ele>
        <time>2024-08-14T10:17:32Z</time>
      </trkpt>
      <trkpt lat="44.62598" lon="2.52719">
        <ele>564</ele>
        <time>2024-08-14T10:17:34Z</time>
      </trkpt>
      <trkpt lat="44.62602" lon="2.52726">
        <ele>563.2</ele>
        <time>2024-08-14T10:17:35Z</time>
      </trkpt>
      <trkpt lat="44.62607" lon="2.52732">
        <ele>562.5</ele>
        <time>2024-08-14T10:17:36Z</time>
      </trkpt>
      <trkpt lat="44.6262" lon="2.52742">
        <ele>561</ele>
        <time>2024-08-14T10:17:38Z</time>
      </trkpt>
      <trkpt lat="44.62634" lon="2.52752">
        <ele>559.7</ele>
        <time>2024-08-14T10:17:40Z</time>
      </trkpt>
      <trkpt lat="44.62641" lon="2.52755">
        <ele>559.1</ele>
        <time>2024-08-14T10:17:41Z</time>
      </trkpt>
      <trkpt lat="44.62648" lon="2.52757">
        <ele>558.5</ele>
        <time>2024-08-14T10:17:42Z</time>
      </trkpt>
      <trkpt lat="44.62655" lon="2.52757">
        <ele>557.8</ele>
        <time>2024-08-14T10:17:43Z</time>
      </trkpt>
      <trkpt lat="44.62662" lon="2.52755">
        <ele>557.1</ele>
        <time>2024-08-14T10:17:44Z</time>
      </trkpt>
      <trkpt lat="44.62669" lon="2.52749">
        <ele>556.2</ele>
        <time>2024-08-14T10:17:45Z</time>
      </trkpt>
      <trkpt lat="44.62674" lon="2.52741">
        <ele>555.2</ele>
        <time>2024-08-14T10:17:46Z</time>
      </trkpt>
      <trkpt lat="44.62684" lon="2.52722">
        <ele>553.2</ele>
        <time>2024-08-14T10:17:48Z</time>
      </trkpt>
      <trkpt lat="44.62689" lon="2.52712">
        <ele>552.1</ele>
        <time>2024-08-14T10:17:49Z</time>
      </trkpt>
      <trkpt lat="44.62695" lon="2.52704">
        <ele>551.1</ele>
        <time>2024-08-14T10:17:50Z</time>
      </trkpt>
      <trkpt lat="44.62702" lon="2.52696">
        <ele>550.1</ele>
        <time>2024-08-14T10:17:51Z</time>
      </trkpt>
      <trkpt lat="44.62709" lon="2.52689">
        <ele>549.2</ele>
        <time>2024-08-14T10:17:52Z</time>
      </trkpt>
      <trkpt lat="44.62724" lon="2.52676">
        <ele>547.5</ele>
        <time>2024-08-14T10:17:54Z</time>
      </trkpt>
      <trkpt lat="44.62738" lon="2.52666">
        <ele>546</ele>
        <time>2024-08-14T10:17:56Z</time>
      </trkpt>
      <trkpt lat="44.62745" lon="2.52662">
        <ele>545.2</ele>
        <time>2024-08-14T10:17:57Z</time>
      </trkpt>
      <trkpt lat="44.62752" lon="2.52659">
        <ele>544.5</ele>
        <time>2024-08-14T10:17:58Z</time>
      </trkpt>
      <trkpt lat="44.62767" lon="2.52656">
        <ele>543.1</ele>
        <time>2024-08-14T10:18:00Z</time>
      </trkpt>
      <trkpt lat="44.62783" lon="2.52658">
        <ele>541.2</ele>
        <time>2024-08-14T10:18:02Z</time>
      </trkpt>
      <trkpt lat="44.62799" lon="2.52663">
        <ele>539.1</ele>
        <time>2024-08-14T10:18:04Z</time>
      </trkpt>
      <trkpt lat="44.62813" lon="2.5267">
        <ele>537.2</ele>
        <time>2024-08-14T10:18:06Z</time>
      </trkpt>
      <trkpt lat="44.62825" lon="2.52677">
        <ele>535.5</ele>
        <time>2024-08-14T10:18:08Z</time>
      </trkpt>
      <trkpt lat="44.62841" lon="2.52689">
        <ele>533.8</ele>
        <time>2024-08-14T10:18:10Z</time>
      </trkpt>
      <trkpt lat="44.62856" lon="2.52703">
        <ele>532</ele>
        <time>2024-08-14T10:18:12Z</time>
      </trkpt>
      <trkpt lat="44.62869" lon="2.52717">
        <ele>530.6</ele>
        <time>2024-08-14T10:18:14Z</time>
      </trkpt>
      <trkpt lat="44.62879" lon="2.52731">
        <ele>529.3</ele>
        <time>2024-08-14T10:18:16Z</time>
      </trkpt>
      <trkpt lat="44.62885" lon="2.52738">
        <ele>528.6</ele>
        <time>2024-08-14T10:18:17Z</time>
      </trkpt>
      <trkpt lat="44.62892" lon="2.52744">
        <ele>528</ele>
        <time>2024-08-14T10:18:18Z</time>
      </trkpt>
      <trkpt lat="44.62899" lon="2.52748">
        <ele>527.4</ele>
        <time>2024-08-14T10:18:19Z</time>
      </trkpt>
      <trkpt lat="44.62905" lon="2.52751">
        <ele>526.9</ele>
        <time>2024-08-14T10:18:20Z</time>
      </trkpt>
      <trkpt lat="44.62911" lon="2.52755">
        <ele>526.2</ele>
        <time>2024-08-14T10:18:21Z</time>
      </trkpt>
      <trkpt lat="44.62917" lon="2.52759">
        <ele>525.6</ele>
        <time>2024-08-14T10:18:22Z</time>
      </trkpt>
      <trkpt lat="44.62928" lon="2.5277">
        <ele>524.5</ele>
        <time>2024-08-14T10:18:24Z</time>
      </trkpt>
      <trkpt lat="44.6294" lon="2.52776">
        <ele>523.4</ele>
        <time>2024-08-14T10:18:26Z</time>
      </trkpt>
      <trkpt lat="44.62946" lon="2.52777">
        <ele>522.8</ele>
        <time>2024-08-14T10:18:27Z</time>
      </trkpt>
      <trkpt lat="44.62953" lon="2.52778">
        <ele>522.2</ele>
        <time>2024-08-14T10:18:28Z</time>
      </trkpt>
      <trkpt lat="44.62967" lon="2.52775">
        <ele>520.7</ele>
        <time>2024-08-14T10:18:30Z</time>
      </trkpt>
      <trkpt lat="44.62975" lon="2.52772">
        <ele>520.2</ele>
        <time>2024-08-14T10:18:31Z</time>
      </trkpt>
      <trkpt lat="44.62982" lon="2.52768">
        <ele>519.8</ele>
        <time>2024-08-14T10:18:32Z</time>
      </trkpt>
      <trkpt lat="44.62995" lon="2.52759">
        <ele>519.3</ele>
        <time>2024-08-14T10:18:34Z</time>
      </trkpt>
      <trkpt lat="44.63006" lon="2.52751">
        <ele>518.9</ele>
        <time>2024-08-14T10:18:36Z</time>
      </trkpt>
      <trkpt lat="44.63016" lon="2.52743">
        <ele>518.8</ele>
        <time>2024-08-14T10:18:38Z</time>
      </trkpt>
      <trkpt lat="44.63028" lon="2.52739">
        <ele>518.7</ele>
        <time>2024-08-14T10:18:40Z</time>
      </trkpt>
      <trkpt lat="44.63042" lon="2.52738">
        <ele>518.7</ele>
        <time>2024-08-14T10:18:42Z</time>
      </trkpt>
      <trkpt lat="44.63055" lon="2.5274">
        <ele>518.6</ele>
        <time>2024-08-14T10:18:44Z</time>
      </trkpt>
      <trkpt lat="44.63066" lon="2.52742">
        <ele>518.4</ele>
        <time>2024-08-14T10:18:46Z</time>
      </trkpt>
      <trkpt lat="44.63073" lon="2.52741">
        <ele>518.3</ele>
        <time>2024-08-14T10:18:48Z</time>
      </trkpt>
      <trkpt lat="44.63079" lon="2.52739">
        <ele>518</ele>
        <time>2024-08-14T10:18:50Z</time>
      </trkpt>
      <trkpt lat="44.63086" lon="2.52736">
        <ele>517.3</ele>
        <time>2024-08-14T10:18:52Z</time>
      </trkpt>
      <trkpt lat="44.63089" lon="2.52733">
        <ele>516.9</ele>
        <time>2024-08-14T10:18:53Z</time>
      </trkpt>
      <trkpt lat="44.63093" lon="2.52731">
        <ele>516.5</ele>
        <time>2024-08-14T10:18:54Z</time>
      </trkpt>
      <trkpt lat="44.631" lon="2.52725">
        <ele>515.8</ele>
        <time>2024-08-14T10:18:56Z</time>
      </trkpt>
      <trkpt lat="44.63106" lon="2.52718">
        <ele>515.1</ele>
        <time>2024-08-14T10:18:58Z</time>
      </trkpt>
      <trkpt lat="44.63109" lon="2.52715">
        <ele>514.8</ele>
        <time>2024-08-14T10:18:59Z</time>
      </trkpt>
      <trkpt lat="44.63113" lon="2.52712">
        <ele>514.5</ele>
        <time>2024-08-14T10:19:00Z</time>
      </trkpt>
      <trkpt lat="44.6312" lon="2.52705">
        <ele>514</ele>
        <time>2024-08-14T10:19:02Z</time>
      </trkpt>
      <trkpt lat="44.63127" lon="2.52698">
        <ele>513.5</ele>
        <time>2024-08-14T10:19:04Z</time>
      </trkpt>
      <trkpt lat="44.63131" lon="2.52695">
        <ele>513.2</ele>
        <time>2024-08-14T10:19:05Z</time>
      </trkpt>
      <trkpt lat="44.63135" lon="2.52692">
        <ele>512.9</ele>
        <time>2024-08-14T10:19:06Z</time>
      </trkpt>
      <trkpt lat="44.63139" lon="2.5269">
        <ele>512.5</ele>
        <time>2024-08-14T10:19:07Z</time>
      </trkpt>
      <trkpt lat="44.63143" lon="2.52689">
        <ele>512.2</ele>
        <time>2024-08-14T10:19:08Z</time>
      </trkpt>
      <trkpt lat="44.63152" lon="2.52687">
        <ele>511.4</ele>
        <time>2024-08-14T10:19:10Z</time>
      </trkpt>
      <trkpt lat="44.63163" lon="2.52687">
        <ele>510.5</ele>
        <time>2024-08-14T10:19:12Z</time>
      </trkpt>
      <trkpt lat="44.63174" lon="2.52688">
        <ele>509.7</ele>
        <time>2024-08-14T10:19:14Z</time>
      </trkpt>
      <trkpt lat="44.63179" lon="2.52688">
        <ele>509.2</ele>
        <time>2024-08-14T10:19:15Z</time>
      </trkpt>
      <trkpt lat="44.63184" lon="2.52688">
        <ele>508.8</ele>
        <time>2024-08-14T10:19:16Z</time>
      </trkpt>
      <trkpt lat="44.63195" lon="2.52685">
        <ele>507.9</ele>
        <time>2024-08-14T10:19:18Z</time>
      </trkpt>
      <trkpt lat="44.63206" lon="2.52681">
        <ele>507</ele>
        <time>2024-08-14T10:19:20Z</time>
      </trkpt>
      <trkpt lat="44.63217" lon="2.52674">
        <ele>506</ele>
        <time>2024-08-14T10:19:22Z</time>
      </trkpt>
      <trkpt lat="44.63227" lon="2.52668">
        <ele>504.9</ele>
        <time>2024-08-14T10:19:24Z</time>
      </trkpt>
      <trkpt lat="44.63231" lon="2.52665">
        <ele>504.4</ele>
        <time>2024-08-14T10:19:25Z</time>
      </trkpt>
      <trkpt lat="44.63234" lon="2.52663">
        <ele>504.1</ele>
        <time>2024-08-14T10:19:26Z</time>
      </trkpt>
      <trkpt lat="44.63243" lon="2.5266">
        <ele>503.2</ele>
        <time>2024-08-14T10:19:28Z</time>
      </trkpt>
      <trkpt lat="44.63252" lon="2.52656">
        <ele>502.3</ele>
        <time>2024-08-14T10:19:30Z</time>
      </trkpt>
      <trkpt lat="44.63257" lon="2.52655">
        <ele>501.9</ele>
        <time>2024-08-14T10:19:31Z</time>
      </trkpt>
      <trkpt lat="44.63261" lon="2.52654">
        <ele>501.5</ele>
        <time>2024-08-14T10:19:32Z</time>
      </trkpt>
      <trkpt lat="44.63272" lon="2.5265">
        <ele>500.7</ele>
        <time>2024-08-14T10:19:34Z</time>
      </trkpt>
      <trkpt lat="44.63283" lon="2.52646">
        <ele>499.7</ele>
        <time>2024-08-14T10:19:36Z</time>
      </trkpt>
      <trkpt lat="44.63294" lon="2.52641">
        <ele>498.7</ele>
        <time>2024-08-14T10:19:38Z</time>
      </trkpt>
      <trkpt lat="44.63305" lon="2.52636">
        <ele>497.8</ele>
        <time>2024-08-14T10:19:40Z</time>
      </trkpt>
      <trkpt lat="44.63311" lon="2.52633">
        <ele>497.3</ele>
        <time>2024-08-14T10:19:41Z</time>
      </trkpt>
      <trkpt lat="44.63316" lon="2.52629">
        <ele>496.8</ele>
        <time>2024-08-14T10:19:42Z</time>
      </trkpt>
      <trkpt lat="44.63326" lon="2.52622">
        <ele>496</ele>
        <time>2024-08-14T10:19:44Z</time>
      </trkpt>
      <trkpt lat="44.63333" lon="2.52614">
        <ele>495.4</ele>
        <time>2024-08-14T10:19:46Z</time>
      </trkpt>
      <trkpt lat="44.63338" lon="2.52604">
        <ele>494.7</ele>
        <time>2024-08-14T10:19:48Z</time>
      </trkpt>
      <trkpt lat="44.63343" lon="2.52595">
        <ele>494.1</ele>
        <time>2024-08-14T10:19:50Z</time>
      </trkpt>
      <trkpt lat="44.63345" lon="2.52589">
        <ele>493.7</ele>
        <time>2024-08-14T10:19:51Z</time>
      </trkpt>
      <trkpt lat="44.63347" lon="2.52583">
        <ele>493.3</ele>
        <time>2024-08-14T10:19:52Z</time>
      </trkpt>
      <trkpt lat="44.6335" lon="2.5257">
        <ele>492.5</ele>
        <time>2024-08-14T10:19:54Z</time>
      </trkpt>
      <trkpt lat="44.63353" lon="2.52564">
        <ele>492.1</ele>
        <time>2024-08-14T10:19:55Z</time>
      </trkpt>
      <trkpt lat="44.63356" lon="2.52559">
        <ele>491.7</ele>
        <time>2024-08-14T10:19:56Z</time>
      </trkpt>
      <trkpt lat="44.6336" lon="2.52554">
        <ele>491.3</ele>
        <time>2024-08-14T10:19:57Z</time>
      </trkpt>
      <trkpt lat="44.63364" lon="2.52551">
        <ele>491</ele>
        <time>2024-08-14T10:19:58Z</time>
      </trkpt>
      <trkpt lat="44.63368" lon="2.52548">
        <ele>490.7</ele>
        <time>2024-08-14T10:19:59Z</time>
      </trkpt>
      <trkpt lat="44.63371" lon="2.52544">
        <ele>490.4</ele>
        <time>2024-08-14T10:20:00Z</time>
      </trkpt>
      <trkpt lat="44.63375" lon="2.52541">
        <ele>490.1</ele>
        <time>2024-08-14T10:20:01Z</time>
      </trkpt>
      <trkpt lat="44.63379" lon="2.52537">
        <ele>489.7</ele>
        <time>2024-08-14T10:20:02Z</time>
      </trkpt>
      <trkpt lat="44.63386" lon="2.5253">
        <ele>489.1</ele>
        <time>2024-08-14T10:20:04Z</time>
      </trkpt>
      <trkpt lat="44.63392" lon="2.52524">
        <ele>488.4</ele>
        <time>2024-08-14T10:20:06Z</time>
      </trkpt>
      <trkpt lat="44.63395" lon="2.52524">
        <ele>488.2</ele>
        <time>2024-08-14T10:20:07Z</time>
      </trkpt>
      <trkpt lat="44.63396" lon="2.52526">
        <ele>488</ele>
        <time>2024-08-14T10:20:08Z</time>
      </trkpt>
      <trkpt lat="44.63396" lon="2.52531">
        <ele>487.5</ele>
        <time>2024-08-14T10:20:09Z</time>
      </trkpt>
      <trkpt lat="44.63394" lon="2.52535">
        <ele>487.1</ele>
        <time>2024-08-14T10:20:10Z</time>
      </trkpt>
      <trkpt lat="44.63387" lon="2.52543">
        <ele>486.3</ele>
        <time>2024-08-14T10:20:12Z</time>
      </trkpt>
      <trkpt lat="44.6338" lon="2.52553">
        <ele>485.4</ele>
        <time>2024-08-14T10:20:14Z</time>
      </trkpt>
      <trkpt lat="44.63375" lon="2.52564">
        <ele>484.5</ele>
        <time>2024-08-14T10:20:16Z</time>
      </trkpt>
      <trkpt lat="44.63373" lon="2.52571">
        <ele>484</ele>
        <time>2024-08-14T10:20:17Z</time>
      </trkpt>
      <trkpt lat="44.63373" lon="2.52579">
        <ele>483.5</ele>
        <time>2024-08-14T10:20:18Z</time>
      </trkpt>
      <trkpt lat="44.63373" lon="2.52587">
        <ele>483</ele>
        <time>2024-08-14T10:20:19Z</time>
      </trkpt>
      <trkpt lat="44.63374" lon="2.52595">
        <ele>482.4</ele>
        <time>2024-08-14T10:20:20Z</time>
      </trkpt>
      <trkpt lat="44.63375" lon="2.52604">
        <ele>481.9</ele>
        <time>2024-08-14T10:20:21Z</time>
      </trkpt>
      <trkpt lat="44.63376" lon="2.52612">
        <ele>481.3</ele>
        <time>2024-08-14T10:20:22Z</time>
      </trkpt>
      <trkpt lat="44.63381" lon="2.52629">
        <ele>480.1</ele>
        <time>2024-08-14T10:20:24Z</time>
      </trkpt>
      <trkpt lat="44.63387" lon="2.52646">
        <ele>479</ele>
        <time>2024-08-14T10:20:26Z</time>
      </trkpt>
      <trkpt lat="44.63392" lon="2.52662">
        <ele>478</ele>
        <time>2024-08-14T10:20:28Z</time>
      </trkpt>
      <trkpt lat="44.63398" lon="2.52678">
        <ele>477.1</ele>
        <time>2024-08-14T10:20:30Z</time>
      </trkpt>
      <trkpt lat="44.63407" lon="2.52693">
        <ele>476.1</ele>
        <time>2024-08-14T10:20:32Z</time>
      </trkpt>
      <trkpt lat="44.63412" lon="2.52699">
        <ele>475.6</ele>
        <time>2024-08-14T10:20:33Z</time>
      </trkpt>
      <trkpt lat="44.63418" lon="2.52707">
        <ele>474.9</ele>
        <time>2024-08-14T10:20:34Z</time>
      </trkpt>
      <trkpt lat="44.63429" lon="2.52724">
        <ele>473.4</ele>
        <time>2024-08-14T10:20:36Z</time>
      </trkpt>
      <trkpt lat="44.63438" lon="2.52744">
        <ele>472</ele>
        <time>2024-08-14T10:20:38Z</time>
      </trkpt>
      <trkpt lat="44.63442" lon="2.52766">
        <ele>470.7</ele>
        <time>2024-08-14T10:20:40Z</time>
      </trkpt>
      <trkpt lat="44.63444" lon="2.52788">
        <ele>469.4</ele>
        <time>2024-08-14T10:20:42Z</time>
      </trkpt>
      <trkpt lat="44.63449" lon="2.52806">
        <ele>468.2</ele>
        <time>2024-08-14T10:20:44Z</time>
      </trkpt>
      <trkpt lat="44.63455" lon="2.52822">
        <ele>467.1</ele>
        <time>2024-08-14T10:20:46Z</time>
      </trkpt>
      <trkpt lat="44.63461" lon="2.52836">
        <ele>466.3</ele>
        <time>2024-08-14T10:20:48Z</time>
      </trkpt>
      <trkpt lat="44.63463" lon="2.52841">
        <ele>466</ele>
        <time>2024-08-14T10:20:49Z</time>
      </trkpt>
      <trkpt lat="44.63464" lon="2.52846">
        <ele>465.7</ele>
        <time>2024-08-14T10:20:50Z</time>
      </trkpt>
      <trkpt lat="44.63465" lon="2.5285">
        <ele>465.5</ele>
        <time>2024-08-14T10:20:51Z</time>
      </trkpt>
      <trkpt lat="44.63468" lon="2.52853">
        <ele>465.2</ele>
        <time>2024-08-14T10:20:52Z</time>
      </trkpt>
      <trkpt lat="44.63473" lon="2.52861">
        <ele>464.6</ele>
        <time>2024-08-14T10:20:54Z</time>
      </trkpt>
      <trkpt lat="44.63479" lon="2.5287">
        <ele>464.1</ele>
        <time>2024-08-14T10:20:56Z</time>
      </trkpt>
      <trkpt lat="44.6348" lon="2.52875">
        <ele>463.9</ele>
        <time>2024-08-14T10:20:57Z</time>
      </trkpt>
      <trkpt lat="44.63482" lon="2.5288">
        <ele>463.7</ele>
        <time>2024-08-14T10:20:58Z</time>
      </trkpt>
      <trkpt lat="44.63486" lon="2.5289">
        <ele>463.4</ele>
        <time>2024-08-14T10:21:00Z</time>
      </trkpt>
      <trkpt lat="44.63488" lon="2.52896">
        <ele>463.2</ele>
        <time>2024-08-14T10:21:01Z</time>
      </trkpt>
      <trkpt lat="44.63489" lon="2.52901">
        <ele>463.1</ele>
        <time>2024-08-14T10:21:02Z</time>
      </trkpt>
      <trkpt lat="44.63492" lon="2.52911">
        <ele>463.1</ele>
        <time>2024-08-14T10:21:04Z</time>
      </trkpt>
      <trkpt lat="44.63496" lon="2.52922">
        <ele>463.1</ele>
        <time>2024-08-14T10:21:06Z</time>
      </trkpt>
      <trkpt lat="44.63497" lon="2.52927">
        <ele>463.2</ele>
        <time>2024-08-14T10:21:07Z</time>
      </trkpt>
      <trkpt lat="44.63499" lon="2.52932">
        <ele>463.2</ele>
        <time>2024-08-14T10:21:08Z</time>
      </trkpt>
      <trkpt lat="44.63502" lon="2.52941">
        <ele>463.3</ele>
        <time>2024-08-14T10:21:10Z</time>
      </trkpt>
      <trkpt lat="44.63505" lon="2.52948">
        <ele>463.5</ele>
        <time>2024-08-14T10:21:12Z</time>
      </trkpt>
      <trkpt lat="44.63509" lon="2.52954">
        <ele>463.7</ele>
        <time>2024-08-14T10:21:14Z</time>
      </trkpt>
      <trkpt lat="44.63512" lon="2.52961">
        <ele>463.9</ele>
        <time>2024-08-14T10:21:16Z</time>
      </trkpt>
      <trkpt lat="44.63515" lon="2.52967">
        <ele>464.2</ele>
        <time>2024-08-14T10:21:18Z</time>
      </trkpt>
      <trkpt lat="44.63516" lon="2.5297">
        <ele>464.3</ele>
        <time>2024-08-14T10:21:19Z</time>
      </trkpt>
      <trkpt lat="44.63518" lon="2.52973">
        <ele>464.4</ele>
        <time>2024-08-14T10:21:20Z</time>
      </trkpt>
      <trkpt lat="44.63522" lon="2.52979">
        <ele>464.7</ele>
        <time>2024-08-14T10:21:22Z</time>
      </trkpt>
      <trkpt lat="44.63524" lon="2.52985">
        <ele>464.9</ele>
        <time>2024-08-14T10:21:24Z</time>
      </trkpt>
      <trkpt lat="44.63526" lon="2.52988">
        <ele>465</ele>
        <time>2024-08-14T10:21:25Z</time>
      </trkpt>
      <trkpt lat="44.63528" lon="2.52991">
        <ele>465.1</ele>
        <time>2024-08-14T10:21:26Z</time>
      </trkpt>
      <trkpt lat="44.63531" lon="2.52997">
        <ele>465.3</ele>
        <time>2024-08-14T10:21:28Z</time>
      </trkpt>
      <trkpt lat="44.63534" lon="2.53002">
        <ele>465.5</ele>
        <time>2024-08-14T10:21:30Z</time>
      </trkpt>
      <trkpt lat="44.63537" lon="2.53007">
        <ele>465.6</ele>
        <time>2024-08-14T10:21:32Z</time>
      </trkpt>
      <trkpt lat="44.63539" lon="2.53011">
        <ele>465.7</ele>
        <time>2024-08-14T10:21:34Z</time>
      </trkpt>
      <trkpt lat="44.63541" lon="2.53013">
        <ele>465.8</ele>
        <time>2024-08-14T10:21:36Z</time>
      </trkpt>
      <trkpt lat="44.63542" lon="2.53014">
        <ele>465.8</ele>
        <time>2024-08-14T10:21:37Z</time>
      </trkpt>
      <trkpt lat="44.63542" lon="2.53014">
        <ele>465.8</ele>
        <time>2024-08-14T10:21:38Z</time>
      </trkpt>
      <trkpt lat="44.63558" lon="2.53027">
        <ele>465.4</ele>
        <time>2024-08-14T10:27:13Z</time>
      </trkpt>
      <trkpt lat="44.63559" lon="2.53028">
        <ele>465.3</ele>
        <time>2024-08-14T10:27:14Z</time>
      </trkpt>
      <trkpt lat="44.63564" lon="2.5303">
        <ele>465</ele>
        <time>2024-08-14T10:27:16Z</time>
      </trkpt>
      <trkpt lat="44.63569" lon="2.53033">
        <ele>464.6</ele>
        <time>2024-08-14T10:27:18Z</time>
      </trkpt>
      <trkpt lat="44.63575" lon="2.53036">
        <ele>464.2</ele>
        <time>2024-08-14T10:27:20Z</time>
      </trkpt>
      <trkpt lat="44.63581" lon="2.53039">
        <ele>463.6</ele>
        <time>2024-08-14T10:27:22Z</time>
      </trkpt>
      <trkpt lat="44.63585" lon="2.53041">
        <ele>463.3</ele>
        <time>2024-08-14T10:27:23Z</time>
      </trkpt>
      <trkpt lat="44.63589" lon="2.53044">
        <ele>462.9</ele>
        <time>2024-08-14T10:27:24Z</time>
      </trkpt>
      <trkpt lat="44.63593" lon="2.53047">
        <ele>462.5</ele>
        <time>2024-08-14T10:27:25Z</time>
      </trkpt>
      <trkpt lat="44.63597" lon="2.53051">
        <ele>462</ele>
        <time>2024-08-14T10:27:26Z</time>
      </trkpt>
      <trkpt lat="44.63607" lon="2.5306">
        <ele>460.8</ele>
        <time>2024-08-14T10:27:28Z</time>
      </trkpt>
      <trkpt lat="44.63618" lon="2.53071">
        <ele>459.4</ele>
        <time>2024-08-14T10:27:30Z</time>
      </trkpt>
      <trkpt lat="44.6363" lon="2.53084">
        <ele>457.8</ele>
        <time>2024-08-14T10:27:32Z</time>
      </trkpt>
      <trkpt lat="44.63644" lon="2.53099">
        <ele>455.9</ele>
        <time>2024-08-14T10:27:34Z</time>
      </trkpt>
      <trkpt lat="44.63651" lon="2.53106">
        <ele>454.9</ele>
        <time>2024-08-14T10:27:35Z</time>
      </trkpt>
      <trkpt lat="44.63658" lon="2.53114">
        <ele>454</ele>
        <time>2024-08-14T10:27:36Z</time>
      </trkpt>
      <trkpt lat="44.63673" lon="2.5313">
        <ele>452.6</ele>
        <time>2024-08-14T10:27:38Z</time>
      </trkpt>
      <trkpt lat="44.63689" lon="2.53145">
        <ele>451.6</ele>
        <time>2024-08-14T10:27:40Z</time>
      </trkpt>
      <trkpt lat="44.63697" lon="2.53152">
        <ele>451.2</ele>
        <time>2024-08-14T10:27:41Z</time>
      </trkpt>
      <trkpt lat="44.63705" lon="2.53159">
        <ele>450.8</ele>
        <time>2024-08-14T10:27:42Z</time>
      </trkpt>
      <trkpt lat="44.6372" lon="2.53173">
        <ele>450</ele>
        <time>2024-08-14T10:27:44Z</time>
      </trkpt>
      <trkpt lat="44.63735" lon="2.53187">
        <ele>449.3</ele>
        <time>2024-08-14T10:27:46Z</time>
      </trkpt>
      <trkpt lat="44.63749" lon="2.532">
        <ele>448.8</ele>
        <time>2024-08-14T10:27:48Z</time>
      </trkpt>
      <trkpt lat="44.63757" lon="2.53206">
        <ele>448.7</ele>
        <time>2024-08-14T10:27:49Z</time>
      </trkpt>
      <trkpt lat="44.63765" lon="2.53212">
        <ele>448.6</ele>
        <time>2024-08-14T10:27:50Z</time>
      </trkpt>
      <trkpt lat="44.63772" lon="2.53218">
        <ele>448.6</ele>
        <time>2024-08-14T10:27:51Z</time>
      </trkpt>
      <trkpt lat="44.63779" lon="2.53224">
        <ele>448.5</ele>
        <time>2024-08-14T10:27:52Z</time>
      </trkpt>
      <trkpt lat="44.63793" lon="2.53235">
        <ele>448.1</ele>
        <time>2024-08-14T10:27:54Z</time>
      </trkpt>
      <trkpt lat="44.63799" lon="2.53239">
        <ele>447.3</ele>
        <time>2024-08-14T10:27:55Z</time>
      </trkpt>
      <trkpt lat="44.63805" lon="2.53245">
        <ele>446.3</ele>
        <time>2024-08-14T10:27:56Z</time>
      </trkpt>
      <trkpt lat="44.63816" lon="2.53259">
        <ele>444.3</ele>
        <time>2024-08-14T10:27:58Z</time>
      </trkpt>
      <trkpt lat="44.63822" lon="2.53266">
        <ele>443.3</ele>
        <time>2024-08-14T10:27:59Z</time>
      </trkpt>
      <trkpt lat="44.63828" lon="2.53273">
        <ele>442.3</ele>
        <time>2024-08-14T10:28:00Z</time>
      </trkpt>
      <trkpt lat="44.63842" lon="2.53284">
        <ele>442.1</ele>
        <time>2024-08-14T10:28:02Z</time>
      </trkpt>
      <trkpt lat="44.63849" lon="2.53287">
        <ele>442</ele>
        <time>2024-08-14T10:28:03Z</time>
      </trkpt>
      <trkpt lat="44.63856" lon="2.5329">
        <ele>441.9</ele>
        <time>2024-08-14T10:28:04Z</time>
      </trkpt>
      <trkpt lat="44.63868" lon="2.53295">
        <ele>441.7</ele>
        <time>2024-08-14T10:28:06Z</time>
      </trkpt>
      <trkpt lat="44.63874" lon="2.53297">
        <ele>441.5</ele>
        <time>2024-08-14T10:28:07Z</time>
      </trkpt>
      <trkpt lat="44.63878" lon="2.53299">
        <ele>441.4</ele>
        <time>2024-08-14T10:28:08Z</time>
      </trkpt>
      <trkpt lat="44.63889" lon="2.53303">
        <ele>440.8</ele>
        <time>2024-08-14T10:28:10Z</time>
      </trkpt>
      <trkpt lat="44.63901" lon="2.53308">
        <ele>440.2</ele>
        <time>2024-08-14T10:28:12Z</time>
      </trkpt>
      <trkpt lat="44.63907" lon="2.5331">
        <ele>440</ele>
        <time>2024-08-14T10:28:13Z</time>
      </trkpt>
      <trkpt lat="44.63914" lon="2.53313">
        <ele>439.8</ele>
        <time>2024-08-14T10:28:14Z</time>
      </trkpt>
      <trkpt lat="44.63926" lon="2.53319">
        <ele>439.4</ele>
        <time>2024-08-14T10:28:16Z</time>
      </trkpt>
      <trkpt lat="44.63933" lon="2.53321">
        <ele>439.1</ele>
        <time>2024-08-14T10:28:17Z</time>
      </trkpt>
      <trkpt lat="44.63938" lon="2.5332">
        <ele>438.7</ele>
        <time>2024-08-14T10:28:18Z</time>
      </trkpt>
      <trkpt lat="44.63945" lon="2.5332">
        <ele>438.1</ele>
        <time>2024-08-14T10:28:20Z</time>
      </trkpt>
      <trkpt lat="44.63948" lon="2.53323">
        <ele>437.8</ele>
        <time>2024-08-14T10:28:21Z</time>
      </trkpt>
      <trkpt lat="44.63952" lon="2.53326">
        <ele>437.3</ele>
        <time>2024-08-14T10:28:22Z</time>
      </trkpt>
      <trkpt lat="44.63957" lon="2.53329">
        <ele>436.9</ele>
        <time>2024-08-14T10:28:23Z</time>
      </trkpt>
      <trkpt lat="44.63962" lon="2.53331">
        <ele>436.4</ele>
        <time>2024-08-14T10:28:24Z</time>
      </trkpt>
      <trkpt lat="44.63971" lon="2.53336">
        <ele>435.6</ele>
        <time>2024-08-14T10:28:26Z</time>
      </trkpt>
      <trkpt lat="44.63976" lon="2.53338">
        <ele>435.1</ele>
        <time>2024-08-14T10:28:27Z</time>
      </trkpt>
      <trkpt lat="44.63979" lon="2.5334">
        <ele>434.8</ele>
        <time>2024-08-14T10:28:28Z</time>
      </trkpt>
      <trkpt lat="44.63983" lon="2.53342">
        <ele>434.3</ele>
        <time>2024-08-14T10:28:29Z</time>
      </trkpt>
      <trkpt lat="44.63987" lon="2.53344">
        <ele>433.7</ele>
        <time>2024-08-14T10:28:30Z</time>
      </trkpt>
      <trkpt lat="44.63995" lon="2.53347">
        <ele>432.5</ele>
        <time>2024-08-14T10:28:32Z</time>
      </trkpt>
      <trkpt lat="44.64003" lon="2.5335">
        <ele>431.3</ele>
        <time>2024-08-14T10:28:34Z</time>
      </trkpt>
      <trkpt lat="44.64008" lon="2.53351">
        <ele>430.6</ele>
        <time>2024-08-14T10:28:36Z</time>
      </trkpt>
      <trkpt lat="44.64013" lon="2.53354">
        <ele>429.8</ele>
        <time>2024-08-14T10:28:37Z</time>
      </trkpt>
      <trkpt lat="44.64018" lon="2.53357">
        <ele>429.2</ele>
        <time>2024-08-14T10:28:38Z</time>
      </trkpt>
      <trkpt lat="44.64028" lon="2.53362">
        <ele>428.2</ele>
        <time>2024-08-14T10:28:40Z</time>
      </trkpt>
      <trkpt lat="44.64033" lon="2.53365">
        <ele>427.8</ele>
        <time>2024-08-14T10:28:41Z</time>
      </trkpt>
      <trkpt lat="44.64038" lon="2.53368">
        <ele>427.4</ele>
        <time>2024-08-14T10:28:42Z</time>
      </trkpt>
      <trkpt lat="44.64045" lon="2.53372">
        <ele>426.8</ele>
        <time>2024-08-14T10:28:44Z</time>
      </trkpt>
      <trkpt lat="44.64049" lon="2.53374">
        <ele>426.4</ele>
        <time>2024-08-14T10:28:45Z</time>
      </trkpt>
      <trkpt lat="44.64054" lon="2.53377">
        <ele>426.1</ele>
        <time>2024-08-14T10:28:46Z</time>
      </trkpt>
      <trkpt lat="44.64064" lon="2.53381">
        <ele>425.4</ele>
        <time>2024-08-14T10:28:48Z</time>
      </trkpt>
      <trkpt lat="44.64068" lon="2.53384">
        <ele>425.2</ele>
        <time>2024-08-14T10:28:49Z</time>
      </trkpt>
      <trkpt lat="44.64072" lon="2.53386">
        <ele>424.8</ele>
        <time>2024-08-14T10:28:50Z</time>
      </trkpt>
      <trkpt lat="44.64076" lon="2.53389">
        <ele>424.5</ele>
        <time>2024-08-14T10:28:51Z</time>
      </trkpt>
      <trkpt lat="44.64078" lon="2.53394">
        <ele>424.1</ele>
        <time>2024-08-14T10:28:52Z</time>
      </trkpt>
      <trkpt lat="44.6408" lon="2.534">
        <ele>423.6</ele>
        <time>2024-08-14T10:28:53Z</time>
      </trkpt>
      <trkpt lat="44.64081" lon="2.53408">
        <ele>422.8</ele>
        <time>2024-08-14T10:28:54Z</time>
      </trkpt>
      <trkpt lat="44.6408" lon="2.53416">
        <ele>422</ele>
        <time>2024-08-14T10:28:55Z</time>
      </trkpt>
      <trkpt lat="44.6408" lon="2.53425">
        <ele>421.1</ele>
        <time>2024-08-14T10:28:56Z</time>
      </trkpt>
      <trkpt lat="44.64083" lon="2.53443">
        <ele>419.4</ele>
        <time>2024-08-14T10:28:58Z</time>
      </trkpt>
      <trkpt lat="44.64085" lon="2.53465">
        <ele>417.8</ele>
        <time>2024-08-14T10:29:00Z</time>
      </trkpt>
      <trkpt lat="44.64086" lon="2.53476">
        <ele>417.2</ele>
        <time>2024-08-14T10:29:01Z</time>
      </trkpt>
      <trkpt lat="44.64087" lon="2.53484">
        <ele>416.7</ele>
        <time>2024-08-14T10:29:02Z</time>
      </trkpt>
      <trkpt lat="44.64091" lon="2.53494">
        <ele>416</ele>
        <time>2024-08-14T10:29:04Z</time>
      </trkpt>
      <trkpt lat="44.64094" lon="2.535">
        <ele>415.4</ele>
        <time>2024-08-14T10:29:05Z</time>
      </trkpt>
      <trkpt lat="44.64097" lon="2.53507">
        <ele>414.7</ele>
        <time>2024-08-14T10:29:06Z</time>
      </trkpt>
      <trkpt lat="44.641" lon="2.53516">
        <ele>413.9</ele>
        <time>2024-08-14T10:29:07Z</time>
      </trkpt>
      <trkpt lat="44.64104" lon="2.53523">
        <ele>413</ele>
        <time>2024-08-14T10:29:08Z</time>
      </trkpt>
      <trkpt lat="44.64108" lon="2.53529">
        <ele>412.1</ele>
        <time>2024-08-14T10:29:09Z</time>
      </trkpt>
      <trkpt lat="44.64112" lon="2.53535">
        <ele>411.1</ele>
        <time>2024-08-14T10:29:10Z</time>
      </trkpt>
      <trkpt lat="44.64116" lon="2.53538">
        <ele>410.3</ele>
        <time>2024-08-14T10:29:11Z</time>
      </trkpt>
      <trkpt lat="44.6412" lon="2.53541">
        <ele>409.4</ele>
        <time>2024-08-14T10:29:12Z</time>
      </trkpt>
      <trkpt lat="44.64129" lon="2.5355">
        <ele>407.4</ele>
        <time>2024-08-14T10:29:14Z</time>
      </trkpt>
      <trkpt lat="44.64139" lon="2.53558">
        <ele>405.9</ele>
        <time>2024-08-14T10:29:15Z</time>
      </trkpt>
      <trkpt lat="44.64145" lon="2.53563">
        <ele>405.1</ele>
        <time>2024-08-14T10:29:16Z</time>
      </trkpt>
      <trkpt lat="44.64154" lon="2.53572">
        <ele>404</ele>
        <time>2024-08-14T10:29:18Z</time>
      </trkpt>
      <trkpt lat="44.64162" lon="2.5358">
        <ele>403.1</ele>
        <time>2024-08-14T10:29:20Z</time>
      </trkpt>
      <trkpt lat="44.6417" lon="2.5359">
        <ele>402.2</ele>
        <time>2024-08-14T10:29:22Z</time>
      </trkpt>
      <trkpt lat="44.64174" lon="2.53593">
        <ele>401.8</ele>
        <time>2024-08-14T10:29:23Z</time>
      </trkpt>
      <trkpt lat="44.64179" lon="2.53596">
        <ele>401.2</ele>
        <time>2024-08-14T10:29:24Z</time>
      </trkpt>
      <trkpt lat="44.64188" lon="2.53601">
        <ele>399.8</ele>
        <time>2024-08-14T10:29:26Z</time>
      </trkpt>
      <trkpt lat="44.64195" lon="2.5361">
        <ele>398.3</ele>
        <time>2024-08-14T10:29:28Z</time>
      </trkpt>
      <trkpt lat="44.64197" lon="2.53614">
        <ele>397.8</ele>
        <time>2024-08-14T10:29:29Z</time>
      </trkpt>
      <trkpt lat="44.642" lon="2.53616">
        <ele>397.3</ele>
        <time>2024-08-14T10:29:30Z</time>
      </trkpt>
      <trkpt lat="44.64206" lon="2.53622">
        <ele>396.1</ele>
        <time>2024-08-14T10:29:32Z</time>
      </trkpt>
      <trkpt lat="44.64208" lon="2.53625">
        <ele>395.4</ele>
        <time>2024-08-14T10:29:33Z</time>
      </trkpt>
      <trkpt lat="44.64211" lon="2.53628">
        <ele>394.9</ele>
        <time>2024-08-14T10:29:34Z</time>
      </trkpt>
      <trkpt lat="44.64216" lon="2.53633">
        <ele>393.8</ele>
        <time>2024-08-14T10:29:36Z</time>
      </trkpt>
      <trkpt lat="44.6422" lon="2.53639">
        <ele>392.7</ele>
        <time>2024-08-14T10:29:38Z</time>
      </trkpt>
      <trkpt lat="44.64226" lon="2.53648">
        <ele>391.3</ele>
        <time>2024-08-14T10:29:40Z</time>
      </trkpt>
      <trkpt lat="44.64228" lon="2.53653">
        <ele>390.7</ele>
        <time>2024-08-14T10:29:41Z</time>
      </trkpt>
      <trkpt lat="44.6423" lon="2.53657">
        <ele>390.1</ele>
        <time>2024-08-14T10:29:42Z</time>
      </trkpt>
      <trkpt lat="44.64237" lon="2.53668">
        <ele>388.6</ele>
        <time>2024-08-14T10:29:44Z</time>
      </trkpt>
      <trkpt lat="44.64244" lon="2.53678">
        <ele>387.1</ele>
        <time>2024-08-14T10:29:46Z</time>
      </trkpt>
      <trkpt lat="44.64248" lon="2.53684">
        <ele>386.2</ele>
        <time>2024-08-14T10:29:47Z</time>
      </trkpt>
      <trkpt lat="44.64251" lon="2.5369">
        <ele>385.5</ele>
        <time>2024-08-14T10:29:48Z</time>
      </trkpt>
      <trkpt lat="44.64255" lon="2.53695">
        <ele>384.7</ele>
        <time>2024-08-14T10:29:49Z</time>
      </trkpt>
      <trkpt lat="44.6426" lon="2.53698">
        <ele>384</ele>
        <time>2024-08-14T10:29:50Z</time>
      </trkpt>
      <trkpt lat="44.64269" lon="2.53703">
        <ele>382.7</ele>
        <time>2024-08-14T10:29:52Z</time>
      </trkpt>
      <trkpt lat="44.64273" lon="2.53704">
        <ele>382.2</ele>
        <time>2024-08-14T10:29:53Z</time>
      </trkpt>
      <trkpt lat="44.64276" lon="2.53704">
        <ele>381.8</ele>
        <time>2024-08-14T10:29:54Z</time>
      </trkpt>
      <trkpt lat="44.64281" lon="2.53707">
        <ele>381.1</ele>
        <time>2024-08-14T10:29:56Z</time>
      </trkpt>
      <trkpt lat="44.64283" lon="2.53709">
        <ele>380.6</ele>
        <time>2024-08-14T10:29:57Z</time>
      </trkpt>
      <trkpt lat="44.64288" lon="2.53712">
        <ele>379.9</ele>
        <time>2024-08-14T10:29:58Z</time>
      </trkpt>
      <trkpt lat="44.64296" lon="2.53712">
        <ele>378.6</ele>
        <time>2024-08-14T10:30:00Z</time>
      </trkpt>
      <trkpt lat="44.64299" lon="2.53712">
        <ele>378.1</ele>
        <time>2024-08-14T10:30:01Z</time>
      </trkpt>
      <trkpt lat="44.64302" lon="2.53715">
        <ele>377.5</ele>
        <time>2024-08-14T10:30:02Z</time>
      </trkpt>
      <trkpt lat="44.64301" lon="2.53718">
        <ele>377.1</ele>
        <time>2024-08-14T10:30:03Z</time>
      </trkpt>
      <trkpt lat="44.64299" lon="2.53721">
        <ele>376.6</ele>
        <time>2024-08-14T10:30:04Z</time>
      </trkpt>
      <trkpt lat="44.64297" lon="2.53723">
        <ele>376.2</ele>
        <time>2024-08-14T10:30:05Z</time>
      </trkpt>
      <trkpt lat="44.64294" lon="2.53724">
        <ele>375.7</ele>
        <time>2024-08-14T10:30:06Z</time>
      </trkpt>
      <trkpt lat="44.64292" lon="2.53725">
        <ele>375.3</ele>
        <time>2024-08-14T10:30:07Z</time>
      </trkpt>
      <trkpt lat="44.64289" lon="2.53726">
        <ele>374.7</ele>
        <time>2024-08-14T10:30:08Z</time>
      </trkpt>
      <trkpt lat="44.64281" lon="2.5373">
        <ele>373.5</ele>
        <time>2024-08-14T10:30:10Z</time>
      </trkpt>
      <trkpt lat="44.64275" lon="2.53734">
        <ele>372.3</ele>
        <time>2024-08-14T10:30:12Z</time>
      </trkpt>
      <trkpt lat="44.64272" lon="2.53736">
        <ele>371.6</ele>
        <time>2024-08-14T10:30:13Z</time>
      </trkpt>
      <trkpt lat="44.64269" lon="2.53738">
        <ele>371</ele>
        <time>2024-08-14T10:30:14Z</time>
      </trkpt>
      <trkpt lat="44.64267" lon="2.5374">
        <ele>370.5</ele>
        <time>2024-08-14T10:30:15Z</time>
      </trkpt>
      <trkpt lat="44.64266" lon="2.53742">
        <ele>370.2</ele>
        <time>2024-08-14T10:30:16Z</time>
      </trkpt>
      <trkpt lat="44.64266" lon="2.53743">
        <ele>370</ele>
        <time>2024-08-14T10:30:17Z</time>
      </trkpt>
      <trkpt lat="44.64268" lon="2.53745">
        <ele>369.5</ele>
        <time>2024-08-14T10:30:18Z</time>
      </trkpt>
      <trkpt lat="44.64274" lon="2.53747">
        <ele>368.5</ele>
        <time>2024-08-14T10:30:20Z</time>
      </trkpt>
      <trkpt lat="44.64282" lon="2.5375">
        <ele>367.1</ele>
        <time>2024-08-14T10:30:22Z</time>
      </trkpt>
      <trkpt lat="44.6429" lon="2.53752">
        <ele>365.7</ele>
        <time>2024-08-14T10:30:24Z</time>
      </trkpt>
      <trkpt lat="44.64296" lon="2.53753">
        <ele>364.5</ele>
        <time>2024-08-14T10:30:26Z</time>
      </trkpt>
      <trkpt lat="44.64302" lon="2.53753">
        <ele>363.4</ele>
        <time>2024-08-14T10:30:28Z</time>
      </trkpt>
      <trkpt lat="44.64304" lon="2.53754">
        <ele>363.1</ele>
        <time>2024-08-14T10:30:29Z</time>
      </trkpt>
      <trkpt lat="44.64306" lon="2.53755">
        <ele>362.7</ele>
        <time>2024-08-14T10:30:30Z</time>
      </trkpt>
      <trkpt lat="44.64309" lon="2.53757">
        <ele>362</ele>
        <time>2024-08-14T10:30:32Z</time>
      </trkpt>
      <trkpt lat="44.64315" lon="2.53758">
        <ele>360.9</ele>
        <time>2024-08-14T10:30:34Z</time>
      </trkpt>
      <trkpt lat="44.64317" lon="2.53765">
        <ele>359.9</ele>
        <time>2024-08-14T10:30:36Z</time>
      </trkpt>
      <trkpt lat="44.64317" lon="2.53769">
        <ele>359.4</ele>
        <time>2024-08-14T10:30:37Z</time>
      </trkpt>
      <trkpt lat="44.64314" lon="2.53774">
        <ele>358.6</ele>
        <time>2024-08-14T10:30:38Z</time>
      </trkpt>
      <trkpt lat="44.64309" lon="2.53778">
        <ele>357.7</ele>
        <time>2024-08-14T10:30:39Z</time>
      </trkpt>
      <trkpt lat="44.64304" lon="2.53781">
        <ele>356.9</ele>
        <time>2024-08-14T10:30:40Z</time>
      </trkpt>
      <trkpt lat="44.64299" lon="2.53782">
        <ele>356</ele>
        <time>2024-08-14T10:30:41Z</time>
      </trkpt>
      <trkpt lat="44.64294" lon="2.53783">
        <ele>355.1</ele>
        <time>2024-08-14T10:30:42Z</time>
      </trkpt>
      <trkpt lat="44.64289" lon="2.53782">
        <ele>354.3</ele>
        <time>2024-08-14T10:30:43Z</time>
      </trkpt>
      <trkpt lat="44.64285" lon="2.53782">
        <ele>353.6</ele>
        <time>2024-08-14T10:30:44Z</time>
      </trkpt>
      <trkpt lat="44.64282" lon="2.53784">
        <ele>353</ele>
        <time>2024-08-14T10:30:45Z</time>
      </trkpt>
      <trkpt lat="44.6428" lon="2.53787">
        <ele>352.5</ele>
        <time>2024-08-14T10:30:46Z</time>
      </trkpt>
      <trkpt lat="44.64278" lon="2.53792">
        <ele>351.9</ele>
        <time>2024-08-14T10:30:48Z</time>
      </trkpt>
      <trkpt lat="44.64279" lon="2.53798">
        <ele>351.1</ele>
        <time>2024-08-14T10:30:50Z</time>
      </trkpt>
      <trkpt lat="44.64283" lon="2.53801">
        <ele>350.4</ele>
        <time>2024-08-14T10:30:52Z</time>
      </trkpt>
      <trkpt lat="44.64289" lon="2.53805">
        <ele>349.2</ele>
        <time>2024-08-14T10:30:53Z</time>
      </trkpt>
      <trkpt lat="44.64296" lon="2.53808">
        <ele>347.9</ele>
        <time>2024-08-14T10:30:54Z</time>
      </trkpt>
      <trkpt lat="44.64308" lon="2.53808">
        <ele>345.8</ele>
        <time>2024-08-14T10:30:56Z</time>
      </trkpt>
      <trkpt lat="44.64317" lon="2.53805">
        <ele>344.1</ele>
        <time>2024-08-14T10:30:58Z</time>
      </trkpt>
      <trkpt lat="44.64321" lon="2.53803">
        <ele>343.3</ele>
        <time>2024-08-14T10:30:59Z</time>
      </trkpt>
      <trkpt lat="44.64324" lon="2.53802">
        <ele>342.7</ele>
        <time>2024-08-14T10:31:00Z</time>
      </trkpt>
      <trkpt lat="44.64327" lon="2.53804">
        <ele>342.1</ele>
        <time>2024-08-14T10:31:01Z</time>
      </trkpt>
      <trkpt lat="44.64328" lon="2.53808">
        <ele>341.6</ele>
        <time>2024-08-14T10:31:02Z</time>
      </trkpt>
      <trkpt lat="44.64328" lon="2.53812">
        <ele>341.1</ele>
        <time>2024-08-14T10:31:03Z</time>
      </trkpt>
      <trkpt lat="44.64328" lon="2.53818">
        <ele>340.3</ele>
        <time>2024-08-14T10:31:04Z</time>
      </trkpt>
      <trkpt lat="44.64329" lon="2.53826">
        <ele>339.1</ele>
        <time>2024-08-14T10:31:06Z</time>
      </trkpt>
      <trkpt lat="44.64333" lon="2.53832">
        <ele>338.1</ele>
        <time>2024-08-14T10:31:08Z</time>
      </trkpt>
      <trkpt lat="44.64336" lon="2.53837">
        <ele>337.2</ele>
        <time>2024-08-14T10:31:09Z</time>
      </trkpt>
      <trkpt lat="44.6434" lon="2.53839">
        <ele>336.5</ele>
        <time>2024-08-14T10:31:10Z</time>
      </trkpt>
      <trkpt lat="44.64346" lon="2.53835">
        <ele>335.1</ele>
        <time>2024-08-14T10:31:12Z</time>
      </trkpt>
      <trkpt lat="44.64353" lon="2.53826">
        <ele>333.4</ele>
        <time>2024-08-14T10:31:14Z</time>
      </trkpt>
      <trkpt lat="44.6436" lon="2.53823">
        <ele>331.9</ele>
        <time>2024-08-14T10:31:16Z</time>
      </trkpt>
      <trkpt lat="44.64365" lon="2.53829">
        <ele>330.6</ele>
        <time>2024-08-14T10:31:18Z</time>
      </trkpt>
      <trkpt lat="44.64366" lon="2.53834">
        <ele>329.8</ele>
        <time>2024-08-14T10:31:19Z</time>
      </trkpt>
      <trkpt lat="44.64365" lon="2.5384">
        <ele>329.1</ele>
        <time>2024-08-14T10:31:20Z</time>
      </trkpt>
      <trkpt lat="44.64362" lon="2.53851">
        <ele>327.3</ele>
        <time>2024-08-14T10:31:22Z</time>
      </trkpt>
      <trkpt lat="44.6436" lon="2.53856">
        <ele>326.4</ele>
        <time>2024-08-14T10:31:23Z</time>
      </trkpt>
      <trkpt lat="44.64358" lon="2.53861">
        <ele>325.6</ele>
        <time>2024-08-14T10:31:24Z</time>
      </trkpt>
      <trkpt lat="44.64358" lon="2.53869">
        <ele>324.5</ele>
        <time>2024-08-14T10:31:26Z</time>
      </trkpt>
      <trkpt lat="44.6436" lon="2.53872">
        <ele>323.8</ele>
        <time>2024-08-14T10:31:27Z</time>
      </trkpt>
      <trkpt lat="44.64364" lon="2.53874">
        <ele>323.1</ele>
        <time>2024-08-14T10:31:28Z</time>
      </trkpt>
      <trkpt lat="44.64367" lon="2.53876">
        <ele>322.4</ele>
        <time>2024-08-14T10:31:29Z</time>
      </trkpt>
      <trkpt lat="44.64369" lon="2.5388">
        <ele>321.7</ele>
        <time>2024-08-14T10:31:30Z</time>
      </trkpt>
      <trkpt lat="44.64368" lon="2.53883">
        <ele>321.3</ele>
        <time>2024-08-14T10:31:31Z</time>
      </trkpt>
      <trkpt lat="44.64365" lon="2.53885">
        <ele>320.6</ele>
        <time>2024-08-14T10:31:32Z</time>
      </trkpt>
      <trkpt lat="44.64361" lon="2.53887">
        <ele>319.7</ele>
        <time>2024-08-14T10:31:33Z</time>
      </trkpt>
      <trkpt lat="44.64356" lon="2.53888">
        <ele>318.7</ele>
        <time>2024-08-14T10:31:34Z</time>
      </trkpt>
      <trkpt lat="44.64352" lon="2.53889">
        <ele>317.8</ele>
        <time>2024-08-14T10:31:35Z</time>
      </trkpt>
      <trkpt lat="44.64348" lon="2.53891">
        <ele>317</ele>
        <time>2024-08-14T10:31:36Z</time>
      </trkpt>
      <trkpt lat="44.64345" lon="2.53895">
        <ele>316.2</ele>
        <time>2024-08-14T10:31:37Z</time>
      </trkpt>
      <trkpt lat="44.64341" lon="2.53901">
        <ele>315.1</ele>
        <time>2024-08-14T10:31:38Z</time>
      </trkpt>
      <trkpt lat="44.64338" lon="2.53907">
        <ele>314</ele>
        <time>2024-08-14T10:31:39Z</time>
      </trkpt>
      <trkpt lat="44.64333" lon="2.53912">
        <ele>313</ele>
        <time>2024-08-14T10:31:40Z</time>
      </trkpt>
      <trkpt lat="44.64329" lon="2.53919">
        <ele>311.8</ele>
        <time>2024-08-14T10:31:41Z</time>
      </trkpt>
      <trkpt lat="44.64325" lon="2.53926">
        <ele>310.6</ele>
        <time>2024-08-14T10:31:42Z</time>
      </trkpt>
      <trkpt lat="44.64322" lon="2.53934">
        <ele>309.4</ele>
        <time>2024-08-14T10:31:43Z</time>
      </trkpt>
      <trkpt lat="44.64319" lon="2.53942">
        <ele>308.3</ele>
        <time>2024-08-14T10:31:44Z</time>
      </trkpt>
      <trkpt lat="44.64318" lon="2.53949">
        <ele>307.5</ele>
        <time>2024-08-14T10:31:45Z</time>
      </trkpt>
      <trkpt lat="44.64319" lon="2.53955">
        <ele>306.7</ele>
        <time>2024-08-14T10:31:46Z</time>
      </trkpt>
      <trkpt lat="44.64318" lon="2.53966">
        <ele>305.3</ele>
        <time>2024-08-14T10:31:48Z</time>
      </trkpt>
      <trkpt lat="44.64317" lon="2.53971">
        <ele>304.5</ele>
        <time>2024-08-14T10:31:49Z</time>
      </trkpt>
      <trkpt lat="44.64319" lon="2.53981">
        <ele>303.2</ele>
        <time>2024-08-14T10:31:50Z</time>
      </trkpt>
      <trkpt lat="44.64324" lon="2.53991">
        <ele>301.9</ele>
        <time>2024-08-14T10:31:51Z</time>
      </trkpt>
      <trkpt lat="44.64328" lon="2.53999">
        <ele>301</ele>
        <time>2024-08-14T10:31:52Z</time>
      </trkpt>
      <trkpt lat="44.64331" lon="2.54007">
        <ele>300.1</ele>
        <time>2024-08-14T10:31:53Z</time>
      </trkpt>
      <trkpt lat="44.64335" lon="2.54013">
        <ele>298.3</ele>
        <time>2024-08-14T10:31:54Z</time>
      </trkpt>
      <trkpt lat="44.64344" lon="2.54025">
        <ele>295.9</ele>
        <time>2024-08-14T10:31:56Z</time>
      </trkpt>
      <trkpt lat="44.64347" lon="2.54029">
        <ele>295.1</ele>
        <time>2024-08-14T10:31:57Z</time>
      </trkpt>
      <trkpt lat="44.64348" lon="2.54031">
        <ele>294.8</ele>
        <time>2024-08-14T10:31:58Z</time>
      </trkpt>
      <trkpt lat="44.64347" lon="2.54032">
        <ele>295.2</ele>
        <time>2024-08-14T10:31:59Z</time>
      </trkpt>
      <trkpt lat="44.64347" lon="2.54034">
        <ele>295.4</ele>
        <time>2024-08-14T10:32:00Z</time>
      </trkpt>
      <trkpt lat="44.64349" lon="2.54039">
        <ele>294.7</ele>
        <time>2024-08-14T10:32:01Z</time>
      </trkpt>
      <trkpt lat="44.64352" lon="2.54044">
        <ele>294</ele>
        <time>2024-08-14T10:32:02Z</time>
      </trkpt>
      <trkpt lat="44.64358" lon="2.54057">
        <ele>290.8</ele>
        <time>2024-08-14T10:32:04Z</time>
      </trkpt>
      <trkpt lat="44.64361" lon="2.54067">
        <ele>288.8</ele>
        <time>2024-08-14T10:32:11Z</time>
      </trkpt>
      <trkpt lat="44.64364" lon="2.54077">
        <ele>286</ele>
        <time>2024-08-14T10:32:12Z</time>
      </trkpt>
      <trkpt lat="44.64369" lon="2.54091">
        <ele>282.5</ele>
        <time>2024-08-14T10:32:14Z</time>
      </trkpt>
      <trkpt lat="44.64371" lon="2.54096">
        <ele>282.3</ele>
        <time>2024-08-14T10:32:15Z</time>
      </trkpt>
      <trkpt lat="44.64373" lon="2.54099">
        <ele>281.3</ele>
        <time>2024-08-14T10:32:16Z</time>
      </trkpt>
      <trkpt lat="44.64378" lon="2.54106">
        <ele>279.1</ele>
        <time>2024-08-14T10:32:18Z</time>
      </trkpt>
      <trkpt lat="44.64386" lon="2.54113">
        <ele>277.4</ele>
        <time>2024-08-14T10:32:20Z</time>
      </trkpt>
      <trkpt lat="44.64392" lon="2.54117">
        <ele>275.6</ele>
        <time>2024-08-14T10:32:22Z</time>
      </trkpt>
      <trkpt lat="44.64396" lon="2.54117">
        <ele>275.3</ele>
        <time>2024-08-14T10:32:24Z</time>
      </trkpt>
      <trkpt lat="44.64398" lon="2.54116">
        <ele>275</ele>
        <time>2024-08-14T10:32:26Z</time>
      </trkpt>
      <trkpt lat="44.644" lon="2.54116">
        <ele>274.7</ele>
        <time>2024-08-14T10:32:27Z</time>
      </trkpt>
      <trkpt lat="44.64406" lon="2.54114">
        <ele>274.1</ele>
        <time>2024-08-14T10:32:28Z</time>
      </trkpt>
      <trkpt lat="44.6441" lon="2.54112">
        <ele>273.6</ele>
        <time>2024-08-14T10:32:31Z</time>
      </trkpt>
      <trkpt lat="44.64414" lon="2.5411">
        <ele>272.1</ele>
        <time>2024-08-14T10:32:32Z</time>
      </trkpt>
      <trkpt lat="44.64421" lon="2.54106">
        <ele>271.4</ele>
        <time>2024-08-14T10:32:33Z</time>
      </trkpt>
      <trkpt lat="44.64427" lon="2.54101">
        <ele>270.4</ele>
        <time>2024-08-14T10:32:34Z</time>
      </trkpt>
      <trkpt lat="44.64437" lon="2.54089">
        <ele>268.6</ele>
        <time>2024-08-14T10:32:36Z</time>
      </trkpt>
      <trkpt lat="44.6444" lon="2.54083">
        <ele>267.7</ele>
        <time>2024-08-14T10:32:37Z</time>
      </trkpt>
      <trkpt lat="44.64443" lon="2.54078">
        <ele>267.1</ele>
        <time>2024-08-14T10:32:38Z</time>
      </trkpt>
      <trkpt lat="44.64445" lon="2.54075">
        <ele>266.5</ele>
        <time>2024-08-14T10:32:39Z</time>
      </trkpt>
      <trkpt lat="44.64447" lon="2.54076">
        <ele>266.2</ele>
        <time>2024-08-14T10:32:40Z</time>
      </trkpt>
      <trkpt lat="44.64448" lon="2.54079">
        <ele>265.7</ele>
        <time>2024-08-14T10:32:41Z</time>
      </trkpt>
      <trkpt lat="44.6445" lon="2.54083">
        <ele>265.1</ele>
        <time>2024-08-14T10:32:42Z</time>
      </trkpt>
      <trkpt lat="44.64451" lon="2.5409">
        <ele>264.2</ele>
        <time>2024-08-14T10:32:43Z</time>
      </trkpt>
      <trkpt lat="44.64451" lon="2.54098">
        <ele>263.1</ele>
        <time>2024-08-14T10:32:44Z</time>
      </trkpt>
      <trkpt lat="44.64451" lon="2.54106">
        <ele>262.1</ele>
        <time>2024-08-14T10:32:45Z</time>
      </trkpt>
      <trkpt lat="44.64451" lon="2.54116">
        <ele>261</ele>
        <time>2024-08-14T10:32:46Z</time>
      </trkpt>
      <trkpt lat="44.6445" lon="2.54135">
        <ele>258.9</ele>
        <time>2024-08-14T10:32:48Z</time>
      </trkpt>
      <trkpt lat="44.64444" lon="2.54148">
        <ele>257.1</ele>
        <time>2024-08-14T10:32:50Z</time>
      </trkpt>
      <trkpt lat="44.64439" lon="2.54153">
        <ele>256.1</ele>
        <time>2024-08-14T10:32:51Z</time>
      </trkpt>
      <trkpt lat="44.64435" lon="2.54157">
        <ele>255.2</ele>
        <time>2024-08-14T10:32:52Z</time>
      </trkpt>
      <trkpt lat="44.6443" lon="2.54159">
        <ele>254.3</ele>
        <time>2024-08-14T10:32:54Z</time>
      </trkpt>
      <trkpt lat="44.64431" lon="2.54162">
        <ele>254</ele>
        <time>2024-08-14T10:32:56Z</time>
      </trkpt>
      <trkpt lat="44.64433" lon="2.5416">
        <ele>253.6</ele>
        <time>2024-08-14T10:32:57Z</time>
      </trkpt>
      <trkpt lat="44.64435" lon="2.54159">
        <ele>253.3</ele>
        <time>2024-08-14T10:32:58Z</time>
      </trkpt>
      <trkpt lat="44.6444" lon="2.54158">
        <ele>252.5</ele>
        <time>2024-08-14T10:33:00Z</time>
      </trkpt>
      <trkpt lat="44.6445" lon="2.54159">
        <ele>250.9</ele>
        <time>2024-08-14T10:33:02Z</time>
      </trkpt>
      <trkpt lat="44.64458" lon="2.54158">
        <ele>249.7</ele>
        <time>2024-08-14T10:33:03Z</time>
      </trkpt>
      <trkpt lat="44.64466" lon="2.54156">
        <ele>248.4</ele>
        <time>2024-08-14T10:33:04Z</time>
      </trkpt>
      <trkpt lat="44.64473" lon="2.54156">
        <ele>247.2</ele>
        <time>2024-08-14T10:33:05Z</time>
      </trkpt>
      <trkpt lat="44.6448" lon="2.54156">
        <ele>246.1</ele>
        <time>2024-08-14T10:33:06Z</time>
      </trkpt>
      <trkpt lat="44.64486" lon="2.54155">
        <ele>245.2</ele>
        <time>2024-08-14T10:33:07Z</time>
      </trkpt>
      <trkpt lat="44.64491" lon="2.54152">
        <ele>244.5</ele>
        <time>2024-08-14T10:33:08Z</time>
      </trkpt>
      <trkpt lat="44.64495" lon="2.54148">
        <ele>243.7</ele>
        <time>2024-08-14T10:33:09Z</time>
      </trkpt>
      <trkpt lat="44.64499" lon="2.54142">
        <ele>242.7</ele>
        <time>2024-08-14T10:33:10Z</time>
      </trkpt>
      <trkpt lat="44.64502" lon="2.54136">
        <ele>241.8</ele>
        <time>2024-08-14T10:33:11Z</time>
      </trkpt>
      <trkpt lat="44.64507" lon="2.54131">
        <ele>240.7</ele>
        <time>2024-08-14T10:33:12Z</time>
      </trkpt>
      <trkpt lat="44.6451" lon="2.54125">
        <ele>239.8</ele>
        <time>2024-08-14T10:33:13Z</time>
      </trkpt>
      <trkpt lat="44.64511" lon="2.54117">
        <ele>238.8</ele>
        <time>2024-08-14T10:33:14Z</time>
      </trkpt>
      <trkpt lat="44.64512" lon="2.54111">
        <ele>237.9</ele>
        <time>2024-08-14T10:33:15Z</time>
      </trkpt>
      <trkpt lat="44.64514" lon="2.54107">
        <ele>237.3</ele>
        <time>2024-08-14T10:33:16Z</time>
      </trkpt>
      <trkpt lat="44.64517" lon="2.54105">
        <ele>236.6</ele>
        <time>2024-08-14T10:33:17Z</time>
      </trkpt>
      <trkpt lat="44.64518" lon="2.54106">
        <ele>236.3</ele>
        <time>2024-08-14T10:33:18Z</time>
      </trkpt>
      <trkpt lat="44.64521" lon="2.54104">
        <ele>235.7</ele>
        <time>2024-08-14T10:33:20Z</time>
      </trkpt>
      <trkpt lat="44.64527" lon="2.54114">
        <ele>233.9</ele>
        <time>2024-08-14T10:38:27Z</time>
      </trkpt>
      <trkpt lat="44.64528" lon="2.54117">
        <ele>233.5</ele>
        <time>2024-08-14T10:38:28Z</time>
      </trkpt>
      <trkpt lat="44.64529" lon="2.54122">
        <ele>232.8</ele>
        <time>2024-08-14T10:38:30Z</time>
      </trkpt>
      <trkpt lat="44.6453" lon="2.54127">
        <ele>232.1</ele>
        <time>2024-08-14T10:38:32Z</time>
      </trkpt>
      <trkpt lat="44.64531" lon="2.54132">
        <ele>231.5</ele>
        <time>2024-08-14T10:38:34Z</time>
      </trkpt>
      <trkpt lat="44.64532" lon="2.54138">
        <ele>230.8</ele>
        <time>2024-08-14T10:38:36Z</time>
      </trkpt>
      <trkpt lat="44.64534" lon="2.54146">
        <ele>230</ele>
        <time>2024-08-14T10:38:38Z</time>
      </trkpt>
      <trkpt lat="44.64536" lon="2.54154">
        <ele>229.2</ele>
        <time>2024-08-14T10:38:40Z</time>
      </trkpt>
      <trkpt lat="44.64538" lon="2.54161">
        <ele>228.5</ele>
        <time>2024-08-14T10:38:42Z</time>
      </trkpt>
      <trkpt lat="44.64539" lon="2.54167">
        <ele>228.4</ele>
        <time>2024-08-14T10:38:44Z</time>
      </trkpt>
      <trkpt lat="44.6454" lon="2.54173">
        <ele>228.4</ele>
        <time>2024-08-14T10:38:46Z</time>
      </trkpt>
      <trkpt lat="44.64541" lon="2.54175">
        <ele>228.4</ele>
        <time>2024-08-14T10:38:47Z</time>
      </trkpt>
      <trkpt lat="44.64541" lon="2.54178">
        <ele>228.4</ele>
        <time>2024-08-14T10:38:48Z</time>
      </trkpt>
      <trkpt lat="44.64543" lon="2.54182">
        <ele>228.4</ele>
        <time>2024-08-14T10:38:50Z</time>
      </trkpt>
      <trkpt lat="44.64545" lon="2.54184">
        <ele>228.3</ele>
        <time>2024-08-14T10:38:52Z</time>
      </trkpt>
      <trkpt lat="44.64545" lon="2.54184">
        <ele>228.3</ele>
        <time>2024-08-14T10:38:54Z</time>
      </trkpt>
      <trkpt lat="44.64547" lon="2.54195">
        <ele>228.2</ele>
        <time>2024-08-14T10:39:40Z</time>
      </trkpt>
      <trkpt lat="44.64547" lon="2.54201">
        <ele>228.1</ele>
        <time>2024-08-14T10:39:42Z</time>
      </trkpt>
      <trkpt lat="44.64548" lon="2.54209">
        <ele>227.9</ele>
        <time>2024-08-14T10:39:44Z</time>
      </trkpt>
      <trkpt lat="44.64549" lon="2.54219">
        <ele>227.7</ele>
        <time>2024-08-14T10:39:46Z</time>
      </trkpt>
      <trkpt lat="44.6455" lon="2.54228">
        <ele>227.6</ele>
        <time>2024-08-14T10:39:48Z</time>
      </trkpt>
      <trkpt lat="44.64551" lon="2.54238">
        <ele>227.6</ele>
        <time>2024-08-14T10:39:50Z</time>
      </trkpt>
      <trkpt lat="44.64552" lon="2.54243">
        <ele>227.6</ele>
        <time>2024-08-14T10:39:51Z</time>
      </trkpt>
      <trkpt lat="44.64552" lon="2.54249">
        <ele>227.6</ele>
        <time>2024-08-14T10:39:52Z</time>
      </trkpt>
      <trkpt lat="44.64552" lon="2.54259">
        <ele>227.6</ele>
        <time>2024-08-14T10:39:54Z</time>
      </trkpt>
      <trkpt lat="44.64553" lon="2.54269">
        <ele>227.6</ele>
        <time>2024-08-14T10:39:56Z</time>
      </trkpt>
      <trkpt lat="44.64553" lon="2.54278">
        <ele>227.6</ele>
        <time>2024-08-14T10:39:58Z</time>
      </trkpt>
      <trkpt lat="44.64552" lon="2.54283">
        <ele>227.5</ele>
        <time>2024-08-14T10:39:59Z</time>
      </trkpt>
      <trkpt lat="44.64552" lon="2.54287">
        <ele>227.5</ele>
        <time>2024-08-14T10:40:00Z</time>
      </trkpt>
      <trkpt lat="44.64552" lon="2.54297">
        <ele>227.5</ele>
        <time>2024-08-14T10:40:02Z</time>
      </trkpt>
      <trkpt lat="44.64552" lon="2.54305">
        <ele>227.5</ele>
        <time>2024-08-14T10:40:04Z</time>
      </trkpt>
      <trkpt lat="44.64551" lon="2.54313">
        <ele>227.4</ele>
        <time>2024-08-14T10:40:06Z</time>
      </trkpt>
      <trkpt lat="44.64551" lon="2.54317">
        <ele>227.4</ele>
        <time>2024-08-14T10:40:07Z</time>
      </trkpt>
      <trkpt lat="44.64551" lon="2.54321">
        <ele>227.4</ele>
        <time>2024-08-14T10:40:08Z</time>
      </trkpt>
      <trkpt lat="44.64552" lon="2.5433">
        <ele>227.3</ele>
        <time>2024-08-14T10:40:10Z</time>
      </trkpt>
      <trkpt lat="44.64551" lon="2.54339">
        <ele>227.3</ele>
        <time>2024-08-14T10:40:12Z</time>
      </trkpt>
      <trkpt lat="44.6455" lon="2.54348">
        <ele>227.2</ele>
        <time>2024-08-14T10:40:14Z</time>
      </trkpt>
      <trkpt lat="44.6455" lon="2.54357">
        <ele>227.2</ele>
        <time>2024-08-14T10:40:16Z</time>
      </trkpt>
      <trkpt lat="44.6455" lon="2.54366">
        <ele>227.1</ele>
        <time>2024-08-14T10:40:18Z</time>
      </trkpt>
      <trkpt lat="44.6455" lon="2.54371">
        <ele>227.1</ele>
        <time>2024-08-14T10:40:19Z</time>
      </trkpt>
      <trkpt lat="44.6455" lon="2.54376">
        <ele>227.1</ele>
        <time>2024-08-14T10:40:20Z</time>
      </trkpt>
      <trkpt lat="44.6455" lon="2.54386">
        <ele>227.1</ele>
        <time>2024-08-14T10:40:22Z</time>
      </trkpt>
      <trkpt lat="44.6455" lon="2.54397">
        <ele>227.1</ele>
        <time>2024-08-14T10:40:24Z</time>
      </trkpt>
      <trkpt lat="44.6455" lon="2.54408">
        <ele>227.1</ele>
        <time>2024-08-14T10:40:26Z</time>
      </trkpt>
      <trkpt lat="44.64549" lon="2.54413">
        <ele>227.1</ele>
        <time>2024-08-14T10:40:27Z</time>
      </trkpt>
      <trkpt lat="44.64549" lon="2.54418">
        <ele>227</ele>
        <time>2024-08-14T10:40:28Z</time>
      </trkpt>
      <trkpt lat="44.64549" lon="2.54424">
        <ele>227</ele>
        <time>2024-08-14T10:40:29Z</time>
      </trkpt>
      <trkpt lat="44.64549" lon="2.54429">
        <ele>227</ele>
        <time>2024-08-14T10:40:30Z</time>
      </trkpt>
      <trkpt lat="44.64549" lon="2.54439">
        <ele>227</ele>
        <time>2024-08-14T10:40:32Z</time>
      </trkpt>
      <trkpt lat="44.64548" lon="2.5445">
        <ele>227</ele>
        <time>2024-08-14T10:40:34Z</time>
      </trkpt>
      <trkpt lat="44.64548" lon="2.54462">
        <ele>227</ele>
        <time>2024-08-14T10:40:36Z</time>
      </trkpt>
      <trkpt lat="44.64547" lon="2.54473">
        <ele>227</ele>
        <time>2024-08-14T10:40:38Z</time>
      </trkpt>
      <trkpt lat="44.64547" lon="2.54478">
        <ele>227</ele>
        <time>2024-08-14T10:40:39Z</time>
      </trkpt>
      <trkpt lat="44.64547" lon="2.54484">
        <ele>227</ele>
        <time>2024-08-14T10:40:40Z</time>
      </trkpt>
      <trkpt lat="44.64548" lon="2.54497">
        <ele>227</ele>
        <time>2024-08-14T10:40:42Z</time>
      </trkpt>
      <trkpt lat="44.64548" lon="2.5451">
        <ele>227</ele>
        <time>2024-08-14T10:40:44Z</time>
      </trkpt>
      <trkpt lat="44.64548" lon="2.54516">
        <ele>227</ele>
        <time>2024-08-14T10:40:45Z</time>
      </trkpt>
      <trkpt lat="44.64549" lon="2.54523">
        <ele>227</ele>
        <time>2024-08-14T10:40:46Z</time>
      </trkpt>
      <trkpt lat="44.64549" lon="2.54529">
        <ele>227</ele>
        <time>2024-08-14T10:40:47Z</time>
      </trkpt>
      <trkpt lat="44.64549" lon="2.54536">
        <ele>227</ele>
        <time>2024-08-14T10:40:48Z</time>
      </trkpt>
      <trkpt lat="44.6455" lon="2.54542">
        <ele>227</ele>
        <time>2024-08-14T10:40:49Z</time>
      </trkpt>
      <trkpt lat="44.6455" lon="2.54549">
        <ele>227</ele>
        <time>2024-08-14T10:40:50Z</time>
      </trkpt>
      <trkpt lat="44.6455" lon="2.54561">
        <ele>227</ele>
        <time>2024-08-14T10:40:52Z</time>
      </trkpt>
      <trkpt lat="44.6455" lon="2.54574">
        <ele>227.1</ele>
        <time>2024-08-14T10:40:54Z</time>
      </trkpt>
      <trkpt lat="44.64551" lon="2.54587">
        <ele>227.2</ele>
        <time>2024-08-14T10:40:56Z</time>
      </trkpt>
      <trkpt lat="44.64551" lon="2.54599">
        <ele>227.2</ele>
        <time>2024-08-14T10:40:58Z</time>
      </trkpt>
      <trkpt lat="44.64551" lon="2.54612">
        <ele>227.3</ele>
        <time>2024-08-14T10:41:00Z</time>
      </trkpt>
      <trkpt lat="44.6455" lon="2.54624">
        <ele>227.4</ele>
        <time>2024-08-14T10:41:02Z</time>
      </trkpt>
      <trkpt lat="44.6455" lon="2.54636">
        <ele>227.4</ele>
        <time>2024-08-14T10:41:04Z</time>
      </trkpt>
      <trkpt lat="44.64549" lon="2.54642">
        <ele>227.5</ele>
        <time>2024-08-14T10:41:05Z</time>
      </trkpt>
      <trkpt lat="44.64548" lon="2.54647">
        <ele>227.5</ele>
        <time>2024-08-14T10:41:06Z</time>
      </trkpt>
      <trkpt lat="44.64548" lon="2.54658">
        <ele>227.5</ele>
        <time>2024-08-14T10:41:08Z</time>
      </trkpt>
      <trkpt lat="44.64547" lon="2.5467">
        <ele>227.5</ele>
        <time>2024-08-14T10:41:10Z</time>
      </trkpt>
      <trkpt lat="44.64546" lon="2.54681">
        <ele>227.5</ele>
        <time>2024-08-14T10:41:12Z</time>
      </trkpt>
      <trkpt lat="44.64545" lon="2.54694">
        <ele>227.5</ele>
        <time>2024-08-14T10:41:14Z</time>
      </trkpt>
      <trkpt lat="44.64544" lon="2.54701">
        <ele>227.6</ele>
        <time>2024-08-14T10:41:15Z</time>
      </trkpt>
      <trkpt lat="44.64543" lon="2.54707">
        <ele>227.6</ele>
        <time>2024-08-14T10:41:16Z</time>
      </trkpt>
      <trkpt lat="44.64541" lon="2.5472">
        <ele>227.6</ele>
        <time>2024-08-14T10:41:18Z</time>
      </trkpt>
      <trkpt lat="44.64539" lon="2.54733">
        <ele>227.7</ele>
        <time>2024-08-14T10:41:20Z</time>
      </trkpt>
      <trkpt lat="44.64536" lon="2.54746">
        <ele>227.7</ele>
        <time>2024-08-14T10:41:22Z</time>
      </trkpt>
      <trkpt lat="44.64533" lon="2.54758">
        <ele>227.8</ele>
        <time>2024-08-14T10:41:24Z</time>
      </trkpt>
      <trkpt lat="44.6453" lon="2.54769">
        <ele>227.8</ele>
        <time>2024-08-14T10:41:26Z</time>
      </trkpt>
      <trkpt lat="44.64527" lon="2.54781">
        <ele>227.9</ele>
        <time>2024-08-14T10:41:28Z</time>
      </trkpt>
      <trkpt lat="44.64521" lon="2.54797">
        <ele>227.9</ele>
        <time>2024-08-14T10:41:30Z</time>
      </trkpt>
      <trkpt lat="44.64518" lon="2.54802">
        <ele>228</ele>
        <time>2024-08-14T10:41:31Z</time>
      </trkpt>
      <trkpt lat="44.64518" lon="2.54802">
        <ele>228</ele>
        <time>2024-08-14T10:41:32Z</time>
      </trkpt>
      <trkpt lat="44.64512" lon="2.54819">
        <ele>228</ele>
        <time>2024-08-14T10:41:34Z</time>
      </trkpt>
      <trkpt lat="44.64506" lon="2.54829">
        <ele>228</ele>
        <time>2024-08-14T10:41:36Z</time>
      </trkpt>
      <trkpt lat="44.64501" lon="2.54839">
        <ele>228</ele>
        <time>2024-08-14T10:41:38Z</time>
      </trkpt>
      <trkpt lat="44.64498" lon="2.54844">
        <ele>228</ele>
        <time>2024-08-14T10:41:39Z</time>
      </trkpt>
      <trkpt lat="44.64495" lon="2.54849">
        <ele>228</ele>
        <time>2024-08-14T10:41:40Z</time>
      </trkpt>
      <trkpt lat="44.64489" lon="2.54859">
        <ele>228</ele>
        <time>2024-08-14T10:41:42Z</time>
      </trkpt>
      <trkpt lat="44.64483" lon="2.54869">
        <ele>228.1</ele>
        <time>2024-08-14T10:41:44Z</time>
      </trkpt>
      <trkpt lat="44.6448" lon="2.54874">
        <ele>228.1</ele>
        <time>2024-08-14T10:41:45Z</time>
      </trkpt>
      <trkpt lat="44.64478" lon="2.54879">
        <ele>228.2</ele>
        <time>2024-08-14T10:41:46Z</time>
      </trkpt>
      <trkpt lat="44.64472" lon="2.54888">
        <ele>228.2</ele>
        <time>2024-08-14T10:41:48Z</time>
      </trkpt>
      <trkpt lat="44.64466" lon="2.54898">
        <ele>228.2</ele>
        <time>2024-08-14T10:41:50Z</time>
      </trkpt>
      <trkpt lat="44.64463" lon="2.54903">
        <ele>228.2</ele>
        <time>2024-08-14T10:41:51Z</time>
      </trkpt>
      <trkpt lat="44.6446" lon="2.54908">
        <ele>228.3</ele>
        <time>2024-08-14T10:41:52Z</time>
      </trkpt>
      <trkpt lat="44.64457" lon="2.54913">
        <ele>228.3</ele>
        <time>2024-08-14T10:41:53Z</time>
      </trkpt>
      <trkpt lat="44.64455" lon="2.54919">
        <ele>228.3</ele>
        <time>2024-08-14T10:41:54Z</time>
      </trkpt>
      <trkpt lat="44.6445" lon="2.5493">
        <ele>228.4</ele>
        <time>2024-08-14T10:41:56Z</time>
      </trkpt>
      <trkpt lat="44.64447" lon="2.54935">
        <ele>228.5</ele>
        <time>2024-08-14T10:41:57Z</time>
      </trkpt>
      <trkpt lat="44.64444" lon="2.54939">
        <ele>228.5</ele>
        <time>2024-08-14T10:41:58Z</time>
      </trkpt>
      <trkpt lat="44.6444" lon="2.54944">
        <ele>228.6</ele>
        <time>2024-08-14T10:41:59Z</time>
      </trkpt>
      <trkpt lat="44.64437" lon="2.54948">
        <ele>228.6</ele>
        <time>2024-08-14T10:42:00Z</time>
      </trkpt>
      <trkpt lat="44.64431" lon="2.54957">
        <ele>228.6</ele>
        <time>2024-08-14T10:42:02Z</time>
      </trkpt>
      <trkpt lat="44.64428" lon="2.5496">
        <ele>228.7</ele>
        <time>2024-08-14T10:42:03Z</time>
      </trkpt>
      <trkpt lat="44.64425" lon="2.54965">
        <ele>228.7</ele>
        <time>2024-08-14T10:42:04Z</time>
      </trkpt>
      <trkpt lat="44.64418" lon="2.54972">
        <ele>228.7</ele>
        <time>2024-08-14T10:42:06Z</time>
      </trkpt>
      <trkpt lat="44.64415" lon="2.54976">
        <ele>228.7</ele>
        <time>2024-08-14T10:42:07Z</time>
      </trkpt>
      <trkpt lat="44.6441" lon="2.54978">
        <ele>228.8</ele>
        <time>2024-08-14T10:42:08Z</time>
      </trkpt>
      <trkpt lat="44.64406" lon="2.5498">
        <ele>228.8</ele>
        <time>2024-08-14T10:42:09Z</time>
      </trkpt>
      <trkpt lat="44.64402" lon="2.54982">
        <ele>228.8</ele>
        <time>2024-08-14T10:42:10Z</time>
      </trkpt>
      <trkpt lat="44.64393" lon="2.54986">
        <ele>228.9</ele>
        <time>2024-08-14T10:42:12Z</time>
      </trkpt>
      <trkpt lat="44.64384" lon="2.54987">
        <ele>229</ele>
        <time>2024-08-14T10:42:14Z</time>
      </trkpt>
      <trkpt lat="44.6438" lon="2.54988">
        <ele>229</ele>
        <time>2024-08-14T10:42:15Z</time>
      </trkpt>
      <trkpt lat="44.64375" lon="2.54989">
        <ele>229.1</ele>
        <time>2024-08-14T10:42:16Z</time>
      </trkpt>
      <trkpt lat="44.64367" lon="2.54989">
        <ele>229.2</ele>
        <time>2024-08-14T10:42:18Z</time>
      </trkpt>
      <trkpt lat="44.64359" lon="2.54988">
        <ele>229.4</ele>
        <time>2024-08-14T10:42:20Z</time>
      </trkpt>
      <trkpt lat="44.64355" lon="2.54989">
        <ele>229.4</ele>
        <time>2024-08-14T10:42:21Z</time>
      </trkpt>
      <trkpt lat="44.6435" lon="2.5499">
        <ele>229.5</ele>
        <time>2024-08-14T10:42:22Z</time>
      </trkpt>
      <trkpt lat="44.64342" lon="2.54992">
        <ele>229.6</ele>
        <time>2024-08-14T10:42:24Z</time>
      </trkpt>
      <trkpt lat="44.64334" lon="2.54996">
        <ele>229.7</ele>
        <time>2024-08-14T10:42:26Z</time>
      </trkpt>
      <trkpt lat="44.64325" lon="2.55">
        <ele>229.8</ele>
        <time>2024-08-14T10:42:28Z</time>
      </trkpt>
      <trkpt lat="44.64318" lon="2.55006">
        <ele>229.9</ele>
        <time>2024-08-14T10:42:30Z</time>
      </trkpt>
      <trkpt lat="44.64314" lon="2.5501">
        <ele>230</ele>
        <time>2024-08-14T10:42:31Z</time>
      </trkpt>
      <trkpt lat="44.64311" lon="2.55014">
        <ele>230</ele>
        <time>2024-08-14T10:42:32Z</time>
      </trkpt>
      <trkpt lat="44.64304" lon="2.55021">
        <ele>230</ele>
        <time>2024-08-14T10:42:34Z</time>
      </trkpt>
      <trkpt lat="44.64298" lon="2.5503">
        <ele>230</ele>
        <time>2024-08-14T10:42:36Z</time>
      </trkpt>
      <trkpt lat="44.64295" lon="2.55035">
        <ele>229.9</ele>
        <time>2024-08-14T10:42:37Z</time>
      </trkpt>
      <trkpt lat="44.64292" lon="2.5504">
        <ele>229.9</ele>
        <time>2024-08-14T10:42:38Z</time>
      </trkpt>
      <trkpt lat="44.64288" lon="2.55046">
        <ele>229.8</ele>
        <time>2024-08-14T10:42:39Z</time>
      </trkpt>
      <trkpt lat="44.64284" lon="2.5505">
        <ele>229.8</ele>
        <time>2024-08-14T10:42:40Z</time>
      </trkpt>
      <trkpt lat="44.64277" lon="2.55059">
        <ele>229.7</ele>
        <time>2024-08-14T10:42:42Z</time>
      </trkpt>
      <trkpt lat="44.64271" lon="2.5507">
        <ele>229.5</ele>
        <time>2024-08-14T10:42:44Z</time>
      </trkpt>
      <trkpt lat="44.64265" lon="2.5508">
        <ele>229.4</ele>
        <time>2024-08-14T10:42:46Z</time>
      </trkpt>
      <trkpt lat="44.64258" lon="2.55089">
        <ele>229.3</ele>
        <time>2024-08-14T10:42:48Z</time>
      </trkpt>
      <trkpt lat="44.64252" lon="2.55099">
        <ele>229.3</ele>
        <time>2024-08-14T10:42:50Z</time>
      </trkpt>
      <trkpt lat="44.64249" lon="2.55104">
        <ele>229.2</ele>
        <time>2024-08-14T10:42:51Z</time>
      </trkpt>
      <trkpt lat="44.64246" lon="2.5511">
        <ele>229.2</ele>
        <time>2024-08-14T10:42:52Z</time>
      </trkpt>
      <trkpt lat="44.6424" lon="2.55121">
        <ele>229.2</ele>
        <time>2024-08-14T10:42:54Z</time>
      </trkpt>
      <trkpt lat="44.64235" lon="2.55131">
        <ele>229.2</ele>
        <time>2024-08-14T10:42:56Z</time>
      </trkpt>
      <trkpt lat="44.64233" lon="2.55136">
        <ele>229.1</ele>
        <time>2024-08-14T10:42:57Z</time>
      </trkpt>
      <trkpt lat="44.64231" lon="2.55142">
        <ele>229.1</ele>
        <time>2024-08-14T10:42:58Z</time>
      </trkpt>
      <trkpt lat="44.64229" lon="2.55148">
        <ele>229.1</ele>
        <time>2024-08-14T10:42:59Z</time>
      </trkpt>
      <trkpt lat="44.64226" lon="2.55153">
        <ele>229.1</ele>
        <time>2024-08-14T10:43:00Z</time>
      </trkpt>
      <trkpt lat="44.64223" lon="2.55158">
        <ele>229.1</ele>
        <time>2024-08-14T10:43:01Z</time>
      </trkpt>
      <trkpt lat="44.6422" lon="2.55163">
        <ele>229.1</ele>
        <time>2024-08-14T10:43:02Z</time>
      </trkpt>
      <trkpt lat="44.64218" lon="2.55169">
        <ele>229.1</ele>
        <time>2024-08-14T10:43:03Z</time>
      </trkpt>
      <trkpt lat="44.64216" lon="2.55175">
        <ele>229</ele>
        <time>2024-08-14T10:43:04Z</time>
      </trkpt>
      <trkpt lat="44.64214" lon="2.55181">
        <ele>229</ele>
        <time>2024-08-14T10:43:05Z</time>
      </trkpt>
      <trkpt lat="44.64211" lon="2.55187">
        <ele>229</ele>
        <time>2024-08-14T10:43:06Z</time>
      </trkpt>
      <trkpt lat="44.64208" lon="2.55192">
        <ele>229</ele>
        <time>2024-08-14T10:43:07Z</time>
      </trkpt>
      <trkpt lat="44.64206" lon="2.55198">
        <ele>229</ele>
        <time>2024-08-14T10:43:08Z</time>
      </trkpt>
      <trkpt lat="44.64203" lon="2.55204">
        <ele>228.9</ele>
        <time>2024-08-14T10:43:09Z</time>
      </trkpt>
      <trkpt lat="44.642" lon="2.5521">
        <ele>228.9</ele>
        <time>2024-08-14T10:43:10Z</time>
      </trkpt>
      <trkpt lat="44.64197" lon="2.55216">
        <ele>228.9</ele>
        <time>2024-08-14T10:43:11Z</time>
      </trkpt>
      <trkpt lat="44.64195" lon="2.55221">
        <ele>228.9</ele>
        <time>2024-08-14T10:43:12Z</time>
      </trkpt>
      <trkpt lat="44.64192" lon="2.55226">
        <ele>228.8</ele>
        <time>2024-08-14T10:43:13Z</time>
      </trkpt>
      <trkpt lat="44.64189" lon="2.55232">
        <ele>228.8</ele>
        <time>2024-08-14T10:43:14Z</time>
      </trkpt>
      <trkpt lat="44.64186" lon="2.55238">
        <ele>228.7</ele>
        <time>2024-08-14T10:43:15Z</time>
      </trkpt>
      <trkpt lat="44.64183" lon="2.55244">
        <ele>228.7</ele>
        <time>2024-08-14T10:43:16Z</time>
      </trkpt>
      <trkpt lat="44.64178" lon="2.55256">
        <ele>228.7</ele>
        <time>2024-08-14T10:43:18Z</time>
      </trkpt>
      <trkpt lat="44.64172" lon="2.55268">
        <ele>228.7</ele>
        <time>2024-08-14T10:43:20Z</time>
      </trkpt>
      <trkpt lat="44.64167" lon="2.5528">
        <ele>228.7</ele>
        <time>2024-08-14T10:43:22Z</time>
      </trkpt>
      <trkpt lat="44.64161" lon="2.55292">
        <ele>228.8</ele>
        <time>2024-08-14T10:43:24Z</time>
      </trkpt>
      <trkpt lat="44.64158" lon="2.55297">
        <ele>228.8</ele>
        <time>2024-08-14T10:43:25Z</time>
      </trkpt>
      <trkpt lat="44.64155" lon="2.55303">
        <ele>228.7</ele>
        <time>2024-08-14T10:43:26Z</time>
      </trkpt>
      <trkpt lat="44.64149" lon="2.55314">
        <ele>228.7</ele>
        <time>2024-08-14T10:43:28Z</time>
      </trkpt>
      <trkpt lat="44.64143" lon="2.55326">
        <ele>228.7</ele>
        <time>2024-08-14T10:43:30Z</time>
      </trkpt>
      <trkpt lat="44.64138" lon="2.55337">
        <ele>228.7</ele>
        <time>2024-08-14T10:43:32Z</time>
      </trkpt>
      <trkpt lat="44.64135" lon="2.55342">
        <ele>228.7</ele>
        <time>2024-08-14T10:43:33Z</time>
      </trkpt>
      <trkpt lat="44.64132" lon="2.55347">
        <ele>228.7</ele>
        <time>2024-08-14T10:43:34Z</time>
      </trkpt>
      <trkpt lat="44.64126" lon="2.55358">
        <ele>228.8</ele>
        <time>2024-08-14T10:43:36Z</time>
      </trkpt>
      <trkpt lat="44.6412" lon="2.55367">
        <ele>229</ele>
        <time>2024-08-14T10:43:38Z</time>
      </trkpt>
      <trkpt lat="44.64117" lon="2.55372">
        <ele>229.1</ele>
        <time>2024-08-14T10:43:39Z</time>
      </trkpt>
      <trkpt lat="44.64114" lon="2.55377">
        <ele>229.3</ele>
        <time>2024-08-14T10:43:40Z</time>
      </trkpt>
      <trkpt lat="44.64108" lon="2.55385">
        <ele>229.7</ele>
        <time>2024-08-14T10:43:42Z</time>
      </trkpt>
      <trkpt lat="44.64103" lon="2.55393">
        <ele>230.1</ele>
        <time>2024-08-14T10:43:44Z</time>
      </trkpt>
      <trkpt lat="44.64099" lon="2.55401">
        <ele>230.6</ele>
        <time>2024-08-14T10:43:46Z</time>
      </trkpt>
      <trkpt lat="44.64097" lon="2.55405">
        <ele>230.8</ele>
        <time>2024-08-14T10:43:47Z</time>
      </trkpt>
      <trkpt lat="44.64094" lon="2.55408">
        <ele>231</ele>
        <time>2024-08-14T10:43:48Z</time>
      </trkpt>
      <trkpt lat="44.64087" lon="2.55412">
        <ele>231.3</ele>
        <time>2024-08-14T10:43:50Z</time>
      </trkpt>
      <trkpt lat="44.6408" lon="2.55417">
        <ele>231.5</ele>
        <time>2024-08-14T10:43:52Z</time>
      </trkpt>
      <trkpt lat="44.64077" lon="2.5542">
        <ele>231.6</ele>
        <time>2024-08-14T10:43:53Z</time>
      </trkpt>
      <trkpt lat="44.64073" lon="2.55423">
        <ele>231.6</ele>
        <time>2024-08-14T10:43:54Z</time>
      </trkpt>
      <trkpt lat="44.64066" lon="2.55428">
        <ele>231.7</ele>
        <time>2024-08-14T10:43:56Z</time>
      </trkpt>
      <trkpt lat="44.64063" lon="2.5543">
        <ele>231.8</ele>
        <time>2024-08-14T10:43:57Z</time>
      </trkpt>
      <trkpt lat="44.64059" lon="2.55433">
        <ele>231.8</ele>
        <time>2024-08-14T10:43:58Z</time>
      </trkpt>
      <trkpt lat="44.64056" lon="2.55436">
        <ele>231.9</ele>
        <time>2024-08-14T10:43:59Z</time>
      </trkpt>
      <trkpt lat="44.64053" lon="2.55439">
        <ele>232</ele>
        <time>2024-08-14T10:44:00Z</time>
      </trkpt>
      <trkpt lat="44.64047" lon="2.55447">
        <ele>232.2</ele>
        <time>2024-08-14T10:44:02Z</time>
      </trkpt>
      <trkpt lat="44.64044" lon="2.5545">
        <ele>232.4</ele>
        <time>2024-08-14T10:44:03Z</time>
      </trkpt>
      <trkpt lat="44.64042" lon="2.55454">
        <ele>232.5</ele>
        <time>2024-08-14T10:44:04Z</time>
      </trkpt>
      <trkpt lat="44.64036" lon="2.55462">
        <ele>232.8</ele>
        <time>2024-08-14T10:44:06Z</time>
      </trkpt>
      <trkpt lat="44.64031" lon="2.55469">
        <ele>233.1</ele>
        <time>2024-08-14T10:44:08Z</time>
      </trkpt>
      <trkpt lat="44.64027" lon="2.55475">
        <ele>233.4</ele>
        <time>2024-08-14T10:44:10Z</time>
      </trkpt>
      <trkpt lat="44.64022" lon="2.55483">
        <ele>233.7</ele>
        <time>2024-08-14T10:44:12Z</time>
      </trkpt>
      <trkpt lat="44.6402" lon="2.55487">
        <ele>233.8</ele>
        <time>2024-08-14T10:44:13Z</time>
      </trkpt>
      <trkpt lat="44.64018" lon="2.5549">
        <ele>233.9</ele>
        <time>2024-08-14T10:44:14Z</time>
      </trkpt>
      <trkpt lat="44.64014" lon="2.55497">
        <ele>234.1</ele>
        <time>2024-08-14T10:44:16Z</time>
      </trkpt>
      <trkpt lat="44.6401" lon="2.55505">
        <ele>234.4</ele>
        <time>2024-08-14T10:44:18Z</time>
      </trkpt>
      <trkpt lat="44.64009" lon="2.5551">
        <ele>234.5</ele>
        <time>2024-08-14T10:44:19Z</time>
      </trkpt>
      <trkpt lat="44.64008" lon="2.55515">
        <ele>234.7</ele>
        <time>2024-08-14T10:44:20Z</time>
      </trkpt>
      <trkpt lat="44.64004" lon="2.55524">
        <ele>235</ele>
        <time>2024-08-14T10:44:22Z</time>
      </trkpt>
      <trkpt lat="44.64002" lon="2.55527">
        <ele>235.2</ele>
        <time>2024-08-14T10:44:23Z</time>
      </trkpt>
      <trkpt lat="44.64" lon="2.55531">
        <ele>235.4</ele>
        <time>2024-08-14T10:44:24Z</time>
      </trkpt>
      <trkpt lat="44.63997" lon="2.5554">
        <ele>235.8</ele>
        <time>2024-08-14T10:44:26Z</time>
      </trkpt>
      <trkpt lat="44.63996" lon="2.55544">
        <ele>236.1</ele>
        <time>2024-08-14T10:44:27Z</time>
      </trkpt>
      <trkpt lat="44.63994" lon="2.55547">
        <ele>236.3</ele>
        <time>2024-08-14T10:44:28Z</time>
      </trkpt>
      <trkpt lat="44.63992" lon="2.55555">
        <ele>236.7</ele>
        <time>2024-08-14T10:44:30Z</time>
      </trkpt>
      <trkpt lat="44.63991" lon="2.55562">
        <ele>237.1</ele>
        <time>2024-08-14T10:44:32Z</time>
      </trkpt>
      <trkpt lat="44.6399" lon="2.55567">
        <ele>237.4</ele>
        <time>2024-08-14T10:44:33Z</time>
      </trkpt>
      <trkpt lat="44.63989" lon="2.55571">
        <ele>237.6</ele>
        <time>2024-08-14T10:44:34Z</time>
      </trkpt>
      <trkpt lat="44.63988" lon="2.55578">
        <ele>238.1</ele>
        <time>2024-08-14T10:44:36Z</time>
      </trkpt>
      <trkpt lat="44.63987" lon="2.55586">
        <ele>238.5</ele>
        <time>2024-08-14T10:44:38Z</time>
      </trkpt>
      <trkpt lat="44.63986" lon="2.55595">
        <ele>238.9</ele>
        <time>2024-08-14T10:44:40Z</time>
      </trkpt>
      <trkpt lat="44.63984" lon="2.55603">
        <ele>239.2</ele>
        <time>2024-08-14T10:44:42Z</time>
      </trkpt>
      <trkpt lat="44.63983" lon="2.5561">
        <ele>239.5</ele>
        <time>2024-08-14T10:44:44Z</time>
      </trkpt>
      <trkpt lat="44.63981" lon="2.55618">
        <ele>239.7</ele>
        <time>2024-08-14T10:44:46Z</time>
      </trkpt>
      <trkpt lat="44.63978" lon="2.55624">
        <ele>239.9</ele>
        <time>2024-08-14T10:44:48Z</time>
      </trkpt>
      <trkpt lat="44.63975" lon="2.55631">
        <ele>240.1</ele>
        <time>2024-08-14T10:44:50Z</time>
      </trkpt>
      <trkpt lat="44.63974" lon="2.55634">
        <ele>240.2</ele>
        <time>2024-08-14T10:44:51Z</time>
      </trkpt>
      <trkpt lat="44.63973" lon="2.55638">
        <ele>240.3</ele>
        <time>2024-08-14T10:44:52Z</time>
      </trkpt>
      <trkpt lat="44.63972" lon="2.55647">
        <ele>240.5</ele>
        <time>2024-08-14T10:44:54Z</time>
      </trkpt>
      <trkpt lat="44.63969" lon="2.55654">
        <ele>240.7</ele>
        <time>2024-08-14T10:44:56Z</time>
      </trkpt>
      <trkpt lat="44.63966" lon="2.55662">
        <ele>240.9</ele>
        <time>2024-08-14T10:44:58Z</time>
      </trkpt>
      <trkpt lat="44.63962" lon="2.55668">
        <ele>241.1</ele>
        <time>2024-08-14T10:45:00Z</time>
      </trkpt>
      <trkpt lat="44.63961" lon="2.5567">
        <ele>241.2</ele>
        <time>2024-08-14T10:45:01Z</time>
      </trkpt>
      <trkpt lat="44.63959" lon="2.55673">
        <ele>241.3</ele>
        <time>2024-08-14T10:45:02Z</time>
      </trkpt>
      <trkpt lat="44.63956" lon="2.5568">
        <ele>241.6</ele>
        <time>2024-08-14T10:45:04Z</time>
      </trkpt>
      <trkpt lat="44.63954" lon="2.55687">
        <ele>241.8</ele>
        <time>2024-08-14T10:45:06Z</time>
      </trkpt>
      <trkpt lat="44.63951" lon="2.55694">
        <ele>242</ele>
        <time>2024-08-14T10:45:08Z</time>
      </trkpt>
      <trkpt lat="44.63948" lon="2.55699">
        <ele>242.2</ele>
        <time>2024-08-14T10:45:10Z</time>
      </trkpt>
      <trkpt lat="44.63946" lon="2.55705">
        <ele>242.4</ele>
        <time>2024-08-14T10:45:12Z</time>
      </trkpt>
      <trkpt lat="44.63942" lon="2.55711">
        <ele>242.5</ele>
        <time>2024-08-14T10:45:14Z</time>
      </trkpt>
      <trkpt lat="44.63938" lon="2.55717">
        <ele>242.6</ele>
        <time>2024-08-14T10:45:16Z</time>
      </trkpt>
      <trkpt lat="44.63934" lon="2.55723">
        <ele>242.6</ele>
        <time>2024-08-14T10:45:18Z</time>
      </trkpt>
      <trkpt lat="44.63929" lon="2.5573">
        <ele>242.5</ele>
        <time>2024-08-14T10:45:20Z</time>
      </trkpt>
      <trkpt lat="44.63925" lon="2.55739">
        <ele>242.2</ele>
        <time>2024-08-14T10:45:22Z</time>
      </trkpt>
      <trkpt lat="44.63924" lon="2.55744">
        <ele>242</ele>
        <time>2024-08-14T10:45:23Z</time>
      </trkpt>
      <trkpt lat="44.63923" lon="2.55751">
        <ele>241.8</ele>
        <time>2024-08-14T10:45:24Z</time>
      </trkpt>
      <trkpt lat="44.63921" lon="2.55757">
        <ele>241.5</ele>
        <time>2024-08-14T10:45:25Z</time>
      </trkpt>
      <trkpt lat="44.63919" lon="2.55764">
        <ele>241.2</ele>
        <time>2024-08-14T10:45:26Z</time>
      </trkpt>
      <trkpt lat="44.63915" lon="2.55778">
        <ele>240.5</ele>
        <time>2024-08-14T10:45:28Z</time>
      </trkpt>
      <trkpt lat="44.63911" lon="2.55794">
        <ele>239.8</ele>
        <time>2024-08-14T10:45:30Z</time>
      </trkpt>
      <trkpt lat="44.63908" lon="2.55809">
        <ele>239.2</ele>
        <time>2024-08-14T10:45:32Z</time>
      </trkpt>
      <trkpt lat="44.63904" lon="2.55822">
        <ele>238.6</ele>
        <time>2024-08-14T10:45:34Z</time>
      </trkpt>
      <trkpt lat="44.63902" lon="2.55828">
        <ele>238.3</ele>
        <time>2024-08-14T10:45:35Z</time>
      </trkpt>
      <trkpt lat="44.639" lon="2.55833">
        <ele>237.9</ele>
        <time>2024-08-14T10:45:36Z</time>
      </trkpt>
      <trkpt lat="44.63896" lon="2.55845">
        <ele>237</ele>
        <time>2024-08-14T10:45:38Z</time>
      </trkpt>
      <trkpt lat="44.6389" lon="2.55859">
        <ele>235.6</ele>
        <time>2024-08-14T10:45:40Z</time>
      </trkpt>
      <trkpt lat="44.63886" lon="2.55867">
        <ele>234.8</ele>
        <time>2024-08-14T10:45:41Z</time>
      </trkpt>
      <trkpt lat="44.63881" lon="2.55874">
        <ele>233.9</ele>
        <time>2024-08-14T10:45:42Z</time>
      </trkpt>
      <trkpt lat="44.63871" lon="2.5589">
        <ele>232.6</ele>
        <time>2024-08-14T10:45:44Z</time>
      </trkpt>
      <trkpt lat="44.63862" lon="2.55904">
        <ele>231.9</ele>
        <time>2024-08-14T10:45:46Z</time>
      </trkpt>
      <trkpt lat="44.6386" lon="2.55913">
        <ele>231.7</ele>
        <time>2024-08-14T10:45:47Z</time>
      </trkpt>
      <trkpt lat="44.63858" lon="2.55922">
        <ele>231.6</ele>
        <time>2024-08-14T10:45:48Z</time>
      </trkpt>
      <trkpt lat="44.63855" lon="2.55941">
        <ele>231.5</ele>
        <time>2024-08-14T10:45:50Z</time>
      </trkpt>
      <trkpt lat="44.63855" lon="2.55951">
        <ele>231.4</ele>
        <time>2024-08-14T10:45:51Z</time>
      </trkpt>
      <trkpt lat="44.63857" lon="2.55961">
        <ele>231.3</ele>
        <time>2024-08-14T10:45:52Z</time>
      </trkpt>
      <trkpt lat="44.6386" lon="2.55972">
        <ele>231.3</ele>
        <time>2024-08-14T10:45:53Z</time>
      </trkpt>
      <trkpt lat="44.63862" lon="2.55981">
        <ele>231.2</ele>
        <time>2024-08-14T10:45:54Z</time>
      </trkpt>
      <trkpt lat="44.63864" lon="2.55988">
        <ele>231.1</ele>
        <time>2024-08-14T10:45:55Z</time>
      </trkpt>
      <trkpt lat="44.63865" lon="2.55996">
        <ele>231</ele>
        <time>2024-08-14T10:45:56Z</time>
      </trkpt>
      <trkpt lat="44.63865" lon="2.56004">
        <ele>230.9</ele>
        <time>2024-08-14T10:45:57Z</time>
      </trkpt>
      <trkpt lat="44.63866" lon="2.56011">
        <ele>230.8</ele>
        <time>2024-08-14T10:45:58Z</time>
      </trkpt>
      <trkpt lat="44.63866" lon="2.56026">
        <ele>230.6</ele>
        <time>2024-08-14T10:46:00Z</time>
      </trkpt>
      <trkpt lat="44.63869" lon="2.56044">
        <ele>230.3</ele>
        <time>2024-08-14T10:46:02Z</time>
      </trkpt>
      <trkpt lat="44.63871" lon="2.56053">
        <ele>230.2</ele>
        <time>2024-08-14T10:46:03Z</time>
      </trkpt>
      <trkpt lat="44.63872" lon="2.56061">
        <ele>230.2</ele>
        <time>2024-08-14T10:46:04Z</time>
      </trkpt>
      <trkpt lat="44.63875" lon="2.56076">
        <ele>230.2</ele>
        <time>2024-08-14T10:46:06Z</time>
      </trkpt>
      <trkpt lat="44.63876" lon="2.56084">
        <ele>230.2</ele>
        <time>2024-08-14T10:46:07Z</time>
      </trkpt>
      <trkpt lat="44.63878" lon="2.56092">
        <ele>230.3</ele>
        <time>2024-08-14T10:46:08Z</time>
      </trkpt>
      <trkpt lat="44.63882" lon="2.56107">
        <ele>230.7</ele>
        <time>2024-08-14T10:46:10Z</time>
      </trkpt>
      <trkpt lat="44.63884" lon="2.56114">
        <ele>230.8</ele>
        <time>2024-08-14T10:46:11Z</time>
      </trkpt>
      <trkpt lat="44.63885" lon="2.5612">
        <ele>231</ele>
        <time>2024-08-14T10:46:12Z</time>
      </trkpt>
      <trkpt lat="44.63886" lon="2.5613">
        <ele>231.3</ele>
        <time>2024-08-14T10:46:14Z</time>
      </trkpt>
      <trkpt lat="44.63887" lon="2.56139">
        <ele>231.5</ele>
        <time>2024-08-14T10:46:16Z</time>
      </trkpt>
      <trkpt lat="44.63889" lon="2.56147">
        <ele>231.8</ele>
        <time>2024-08-14T10:46:18Z</time>
      </trkpt>
      <trkpt lat="44.63889" lon="2.56152">
        <ele>231.9</ele>
        <time>2024-08-14T10:46:19Z</time>
      </trkpt>
      <trkpt lat="44.6389" lon="2.56156">
        <ele>232</ele>
        <time>2024-08-14T10:46:20Z</time>
      </trkpt>
      <trkpt lat="44.63893" lon="2.56165">
        <ele>232.2</ele>
        <time>2024-08-14T10:46:22Z</time>
      </trkpt>
      <trkpt lat="44.63895" lon="2.5617">
        <ele>232.3</ele>
        <time>2024-08-14T10:46:23Z</time>
      </trkpt>
      <trkpt lat="44.63897" lon="2.56175">
        <ele>232.4</ele>
        <time>2024-08-14T10:46:24Z</time>
      </trkpt>
      <trkpt lat="44.63901" lon="2.56185">
        <ele>232.6</ele>
        <time>2024-08-14T10:46:26Z</time>
      </trkpt>
      <trkpt lat="44.63906" lon="2.56194">
        <ele>232.7</ele>
        <time>2024-08-14T10:46:28Z</time>
      </trkpt>
      <trkpt lat="44.63911" lon="2.56204">
        <ele>232.8</ele>
        <time>2024-08-14T10:46:30Z</time>
      </trkpt>
      <trkpt lat="44.63914" lon="2.56208">
        <ele>232.8</ele>
        <time>2024-08-14T10:46:31Z</time>
      </trkpt>
      <trkpt lat="44.63916" lon="2.56212">
        <ele>232.8</ele>
        <time>2024-08-14T10:46:32Z</time>
      </trkpt>
      <trkpt lat="44.63921" lon="2.56219">
        <ele>232.8</ele>
        <time>2024-08-14T10:46:34Z</time>
      </trkpt>
      <trkpt lat="44.63927" lon="2.56226">
        <ele>232.9</ele>
        <time>2024-08-14T10:46:36Z</time>
      </trkpt>
      <trkpt lat="44.63932" lon="2.56233">
        <ele>232.8</ele>
        <time>2024-08-14T10:46:38Z</time>
      </trkpt>
      <trkpt lat="44.63938" lon="2.56242">
        <ele>232.8</ele>
        <time>2024-08-14T10:46:40Z</time>
      </trkpt>
      <trkpt lat="44.63944" lon="2.56249">
        <ele>232.8</ele>
        <time>2024-08-14T10:46:42Z</time>
      </trkpt>
      <trkpt lat="44.63949" lon="2.56255">
        <ele>232.8</ele>
        <time>2024-08-14T10:46:44Z</time>
      </trkpt>
      <trkpt lat="44.63952" lon="2.5626">
        <ele>232.8</ele>
        <time>2024-08-14T10:46:46Z</time>
      </trkpt>
      <trkpt lat="44.63955" lon="2.56265">
        <ele>232.9</ele>
        <time>2024-08-14T10:46:48Z</time>
      </trkpt>
      <trkpt lat="44.63957" lon="2.56268">
        <ele>232.9</ele>
        <time>2024-08-14T10:46:49Z</time>
      </trkpt>
      <trkpt lat="44.63959" lon="2.5627">
        <ele>233</ele>
        <time>2024-08-14T10:46:50Z</time>
      </trkpt>
      <trkpt lat="44.63963" lon="2.56275">
        <ele>233.1</ele>
        <time>2024-08-14T10:46:52Z</time>
      </trkpt>
      <trkpt lat="44.63967" lon="2.56279">
        <ele>233.2</ele>
        <time>2024-08-14T10:46:54Z</time>
      </trkpt>
      <trkpt lat="44.63972" lon="2.56285">
        <ele>233.4</ele>
        <time>2024-08-14T10:46:56Z</time>
      </trkpt>
      <trkpt lat="44.63974" lon="2.56288">
        <ele>233.5</ele>
        <time>2024-08-14T10:46:57Z</time>
      </trkpt>
      <trkpt lat="44.63976" lon="2.56291">
        <ele>233.6</ele>
        <time>2024-08-14T10:46:58Z</time>
      </trkpt>
      <trkpt lat="44.63979" lon="2.56296">
        <ele>233.9</ele>
        <time>2024-08-14T10:47:00Z</time>
      </trkpt>
      <trkpt lat="44.63982" lon="2.56302">
        <ele>234.3</ele>
        <time>2024-08-14T10:47:02Z</time>
      </trkpt>
      <trkpt lat="44.63986" lon="2.56307">
        <ele>234.8</ele>
        <time>2024-08-14T10:47:04Z</time>
      </trkpt>
      <trkpt lat="44.63989" lon="2.56311">
        <ele>235.2</ele>
        <time>2024-08-14T10:47:06Z</time>
      </trkpt>
      <trkpt lat="44.63992" lon="2.56315">
        <ele>235.6</ele>
        <time>2024-08-14T10:47:08Z</time>
      </trkpt>
      <trkpt lat="44.63994" lon="2.56319">
        <ele>236</ele>
        <time>2024-08-14T10:47:10Z</time>
      </trkpt>
      <trkpt lat="44.63997" lon="2.56323">
        <ele>236.4</ele>
        <time>2024-08-14T10:47:12Z</time>
      </trkpt>
      <trkpt lat="44.64" lon="2.56325">
        <ele>236.8</ele>
        <time>2024-08-14T10:47:14Z</time>
      </trkpt>
      <trkpt lat="44.64002" lon="2.56328">
        <ele>237.2</ele>
        <time>2024-08-14T10:47:16Z</time>
      </trkpt>
      <trkpt lat="44.64005" lon="2.56331">
        <ele>237.6</ele>
        <time>2024-08-14T10:47:18Z</time>
      </trkpt>
      <trkpt lat="44.64008" lon="2.56333">
        <ele>237.9</ele>
        <time>2024-08-14T10:47:20Z</time>
      </trkpt>
      <trkpt lat="44.64011" lon="2.56335">
        <ele>238.3</ele>
        <time>2024-08-14T10:47:22Z</time>
      </trkpt>
      <trkpt lat="44.64014" lon="2.56338">
        <ele>238.7</ele>
        <time>2024-08-14T10:47:24Z</time>
      </trkpt>
      <trkpt lat="44.64016" lon="2.56339">
        <ele>238.9</ele>
        <time>2024-08-14T10:47:25Z</time>
      </trkpt>
      <trkpt lat="44.64018" lon="2.5634">
        <ele>239.2</ele>
        <time>2024-08-14T10:47:26Z</time>
      </trkpt>
      <trkpt lat="44.64019" lon="2.56342">
        <ele>239.4</ele>
        <time>2024-08-14T10:47:27Z</time>
      </trkpt>
      <trkpt lat="44.64021" lon="2.56343">
        <ele>239.6</ele>
        <time>2024-08-14T10:47:28Z</time>
      </trkpt>
      <trkpt lat="44.64024" lon="2.56345">
        <ele>240</ele>
        <time>2024-08-14T10:47:30Z</time>
      </trkpt>
      <trkpt lat="44.64027" lon="2.56348">
        <ele>240.4</ele>
        <time>2024-08-14T10:47:32Z</time>
      </trkpt>
      <trkpt lat="44.6403" lon="2.56351">
        <ele>240.8</ele>
        <time>2024-08-14T10:47:34Z</time>
      </trkpt>
      <trkpt lat="44.64033" lon="2.56355">
        <ele>241.2</ele>
        <time>2024-08-14T10:47:36Z</time>
      </trkpt>
      <trkpt lat="44.64037" lon="2.56358">
        <ele>241.6</ele>
        <time>2024-08-14T10:47:38Z</time>
      </trkpt>
      <trkpt lat="44.6404" lon="2.56362">
        <ele>242.1</ele>
        <time>2024-08-14T10:47:40Z</time>
      </trkpt>
      <trkpt lat="44.64042" lon="2.56363">
        <ele>242.3</ele>
        <time>2024-08-14T10:47:41Z</time>
      </trkpt>
      <trkpt lat="44.64043" lon="2.56365">
        <ele>242.5</ele>
        <time>2024-08-14T10:47:42Z</time>
      </trkpt>
      <trkpt lat="44.64046" lon="2.56368">
        <ele>242.9</ele>
        <time>2024-08-14T10:47:44Z</time>
      </trkpt>
      <trkpt lat="44.6405" lon="2.56371">
        <ele>243.3</ele>
        <time>2024-08-14T10:47:46Z</time>
      </trkpt>
      <trkpt lat="44.64052" lon="2.56375">
        <ele>243.7</ele>
        <time>2024-08-14T10:47:48Z</time>
      </trkpt>
      <trkpt lat="44.64054" lon="2.56376">
        <ele>243.9</ele>
        <time>2024-08-14T10:47:49Z</time>
      </trkpt>
      <trkpt lat="44.64055" lon="2.56378">
        <ele>244.1</ele>
        <time>2024-08-14T10:47:50Z</time>
      </trkpt>
      <trkpt lat="44.64058" lon="2.56382">
        <ele>244.4</ele>
        <time>2024-08-14T10:47:52Z</time>
      </trkpt>
      <trkpt lat="44.6406" lon="2.56385">
        <ele>244.7</ele>
        <time>2024-08-14T10:47:54Z</time>
      </trkpt>
      <trkpt lat="44.64063" lon="2.56388">
        <ele>245</ele>
        <time>2024-08-14T10:47:56Z</time>
      </trkpt>
      <trkpt lat="44.64066" lon="2.56393">
        <ele>245.3</ele>
        <time>2024-08-14T10:47:58Z</time>
      </trkpt>
      <trkpt lat="44.64068" lon="2.56397">
        <ele>245.6</ele>
        <time>2024-08-14T10:48:00Z</time>
      </trkpt>
      <trkpt lat="44.64072" lon="2.56401">
        <ele>245.8</ele>
        <time>2024-08-14T10:48:02Z</time>
      </trkpt>
      <trkpt lat="44.64075" lon="2.56405">
        <ele>246.1</ele>
        <time>2024-08-14T10:48:04Z</time>
      </trkpt>
      <trkpt lat="44.64078" lon="2.56409">
        <ele>246.3</ele>
        <time>2024-08-14T10:48:06Z</time>
      </trkpt>
      <trkpt lat="44.64081" lon="2.56414">
        <ele>246.5</ele>
        <time>2024-08-14T10:48:08Z</time>
      </trkpt>
      <trkpt lat="44.64084" lon="2.56418">
        <ele>246.7</ele>
        <time>2024-08-14T10:48:10Z</time>
      </trkpt>
      <trkpt lat="44.64087" lon="2.56422">
        <ele>246.9</ele>
        <time>2024-08-14T10:48:12Z</time>
      </trkpt>
      <trkpt lat="44.64089" lon="2.56426">
        <ele>247.1</ele>
        <time>2024-08-14T10:48:14Z</time>
      </trkpt>
      <trkpt lat="44.64092" lon="2.5643">
        <ele>247.3</ele>
        <time>2024-08-14T10:48:16Z</time>
      </trkpt>
      <trkpt lat="44.64093" lon="2.56432">
        <ele>247.4</ele>
        <time>2024-08-14T10:48:17Z</time>
      </trkpt>
      <trkpt lat="44.64095" lon="2.56434">
        <ele>247.5</ele>
        <time>2024-08-14T10:48:18Z</time>
      </trkpt>
      <trkpt lat="44.64097" lon="2.56439">
        <ele>247.8</ele>
        <time>2024-08-14T10:48:20Z</time>
      </trkpt>
      <trkpt lat="44.64099" lon="2.56444">
        <ele>248</ele>
        <time>2024-08-14T10:48:22Z</time>
      </trkpt>
      <trkpt lat="44.64102" lon="2.56449">
        <ele>248.2</ele>
        <time>2024-08-14T10:48:24Z</time>
      </trkpt>
      <trkpt lat="44.64103" lon="2.56452">
        <ele>248.3</ele>
        <time>2024-08-14T10:48:25Z</time>
      </trkpt>
      <trkpt lat="44.64103" lon="2.56454">
        <ele>248.4</ele>
        <time>2024-08-14T10:48:26Z</time>
      </trkpt>
      <trkpt lat="44.64105" lon="2.56459">
        <ele>248.6</ele>
        <time>2024-08-14T10:48:28Z</time>
      </trkpt>
      <trkpt lat="44.64108" lon="2.56463">
        <ele>248.8</ele>
        <time>2024-08-14T10:48:30Z</time>
      </trkpt>
      <trkpt lat="44.64111" lon="2.56467">
        <ele>248.9</ele>
        <time>2024-08-14T10:48:32Z</time>
      </trkpt>
      <trkpt lat="44.64113" lon="2.56472">
        <ele>249</ele>
        <time>2024-08-14T10:48:34Z</time>
      </trkpt>
      <trkpt lat="44.64117" lon="2.56477">
        <ele>249.1</ele>
        <time>2024-08-14T10:48:36Z</time>
      </trkpt>
      <trkpt lat="44.6412" lon="2.56482">
        <ele>249.2</ele>
        <time>2024-08-14T10:48:38Z</time>
      </trkpt>
      <trkpt lat="44.64123" lon="2.56487">
        <ele>249.3</ele>
        <time>2024-08-14T10:48:40Z</time>
      </trkpt>
      <trkpt lat="44.64125" lon="2.56493">
        <ele>249.4</ele>
        <time>2024-08-14T10:48:42Z</time>
      </trkpt>
      <trkpt lat="44.64128" lon="2.56499">
        <ele>249.5</ele>
        <time>2024-08-14T10:48:44Z</time>
      </trkpt>
      <trkpt lat="44.6413" lon="2.56501">
        <ele>249.5</ele>
        <time>2024-08-14T10:48:45Z</time>
      </trkpt>
      <trkpt lat="44.64132" lon="2.56504">
        <ele>249.6</ele>
        <time>2024-08-14T10:48:46Z</time>
      </trkpt>
      <trkpt lat="44.64135" lon="2.5651">
        <ele>249.6</ele>
        <time>2024-08-14T10:48:48Z</time>
      </trkpt>
      <trkpt lat="44.64138" lon="2.56515">
        <ele>249.7</ele>
        <time>2024-08-14T10:48:50Z</time>
      </trkpt>
      <trkpt lat="44.64141" lon="2.56522">
        <ele>249.7</ele>
        <time>2024-08-14T10:48:52Z</time>
      </trkpt>
      <trkpt lat="44.64145" lon="2.56529">
        <ele>249.7</ele>
        <time>2024-08-14T10:48:54Z</time>
      </trkpt>
      <trkpt lat="44.64148" lon="2.56536">
        <ele>249.7</ele>
        <time>2024-08-14T10:48:56Z</time>
      </trkpt>
      <trkpt lat="44.64149" lon="2.56538">
        <ele>249.7</ele>
        <time>2024-08-14T10:48:57Z</time>
      </trkpt>
      <trkpt lat="44.6415" lon="2.56541">
        <ele>249.7</ele>
        <time>2024-08-14T10:48:58Z</time>
      </trkpt>
      <trkpt lat="44.64154" lon="2.56541">
        <ele>249.3</ele>
        <time>2024-08-14T10:49:00Z</time>
      </trkpt>
      <trkpt lat="44.64156" lon="2.56539">
        <ele>249</ele>
        <time>2024-08-14T10:49:01Z</time>
      </trkpt>
      <trkpt lat="44.64159" lon="2.56536">
        <ele>248.6</ele>
        <time>2024-08-14T10:49:02Z</time>
      </trkpt>
      <trkpt lat="44.64162" lon="2.56532">
        <ele>248</ele>
        <time>2024-08-14T10:49:03Z</time>
      </trkpt>
      <trkpt lat="44.64166" lon="2.56525">
        <ele>247.3</ele>
        <time>2024-08-14T10:49:04Z</time>
      </trkpt>
      <trkpt lat="44.64172" lon="2.56511">
        <ele>245.9</ele>
        <time>2024-08-14T10:49:06Z</time>
      </trkpt>
      <trkpt lat="44.64174" lon="2.56504">
        <ele>245.3</ele>
        <time>2024-08-14T10:49:07Z</time>
      </trkpt>
      <trkpt lat="44.64177" lon="2.56497">
        <ele>244.6</ele>
        <time>2024-08-14T10:49:08Z</time>
      </trkpt>
      <trkpt lat="44.64179" lon="2.56491">
        <ele>243.9</ele>
        <time>2024-08-14T10:49:09Z</time>
      </trkpt>
      <trkpt lat="44.64182" lon="2.56485">
        <ele>243.2</ele>
        <time>2024-08-14T10:49:10Z</time>
      </trkpt>
      <trkpt lat="44.64188" lon="2.56473">
        <ele>238.6</ele>
        <time>2024-08-14T10:49:12Z</time>
      </trkpt>
      <trkpt lat="44.6419" lon="2.56468">
        <ele>236.7</ele>
        <time>2024-08-14T10:49:13Z</time>
      </trkpt>
      <trkpt lat="44.64192" lon="2.56463">
        <ele>235</ele>
        <time>2024-08-14T10:49:14Z</time>
      </trkpt>
      <trkpt lat="44.64196" lon="2.5646">
        <ele>233.5</ele>
        <time>2024-08-14T10:49:16Z</time>
      </trkpt>
      <trkpt lat="44.64202" lon="2.56469">
        <ele>234.8</ele>
        <time>2024-08-14T10:49:18Z</time>
      </trkpt>
      <trkpt lat="44.64203" lon="2.56473">
        <ele>235.2</ele>
        <time>2024-08-14T10:49:19Z</time>
      </trkpt>
      <trkpt lat="44.64203" lon="2.56476">
        <ele>235.6</ele>
        <time>2024-08-14T10:49:20Z</time>
      </trkpt>
      <trkpt lat="44.64203" lon="2.56477">
        <ele>235.7</ele>
        <time>2024-08-14T10:49:22Z</time>
      </trkpt>
      <trkpt lat="44.64202" lon="2.56483">
        <ele>236.5</ele>
        <time>2024-08-14T10:49:28Z</time>
      </trkpt>
      <trkpt lat="44.64202" lon="2.56492">
        <ele>237.7</ele>
        <time>2024-08-14T10:49:30Z</time>
      </trkpt>
      <trkpt lat="44.64202" lon="2.56501">
        <ele>238.4</ele>
        <time>2024-08-14T10:49:32Z</time>
      </trkpt>
      <trkpt lat="44.64204" lon="2.5651">
        <ele>238</ele>
        <time>2024-08-14T10:49:34Z</time>
      </trkpt>
      <trkpt lat="44.64205" lon="2.56516">
        <ele>237.7</ele>
        <time>2024-08-14T10:49:35Z</time>
      </trkpt>
      <trkpt lat="44.64207" lon="2.56522">
        <ele>237.4</ele>
        <time>2024-08-14T10:49:36Z</time>
      </trkpt>
      <trkpt lat="44.64211" lon="2.56536">
        <ele>236.7</ele>
        <time>2024-08-14T10:49:38Z</time>
      </trkpt>
      <trkpt lat="44.64215" lon="2.5655">
        <ele>236</ele>
        <time>2024-08-14T10:49:40Z</time>
      </trkpt>
      <trkpt lat="44.64225" lon="2.56553">
        <ele>235.2</ele>
        <time>2024-08-14T10:49:42Z</time>
      </trkpt>
      <trkpt lat="44.64237" lon="2.56548">
        <ele>234.2</ele>
        <time>2024-08-14T10:49:44Z</time>
      </trkpt>
      <trkpt lat="44.6425" lon="2.56543">
        <ele>233.4</ele>
        <time>2024-08-14T10:49:46Z</time>
      </trkpt>
      <trkpt lat="44.64263" lon="2.56541">
        <ele>232.6</ele>
        <time>2024-08-14T10:49:48Z</time>
      </trkpt>
      <trkpt lat="44.64272" lon="2.56541">
        <ele>232.1</ele>
        <time>2024-08-14T10:49:50Z</time>
      </trkpt>
      <trkpt lat="44.64277" lon="2.56539">
        <ele>231.8</ele>
        <time>2024-08-14T10:49:52Z</time>
      </trkpt>
      <trkpt lat="44.64282" lon="2.56537">
        <ele>231.6</ele>
        <time>2024-08-14T10:49:54Z</time>
      </trkpt>
      <trkpt lat="44.64283" lon="2.56536">
        <ele>231.5</ele>
        <time>2024-08-14T10:49:55Z</time>
      </trkpt>
      <trkpt lat="44.64285" lon="2.56534">
        <ele>231.4</ele>
        <time>2024-08-14T10:49:56Z</time>
      </trkpt>
      <trkpt lat="44.6429" lon="2.56531">
        <ele>231.1</ele>
        <time>2024-08-14T10:49:58Z</time>
      </trkpt>
      <trkpt lat="44.64297" lon="2.56528">
        <ele>230.7</ele>
        <time>2024-08-14T10:50:00Z</time>
      </trkpt>
      <trkpt lat="44.64303" lon="2.56527">
        <ele>230.4</ele>
        <time>2024-08-14T10:50:02Z</time>
      </trkpt>
      <trkpt lat="44.64309" lon="2.56525">
        <ele>230.1</ele>
        <time>2024-08-14T10:50:04Z</time>
      </trkpt>
      <trkpt lat="44.64313" lon="2.56525">
        <ele>229.8</ele>
        <time>2024-08-14T10:50:05Z</time>
      </trkpt>
      <trkpt lat="44.64317" lon="2.56525">
        <ele>229.6</ele>
        <time>2024-08-14T10:50:06Z</time>
      </trkpt>
      <trkpt lat="44.64321" lon="2.56527">
        <ele>229.5</ele>
        <time>2024-08-14T10:50:07Z</time>
      </trkpt>
      <trkpt lat="44.64325" lon="2.5653">
        <ele>229.4</ele>
        <time>2024-08-14T10:50:08Z</time>
      </trkpt>
      <trkpt lat="44.64329" lon="2.56533">
        <ele>229.3</ele>
        <time>2024-08-14T10:50:09Z</time>
      </trkpt>
      <trkpt lat="44.64333" lon="2.56537">
        <ele>229.2</ele>
        <time>2024-08-14T10:50:10Z</time>
      </trkpt>
      <trkpt lat="44.64342" lon="2.56544">
        <ele>229</ele>
        <time>2024-08-14T10:50:12Z</time>
      </trkpt>
      <trkpt lat="44.64351" lon="2.5655">
        <ele>229</ele>
        <time>2024-08-14T10:50:14Z</time>
      </trkpt>
      <trkpt lat="44.64354" lon="2.56552">
        <ele>229</ele>
        <time>2024-08-14T10:50:15Z</time>
      </trkpt>
      <trkpt lat="44.64359" lon="2.56554">
        <ele>229</ele>
        <time>2024-08-14T10:50:16Z</time>
      </trkpt>
      <trkpt lat="44.64367" lon="2.56555">
        <ele>229.1</ele>
        <time>2024-08-14T10:50:18Z</time>
      </trkpt>
      <trkpt lat="44.64373" lon="2.56556">
        <ele>229.1</ele>
        <time>2024-08-14T10:50:20Z</time>
      </trkpt>
      <trkpt lat="44.64376" lon="2.56557">
        <ele>229.2</ele>
        <time>2024-08-14T10:50:21Z</time>
      </trkpt>
      <trkpt lat="44.64379" lon="2.56557">
        <ele>229.2</ele>
        <time>2024-08-14T10:50:22Z</time>
      </trkpt>
      <trkpt lat="44.64382" lon="2.56552">
        <ele>229.7</ele>
        <time>2024-08-14T10:50:24Z</time>
      </trkpt>
      <trkpt lat="44.64383" lon="2.56545">
        <ele>230.2</ele>
        <time>2024-08-14T10:50:26Z</time>
      </trkpt>
      <trkpt lat="44.64384" lon="2.5654">
        <ele>230.5</ele>
        <time>2024-08-14T10:50:28Z</time>
      </trkpt>
      <trkpt lat="44.64386" lon="2.56536">
        <ele>230.9</ele>
        <time>2024-08-14T10:50:30Z</time>
      </trkpt>
      <trkpt lat="44.64387" lon="2.56531">
        <ele>231.3</ele>
        <time>2024-08-14T10:50:32Z</time>
      </trkpt>
      <trkpt lat="44.64388" lon="2.56526">
        <ele>231.6</ele>
        <time>2024-08-14T10:50:34Z</time>
      </trkpt>
      <trkpt lat="44.64389" lon="2.5652">
        <ele>231.7</ele>
        <time>2024-08-14T10:50:36Z</time>
      </trkpt>
      <trkpt lat="44.6439" lon="2.56518">
        <ele>231.7</ele>
        <time>2024-08-14T10:50:37Z</time>
      </trkpt>
      <trkpt lat="44.64391" lon="2.56515">
        <ele>231.7</ele>
        <time>2024-08-14T10:50:38Z</time>
      </trkpt>
      <trkpt lat="44.64393" lon="2.5651">
        <ele>231.7</ele>
        <time>2024-08-14T10:50:40Z</time>
      </trkpt>
      <trkpt lat="44.64395" lon="2.56506">
        <ele>231.6</ele>
        <time>2024-08-14T10:50:42Z</time>
      </trkpt>
      <trkpt lat="44.64396" lon="2.56502">
        <ele>231.6</ele>
        <time>2024-08-14T10:50:44Z</time>
      </trkpt>
      <trkpt lat="44.64396" lon="2.565">
        <ele>231.6</ele>
        <time>2024-08-14T10:50:45Z</time>
      </trkpt>
      <trkpt lat="44.64397" lon="2.56498">
        <ele>231.6</ele>
        <time>2024-08-14T10:50:46Z</time>
      </trkpt>
      <trkpt lat="44.64398" lon="2.56496">
        <ele>231.5</ele>
        <time>2024-08-14T10:50:48Z</time>
      </trkpt>
      <trkpt lat="44.64398" lon="2.56493">
        <ele>231.5</ele>
        <time>2024-08-14T10:50:50Z</time>
      </trkpt>
      <trkpt lat="44.64399" lon="2.56492">
        <ele>231.5</ele>
        <time>2024-08-14T10:50:52Z</time>
      </trkpt>
      <trkpt lat="44.64399" lon="2.5649">
        <ele>231.5</ele>
        <time>2024-08-14T10:50:54Z</time>
      </trkpt>
      <trkpt lat="44.64399" lon="2.56488">
        <ele>231.4</ele>
        <time>2024-08-14T10:50:56Z</time>
      </trkpt>
      <trkpt lat="44.64399" lon="2.56486">
        <ele>231.4</ele>
        <time>2024-08-14T10:50:57Z</time>
      </trkpt>
      <trkpt lat="44.644" lon="2.56485">
        <ele>231.4</ele>
        <time>2024-08-14T10:50:58Z</time>
      </trkpt>
      <trkpt lat="44.644" lon="2.56483">
        <ele>231.4</ele>
        <time>2024-08-14T10:50:59Z</time>
      </trkpt>
      <trkpt lat="44.644" lon="2.56481">
        <ele>231.4</ele>
        <time>2024-08-14T10:51:00Z</time>
      </trkpt>
      <trkpt lat="44.64401" lon="2.56478">
        <ele>231.3</ele>
        <time>2024-08-14T10:51:02Z</time>
      </trkpt>
      <trkpt lat="44.64401" lon="2.56477">
        <ele>231.3</ele>
        <time>2024-08-14T10:51:04Z</time>
      </trkpt>
      <trkpt lat="44.644" lon="2.56486">
        <ele>231.2</ele>
        <time>2024-08-14T10:52:16Z</time>
      </trkpt>
      <trkpt lat="44.644" lon="2.56488">
        <ele>231.2</ele>
        <time>2024-08-14T10:52:17Z</time>
      </trkpt>
      <trkpt lat="44.644" lon="2.56491">
        <ele>231.2</ele>
        <time>2024-08-14T10:52:18Z</time>
      </trkpt>
      <trkpt lat="44.64398" lon="2.56497">
        <ele>231.1</ele>
        <time>2024-08-14T10:52:20Z</time>
      </trkpt>
      <trkpt lat="44.64394" lon="2.56497">
        <ele>231</ele>
        <time>2024-08-14T10:52:22Z</time>
      </trkpt>
      <trkpt lat="44.64392" lon="2.56495">
        <ele>231</ele>
        <time>2024-08-14T10:52:23Z</time>
      </trkpt>
      <trkpt lat="44.64393" lon="2.56492">
        <ele>230.9</ele>
        <time>2024-08-14T10:52:24Z</time>
      </trkpt>
      <trkpt lat="44.64393" lon="2.56489">
        <ele>230.9</ele>
        <time>2024-08-14T10:52:25Z</time>
      </trkpt>
      <trkpt lat="44.64393" lon="2.56485">
        <ele>230.9</ele>
        <time>2024-08-14T10:52:26Z</time>
      </trkpt>
      <trkpt lat="44.64391" lon="2.56476">
        <ele>230.8</ele>
        <time>2024-08-14T10:52:28Z</time>
      </trkpt>
      <trkpt lat="44.64391" lon="2.56472">
        <ele>230.7</ele>
        <time>2024-08-14T10:52:29Z</time>
      </trkpt>
      <trkpt lat="44.64392" lon="2.56467">
        <ele>230.7</ele>
        <time>2024-08-14T10:52:30Z</time>
      </trkpt>
      <trkpt lat="44.64393" lon="2.56459">
        <ele>230.6</ele>
        <time>2024-08-14T10:52:32Z</time>
      </trkpt>
      <trkpt lat="44.64393" lon="2.56449">
        <ele>230.5</ele>
        <time>2024-08-14T10:52:34Z</time>
      </trkpt>
      <trkpt lat="44.64395" lon="2.5644">
        <ele>230.4</ele>
        <time>2024-08-14T10:52:36Z</time>
      </trkpt>
      <trkpt lat="44.64396" lon="2.56431">
        <ele>230.3</ele>
        <time>2024-08-14T10:52:38Z</time>
      </trkpt>
      <trkpt lat="44.64397" lon="2.56421">
        <ele>230.3</ele>
        <time>2024-08-14T10:52:40Z</time>
      </trkpt>
      <trkpt lat="44.64397" lon="2.5641">
        <ele>230.2</ele>
        <time>2024-08-14T10:52:42Z</time>
      </trkpt>
      <trkpt lat="44.64397" lon="2.56399">
        <ele>230.1</ele>
        <time>2024-08-14T10:52:44Z</time>
      </trkpt>
      <trkpt lat="44.64396" lon="2.56389">
        <ele>230.1</ele>
        <time>2024-08-14T10:52:46Z</time>
      </trkpt>
      <trkpt lat="44.64395" lon="2.5638">
        <ele>230.1</ele>
        <time>2024-08-14T10:52:48Z</time>
      </trkpt>
      <trkpt lat="44.64392" lon="2.5637">
        <ele>230.1</ele>
        <time>2024-08-14T10:52:50Z</time>
      </trkpt>
      <trkpt lat="44.6439" lon="2.56361">
        <ele>230.1</ele>
        <time>2024-08-14T10:52:52Z</time>
      </trkpt>
      <trkpt lat="44.64389" lon="2.56356">
        <ele>230.1</ele>
        <time>2024-08-14T10:52:53Z</time>
      </trkpt>
      <trkpt lat="44.64388" lon="2.56352">
        <ele>230.1</ele>
        <time>2024-08-14T10:52:54Z</time>
      </trkpt>
      <trkpt lat="44.64388" lon="2.56342">
        <ele>230.1</ele>
        <time>2024-08-14T10:52:56Z</time>
      </trkpt>
      <trkpt lat="44.64389" lon="2.56333">
        <ele>230.1</ele>
        <time>2024-08-14T10:52:58Z</time>
      </trkpt>
      <trkpt lat="44.64391" lon="2.56325">
        <ele>230.1</ele>
        <time>2024-08-14T10:53:00Z</time>
      </trkpt>
      <trkpt lat="44.64393" lon="2.56316">
        <ele>230.1</ele>
        <time>2024-08-14T10:53:02Z</time>
      </trkpt>
      <trkpt lat="44.64394" lon="2.56312">
        <ele>230.1</ele>
        <time>2024-08-14T10:53:03Z</time>
      </trkpt>
      <trkpt lat="44.64395" lon="2.56308">
        <ele>230.1</ele>
        <time>2024-08-14T10:53:04Z</time>
      </trkpt>
      <trkpt lat="44.64398" lon="2.563">
        <ele>230.1</ele>
        <time>2024-08-14T10:53:06Z</time>
      </trkpt>
      <trkpt lat="44.64398" lon="2.56293">
        <ele>230.1</ele>
        <time>2024-08-14T10:53:08Z</time>
      </trkpt>
      <trkpt lat="44.64399" lon="2.56291">
        <ele>230.1</ele>
        <time>2024-08-14T10:53:09Z</time>
      </trkpt>
      <trkpt lat="44.64399" lon="2.56291">
        <ele>230.1</ele>
        <time>2024-08-14T10:53:10Z</time>
      </trkpt>
    </trkseg>
  </trk>
</gpx>